<?xml version="1.0" encoding="UTF-8" standalone="no" ?>
<gpx xmlns="http://www.topografix.com/GPX/1/1" xmlns:xsi="http://www.w3.org/2001/XMLSchema-instance" xsi:schemaLocation="http://www.topografix.com/GPX/1/1 http://www.topografix.com/GPX/1/1/gpx.xsd" version="1.1" creator="VisuGPX - https://www.visugpx.com">
  <metadata>
    <name>reconnaissance raid lycée vaucluse 2016</name>
    <desc><![CDATA[20 km 
600 de positif]]></desc>
  </metadata>
  <trk>
    <name><![CDATA[RAID]]></name>
    <trkseg>
      <trkpt lat="43.97932" lon="4.91499">
        <ele>-67.64</ele>
        <time>2015-12-21T09:00:22Z</time>
      </trkpt>
      <trkpt lat="43.97932" lon="4.91499">
        <ele>-68.12</ele>
        <time>2015-12-21T09:00:23Z</time>
      </trkpt>
      <trkpt lat="43.97932" lon="4.91499">
        <ele>-61.39</ele>
        <time>2015-12-21T09:00:25Z</time>
      </trkpt>
      <trkpt lat="43.97931" lon="4.91499">
        <ele>-58.5</ele>
        <time>2015-12-21T09:00:26Z</time>
      </trkpt>
      <trkpt lat="43.97931" lon="4.91499">
        <ele>-55.62</ele>
        <time>2015-12-21T09:00:27Z</time>
      </trkpt>
      <trkpt lat="43.97931" lon="4.91498">
        <ele>-49.37</ele>
        <time>2015-12-21T09:00:29Z</time>
      </trkpt>
      <trkpt lat="43.97931" lon="4.91498">
        <ele>-44.08</ele>
        <time>2015-12-21T09:00:31Z</time>
      </trkpt>
      <trkpt lat="43.9793" lon="4.91497">
        <ele>-39.28</ele>
        <time>2015-12-21T09:00:33Z</time>
      </trkpt>
      <trkpt lat="43.9793" lon="4.91497">
        <ele>-35.43</ele>
        <time>2015-12-21T09:00:34Z</time>
      </trkpt>
      <trkpt lat="43.9793" lon="4.91497">
        <ele>-29.66</ele>
        <time>2015-12-21T09:00:36Z</time>
      </trkpt>
      <trkpt lat="43.97931" lon="4.91497">
        <ele>-29.66</ele>
        <time>2015-12-21T09:00:37Z</time>
      </trkpt>
      <trkpt lat="43.9793" lon="4.91497">
        <ele>-25.34</ele>
        <time>2015-12-21T09:00:39Z</time>
      </trkpt>
      <trkpt lat="43.9793" lon="4.91497">
        <ele>-21.49</ele>
        <time>2015-12-21T09:00:41Z</time>
      </trkpt>
      <trkpt lat="43.9793" lon="4.91498">
        <ele>-15.72</ele>
        <time>2015-12-21T09:00:44Z</time>
      </trkpt>
      <trkpt lat="43.9793" lon="4.91498">
        <ele>-12.36</ele>
        <time>2015-12-21T09:00:46Z</time>
      </trkpt>
      <trkpt lat="43.9793" lon="4.91498">
        <ele>-8.03</ele>
        <time>2015-12-21T09:00:49Z</time>
      </trkpt>
      <trkpt lat="43.9793" lon="4.91498">
        <ele>-0.34</ele>
        <time>2015-12-21T09:00:52Z</time>
      </trkpt>
      <trkpt lat="43.9793" lon="4.91498">
        <ele>-2.75</ele>
        <time>2015-12-21T09:00:53Z</time>
      </trkpt>
      <trkpt lat="43.9793" lon="4.91499">
        <ele>0.62</ele>
        <time>2015-12-21T09:00:56Z</time>
      </trkpt>
      <trkpt lat="43.9793" lon="4.91499">
        <ele>4.46</ele>
        <time>2015-12-21T09:00:59Z</time>
      </trkpt>
      <trkpt lat="43.9793" lon="4.915">
        <ele>8.31</ele>
        <time>2015-12-21T09:01:03Z</time>
      </trkpt>
      <trkpt lat="43.97931" lon="4.915">
        <ele>12.63</ele>
        <time>2015-12-21T09:01:08Z</time>
      </trkpt>
      <trkpt lat="43.97932" lon="4.91501">
        <ele>16</ele>
        <time>2015-12-21T09:01:11Z</time>
      </trkpt>
      <trkpt lat="43.97932" lon="4.91501">
        <ele>15.52</ele>
        <time>2015-12-21T09:01:12Z</time>
      </trkpt>
      <trkpt lat="43.97931" lon="4.91501">
        <ele>19.84</ele>
        <time>2015-12-21T09:01:18Z</time>
      </trkpt>
      <trkpt lat="43.97932" lon="4.91501">
        <ele>19.84</ele>
        <time>2015-12-21T09:01:19Z</time>
      </trkpt>
      <trkpt lat="43.97932" lon="4.91501">
        <ele>21.29</ele>
        <time>2015-12-21T09:01:22Z</time>
      </trkpt>
      <trkpt lat="43.97932" lon="4.91499">
        <ele>26.57</ele>
        <time>2015-12-21T09:01:32Z</time>
      </trkpt>
      <trkpt lat="43.97932" lon="4.91498">
        <ele>30.42</ele>
        <time>2015-12-21T09:01:47Z</time>
      </trkpt>
      <trkpt lat="43.97931" lon="4.91498">
        <ele>32.34</ele>
        <time>2015-12-21T09:02:00Z</time>
      </trkpt>
      <trkpt lat="43.97931" lon="4.91497">
        <ele>33.78</ele>
        <time>2015-12-21T09:02:13Z</time>
      </trkpt>
      <trkpt lat="43.97931" lon="4.91497">
        <ele>30.42</ele>
        <time>2015-12-21T09:02:22Z</time>
      </trkpt>
      <trkpt lat="43.97931" lon="4.91497">
        <ele>35.71</ele>
        <time>2015-12-21T09:02:23Z</time>
      </trkpt>
      <trkpt lat="43.97931" lon="4.91497">
        <ele>29.46</ele>
        <time>2015-12-21T09:02:31Z</time>
      </trkpt>
      <trkpt lat="43.97931" lon="4.91497">
        <ele>36.67</ele>
        <time>2015-12-21T09:02:32Z</time>
      </trkpt>
      <trkpt lat="43.97931" lon="4.91497">
        <ele>29.46</ele>
        <time>2015-12-21T09:02:33Z</time>
      </trkpt>
      <trkpt lat="43.97931" lon="4.91497">
        <ele>36.19</ele>
        <time>2015-12-21T09:02:34Z</time>
      </trkpt>
      <trkpt lat="43.97931" lon="4.91497">
        <ele>32.82</ele>
        <time>2015-12-21T09:02:40Z</time>
      </trkpt>
      <trkpt lat="43.97931" lon="4.91497">
        <ele>33.3</ele>
        <time>2015-12-21T09:03:00Z</time>
      </trkpt>
      <trkpt lat="43.97931" lon="4.91497">
        <ele>32.82</ele>
        <time>2015-12-21T09:03:18Z</time>
      </trkpt>
      <trkpt lat="43.97931" lon="4.91497">
        <ele>32.82</ele>
        <time>2015-12-21T09:03:35Z</time>
      </trkpt>
      <trkpt lat="43.97931" lon="4.91498">
        <ele>32.82</ele>
        <time>2015-12-21T09:03:47Z</time>
      </trkpt>
      <trkpt lat="43.9793" lon="4.91498">
        <ele>32.82</ele>
        <time>2015-12-21T09:04:09Z</time>
      </trkpt>
      <trkpt lat="43.9793" lon="4.91499">
        <ele>32.82</ele>
        <time>2015-12-21T09:04:30Z</time>
      </trkpt>
      <trkpt lat="43.97931" lon="4.915">
        <ele>32.82</ele>
        <time>2015-12-21T09:04:50Z</time>
      </trkpt>
      <trkpt lat="43.97931" lon="4.915">
        <ele>32.82</ele>
        <time>2015-12-21T09:05:13Z</time>
      </trkpt>
      <trkpt lat="43.97931" lon="4.915">
        <ele>31.86</ele>
        <time>2015-12-21T09:05:32Z</time>
      </trkpt>
      <trkpt lat="44.00801" lon="5.11859">
        <ele>169.33</ele>
        <time>2015-12-21T09:58:17Z</time>
      </trkpt>
      <trkpt lat="44.00801" lon="5.11858">
        <ele>169.33</ele>
        <time>2015-12-21T09:58:18Z</time>
      </trkpt>
      <trkpt lat="44.00801" lon="5.11859">
        <ele>172.21</ele>
        <time>2015-12-21T09:58:35Z</time>
      </trkpt>
      <trkpt lat="44.008" lon="5.1186">
        <ele>174.14</ele>
        <time>2015-12-21T09:58:50Z</time>
      </trkpt>
      <trkpt lat="44.008" lon="5.11861">
        <ele>175.58</ele>
        <time>2015-12-21T09:59:08Z</time>
      </trkpt>
      <trkpt lat="44.00801" lon="5.11862">
        <ele>177.5</ele>
        <time>2015-12-21T09:59:25Z</time>
      </trkpt>
      <trkpt lat="44.008" lon="5.1186">
        <ele>178.94</ele>
        <time>2015-12-21T09:59:41Z</time>
      </trkpt>
      <trkpt lat="44.00802" lon="5.11861">
        <ele>180.38</ele>
        <time>2015-12-21T09:59:56Z</time>
      </trkpt>
      <trkpt lat="44.00801" lon="5.1186">
        <ele>180.87</ele>
        <time>2015-12-21T10:00:12Z</time>
      </trkpt>
      <trkpt lat="44.00802" lon="5.11861">
        <ele>181.35</ele>
        <time>2015-12-21T10:00:22Z</time>
      </trkpt>
      <trkpt lat="44.00802" lon="5.11862">
        <ele>181.35</ele>
        <time>2015-12-21T10:00:41Z</time>
      </trkpt>
      <trkpt lat="44.00804" lon="5.11861">
        <ele>181.35</ele>
        <time>2015-12-21T10:00:53Z</time>
      </trkpt>
      <trkpt lat="44.00804" lon="5.11861">
        <ele>181.35</ele>
        <time>2015-12-21T10:01:06Z</time>
      </trkpt>
      <trkpt lat="44.00803" lon="5.11863">
        <ele>181.35</ele>
        <time>2015-12-21T10:01:20Z</time>
      </trkpt>
      <trkpt lat="44.00802" lon="5.11863">
        <ele>181.83</ele>
        <time>2015-12-21T10:01:24Z</time>
      </trkpt>
      <trkpt lat="44.00802" lon="5.11864">
        <ele>176.54</ele>
        <time>2015-12-21T10:01:32Z</time>
      </trkpt>
      <trkpt lat="44.00802" lon="5.11864">
        <ele>187.59</ele>
        <time>2015-12-21T10:01:33Z</time>
      </trkpt>
      <trkpt lat="44.00802" lon="5.11864">
        <ele>181.83</ele>
        <time>2015-12-21T10:01:34Z</time>
      </trkpt>
      <trkpt lat="44.00802" lon="5.11863">
        <ele>182.31</ele>
        <time>2015-12-21T10:01:46Z</time>
      </trkpt>
      <trkpt lat="44.00801" lon="5.11861">
        <ele>181.35</ele>
        <time>2015-12-21T10:01:59Z</time>
      </trkpt>
      <trkpt lat="44.00802" lon="5.11859">
        <ele>181.35</ele>
        <time>2015-12-21T10:02:15Z</time>
      </trkpt>
      <trkpt lat="44.00802" lon="5.1186">
        <ele>181.35</ele>
        <time>2015-12-21T10:02:31Z</time>
      </trkpt>
      <trkpt lat="44.00802" lon="5.11861">
        <ele>180.87</ele>
        <time>2015-12-21T10:02:51Z</time>
      </trkpt>
      <trkpt lat="44.00802" lon="5.11862">
        <ele>180.87</ele>
        <time>2015-12-21T10:03:07Z</time>
      </trkpt>
      <trkpt lat="44.00802" lon="5.11862">
        <ele>180.87</ele>
        <time>2015-12-21T10:03:23Z</time>
      </trkpt>
      <trkpt lat="44.00802" lon="5.11862">
        <ele>180.87</ele>
        <time>2015-12-21T10:03:37Z</time>
      </trkpt>
      <trkpt lat="44.00802" lon="5.11862">
        <ele>180.87</ele>
        <time>2015-12-21T10:03:50Z</time>
      </trkpt>
      <trkpt lat="44.00801" lon="5.11863">
        <ele>181.83</ele>
        <time>2015-12-21T10:03:59Z</time>
      </trkpt>
      <trkpt lat="44.00801" lon="5.11862">
        <ele>181.83</ele>
        <time>2015-12-21T10:04:07Z</time>
      </trkpt>
      <trkpt lat="44.00801" lon="5.11863">
        <ele>181.83</ele>
        <time>2015-12-21T10:04:17Z</time>
      </trkpt>
      <trkpt lat="44.00802" lon="5.11862">
        <ele>181.83</ele>
        <time>2015-12-21T10:04:27Z</time>
      </trkpt>
      <trkpt lat="44.00801" lon="5.11861">
        <ele>181.35</ele>
        <time>2015-12-21T10:04:38Z</time>
      </trkpt>
      <trkpt lat="44.00801" lon="5.11861">
        <ele>181.83</ele>
        <time>2015-12-21T10:04:56Z</time>
      </trkpt>
      <trkpt lat="44.00801" lon="5.11861">
        <ele>181.83</ele>
        <time>2015-12-21T10:05:13Z</time>
      </trkpt>
      <trkpt lat="44.00802" lon="5.11861">
        <ele>181.83</ele>
        <time>2015-12-21T10:05:26Z</time>
      </trkpt>
      <trkpt lat="44.00801" lon="5.11861">
        <ele>181.83</ele>
        <time>2015-12-21T10:05:33Z</time>
      </trkpt>
      <trkpt lat="44.00804" lon="5.11862">
        <ele>181.83</ele>
        <time>2015-12-21T10:05:40Z</time>
      </trkpt>
      <trkpt lat="44.00803" lon="5.11862">
        <ele>181.83</ele>
        <time>2015-12-21T10:05:46Z</time>
      </trkpt>
      <trkpt lat="44.00802" lon="5.11861">
        <ele>181.83</ele>
        <time>2015-12-21T10:06:02Z</time>
      </trkpt>
      <trkpt lat="44.00802" lon="5.11861">
        <ele>181.83</ele>
        <time>2015-12-21T10:06:13Z</time>
      </trkpt>
      <trkpt lat="44.00802" lon="5.1186">
        <ele>181.83</ele>
        <time>2015-12-21T10:06:26Z</time>
      </trkpt>
      <trkpt lat="44.00802" lon="5.1186">
        <ele>181.83</ele>
        <time>2015-12-21T10:06:38Z</time>
      </trkpt>
      <trkpt lat="44.00802" lon="5.1186">
        <ele>181.83</ele>
        <time>2015-12-21T10:06:49Z</time>
      </trkpt>
      <trkpt lat="44.00802" lon="5.11858">
        <ele>181.83</ele>
        <time>2015-12-21T10:06:56Z</time>
      </trkpt>
      <trkpt lat="44.00803" lon="5.11858">
        <ele>181.83</ele>
        <time>2015-12-21T10:07:07Z</time>
      </trkpt>
      <trkpt lat="44.00804" lon="5.11858">
        <ele>181.83</ele>
        <time>2015-12-21T10:07:15Z</time>
      </trkpt>
      <trkpt lat="44.00806" lon="5.11859">
        <ele>181.83</ele>
        <time>2015-12-21T10:07:17Z</time>
      </trkpt>
      <trkpt lat="44.00811" lon="5.11853">
        <ele>181.83</ele>
        <time>2015-12-21T10:07:23Z</time>
      </trkpt>
      <trkpt lat="44.00811" lon="5.11853">
        <ele>181.83</ele>
        <time>2015-12-21T10:07:24Z</time>
      </trkpt>
      <trkpt lat="44.00803" lon="5.11867">
        <ele>181.83</ele>
        <time>2015-12-21T10:07:31Z</time>
      </trkpt>
      <trkpt lat="44.00786" lon="5.11884">
        <ele>182.31</ele>
        <time>2015-12-21T10:07:40Z</time>
      </trkpt>
      <trkpt lat="44.00769" lon="5.11901">
        <ele>182.31</ele>
        <time>2015-12-21T10:07:48Z</time>
      </trkpt>
      <trkpt lat="44.00748" lon="5.11923">
        <ele>182.31</ele>
        <time>2015-12-21T10:07:58Z</time>
      </trkpt>
      <trkpt lat="44.00727" lon="5.11943">
        <ele>181.35</ele>
        <time>2015-12-21T10:08:06Z</time>
      </trkpt>
      <trkpt lat="44.00711" lon="5.11955">
        <ele>180.87</ele>
        <time>2015-12-21T10:08:12Z</time>
      </trkpt>
      <trkpt lat="44.00694" lon="5.1197">
        <ele>179.42</ele>
        <time>2015-12-21T10:08:18Z</time>
      </trkpt>
      <trkpt lat="44.00681" lon="5.1198">
        <ele>178.46</ele>
        <time>2015-12-21T10:08:25Z</time>
      </trkpt>
      <trkpt lat="44.00671" lon="5.11985">
        <ele>178.94</ele>
        <time>2015-12-21T10:08:30Z</time>
      </trkpt>
      <trkpt lat="44.00653" lon="5.11995">
        <ele>180.38</ele>
        <time>2015-12-21T10:08:40Z</time>
      </trkpt>
      <trkpt lat="44.00639" lon="5.12008">
        <ele>181.35</ele>
        <time>2015-12-21T10:08:49Z</time>
      </trkpt>
      <trkpt lat="44.00634" lon="5.12024">
        <ele>182.31</ele>
        <time>2015-12-21T10:08:56Z</time>
      </trkpt>
      <trkpt lat="44.00631" lon="5.12045">
        <ele>183.27</ele>
        <time>2015-12-21T10:09:04Z</time>
      </trkpt>
      <trkpt lat="44.00623" lon="5.12054">
        <ele>184.71</ele>
        <time>2015-12-21T10:09:10Z</time>
      </trkpt>
      <trkpt lat="44.00611" lon="5.12062">
        <ele>185.67</ele>
        <time>2015-12-21T10:09:17Z</time>
      </trkpt>
      <trkpt lat="44.006" lon="5.12072">
        <ele>187.11</ele>
        <time>2015-12-21T10:09:24Z</time>
      </trkpt>
      <trkpt lat="44.0059" lon="5.1209">
        <ele>189.04</ele>
        <time>2015-12-21T10:09:32Z</time>
      </trkpt>
      <trkpt lat="44.00581" lon="5.12106">
        <ele>190.48</ele>
        <time>2015-12-21T10:09:40Z</time>
      </trkpt>
      <trkpt lat="44.00571" lon="5.12115">
        <ele>191.44</ele>
        <time>2015-12-21T10:09:46Z</time>
      </trkpt>
      <trkpt lat="44.00561" lon="5.12112">
        <ele>191.92</ele>
        <time>2015-12-21T10:09:51Z</time>
      </trkpt>
      <trkpt lat="44.00553" lon="5.12101">
        <ele>193.36</ele>
        <time>2015-12-21T10:09:57Z</time>
      </trkpt>
      <trkpt lat="44.00542" lon="5.12088">
        <ele>194.8</ele>
        <time>2015-12-21T10:10:05Z</time>
      </trkpt>
      <trkpt lat="44.0054" lon="5.12087">
        <ele>194.32</ele>
        <time>2015-12-21T10:10:06Z</time>
      </trkpt>
      <trkpt lat="44.00524" lon="5.12085">
        <ele>195.77</ele>
        <time>2015-12-21T10:10:15Z</time>
      </trkpt>
      <trkpt lat="44.00509" lon="5.12087">
        <ele>197.21</ele>
        <time>2015-12-21T10:10:24Z</time>
      </trkpt>
      <trkpt lat="44.00494" lon="5.12092">
        <ele>198.65</ele>
        <time>2015-12-21T10:10:31Z</time>
      </trkpt>
      <trkpt lat="44.00486" lon="5.12096">
        <ele>199.13</ele>
        <time>2015-12-21T10:10:36Z</time>
      </trkpt>
      <trkpt lat="44.00475" lon="5.12108">
        <ele>199.61</ele>
        <time>2015-12-21T10:10:44Z</time>
      </trkpt>
      <trkpt lat="44.00462" lon="5.12123">
        <ele>200.57</ele>
        <time>2015-12-21T10:10:52Z</time>
      </trkpt>
      <trkpt lat="44.00449" lon="5.1214">
        <ele>202.01</ele>
        <time>2015-12-21T10:11:02Z</time>
      </trkpt>
      <trkpt lat="44.00435" lon="5.12157">
        <ele>202.98</ele>
        <time>2015-12-21T10:11:12Z</time>
      </trkpt>
      <trkpt lat="44.00425" lon="5.1217">
        <ele>203.94</ele>
        <time>2015-12-21T10:11:19Z</time>
      </trkpt>
      <trkpt lat="44.00416" lon="5.12183">
        <ele>204.9</ele>
        <time>2015-12-21T10:11:27Z</time>
      </trkpt>
      <trkpt lat="44.00403" lon="5.12203">
        <ele>205.86</ele>
        <time>2015-12-21T10:11:37Z</time>
      </trkpt>
      <trkpt lat="44.00392" lon="5.12224">
        <ele>207.78</ele>
        <time>2015-12-21T10:11:47Z</time>
      </trkpt>
      <trkpt lat="44.00385" lon="5.12241">
        <ele>208.74</ele>
        <time>2015-12-21T10:11:54Z</time>
      </trkpt>
      <trkpt lat="44.00375" lon="5.12259">
        <ele>210.67</ele>
        <time>2015-12-21T10:12:02Z</time>
      </trkpt>
      <trkpt lat="44.00364" lon="5.12276">
        <ele>212.59</ele>
        <time>2015-12-21T10:12:10Z</time>
      </trkpt>
      <trkpt lat="44.00354" lon="5.123">
        <ele>213.55</ele>
        <time>2015-12-21T10:12:20Z</time>
      </trkpt>
      <trkpt lat="44.00342" lon="5.12322">
        <ele>214.03</ele>
        <time>2015-12-21T10:12:30Z</time>
      </trkpt>
      <trkpt lat="44.0033" lon="5.12343">
        <ele>214.99</ele>
        <time>2015-12-21T10:12:39Z</time>
      </trkpt>
      <trkpt lat="44.00322" lon="5.12359">
        <ele>215.47</ele>
        <time>2015-12-21T10:12:46Z</time>
      </trkpt>
      <trkpt lat="44.00312" lon="5.12379">
        <ele>216.91</ele>
        <time>2015-12-21T10:12:55Z</time>
      </trkpt>
      <trkpt lat="44.00306" lon="5.12391">
        <ele>217.88</ele>
        <time>2015-12-21T10:13:02Z</time>
      </trkpt>
      <trkpt lat="44.00302" lon="5.12395">
        <ele>217.88</ele>
        <time>2015-12-21T10:13:08Z</time>
      </trkpt>
      <trkpt lat="44.00302" lon="5.12396">
        <ele>217.88</ele>
        <time>2015-12-21T10:13:10Z</time>
      </trkpt>
      <trkpt lat="44.00292" lon="5.12406">
        <ele>218.84</ele>
        <time>2015-12-21T10:13:16Z</time>
      </trkpt>
      <trkpt lat="44.0029" lon="5.12409">
        <ele>218.84</ele>
        <time>2015-12-21T10:13:17Z</time>
      </trkpt>
      <trkpt lat="44.00268" lon="5.12426">
        <ele>220.76</ele>
        <time>2015-12-21T10:13:26Z</time>
      </trkpt>
      <trkpt lat="44.00249" lon="5.1243">
        <ele>221.72</ele>
        <time>2015-12-21T10:13:35Z</time>
      </trkpt>
      <trkpt lat="44.00228" lon="5.12425">
        <ele>222.68</ele>
        <time>2015-12-21T10:13:43Z</time>
      </trkpt>
      <trkpt lat="44.00204" lon="5.12419">
        <ele>223.64</ele>
        <time>2015-12-21T10:13:51Z</time>
      </trkpt>
      <trkpt lat="44.00185" lon="5.12407">
        <ele>224.61</ele>
        <time>2015-12-21T10:14:00Z</time>
      </trkpt>
      <trkpt lat="44.0017" lon="5.12393">
        <ele>226.05</ele>
        <time>2015-12-21T10:14:08Z</time>
      </trkpt>
      <trkpt lat="44.00167" lon="5.12391">
        <ele>226.53</ele>
        <time>2015-12-21T10:14:13Z</time>
      </trkpt>
      <trkpt lat="44.00167" lon="5.1239">
        <ele>226.05</ele>
        <time>2015-12-21T10:14:22Z</time>
      </trkpt>
      <trkpt lat="44.00167" lon="5.1239">
        <ele>226.05</ele>
        <time>2015-12-21T10:14:30Z</time>
      </trkpt>
      <trkpt lat="44.00166" lon="5.1239">
        <ele>226.05</ele>
        <time>2015-12-21T10:14:41Z</time>
      </trkpt>
      <trkpt lat="44.00165" lon="5.1239">
        <ele>226.05</ele>
        <time>2015-12-21T10:15:00Z</time>
      </trkpt>
      <trkpt lat="44.00166" lon="5.12389">
        <ele>226.05</ele>
        <time>2015-12-21T10:15:20Z</time>
      </trkpt>
      <trkpt lat="44.00166" lon="5.12389">
        <ele>226.05</ele>
        <time>2015-12-21T10:15:33Z</time>
      </trkpt>
      <trkpt lat="44.00166" lon="5.12389">
        <ele>226.05</ele>
        <time>2015-12-21T10:15:48Z</time>
      </trkpt>
      <trkpt lat="44.00167" lon="5.12388">
        <ele>226.05</ele>
        <time>2015-12-21T10:16:04Z</time>
      </trkpt>
      <trkpt lat="44.00167" lon="5.12388">
        <ele>225.57</ele>
        <time>2015-12-21T10:16:19Z</time>
      </trkpt>
      <trkpt lat="44.00168" lon="5.12387">
        <ele>224.61</ele>
        <time>2015-12-21T10:16:34Z</time>
      </trkpt>
      <trkpt lat="44.00168" lon="5.12386">
        <ele>225.09</ele>
        <time>2015-12-21T10:16:53Z</time>
      </trkpt>
      <trkpt lat="44.00168" lon="5.12386">
        <ele>225.09</ele>
        <time>2015-12-21T10:17:14Z</time>
      </trkpt>
      <trkpt lat="44.00168" lon="5.12386">
        <ele>224.61</ele>
        <time>2015-12-21T10:17:37Z</time>
      </trkpt>
      <trkpt lat="44.00168" lon="5.12386">
        <ele>225.57</ele>
        <time>2015-12-21T10:17:51Z</time>
      </trkpt>
      <trkpt lat="44.00169" lon="5.12387">
        <ele>226.05</ele>
        <time>2015-12-21T10:17:59Z</time>
      </trkpt>
      <trkpt lat="44.00168" lon="5.12387">
        <ele>226.05</ele>
        <time>2015-12-21T10:18:08Z</time>
      </trkpt>
      <trkpt lat="44.00168" lon="5.12386">
        <ele>226.05</ele>
        <time>2015-12-21T10:18:22Z</time>
      </trkpt>
      <trkpt lat="44.00168" lon="5.12387">
        <ele>226.05</ele>
        <time>2015-12-21T10:18:29Z</time>
      </trkpt>
      <trkpt lat="44.00167" lon="5.12385">
        <ele>226.05</ele>
        <time>2015-12-21T10:18:31Z</time>
      </trkpt>
      <trkpt lat="44.00163" lon="5.12378">
        <ele>225.57</ele>
        <time>2015-12-21T10:18:35Z</time>
      </trkpt>
      <trkpt lat="44.00154" lon="5.12362">
        <ele>224.61</ele>
        <time>2015-12-21T10:18:42Z</time>
      </trkpt>
      <trkpt lat="44.00153" lon="5.12361">
        <ele>224.12</ele>
        <time>2015-12-21T10:18:48Z</time>
      </trkpt>
      <trkpt lat="44.00152" lon="5.12361">
        <ele>224.12</ele>
        <time>2015-12-21T10:18:57Z</time>
      </trkpt>
      <trkpt lat="44.00152" lon="5.12361">
        <ele>224.12</ele>
        <time>2015-12-21T10:19:14Z</time>
      </trkpt>
      <trkpt lat="44.00153" lon="5.1236">
        <ele>225.09</ele>
        <time>2015-12-21T10:19:27Z</time>
      </trkpt>
      <trkpt lat="44.00154" lon="5.12358">
        <ele>224.12</ele>
        <time>2015-12-21T10:19:39Z</time>
      </trkpt>
      <trkpt lat="44.00154" lon="5.12357">
        <ele>224.61</ele>
        <time>2015-12-21T10:19:51Z</time>
      </trkpt>
      <trkpt lat="44.00155" lon="5.12357">
        <ele>224.61</ele>
        <time>2015-12-21T10:20:04Z</time>
      </trkpt>
      <trkpt lat="44.00155" lon="5.12357">
        <ele>224.12</ele>
        <time>2015-12-21T10:20:14Z</time>
      </trkpt>
      <trkpt lat="44.00155" lon="5.12357">
        <ele>224.12</ele>
        <time>2015-12-21T10:20:18Z</time>
      </trkpt>
      <trkpt lat="44.00147" lon="5.12345">
        <ele>223.64</ele>
        <time>2015-12-21T10:20:24Z</time>
      </trkpt>
      <trkpt lat="44.00141" lon="5.12341">
        <ele>222.68</ele>
        <time>2015-12-21T10:20:27Z</time>
      </trkpt>
      <trkpt lat="44.0012" lon="5.12349">
        <ele>222.2</ele>
        <time>2015-12-21T10:20:35Z</time>
      </trkpt>
      <trkpt lat="44.00113" lon="5.12348">
        <ele>221.72</ele>
        <time>2015-12-21T10:20:38Z</time>
      </trkpt>
      <trkpt lat="44.00104" lon="5.12336">
        <ele>220.76</ele>
        <time>2015-12-21T10:20:42Z</time>
      </trkpt>
      <trkpt lat="44.00097" lon="5.1232">
        <ele>220.76</ele>
        <time>2015-12-21T10:20:49Z</time>
      </trkpt>
      <trkpt lat="44.00093" lon="5.12315">
        <ele>221.24</ele>
        <time>2015-12-21T10:20:52Z</time>
      </trkpt>
      <trkpt lat="44.00087" lon="5.12315">
        <ele>222.2</ele>
        <time>2015-12-21T10:20:57Z</time>
      </trkpt>
      <trkpt lat="44.00083" lon="5.12315">
        <ele>222.68</ele>
        <time>2015-12-21T10:21:00Z</time>
      </trkpt>
      <trkpt lat="44.00065" lon="5.12323">
        <ele>224.61</ele>
        <time>2015-12-21T10:21:09Z</time>
      </trkpt>
      <trkpt lat="44.00057" lon="5.12317">
        <ele>225.57</ele>
        <time>2015-12-21T10:21:14Z</time>
      </trkpt>
      <trkpt lat="44.00053" lon="5.12311">
        <ele>227.01</ele>
        <time>2015-12-21T10:21:18Z</time>
      </trkpt>
      <trkpt lat="44.00045" lon="5.12306">
        <ele>227.97</ele>
        <time>2015-12-21T10:21:24Z</time>
      </trkpt>
      <trkpt lat="44.00038" lon="5.12292">
        <ele>228.93</ele>
        <time>2015-12-21T10:21:32Z</time>
      </trkpt>
      <trkpt lat="44.00038" lon="5.1229">
        <ele>229.41</ele>
        <time>2015-12-21T10:21:33Z</time>
      </trkpt>
      <trkpt lat="44.00038" lon="5.12287">
        <ele>229.89</ele>
        <time>2015-12-21T10:21:39Z</time>
      </trkpt>
      <trkpt lat="44.00032" lon="5.1228">
        <ele>231.33</ele>
        <time>2015-12-21T10:21:47Z</time>
      </trkpt>
      <trkpt lat="44.0003" lon="5.12275">
        <ele>233.26</ele>
        <time>2015-12-21T10:21:52Z</time>
      </trkpt>
      <trkpt lat="44.00027" lon="5.12266">
        <ele>233.26</ele>
        <time>2015-12-21T10:22:00Z</time>
      </trkpt>
      <trkpt lat="44.00026" lon="5.12261">
        <ele>234.7</ele>
        <time>2015-12-21T10:22:06Z</time>
      </trkpt>
      <trkpt lat="44.0003" lon="5.12253">
        <ele>235.66</ele>
        <time>2015-12-21T10:22:12Z</time>
      </trkpt>
      <trkpt lat="44.00032" lon="5.12246">
        <ele>236.14</ele>
        <time>2015-12-21T10:22:19Z</time>
      </trkpt>
      <trkpt lat="44.00032" lon="5.12244">
        <ele>236.14</ele>
        <time>2015-12-21T10:22:32Z</time>
      </trkpt>
      <trkpt lat="44.00032" lon="5.12243">
        <ele>236.14</ele>
        <time>2015-12-21T10:22:41Z</time>
      </trkpt>
      <trkpt lat="44.00032" lon="5.12241">
        <ele>236.62</ele>
        <time>2015-12-21T10:22:56Z</time>
      </trkpt>
      <trkpt lat="44.00032" lon="5.12241">
        <ele>236.62</ele>
        <time>2015-12-21T10:23:12Z</time>
      </trkpt>
      <trkpt lat="44.00032" lon="5.12239">
        <ele>236.62</ele>
        <time>2015-12-21T10:23:22Z</time>
      </trkpt>
      <trkpt lat="44.00031" lon="5.12235">
        <ele>236.62</ele>
        <time>2015-12-21T10:23:25Z</time>
      </trkpt>
      <trkpt lat="44.00027" lon="5.12228">
        <ele>238.06</ele>
        <time>2015-12-21T10:23:34Z</time>
      </trkpt>
      <trkpt lat="44.00026" lon="5.12228">
        <ele>238.54</ele>
        <time>2015-12-21T10:23:41Z</time>
      </trkpt>
      <trkpt lat="44.00027" lon="5.12227">
        <ele>239.02</ele>
        <time>2015-12-21T10:23:53Z</time>
      </trkpt>
      <trkpt lat="44.00028" lon="5.12224">
        <ele>239.02</ele>
        <time>2015-12-21T10:24:08Z</time>
      </trkpt>
      <trkpt lat="44.00029" lon="5.12221">
        <ele>239.02</ele>
        <time>2015-12-21T10:24:21Z</time>
      </trkpt>
      <trkpt lat="44.00027" lon="5.1222">
        <ele>239.51</ele>
        <time>2015-12-21T10:24:27Z</time>
      </trkpt>
      <trkpt lat="44.00026" lon="5.12218">
        <ele>239.51</ele>
        <time>2015-12-21T10:24:29Z</time>
      </trkpt>
      <trkpt lat="44.00024" lon="5.12206">
        <ele>239.99</ele>
        <time>2015-12-21T10:24:37Z</time>
      </trkpt>
      <trkpt lat="44.00018" lon="5.12193">
        <ele>240.47</ele>
        <time>2015-12-21T10:24:45Z</time>
      </trkpt>
      <trkpt lat="44.00016" lon="5.1219">
        <ele>241.43</ele>
        <time>2015-12-21T10:24:49Z</time>
      </trkpt>
      <trkpt lat="44.00018" lon="5.1219">
        <ele>242.39</ele>
        <time>2015-12-21T10:24:55Z</time>
      </trkpt>
      <trkpt lat="44.00018" lon="5.12198">
        <ele>242.87</ele>
        <time>2015-12-21T10:25:01Z</time>
      </trkpt>
      <trkpt lat="44.00013" lon="5.12205">
        <ele>243.83</ele>
        <time>2015-12-21T10:25:05Z</time>
      </trkpt>
      <trkpt lat="43.99995" lon="5.12209">
        <ele>245.75</ele>
        <time>2015-12-21T10:25:14Z</time>
      </trkpt>
      <trkpt lat="43.9999" lon="5.1221">
        <ele>246.23</ele>
        <time>2015-12-21T10:25:17Z</time>
      </trkpt>
      <trkpt lat="43.99984" lon="5.12211">
        <ele>247.2</ele>
        <time>2015-12-21T10:25:21Z</time>
      </trkpt>
      <trkpt lat="43.9997" lon="5.12213">
        <ele>249.6</ele>
        <time>2015-12-21T10:25:29Z</time>
      </trkpt>
      <trkpt lat="43.99959" lon="5.12211">
        <ele>251.04</ele>
        <time>2015-12-21T10:25:34Z</time>
      </trkpt>
      <trkpt lat="43.99949" lon="5.12208">
        <ele>252.96</ele>
        <time>2015-12-21T10:25:41Z</time>
      </trkpt>
      <trkpt lat="43.99936" lon="5.12203">
        <ele>254.41</ele>
        <time>2015-12-21T10:25:50Z</time>
      </trkpt>
      <trkpt lat="43.99931" lon="5.12204">
        <ele>254.89</ele>
        <time>2015-12-21T10:25:53Z</time>
      </trkpt>
      <trkpt lat="43.99924" lon="5.12209">
        <ele>256.33</ele>
        <time>2015-12-21T10:26:01Z</time>
      </trkpt>
      <trkpt lat="43.99914" lon="5.12212">
        <ele>256.81</ele>
        <time>2015-12-21T10:26:09Z</time>
      </trkpt>
      <trkpt lat="43.99908" lon="5.12213">
        <ele>257.77</ele>
        <time>2015-12-21T10:26:13Z</time>
      </trkpt>
      <trkpt lat="43.99904" lon="5.12215">
        <ele>258.25</ele>
        <time>2015-12-21T10:26:17Z</time>
      </trkpt>
      <trkpt lat="43.99891" lon="5.1222">
        <ele>259.21</ele>
        <time>2015-12-21T10:26:26Z</time>
      </trkpt>
      <trkpt lat="43.99885" lon="5.12225">
        <ele>260.17</ele>
        <time>2015-12-21T10:26:34Z</time>
      </trkpt>
      <trkpt lat="43.99885" lon="5.12226">
        <ele>260.65</ele>
        <time>2015-12-21T10:26:35Z</time>
      </trkpt>
      <trkpt lat="43.99879" lon="5.12241">
        <ele>260.65</ele>
        <time>2015-12-21T10:26:45Z</time>
      </trkpt>
      <trkpt lat="43.9987" lon="5.12252">
        <ele>261.62</ele>
        <time>2015-12-21T10:26:53Z</time>
      </trkpt>
      <trkpt lat="43.9986" lon="5.12263">
        <ele>262.1</ele>
        <time>2015-12-21T10:26:59Z</time>
      </trkpt>
      <trkpt lat="43.99853" lon="5.12267">
        <ele>263.06</ele>
        <time>2015-12-21T10:27:06Z</time>
      </trkpt>
      <trkpt lat="43.99853" lon="5.12266">
        <ele>263.06</ele>
        <time>2015-12-21T10:27:15Z</time>
      </trkpt>
      <trkpt lat="43.99852" lon="5.12266">
        <ele>263.06</ele>
        <time>2015-12-21T10:27:25Z</time>
      </trkpt>
      <trkpt lat="43.99852" lon="5.12266">
        <ele>262.58</ele>
        <time>2015-12-21T10:27:36Z</time>
      </trkpt>
      <trkpt lat="43.9985" lon="5.12265">
        <ele>263.06</ele>
        <time>2015-12-21T10:27:48Z</time>
      </trkpt>
      <trkpt lat="43.9985" lon="5.12265">
        <ele>263.06</ele>
        <time>2015-12-21T10:27:59Z</time>
      </trkpt>
      <trkpt lat="43.9985" lon="5.12266">
        <ele>263.06</ele>
        <time>2015-12-21T10:28:08Z</time>
      </trkpt>
      <trkpt lat="43.9985" lon="5.12266">
        <ele>263.06</ele>
        <time>2015-12-21T10:28:19Z</time>
      </trkpt>
      <trkpt lat="43.99849" lon="5.12266">
        <ele>263.06</ele>
        <time>2015-12-21T10:28:23Z</time>
      </trkpt>
      <trkpt lat="43.99849" lon="5.12275">
        <ele>263.06</ele>
        <time>2015-12-21T10:28:29Z</time>
      </trkpt>
      <trkpt lat="43.99849" lon="5.12282">
        <ele>263.54</ele>
        <time>2015-12-21T10:28:33Z</time>
      </trkpt>
      <trkpt lat="43.99847" lon="5.12298">
        <ele>263.54</ele>
        <time>2015-12-21T10:28:40Z</time>
      </trkpt>
      <trkpt lat="43.99843" lon="5.12308">
        <ele>263.54</ele>
        <time>2015-12-21T10:28:46Z</time>
      </trkpt>
      <trkpt lat="43.99844" lon="5.12301">
        <ele>264.02</ele>
        <time>2015-12-21T10:28:50Z</time>
      </trkpt>
      <trkpt lat="43.99846" lon="5.12266">
        <ele>263.54</ele>
        <time>2015-12-21T10:28:58Z</time>
      </trkpt>
      <trkpt lat="43.99845" lon="5.12257">
        <ele>263.54</ele>
        <time>2015-12-21T10:29:01Z</time>
      </trkpt>
      <trkpt lat="43.99848" lon="5.12235">
        <ele>263.54</ele>
        <time>2015-12-21T10:29:08Z</time>
      </trkpt>
      <trkpt lat="43.9984" lon="5.12223">
        <ele>263.54</ele>
        <time>2015-12-21T10:29:14Z</time>
      </trkpt>
      <trkpt lat="43.9983" lon="5.12223">
        <ele>263.54</ele>
        <time>2015-12-21T10:29:20Z</time>
      </trkpt>
      <trkpt lat="43.9982" lon="5.12227">
        <ele>264.5</ele>
        <time>2015-12-21T10:29:26Z</time>
      </trkpt>
      <trkpt lat="43.99811" lon="5.12227">
        <ele>264.5</ele>
        <time>2015-12-21T10:29:31Z</time>
      </trkpt>
      <trkpt lat="43.99797" lon="5.1223">
        <ele>265.46</ele>
        <time>2015-12-21T10:29:39Z</time>
      </trkpt>
      <trkpt lat="43.99784" lon="5.12231">
        <ele>265.94</ele>
        <time>2015-12-21T10:29:46Z</time>
      </trkpt>
      <trkpt lat="43.99772" lon="5.12236">
        <ele>267.38</ele>
        <time>2015-12-21T10:29:53Z</time>
      </trkpt>
      <trkpt lat="43.9977" lon="5.12237">
        <ele>267.38</ele>
        <time>2015-12-21T10:29:55Z</time>
      </trkpt>
      <trkpt lat="43.99765" lon="5.12236">
        <ele>267.86</ele>
        <time>2015-12-21T10:29:58Z</time>
      </trkpt>
      <trkpt lat="43.99752" lon="5.12239">
        <ele>269.31</ele>
        <time>2015-12-21T10:30:05Z</time>
      </trkpt>
      <trkpt lat="43.99742" lon="5.12242">
        <ele>269.79</ele>
        <time>2015-12-21T10:30:12Z</time>
      </trkpt>
      <trkpt lat="43.99742" lon="5.12241">
        <ele>269.79</ele>
        <time>2015-12-21T10:30:19Z</time>
      </trkpt>
      <trkpt lat="43.99741" lon="5.12241">
        <ele>269.31</ele>
        <time>2015-12-21T10:30:27Z</time>
      </trkpt>
      <trkpt lat="43.99741" lon="5.1224">
        <ele>268.35</ele>
        <time>2015-12-21T10:30:40Z</time>
      </trkpt>
      <trkpt lat="43.99741" lon="5.1224">
        <ele>269.79</ele>
        <time>2015-12-21T10:30:55Z</time>
      </trkpt>
      <trkpt lat="43.99741" lon="5.1224">
        <ele>269.79</ele>
        <time>2015-12-21T10:31:04Z</time>
      </trkpt>
      <trkpt lat="43.99735" lon="5.12238">
        <ele>270.27</ele>
        <time>2015-12-21T10:31:08Z</time>
      </trkpt>
      <trkpt lat="43.99721" lon="5.12234">
        <ele>270.75</ele>
        <time>2015-12-21T10:31:14Z</time>
      </trkpt>
      <trkpt lat="43.99703" lon="5.12228">
        <ele>271.71</ele>
        <time>2015-12-21T10:31:22Z</time>
      </trkpt>
      <trkpt lat="43.997" lon="5.12226">
        <ele>271.71</ele>
        <time>2015-12-21T10:31:24Z</time>
      </trkpt>
      <trkpt lat="43.9969" lon="5.12223">
        <ele>273.15</ele>
        <time>2015-12-21T10:31:29Z</time>
      </trkpt>
      <trkpt lat="43.99675" lon="5.12219">
        <ele>273.15</ele>
        <time>2015-12-21T10:31:38Z</time>
      </trkpt>
      <trkpt lat="43.99674" lon="5.12219">
        <ele>273.15</ele>
        <time>2015-12-21T10:31:44Z</time>
      </trkpt>
      <trkpt lat="43.99674" lon="5.12217">
        <ele>273.63</ele>
        <time>2015-12-21T10:31:58Z</time>
      </trkpt>
      <trkpt lat="43.99674" lon="5.12216">
        <ele>273.63</ele>
        <time>2015-12-21T10:32:12Z</time>
      </trkpt>
      <trkpt lat="43.99674" lon="5.12216">
        <ele>273.63</ele>
        <time>2015-12-21T10:32:25Z</time>
      </trkpt>
      <trkpt lat="43.99674" lon="5.12215">
        <ele>273.15</ele>
        <time>2015-12-21T10:32:40Z</time>
      </trkpt>
      <trkpt lat="43.99674" lon="5.12214">
        <ele>273.63</ele>
        <time>2015-12-21T10:33:00Z</time>
      </trkpt>
      <trkpt lat="43.99674" lon="5.12215">
        <ele>273.63</ele>
        <time>2015-12-21T10:33:16Z</time>
      </trkpt>
      <trkpt lat="43.99674" lon="5.12215">
        <ele>273.63</ele>
        <time>2015-12-21T10:33:30Z</time>
      </trkpt>
      <trkpt lat="43.99674" lon="5.12215">
        <ele>274.11</ele>
        <time>2015-12-21T10:33:48Z</time>
      </trkpt>
      <trkpt lat="43.99674" lon="5.12215">
        <ele>273.63</ele>
        <time>2015-12-21T10:34:02Z</time>
      </trkpt>
      <trkpt lat="43.99673" lon="5.12215">
        <ele>273.63</ele>
        <time>2015-12-21T10:34:09Z</time>
      </trkpt>
      <trkpt lat="43.99674" lon="5.12215">
        <ele>273.63</ele>
        <time>2015-12-21T10:34:25Z</time>
      </trkpt>
      <trkpt lat="43.99673" lon="5.12216">
        <ele>274.11</ele>
        <time>2015-12-21T10:34:33Z</time>
      </trkpt>
      <trkpt lat="43.99673" lon="5.12217">
        <ele>274.11</ele>
        <time>2015-12-21T10:34:35Z</time>
      </trkpt>
      <trkpt lat="43.99666" lon="5.12227">
        <ele>275.56</ele>
        <time>2015-12-21T10:34:42Z</time>
      </trkpt>
      <trkpt lat="43.99664" lon="5.12229">
        <ele>276.04</ele>
        <time>2015-12-21T10:34:43Z</time>
      </trkpt>
      <trkpt lat="43.99653" lon="5.12245">
        <ele>276.52</ele>
        <time>2015-12-21T10:34:51Z</time>
      </trkpt>
      <trkpt lat="43.99649" lon="5.12262">
        <ele>277</ele>
        <time>2015-12-21T10:34:58Z</time>
      </trkpt>
      <trkpt lat="43.99641" lon="5.12276">
        <ele>277.96</ele>
        <time>2015-12-21T10:35:05Z</time>
      </trkpt>
      <trkpt lat="43.99637" lon="5.12299">
        <ele>279.88</ele>
        <time>2015-12-21T10:35:13Z</time>
      </trkpt>
      <trkpt lat="43.9963" lon="5.12313">
        <ele>281.32</ele>
        <time>2015-12-21T10:35:20Z</time>
      </trkpt>
      <trkpt lat="43.99629" lon="5.12319">
        <ele>281.8</ele>
        <time>2015-12-21T10:35:23Z</time>
      </trkpt>
      <trkpt lat="43.99621" lon="5.12326">
        <ele>283.25</ele>
        <time>2015-12-21T10:35:30Z</time>
      </trkpt>
      <trkpt lat="43.99621" lon="5.12326">
        <ele>283.25</ele>
        <time>2015-12-21T10:35:31Z</time>
      </trkpt>
      <trkpt lat="43.99615" lon="5.12331">
        <ele>283.73</ele>
        <time>2015-12-21T10:35:37Z</time>
      </trkpt>
      <trkpt lat="43.99614" lon="5.12335">
        <ele>283.73</ele>
        <time>2015-12-21T10:35:40Z</time>
      </trkpt>
      <trkpt lat="43.99609" lon="5.12341">
        <ele>284.21</ele>
        <time>2015-12-21T10:35:45Z</time>
      </trkpt>
      <trkpt lat="43.99596" lon="5.12352">
        <ele>285.17</ele>
        <time>2015-12-21T10:35:52Z</time>
      </trkpt>
      <trkpt lat="43.9959" lon="5.12368">
        <ele>285.17</ele>
        <time>2015-12-21T10:35:58Z</time>
      </trkpt>
      <trkpt lat="43.99581" lon="5.12388">
        <ele>286.13</ele>
        <time>2015-12-21T10:36:05Z</time>
      </trkpt>
      <trkpt lat="43.99572" lon="5.12404">
        <ele>286.13</ele>
        <time>2015-12-21T10:36:12Z</time>
      </trkpt>
      <trkpt lat="43.99571" lon="5.12406">
        <ele>286.61</ele>
        <time>2015-12-21T10:36:13Z</time>
      </trkpt>
      <trkpt lat="43.99569" lon="5.12415">
        <ele>287.09</ele>
        <time>2015-12-21T10:36:17Z</time>
      </trkpt>
      <trkpt lat="43.99565" lon="5.12421">
        <ele>286.61</ele>
        <time>2015-12-21T10:36:23Z</time>
      </trkpt>
      <trkpt lat="43.99564" lon="5.12422">
        <ele>286.61</ele>
        <time>2015-12-21T10:36:36Z</time>
      </trkpt>
      <trkpt lat="43.99564" lon="5.12422">
        <ele>286.61</ele>
        <time>2015-12-21T10:36:49Z</time>
      </trkpt>
      <trkpt lat="43.99563" lon="5.12422">
        <ele>286.61</ele>
        <time>2015-12-21T10:37:01Z</time>
      </trkpt>
      <trkpt lat="43.99562" lon="5.12422">
        <ele>287.09</ele>
        <time>2015-12-21T10:37:17Z</time>
      </trkpt>
      <trkpt lat="43.99559" lon="5.12423">
        <ele>287.09</ele>
        <time>2015-12-21T10:37:26Z</time>
      </trkpt>
      <trkpt lat="43.99555" lon="5.12427">
        <ele>287.57</ele>
        <time>2015-12-21T10:37:31Z</time>
      </trkpt>
      <trkpt lat="43.99548" lon="5.12429">
        <ele>287.57</ele>
        <time>2015-12-21T10:37:35Z</time>
      </trkpt>
      <trkpt lat="43.99546" lon="5.12431">
        <ele>287.57</ele>
        <time>2015-12-21T10:37:39Z</time>
      </trkpt>
      <trkpt lat="43.99543" lon="5.12432">
        <ele>287.09</ele>
        <time>2015-12-21T10:37:42Z</time>
      </trkpt>
      <trkpt lat="43.99539" lon="5.12437">
        <ele>287.09</ele>
        <time>2015-12-21T10:37:46Z</time>
      </trkpt>
      <trkpt lat="43.99538" lon="5.12453">
        <ele>287.57</ele>
        <time>2015-12-21T10:37:53Z</time>
      </trkpt>
      <trkpt lat="43.99533" lon="5.12473">
        <ele>289.01</ele>
        <time>2015-12-21T10:38:01Z</time>
      </trkpt>
      <trkpt lat="43.99532" lon="5.12493">
        <ele>289.01</ele>
        <time>2015-12-21T10:38:09Z</time>
      </trkpt>
      <trkpt lat="43.9953" lon="5.12495">
        <ele>289.01</ele>
        <time>2015-12-21T10:38:15Z</time>
      </trkpt>
      <trkpt lat="43.99527" lon="5.12495">
        <ele>289.01</ele>
        <time>2015-12-21T10:38:27Z</time>
      </trkpt>
      <trkpt lat="43.99528" lon="5.12496">
        <ele>289.01</ele>
        <time>2015-12-21T10:38:32Z</time>
      </trkpt>
      <trkpt lat="43.99527" lon="5.12497">
        <ele>289.01</ele>
        <time>2015-12-21T10:38:34Z</time>
      </trkpt>
      <trkpt lat="43.99523" lon="5.12509">
        <ele>289.01</ele>
        <time>2015-12-21T10:38:41Z</time>
      </trkpt>
      <trkpt lat="43.99509" lon="5.12512">
        <ele>289.97</ele>
        <time>2015-12-21T10:38:47Z</time>
      </trkpt>
      <trkpt lat="43.99505" lon="5.12524">
        <ele>289.97</ele>
        <time>2015-12-21T10:38:52Z</time>
      </trkpt>
      <trkpt lat="43.99498" lon="5.12535">
        <ele>290.46</ele>
        <time>2015-12-21T10:38:58Z</time>
      </trkpt>
      <trkpt lat="43.99495" lon="5.12536">
        <ele>289.97</ele>
        <time>2015-12-21T10:39:03Z</time>
      </trkpt>
      <trkpt lat="43.99495" lon="5.12536">
        <ele>289.97</ele>
        <time>2015-12-21T10:39:08Z</time>
      </trkpt>
      <trkpt lat="43.99493" lon="5.12546">
        <ele>290.94</ele>
        <time>2015-12-21T10:39:15Z</time>
      </trkpt>
      <trkpt lat="43.99496" lon="5.12555">
        <ele>290.46</ele>
        <time>2015-12-21T10:39:20Z</time>
      </trkpt>
      <trkpt lat="43.99498" lon="5.12557">
        <ele>289.97</ele>
        <time>2015-12-21T10:39:21Z</time>
      </trkpt>
      <trkpt lat="43.99507" lon="5.12563">
        <ele>289.49</ele>
        <time>2015-12-21T10:39:24Z</time>
      </trkpt>
      <trkpt lat="43.99514" lon="5.12572">
        <ele>288.05</ele>
        <time>2015-12-21T10:39:29Z</time>
      </trkpt>
      <trkpt lat="43.99517" lon="5.12576">
        <ele>287.57</ele>
        <time>2015-12-21T10:39:31Z</time>
      </trkpt>
      <trkpt lat="43.99524" lon="5.12602">
        <ele>286.61</ele>
        <time>2015-12-21T10:39:36Z</time>
      </trkpt>
      <trkpt lat="43.99526" lon="5.12608">
        <ele>286.61</ele>
        <time>2015-12-21T10:39:37Z</time>
      </trkpt>
      <trkpt lat="43.99528" lon="5.12614">
        <ele>286.13</ele>
        <time>2015-12-21T10:39:38Z</time>
      </trkpt>
      <trkpt lat="43.99531" lon="5.12618">
        <ele>285.65</ele>
        <time>2015-12-21T10:39:39Z</time>
      </trkpt>
      <trkpt lat="43.99535" lon="5.12621">
        <ele>285.17</ele>
        <time>2015-12-21T10:39:40Z</time>
      </trkpt>
      <trkpt lat="43.99538" lon="5.12626">
        <ele>284.69</ele>
        <time>2015-12-21T10:39:41Z</time>
      </trkpt>
      <trkpt lat="43.99541" lon="5.12631">
        <ele>284.21</ele>
        <time>2015-12-21T10:39:42Z</time>
      </trkpt>
      <trkpt lat="43.99543" lon="5.12638">
        <ele>284.21</ele>
        <time>2015-12-21T10:39:43Z</time>
      </trkpt>
      <trkpt lat="43.99543" lon="5.12645">
        <ele>283.73</ele>
        <time>2015-12-21T10:39:44Z</time>
      </trkpt>
      <trkpt lat="43.99543" lon="5.12653">
        <ele>283.25</ele>
        <time>2015-12-21T10:39:45Z</time>
      </trkpt>
      <trkpt lat="43.99542" lon="5.1266">
        <ele>283.25</ele>
        <time>2015-12-21T10:39:46Z</time>
      </trkpt>
      <trkpt lat="43.9954" lon="5.12673">
        <ele>282.28</ele>
        <time>2015-12-21T10:39:48Z</time>
      </trkpt>
      <trkpt lat="43.99538" lon="5.12677">
        <ele>282.28</ele>
        <time>2015-12-21T10:39:49Z</time>
      </trkpt>
      <trkpt lat="43.99536" lon="5.12681">
        <ele>282.77</ele>
        <time>2015-12-21T10:39:50Z</time>
      </trkpt>
      <trkpt lat="43.99536" lon="5.12686">
        <ele>282.28</ele>
        <time>2015-12-21T10:39:51Z</time>
      </trkpt>
      <trkpt lat="43.99535" lon="5.1269">
        <ele>282.28</ele>
        <time>2015-12-21T10:39:52Z</time>
      </trkpt>
      <trkpt lat="43.99535" lon="5.12694">
        <ele>282.28</ele>
        <time>2015-12-21T10:39:53Z</time>
      </trkpt>
      <trkpt lat="43.99536" lon="5.12699">
        <ele>281.8</ele>
        <time>2015-12-21T10:39:54Z</time>
      </trkpt>
      <trkpt lat="43.99536" lon="5.12714">
        <ele>281.32</ele>
        <time>2015-12-21T10:39:59Z</time>
      </trkpt>
      <trkpt lat="43.99536" lon="5.12715">
        <ele>281.32</ele>
        <time>2015-12-21T10:40:08Z</time>
      </trkpt>
      <trkpt lat="43.99537" lon="5.1272">
        <ele>281.32</ele>
        <time>2015-12-21T10:40:11Z</time>
      </trkpt>
      <trkpt lat="43.99537" lon="5.12722">
        <ele>281.32</ele>
        <time>2015-12-21T10:40:12Z</time>
      </trkpt>
      <trkpt lat="43.99537" lon="5.12726">
        <ele>281.8</ele>
        <time>2015-12-21T10:40:18Z</time>
      </trkpt>
      <trkpt lat="43.99537" lon="5.12727">
        <ele>280.84</ele>
        <time>2015-12-21T10:40:24Z</time>
      </trkpt>
      <trkpt lat="43.99538" lon="5.12731">
        <ele>281.8</ele>
        <time>2015-12-21T10:40:26Z</time>
      </trkpt>
      <trkpt lat="43.99538" lon="5.12732">
        <ele>281.8</ele>
        <time>2015-12-21T10:40:27Z</time>
      </trkpt>
      <trkpt lat="43.99539" lon="5.12734">
        <ele>281.8</ele>
        <time>2015-12-21T10:40:28Z</time>
      </trkpt>
      <trkpt lat="43.99539" lon="5.12736">
        <ele>281.8</ele>
        <time>2015-12-21T10:40:29Z</time>
      </trkpt>
      <trkpt lat="43.99539" lon="5.12738">
        <ele>281.8</ele>
        <time>2015-12-21T10:40:30Z</time>
      </trkpt>
      <trkpt lat="43.9954" lon="5.1274">
        <ele>281.8</ele>
        <time>2015-12-21T10:40:31Z</time>
      </trkpt>
      <trkpt lat="43.99545" lon="5.12757">
        <ele>281.8</ele>
        <time>2015-12-21T10:40:38Z</time>
      </trkpt>
      <trkpt lat="43.99546" lon="5.12774">
        <ele>281.8</ele>
        <time>2015-12-21T10:40:44Z</time>
      </trkpt>
      <trkpt lat="43.99546" lon="5.12777">
        <ele>281.8</ele>
        <time>2015-12-21T10:40:50Z</time>
      </trkpt>
      <trkpt lat="43.99546" lon="5.12778">
        <ele>281.8</ele>
        <time>2015-12-21T10:41:08Z</time>
      </trkpt>
      <trkpt lat="43.99546" lon="5.12777">
        <ele>281.8</ele>
        <time>2015-12-21T10:41:25Z</time>
      </trkpt>
      <trkpt lat="43.99547" lon="5.12778">
        <ele>282.28</ele>
        <time>2015-12-21T10:41:39Z</time>
      </trkpt>
      <trkpt lat="43.99547" lon="5.12778">
        <ele>282.28</ele>
        <time>2015-12-21T10:41:50Z</time>
      </trkpt>
      <trkpt lat="43.99547" lon="5.12778">
        <ele>282.28</ele>
        <time>2015-12-21T10:42:02Z</time>
      </trkpt>
      <trkpt lat="43.99547" lon="5.12779">
        <ele>281.8</ele>
        <time>2015-12-21T10:42:18Z</time>
      </trkpt>
      <trkpt lat="43.99547" lon="5.12779">
        <ele>282.28</ele>
        <time>2015-12-21T10:42:32Z</time>
      </trkpt>
      <trkpt lat="43.99546" lon="5.12779">
        <ele>282.28</ele>
        <time>2015-12-21T10:42:48Z</time>
      </trkpt>
      <trkpt lat="43.99546" lon="5.12779">
        <ele>282.28</ele>
        <time>2015-12-21T10:43:06Z</time>
      </trkpt>
      <trkpt lat="43.99547" lon="5.12779">
        <ele>282.28</ele>
        <time>2015-12-21T10:43:22Z</time>
      </trkpt>
      <trkpt lat="43.99546" lon="5.12779">
        <ele>282.77</ele>
        <time>2015-12-21T10:43:41Z</time>
      </trkpt>
      <trkpt lat="43.99546" lon="5.12781">
        <ele>282.77</ele>
        <time>2015-12-21T10:43:43Z</time>
      </trkpt>
      <trkpt lat="43.99545" lon="5.12783">
        <ele>282.77</ele>
        <time>2015-12-21T10:43:44Z</time>
      </trkpt>
      <trkpt lat="43.99544" lon="5.12784">
        <ele>282.77</ele>
        <time>2015-12-21T10:43:45Z</time>
      </trkpt>
      <trkpt lat="43.99542" lon="5.12786">
        <ele>283.25</ele>
        <time>2015-12-21T10:43:46Z</time>
      </trkpt>
      <trkpt lat="43.99541" lon="5.12787">
        <ele>283.25</ele>
        <time>2015-12-21T10:43:47Z</time>
      </trkpt>
      <trkpt lat="43.9954" lon="5.12789">
        <ele>283.25</ele>
        <time>2015-12-21T10:43:48Z</time>
      </trkpt>
      <trkpt lat="43.99539" lon="5.12791">
        <ele>283.25</ele>
        <time>2015-12-21T10:43:49Z</time>
      </trkpt>
      <trkpt lat="43.99538" lon="5.12793">
        <ele>283.25</ele>
        <time>2015-12-21T10:43:50Z</time>
      </trkpt>
      <trkpt lat="43.99538" lon="5.12794">
        <ele>283.73</ele>
        <time>2015-12-21T10:43:51Z</time>
      </trkpt>
      <trkpt lat="43.99537" lon="5.12796">
        <ele>283.73</ele>
        <time>2015-12-21T10:43:52Z</time>
      </trkpt>
      <trkpt lat="43.99531" lon="5.12802">
        <ele>284.21</ele>
        <time>2015-12-21T10:43:56Z</time>
      </trkpt>
      <trkpt lat="43.99529" lon="5.12803">
        <ele>284.69</ele>
        <time>2015-12-21T10:43:57Z</time>
      </trkpt>
      <trkpt lat="43.99526" lon="5.12805">
        <ele>284.69</ele>
        <time>2015-12-21T10:43:58Z</time>
      </trkpt>
      <trkpt lat="43.99524" lon="5.12808">
        <ele>285.17</ele>
        <time>2015-12-21T10:43:59Z</time>
      </trkpt>
      <trkpt lat="43.99522" lon="5.1281">
        <ele>284.69</ele>
        <time>2015-12-21T10:44:00Z</time>
      </trkpt>
      <trkpt lat="43.99511" lon="5.12823">
        <ele>285.65</ele>
        <time>2015-12-21T10:44:06Z</time>
      </trkpt>
      <trkpt lat="43.99498" lon="5.12835">
        <ele>286.13</ele>
        <time>2015-12-21T10:44:13Z</time>
      </trkpt>
      <trkpt lat="43.99483" lon="5.12851">
        <ele>287.09</ele>
        <time>2015-12-21T10:44:21Z</time>
      </trkpt>
      <trkpt lat="43.99469" lon="5.12864">
        <ele>287.57</ele>
        <time>2015-12-21T10:44:27Z</time>
      </trkpt>
      <trkpt lat="43.99456" lon="5.12874">
        <ele>287.57</ele>
        <time>2015-12-21T10:44:33Z</time>
      </trkpt>
      <trkpt lat="43.99441" lon="5.12888">
        <ele>287.57</ele>
        <time>2015-12-21T10:44:40Z</time>
      </trkpt>
      <trkpt lat="43.99435" lon="5.12897">
        <ele>287.09</ele>
        <time>2015-12-21T10:44:44Z</time>
      </trkpt>
      <trkpt lat="43.99432" lon="5.12898">
        <ele>287.09</ele>
        <time>2015-12-21T10:44:45Z</time>
      </trkpt>
      <trkpt lat="43.99429" lon="5.129">
        <ele>287.09</ele>
        <time>2015-12-21T10:44:46Z</time>
      </trkpt>
      <trkpt lat="43.99427" lon="5.12902">
        <ele>287.09</ele>
        <time>2015-12-21T10:44:47Z</time>
      </trkpt>
      <trkpt lat="43.99424" lon="5.12905">
        <ele>287.09</ele>
        <time>2015-12-21T10:44:48Z</time>
      </trkpt>
      <trkpt lat="43.99422" lon="5.12908">
        <ele>286.61</ele>
        <time>2015-12-21T10:44:49Z</time>
      </trkpt>
      <trkpt lat="43.9942" lon="5.12911">
        <ele>287.09</ele>
        <time>2015-12-21T10:44:50Z</time>
      </trkpt>
      <trkpt lat="43.99418" lon="5.12913">
        <ele>286.61</ele>
        <time>2015-12-21T10:44:51Z</time>
      </trkpt>
      <trkpt lat="43.99415" lon="5.12914">
        <ele>286.61</ele>
        <time>2015-12-21T10:44:52Z</time>
      </trkpt>
      <trkpt lat="43.99412" lon="5.12916">
        <ele>286.61</ele>
        <time>2015-12-21T10:44:53Z</time>
      </trkpt>
      <trkpt lat="43.99409" lon="5.12918">
        <ele>286.61</ele>
        <time>2015-12-21T10:44:54Z</time>
      </trkpt>
      <trkpt lat="43.99393" lon="5.12928">
        <ele>286.13</ele>
        <time>2015-12-21T10:44:59Z</time>
      </trkpt>
      <trkpt lat="43.99386" lon="5.12932">
        <ele>286.13</ele>
        <time>2015-12-21T10:45:01Z</time>
      </trkpt>
      <trkpt lat="43.99373" lon="5.12933">
        <ele>285.65</ele>
        <time>2015-12-21T10:45:04Z</time>
      </trkpt>
      <trkpt lat="43.99368" lon="5.12933">
        <ele>285.65</ele>
        <time>2015-12-21T10:45:05Z</time>
      </trkpt>
      <trkpt lat="43.99363" lon="5.12933">
        <ele>285.65</ele>
        <time>2015-12-21T10:45:06Z</time>
      </trkpt>
      <trkpt lat="43.99359" lon="5.12934">
        <ele>285.65</ele>
        <time>2015-12-21T10:45:07Z</time>
      </trkpt>
      <trkpt lat="43.99355" lon="5.12935">
        <ele>285.65</ele>
        <time>2015-12-21T10:45:08Z</time>
      </trkpt>
      <trkpt lat="43.99352" lon="5.12936">
        <ele>285.65</ele>
        <time>2015-12-21T10:45:09Z</time>
      </trkpt>
      <trkpt lat="43.99349" lon="5.12936">
        <ele>285.65</ele>
        <time>2015-12-21T10:45:10Z</time>
      </trkpt>
      <trkpt lat="43.9934" lon="5.12938">
        <ele>285.65</ele>
        <time>2015-12-21T10:45:16Z</time>
      </trkpt>
      <trkpt lat="43.99332" lon="5.12949">
        <ele>284.69</ele>
        <time>2015-12-21T10:45:21Z</time>
      </trkpt>
      <trkpt lat="43.99329" lon="5.12951">
        <ele>284.21</ele>
        <time>2015-12-21T10:45:22Z</time>
      </trkpt>
      <trkpt lat="43.99326" lon="5.12952">
        <ele>283.73</ele>
        <time>2015-12-21T10:45:23Z</time>
      </trkpt>
      <trkpt lat="43.99303" lon="5.12959">
        <ele>282.28</ele>
        <time>2015-12-21T10:45:30Z</time>
      </trkpt>
      <trkpt lat="43.99287" lon="5.12964">
        <ele>281.8</ele>
        <time>2015-12-21T10:45:36Z</time>
      </trkpt>
      <trkpt lat="43.9927" lon="5.12979">
        <ele>280.36</ele>
        <time>2015-12-21T10:45:42Z</time>
      </trkpt>
      <trkpt lat="43.99263" lon="5.13003">
        <ele>278.44</ele>
        <time>2015-12-21T10:45:48Z</time>
      </trkpt>
      <trkpt lat="43.99252" lon="5.13025">
        <ele>276.52</ele>
        <time>2015-12-21T10:45:53Z</time>
      </trkpt>
      <trkpt lat="43.99247" lon="5.13037">
        <ele>276.04</ele>
        <time>2015-12-21T10:45:55Z</time>
      </trkpt>
      <trkpt lat="43.99244" lon="5.13043">
        <ele>276.04</ele>
        <time>2015-12-21T10:45:56Z</time>
      </trkpt>
      <trkpt lat="43.99241" lon="5.13048">
        <ele>275.56</ele>
        <time>2015-12-21T10:45:57Z</time>
      </trkpt>
      <trkpt lat="43.99237" lon="5.13052">
        <ele>275.07</ele>
        <time>2015-12-21T10:45:58Z</time>
      </trkpt>
      <trkpt lat="43.99234" lon="5.13056">
        <ele>274.59</ele>
        <time>2015-12-21T10:45:59Z</time>
      </trkpt>
      <trkpt lat="43.99231" lon="5.1306">
        <ele>274.11</ele>
        <time>2015-12-21T10:46:00Z</time>
      </trkpt>
      <trkpt lat="43.99228" lon="5.13065">
        <ele>273.63</ele>
        <time>2015-12-21T10:46:01Z</time>
      </trkpt>
      <trkpt lat="43.9921" lon="5.13088">
        <ele>271.23</ele>
        <time>2015-12-21T10:46:06Z</time>
      </trkpt>
      <trkpt lat="43.99202" lon="5.13098">
        <ele>270.75</ele>
        <time>2015-12-21T10:46:08Z</time>
      </trkpt>
      <trkpt lat="43.99197" lon="5.13101">
        <ele>270.75</ele>
        <time>2015-12-21T10:46:09Z</time>
      </trkpt>
      <trkpt lat="43.99192" lon="5.13104">
        <ele>271.23</ele>
        <time>2015-12-21T10:46:10Z</time>
      </trkpt>
      <trkpt lat="43.99186" lon="5.13108">
        <ele>270.27</ele>
        <time>2015-12-21T10:46:11Z</time>
      </trkpt>
      <trkpt lat="43.99182" lon="5.13111">
        <ele>270.27</ele>
        <time>2015-12-21T10:46:12Z</time>
      </trkpt>
      <trkpt lat="43.99178" lon="5.13114">
        <ele>268.83</ele>
        <time>2015-12-21T10:46:15Z</time>
      </trkpt>
      <trkpt lat="43.99178" lon="5.13114">
        <ele>268.35</ele>
        <time>2015-12-21T10:46:25Z</time>
      </trkpt>
      <trkpt lat="43.99178" lon="5.13113">
        <ele>268.35</ele>
        <time>2015-12-21T10:46:38Z</time>
      </trkpt>
      <trkpt lat="43.99178" lon="5.13112">
        <ele>268.83</ele>
        <time>2015-12-21T10:46:56Z</time>
      </trkpt>
      <trkpt lat="43.99177" lon="5.13112">
        <ele>268.35</ele>
        <time>2015-12-21T10:47:12Z</time>
      </trkpt>
      <trkpt lat="43.99177" lon="5.13112">
        <ele>268.83</ele>
        <time>2015-12-21T10:47:15Z</time>
      </trkpt>
      <trkpt lat="43.99176" lon="5.13113">
        <ele>268.35</ele>
        <time>2015-12-21T10:47:16Z</time>
      </trkpt>
      <trkpt lat="43.99174" lon="5.13114">
        <ele>268.83</ele>
        <time>2015-12-21T10:47:17Z</time>
      </trkpt>
      <trkpt lat="43.99172" lon="5.13115">
        <ele>269.31</ele>
        <time>2015-12-21T10:47:18Z</time>
      </trkpt>
      <trkpt lat="43.9917" lon="5.13115">
        <ele>269.31</ele>
        <time>2015-12-21T10:47:19Z</time>
      </trkpt>
      <trkpt lat="43.99167" lon="5.13115">
        <ele>269.31</ele>
        <time>2015-12-21T10:47:20Z</time>
      </trkpt>
      <trkpt lat="43.99155" lon="5.13115">
        <ele>269.79</ele>
        <time>2015-12-21T10:47:26Z</time>
      </trkpt>
      <trkpt lat="43.99147" lon="5.13116">
        <ele>269.79</ele>
        <time>2015-12-21T10:47:33Z</time>
      </trkpt>
      <trkpt lat="43.99144" lon="5.13117">
        <ele>270.27</ele>
        <time>2015-12-21T10:47:47Z</time>
      </trkpt>
      <trkpt lat="43.9914" lon="5.13117">
        <ele>269.79</ele>
        <time>2015-12-21T10:47:54Z</time>
      </trkpt>
      <trkpt lat="43.99139" lon="5.13118">
        <ele>269.79</ele>
        <time>2015-12-21T10:48:10Z</time>
      </trkpt>
      <trkpt lat="43.99135" lon="5.13119">
        <ele>270.75</ele>
        <time>2015-12-21T10:48:26Z</time>
      </trkpt>
      <trkpt lat="43.99135" lon="5.13119">
        <ele>270.75</ele>
        <time>2015-12-21T10:48:34Z</time>
      </trkpt>
      <trkpt lat="43.99133" lon="5.13119">
        <ele>270.75</ele>
        <time>2015-12-21T10:48:36Z</time>
      </trkpt>
      <trkpt lat="43.9913" lon="5.13118">
        <ele>271.23</ele>
        <time>2015-12-21T10:48:38Z</time>
      </trkpt>
      <trkpt lat="43.99129" lon="5.13118">
        <ele>271.23</ele>
        <time>2015-12-21T10:48:39Z</time>
      </trkpt>
      <trkpt lat="43.99127" lon="5.13119">
        <ele>271.71</ele>
        <time>2015-12-21T10:48:40Z</time>
      </trkpt>
      <trkpt lat="43.99126" lon="5.13119">
        <ele>271.71</ele>
        <time>2015-12-21T10:48:41Z</time>
      </trkpt>
      <trkpt lat="43.99117" lon="5.13119">
        <ele>272.67</ele>
        <time>2015-12-21T10:48:47Z</time>
      </trkpt>
      <trkpt lat="43.99103" lon="5.13113">
        <ele>274.11</ele>
        <time>2015-12-21T10:48:54Z</time>
      </trkpt>
      <trkpt lat="43.99091" lon="5.13109">
        <ele>275.07</ele>
        <time>2015-12-21T10:49:00Z</time>
      </trkpt>
      <trkpt lat="43.99082" lon="5.13108">
        <ele>275.56</ele>
        <time>2015-12-21T10:49:06Z</time>
      </trkpt>
      <trkpt lat="43.9908" lon="5.13106">
        <ele>275.56</ele>
        <time>2015-12-21T10:49:07Z</time>
      </trkpt>
      <trkpt lat="43.99078" lon="5.13105">
        <ele>276.04</ele>
        <time>2015-12-21T10:49:08Z</time>
      </trkpt>
      <trkpt lat="43.99076" lon="5.13105">
        <ele>276.04</ele>
        <time>2015-12-21T10:49:09Z</time>
      </trkpt>
      <trkpt lat="43.99074" lon="5.13104">
        <ele>276.04</ele>
        <time>2015-12-21T10:49:10Z</time>
      </trkpt>
      <trkpt lat="43.99056" lon="5.13102">
        <ele>278.44</ele>
        <time>2015-12-21T10:49:19Z</time>
      </trkpt>
      <trkpt lat="43.99043" lon="5.13097">
        <ele>279.88</ele>
        <time>2015-12-21T10:49:26Z</time>
      </trkpt>
      <trkpt lat="43.99032" lon="5.13089">
        <ele>281.32</ele>
        <time>2015-12-21T10:49:33Z</time>
      </trkpt>
      <trkpt lat="43.99032" lon="5.13088">
        <ele>281.32</ele>
        <time>2015-12-21T10:49:40Z</time>
      </trkpt>
      <trkpt lat="43.99029" lon="5.13084">
        <ele>281.32</ele>
        <time>2015-12-21T10:49:46Z</time>
      </trkpt>
      <trkpt lat="43.99028" lon="5.13083">
        <ele>281.32</ele>
        <time>2015-12-21T10:49:47Z</time>
      </trkpt>
      <trkpt lat="43.99026" lon="5.1308">
        <ele>282.28</ele>
        <time>2015-12-21T10:49:51Z</time>
      </trkpt>
      <trkpt lat="43.99025" lon="5.13078">
        <ele>282.28</ele>
        <time>2015-12-21T10:49:57Z</time>
      </trkpt>
      <trkpt lat="43.99021" lon="5.13076">
        <ele>283.25</ele>
        <time>2015-12-21T10:50:05Z</time>
      </trkpt>
      <trkpt lat="43.99019" lon="5.13075">
        <ele>283.25</ele>
        <time>2015-12-21T10:50:06Z</time>
      </trkpt>
      <trkpt lat="43.99018" lon="5.13075">
        <ele>283.25</ele>
        <time>2015-12-21T10:50:07Z</time>
      </trkpt>
      <trkpt lat="43.99016" lon="5.13074">
        <ele>283.25</ele>
        <time>2015-12-21T10:50:08Z</time>
      </trkpt>
      <trkpt lat="43.99015" lon="5.13073">
        <ele>283.25</ele>
        <time>2015-12-21T10:50:09Z</time>
      </trkpt>
      <trkpt lat="43.99013" lon="5.13072">
        <ele>283.25</ele>
        <time>2015-12-21T10:50:10Z</time>
      </trkpt>
      <trkpt lat="43.99009" lon="5.13069">
        <ele>284.21</ele>
        <time>2015-12-21T10:50:13Z</time>
      </trkpt>
      <trkpt lat="43.99008" lon="5.13066">
        <ele>284.69</ele>
        <time>2015-12-21T10:50:14Z</time>
      </trkpt>
      <trkpt lat="43.99007" lon="5.13063">
        <ele>284.69</ele>
        <time>2015-12-21T10:50:15Z</time>
      </trkpt>
      <trkpt lat="43.99006" lon="5.13061">
        <ele>286.13</ele>
        <time>2015-12-21T10:50:16Z</time>
      </trkpt>
      <trkpt lat="43.99005" lon="5.1306">
        <ele>285.65</ele>
        <time>2015-12-21T10:50:17Z</time>
      </trkpt>
      <trkpt lat="43.99004" lon="5.13059">
        <ele>286.13</ele>
        <time>2015-12-21T10:50:18Z</time>
      </trkpt>
      <trkpt lat="43.99002" lon="5.13059">
        <ele>286.61</ele>
        <time>2015-12-21T10:50:19Z</time>
      </trkpt>
      <trkpt lat="43.98994" lon="5.13058">
        <ele>288.05</ele>
        <time>2015-12-21T10:50:24Z</time>
      </trkpt>
      <trkpt lat="43.98986" lon="5.13055">
        <ele>289.97</ele>
        <time>2015-12-21T10:50:30Z</time>
      </trkpt>
      <trkpt lat="43.98987" lon="5.13056">
        <ele>289.97</ele>
        <time>2015-12-21T10:50:36Z</time>
      </trkpt>
      <trkpt lat="43.98987" lon="5.13055">
        <ele>289.97</ele>
        <time>2015-12-21T10:50:43Z</time>
      </trkpt>
      <trkpt lat="43.98987" lon="5.13054">
        <ele>290.46</ele>
        <time>2015-12-21T10:50:51Z</time>
      </trkpt>
      <trkpt lat="43.98986" lon="5.13054">
        <ele>290.46</ele>
        <time>2015-12-21T10:51:00Z</time>
      </trkpt>
      <trkpt lat="43.98983" lon="5.13054">
        <ele>290.94</ele>
        <time>2015-12-21T10:51:03Z</time>
      </trkpt>
      <trkpt lat="43.98981" lon="5.13053">
        <ele>291.42</ele>
        <time>2015-12-21T10:51:04Z</time>
      </trkpt>
      <trkpt lat="43.98977" lon="5.13052">
        <ele>291.9</ele>
        <time>2015-12-21T10:51:09Z</time>
      </trkpt>
      <trkpt lat="43.98977" lon="5.13052">
        <ele>292.38</ele>
        <time>2015-12-21T10:51:19Z</time>
      </trkpt>
      <trkpt lat="43.98973" lon="5.1305">
        <ele>292.86</ele>
        <time>2015-12-21T10:51:26Z</time>
      </trkpt>
      <trkpt lat="43.98972" lon="5.1305">
        <ele>293.34</ele>
        <time>2015-12-21T10:51:27Z</time>
      </trkpt>
      <trkpt lat="43.98966" lon="5.13046">
        <ele>294.3</ele>
        <time>2015-12-21T10:51:33Z</time>
      </trkpt>
      <trkpt lat="43.98966" lon="5.13035">
        <ele>295.74</ele>
        <time>2015-12-21T10:51:40Z</time>
      </trkpt>
      <trkpt lat="43.98963" lon="5.13028">
        <ele>296.22</ele>
        <time>2015-12-21T10:51:47Z</time>
      </trkpt>
      <trkpt lat="43.98963" lon="5.13026">
        <ele>296.7</ele>
        <time>2015-12-21T10:51:56Z</time>
      </trkpt>
      <trkpt lat="43.98964" lon="5.13026">
        <ele>296.7</ele>
        <time>2015-12-21T10:52:09Z</time>
      </trkpt>
      <trkpt lat="43.98963" lon="5.13025">
        <ele>297.18</ele>
        <time>2015-12-21T10:52:17Z</time>
      </trkpt>
      <trkpt lat="43.98962" lon="5.13026">
        <ele>296.7</ele>
        <time>2015-12-21T10:52:29Z</time>
      </trkpt>
      <trkpt lat="43.98961" lon="5.13026">
        <ele>296.7</ele>
        <time>2015-12-21T10:52:40Z</time>
      </trkpt>
      <trkpt lat="43.98961" lon="5.13026">
        <ele>296.7</ele>
        <time>2015-12-21T10:52:50Z</time>
      </trkpt>
      <trkpt lat="43.98961" lon="5.13026">
        <ele>297.18</ele>
        <time>2015-12-21T10:53:00Z</time>
      </trkpt>
      <trkpt lat="43.98961" lon="5.13025">
        <ele>296.7</ele>
        <time>2015-12-21T10:53:15Z</time>
      </trkpt>
      <trkpt lat="43.98961" lon="5.13024">
        <ele>296.7</ele>
        <time>2015-12-21T10:53:29Z</time>
      </trkpt>
      <trkpt lat="43.9896" lon="5.13024">
        <ele>296.7</ele>
        <time>2015-12-21T10:53:43Z</time>
      </trkpt>
      <trkpt lat="43.9896" lon="5.13024">
        <ele>296.7</ele>
        <time>2015-12-21T10:53:55Z</time>
      </trkpt>
      <trkpt lat="43.9896" lon="5.13024">
        <ele>296.22</ele>
        <time>2015-12-21T10:54:15Z</time>
      </trkpt>
      <trkpt lat="43.9896" lon="5.13024">
        <ele>296.7</ele>
        <time>2015-12-21T10:54:29Z</time>
      </trkpt>
      <trkpt lat="43.9896" lon="5.13024">
        <ele>296.22</ele>
        <time>2015-12-21T10:54:46Z</time>
      </trkpt>
      <trkpt lat="43.9896" lon="5.13024">
        <ele>296.7</ele>
        <time>2015-12-21T10:55:06Z</time>
      </trkpt>
      <trkpt lat="43.98959" lon="5.13023">
        <ele>296.7</ele>
        <time>2015-12-21T10:55:17Z</time>
      </trkpt>
      <trkpt lat="43.9896" lon="5.13022">
        <ele>296.7</ele>
        <time>2015-12-21T10:55:28Z</time>
      </trkpt>
      <trkpt lat="43.9896" lon="5.1302">
        <ele>297.67</ele>
        <time>2015-12-21T10:55:42Z</time>
      </trkpt>
      <trkpt lat="43.98961" lon="5.13018">
        <ele>296.7</ele>
        <time>2015-12-21T10:55:43Z</time>
      </trkpt>
      <trkpt lat="43.98962" lon="5.13017">
        <ele>296.7</ele>
        <time>2015-12-21T10:55:44Z</time>
      </trkpt>
      <trkpt lat="43.98962" lon="5.13013">
        <ele>297.18</ele>
        <time>2015-12-21T10:55:47Z</time>
      </trkpt>
      <trkpt lat="43.9896" lon="5.13009">
        <ele>297.67</ele>
        <time>2015-12-21T10:55:50Z</time>
      </trkpt>
      <trkpt lat="43.9896" lon="5.13008">
        <ele>297.67</ele>
        <time>2015-12-21T10:55:51Z</time>
      </trkpt>
      <trkpt lat="43.98958" lon="5.13002">
        <ele>297.67</ele>
        <time>2015-12-21T10:55:54Z</time>
      </trkpt>
      <trkpt lat="43.98958" lon="5.12999">
        <ele>297.67</ele>
        <time>2015-12-21T10:55:55Z</time>
      </trkpt>
      <trkpt lat="43.98958" lon="5.12997">
        <ele>297.67</ele>
        <time>2015-12-21T10:55:56Z</time>
      </trkpt>
      <trkpt lat="43.98957" lon="5.12994">
        <ele>298.15</ele>
        <time>2015-12-21T10:55:57Z</time>
      </trkpt>
      <trkpt lat="43.98957" lon="5.12992">
        <ele>297.67</ele>
        <time>2015-12-21T10:55:58Z</time>
      </trkpt>
      <trkpt lat="43.98956" lon="5.12978">
        <ele>298.15</ele>
        <time>2015-12-21T10:56:02Z</time>
      </trkpt>
      <trkpt lat="43.98957" lon="5.12975">
        <ele>298.15</ele>
        <time>2015-12-21T10:56:03Z</time>
      </trkpt>
      <trkpt lat="43.98958" lon="5.12959">
        <ele>298.15</ele>
        <time>2015-12-21T10:56:07Z</time>
      </trkpt>
      <trkpt lat="43.98957" lon="5.12955">
        <ele>298.15</ele>
        <time>2015-12-21T10:56:08Z</time>
      </trkpt>
      <trkpt lat="43.98955" lon="5.12953">
        <ele>298.15</ele>
        <time>2015-12-21T10:56:09Z</time>
      </trkpt>
      <trkpt lat="43.98953" lon="5.12951">
        <ele>298.15</ele>
        <time>2015-12-21T10:56:10Z</time>
      </trkpt>
      <trkpt lat="43.98952" lon="5.12949">
        <ele>298.15</ele>
        <time>2015-12-21T10:56:11Z</time>
      </trkpt>
      <trkpt lat="43.98951" lon="5.12948">
        <ele>298.15</ele>
        <time>2015-12-21T10:56:12Z</time>
      </trkpt>
      <trkpt lat="43.9895" lon="5.12948">
        <ele>298.15</ele>
        <time>2015-12-21T10:56:13Z</time>
      </trkpt>
      <trkpt lat="43.98949" lon="5.12946">
        <ele>298.15</ele>
        <time>2015-12-21T10:56:14Z</time>
      </trkpt>
      <trkpt lat="43.98948" lon="5.12944">
        <ele>298.15</ele>
        <time>2015-12-21T10:56:15Z</time>
      </trkpt>
      <trkpt lat="43.98946" lon="5.12942">
        <ele>298.15</ele>
        <time>2015-12-21T10:56:16Z</time>
      </trkpt>
      <trkpt lat="43.98945" lon="5.1294">
        <ele>298.15</ele>
        <time>2015-12-21T10:56:17Z</time>
      </trkpt>
      <trkpt lat="43.98943" lon="5.12937">
        <ele>297.67</ele>
        <time>2015-12-21T10:56:18Z</time>
      </trkpt>
      <trkpt lat="43.98931" lon="5.12915">
        <ele>296.22</ele>
        <time>2015-12-21T10:56:25Z</time>
      </trkpt>
      <trkpt lat="43.9892" lon="5.12897">
        <ele>295.26</ele>
        <time>2015-12-21T10:56:32Z</time>
      </trkpt>
      <trkpt lat="43.98916" lon="5.1288">
        <ele>295.74</ele>
        <time>2015-12-21T10:56:37Z</time>
      </trkpt>
      <trkpt lat="43.98911" lon="5.12858">
        <ele>296.7</ele>
        <time>2015-12-21T10:56:43Z</time>
      </trkpt>
      <trkpt lat="43.98907" lon="5.12835">
        <ele>295.26</ele>
        <time>2015-12-21T10:56:50Z</time>
      </trkpt>
      <trkpt lat="43.98905" lon="5.12833">
        <ele>294.78</ele>
        <time>2015-12-21T10:56:51Z</time>
      </trkpt>
      <trkpt lat="43.98904" lon="5.12831">
        <ele>294.3</ele>
        <time>2015-12-21T10:56:52Z</time>
      </trkpt>
      <trkpt lat="43.98903" lon="5.1283">
        <ele>293.34</ele>
        <time>2015-12-21T10:56:57Z</time>
      </trkpt>
      <trkpt lat="43.98903" lon="5.12829">
        <ele>293.34</ele>
        <time>2015-12-21T10:56:59Z</time>
      </trkpt>
      <trkpt lat="43.98901" lon="5.12827">
        <ele>293.34</ele>
        <time>2015-12-21T10:57:00Z</time>
      </trkpt>
      <trkpt lat="43.98899" lon="5.12825">
        <ele>293.34</ele>
        <time>2015-12-21T10:57:01Z</time>
      </trkpt>
      <trkpt lat="43.98897" lon="5.12822">
        <ele>292.86</ele>
        <time>2015-12-21T10:57:02Z</time>
      </trkpt>
      <trkpt lat="43.98889" lon="5.1281">
        <ele>290.94</ele>
        <time>2015-12-21T10:57:05Z</time>
      </trkpt>
      <trkpt lat="43.98886" lon="5.12804">
        <ele>290.46</ele>
        <time>2015-12-21T10:57:06Z</time>
      </trkpt>
      <trkpt lat="43.98883" lon="5.12799">
        <ele>289.97</ele>
        <time>2015-12-21T10:57:07Z</time>
      </trkpt>
      <trkpt lat="43.98882" lon="5.12795">
        <ele>289.01</ele>
        <time>2015-12-21T10:57:08Z</time>
      </trkpt>
      <trkpt lat="43.9888" lon="5.12785">
        <ele>288.05</ele>
        <time>2015-12-21T10:57:10Z</time>
      </trkpt>
      <trkpt lat="43.9888" lon="5.1278">
        <ele>287.57</ele>
        <time>2015-12-21T10:57:11Z</time>
      </trkpt>
      <trkpt lat="43.9888" lon="5.12775">
        <ele>287.57</ele>
        <time>2015-12-21T10:57:12Z</time>
      </trkpt>
      <trkpt lat="43.98877" lon="5.12763">
        <ele>286.61</ele>
        <time>2015-12-21T10:57:14Z</time>
      </trkpt>
      <trkpt lat="43.98875" lon="5.12758">
        <ele>286.61</ele>
        <time>2015-12-21T10:57:15Z</time>
      </trkpt>
      <trkpt lat="43.98873" lon="5.12753">
        <ele>286.13</ele>
        <time>2015-12-21T10:57:16Z</time>
      </trkpt>
      <trkpt lat="43.98871" lon="5.12747">
        <ele>286.13</ele>
        <time>2015-12-21T10:57:17Z</time>
      </trkpt>
      <trkpt lat="43.98871" lon="5.12741">
        <ele>286.13</ele>
        <time>2015-12-21T10:57:18Z</time>
      </trkpt>
      <trkpt lat="43.98872" lon="5.12708">
        <ele>286.13</ele>
        <time>2015-12-21T10:57:24Z</time>
      </trkpt>
      <trkpt lat="43.9887" lon="5.1268">
        <ele>287.09</ele>
        <time>2015-12-21T10:57:31Z</time>
      </trkpt>
      <trkpt lat="43.98873" lon="5.12661">
        <ele>288.05</ele>
        <time>2015-12-21T10:57:36Z</time>
      </trkpt>
      <trkpt lat="43.98879" lon="5.12651">
        <ele>289.49</ele>
        <time>2015-12-21T10:57:39Z</time>
      </trkpt>
      <trkpt lat="43.98891" lon="5.12631">
        <ele>290.94</ele>
        <time>2015-12-21T10:57:45Z</time>
      </trkpt>
      <trkpt lat="43.98893" lon="5.12629">
        <ele>291.42</ele>
        <time>2015-12-21T10:57:46Z</time>
      </trkpt>
      <trkpt lat="43.98894" lon="5.12626">
        <ele>291.9</ele>
        <time>2015-12-21T10:57:47Z</time>
      </trkpt>
      <trkpt lat="43.98895" lon="5.12622">
        <ele>292.38</ele>
        <time>2015-12-21T10:57:48Z</time>
      </trkpt>
      <trkpt lat="43.98897" lon="5.12603">
        <ele>294.3</ele>
        <time>2015-12-21T10:57:54Z</time>
      </trkpt>
      <trkpt lat="43.98897" lon="5.12586">
        <ele>295.74</ele>
        <time>2015-12-21T10:58:00Z</time>
      </trkpt>
      <trkpt lat="43.98898" lon="5.1257">
        <ele>297.18</ele>
        <time>2015-12-21T10:58:06Z</time>
      </trkpt>
      <trkpt lat="43.98899" lon="5.12553">
        <ele>298.15</ele>
        <time>2015-12-21T10:58:12Z</time>
      </trkpt>
      <trkpt lat="43.98901" lon="5.12532">
        <ele>300.55</ele>
        <time>2015-12-21T10:58:20Z</time>
      </trkpt>
      <trkpt lat="43.98901" lon="5.12528">
        <ele>301.03</ele>
        <time>2015-12-21T10:58:22Z</time>
      </trkpt>
      <trkpt lat="43.98901" lon="5.12525">
        <ele>301.03</ele>
        <time>2015-12-21T10:58:23Z</time>
      </trkpt>
      <trkpt lat="43.98902" lon="5.12523">
        <ele>301.51</ele>
        <time>2015-12-21T10:58:24Z</time>
      </trkpt>
      <trkpt lat="43.98902" lon="5.12522">
        <ele>301.51</ele>
        <time>2015-12-21T10:58:25Z</time>
      </trkpt>
      <trkpt lat="43.98903" lon="5.1252">
        <ele>301.51</ele>
        <time>2015-12-21T10:58:26Z</time>
      </trkpt>
      <trkpt lat="43.98903" lon="5.12517">
        <ele>301.99</ele>
        <time>2015-12-21T10:58:27Z</time>
      </trkpt>
      <trkpt lat="43.98903" lon="5.12515">
        <ele>301.99</ele>
        <time>2015-12-21T10:58:28Z</time>
      </trkpt>
      <trkpt lat="43.98902" lon="5.12514">
        <ele>302.47</ele>
        <time>2015-12-21T10:58:29Z</time>
      </trkpt>
      <trkpt lat="43.98902" lon="5.12512">
        <ele>302.47</ele>
        <time>2015-12-21T10:58:30Z</time>
      </trkpt>
      <trkpt lat="43.98902" lon="5.1251">
        <ele>302.47</ele>
        <time>2015-12-21T10:58:31Z</time>
      </trkpt>
      <trkpt lat="43.98902" lon="5.12508">
        <ele>302.95</ele>
        <time>2015-12-21T10:58:32Z</time>
      </trkpt>
      <trkpt lat="43.98902" lon="5.12496">
        <ele>303.91</ele>
        <time>2015-12-21T10:58:39Z</time>
      </trkpt>
      <trkpt lat="43.98901" lon="5.12494">
        <ele>304.39</ele>
        <time>2015-12-21T10:58:40Z</time>
      </trkpt>
      <trkpt lat="43.98901" lon="5.12493">
        <ele>303.91</ele>
        <time>2015-12-21T10:58:41Z</time>
      </trkpt>
      <trkpt lat="43.98899" lon="5.12491">
        <ele>304.39</ele>
        <time>2015-12-21T10:58:42Z</time>
      </trkpt>
      <trkpt lat="43.98895" lon="5.12485">
        <ele>303.91</ele>
        <time>2015-12-21T10:58:48Z</time>
      </trkpt>
      <trkpt lat="43.98896" lon="5.12484">
        <ele>303.91</ele>
        <time>2015-12-21T10:58:58Z</time>
      </trkpt>
      <trkpt lat="43.98896" lon="5.12484">
        <ele>303.43</ele>
        <time>2015-12-21T10:59:14Z</time>
      </trkpt>
      <trkpt lat="43.98896" lon="5.12483">
        <ele>303.91</ele>
        <time>2015-12-21T10:59:26Z</time>
      </trkpt>
      <trkpt lat="43.98896" lon="5.12483">
        <ele>303.43</ele>
        <time>2015-12-21T10:59:41Z</time>
      </trkpt>
      <trkpt lat="43.98896" lon="5.12483">
        <ele>302.95</ele>
        <time>2015-12-21T10:59:55Z</time>
      </trkpt>
      <trkpt lat="43.98897" lon="5.12483">
        <ele>303.43</ele>
        <time>2015-12-21T11:00:12Z</time>
      </trkpt>
      <trkpt lat="43.98897" lon="5.12482">
        <ele>303.43</ele>
        <time>2015-12-21T11:00:32Z</time>
      </trkpt>
      <trkpt lat="43.98897" lon="5.12482">
        <ele>302.95</ele>
        <time>2015-12-21T11:00:52Z</time>
      </trkpt>
      <trkpt lat="43.98897" lon="5.12481">
        <ele>302.95</ele>
        <time>2015-12-21T11:00:53Z</time>
      </trkpt>
      <trkpt lat="43.98896" lon="5.1248">
        <ele>302.95</ele>
        <time>2015-12-21T11:00:54Z</time>
      </trkpt>
      <trkpt lat="43.98894" lon="5.12479">
        <ele>303.43</ele>
        <time>2015-12-21T11:01:00Z</time>
      </trkpt>
      <trkpt lat="43.98893" lon="5.12479">
        <ele>303.43</ele>
        <time>2015-12-21T11:01:09Z</time>
      </trkpt>
      <trkpt lat="43.98895" lon="5.12478">
        <ele>301.99</ele>
        <time>2015-12-21T11:01:26Z</time>
      </trkpt>
      <trkpt lat="43.98894" lon="5.12476">
        <ele>303.43</ele>
        <time>2015-12-21T11:01:38Z</time>
      </trkpt>
      <trkpt lat="43.9889" lon="5.12473">
        <ele>302.95</ele>
        <time>2015-12-21T11:01:40Z</time>
      </trkpt>
      <trkpt lat="43.98876" lon="5.1246">
        <ele>302.47</ele>
        <time>2015-12-21T11:01:47Z</time>
      </trkpt>
      <trkpt lat="43.98865" lon="5.12448">
        <ele>302.47</ele>
        <time>2015-12-21T11:01:53Z</time>
      </trkpt>
      <trkpt lat="43.98847" lon="5.12424">
        <ele>302.47</ele>
        <time>2015-12-21T11:02:00Z</time>
      </trkpt>
      <trkpt lat="43.98829" lon="5.12392">
        <ele>301.99</ele>
        <time>2015-12-21T11:02:08Z</time>
      </trkpt>
      <trkpt lat="43.98813" lon="5.12364">
        <ele>301.99</ele>
        <time>2015-12-21T11:02:16Z</time>
      </trkpt>
      <trkpt lat="43.98812" lon="5.12361">
        <ele>302.47</ele>
        <time>2015-12-21T11:02:17Z</time>
      </trkpt>
      <trkpt lat="43.98803" lon="5.12347">
        <ele>301.99</ele>
        <time>2015-12-21T11:02:22Z</time>
      </trkpt>
      <trkpt lat="43.98787" lon="5.12293">
        <ele>301.03</ele>
        <time>2015-12-21T11:02:32Z</time>
      </trkpt>
      <trkpt lat="43.98774" lon="5.12252">
        <ele>301.03</ele>
        <time>2015-12-21T11:02:40Z</time>
      </trkpt>
      <trkpt lat="43.98769" lon="5.1222">
        <ele>301.03</ele>
        <time>2015-12-21T11:02:46Z</time>
      </trkpt>
      <trkpt lat="43.98762" lon="5.12185">
        <ele>301.51</ele>
        <time>2015-12-21T11:02:53Z</time>
      </trkpt>
      <trkpt lat="43.98753" lon="5.12158">
        <ele>301.03</ele>
        <time>2015-12-21T11:02:59Z</time>
      </trkpt>
      <trkpt lat="43.98745" lon="5.12138">
        <ele>299.59</ele>
        <time>2015-12-21T11:03:05Z</time>
      </trkpt>
      <trkpt lat="43.98739" lon="5.12121">
        <ele>297.67</ele>
        <time>2015-12-21T11:03:12Z</time>
      </trkpt>
      <trkpt lat="43.98738" lon="5.12115">
        <ele>296.7</ele>
        <time>2015-12-21T11:03:14Z</time>
      </trkpt>
      <trkpt lat="43.98737" lon="5.12107">
        <ele>295.74</ele>
        <time>2015-12-21T11:03:19Z</time>
      </trkpt>
      <trkpt lat="43.9874" lon="5.1211">
        <ele>295.74</ele>
        <time>2015-12-21T11:03:27Z</time>
      </trkpt>
      <trkpt lat="43.98739" lon="5.1211">
        <ele>295.74</ele>
        <time>2015-12-21T11:03:34Z</time>
      </trkpt>
      <trkpt lat="43.98739" lon="5.1211">
        <ele>295.26</ele>
        <time>2015-12-21T11:03:35Z</time>
      </trkpt>
      <trkpt lat="43.98738" lon="5.12108">
        <ele>295.26</ele>
        <time>2015-12-21T11:03:36Z</time>
      </trkpt>
      <trkpt lat="43.98736" lon="5.12104">
        <ele>294.78</ele>
        <time>2015-12-21T11:03:38Z</time>
      </trkpt>
      <trkpt lat="43.98735" lon="5.12101">
        <ele>294.3</ele>
        <time>2015-12-21T11:03:39Z</time>
      </trkpt>
      <trkpt lat="43.98733" lon="5.121">
        <ele>293.82</ele>
        <time>2015-12-21T11:03:40Z</time>
      </trkpt>
      <trkpt lat="43.9873" lon="5.12099">
        <ele>292.86</ele>
        <time>2015-12-21T11:03:41Z</time>
      </trkpt>
      <trkpt lat="43.98728" lon="5.12099">
        <ele>292.38</ele>
        <time>2015-12-21T11:03:42Z</time>
      </trkpt>
      <trkpt lat="43.98697" lon="5.12111">
        <ele>292.86</ele>
        <time>2015-12-21T11:03:51Z</time>
      </trkpt>
      <trkpt lat="43.98691" lon="5.12113">
        <ele>293.34</ele>
        <time>2015-12-21T11:03:52Z</time>
      </trkpt>
      <trkpt lat="43.98686" lon="5.12113">
        <ele>293.34</ele>
        <time>2015-12-21T11:03:53Z</time>
      </trkpt>
      <trkpt lat="43.98668" lon="5.12113">
        <ele>293.34</ele>
        <time>2015-12-21T11:03:56Z</time>
      </trkpt>
      <trkpt lat="43.98662" lon="5.12111">
        <ele>293.82</ele>
        <time>2015-12-21T11:03:57Z</time>
      </trkpt>
      <trkpt lat="43.98651" lon="5.1211">
        <ele>293.82</ele>
        <time>2015-12-21T11:03:59Z</time>
      </trkpt>
      <trkpt lat="43.98646" lon="5.1211">
        <ele>293.82</ele>
        <time>2015-12-21T11:04:00Z</time>
      </trkpt>
      <trkpt lat="43.98641" lon="5.1211">
        <ele>293.82</ele>
        <time>2015-12-21T11:04:01Z</time>
      </trkpt>
      <trkpt lat="43.98637" lon="5.12112">
        <ele>293.82</ele>
        <time>2015-12-21T11:04:02Z</time>
      </trkpt>
      <trkpt lat="43.98633" lon="5.12114">
        <ele>293.82</ele>
        <time>2015-12-21T11:04:03Z</time>
      </trkpt>
      <trkpt lat="43.98629" lon="5.12117">
        <ele>294.3</ele>
        <time>2015-12-21T11:04:04Z</time>
      </trkpt>
      <trkpt lat="43.98625" lon="5.1212">
        <ele>294.3</ele>
        <time>2015-12-21T11:04:05Z</time>
      </trkpt>
      <trkpt lat="43.98613" lon="5.1214">
        <ele>294.78</ele>
        <time>2015-12-21T11:04:10Z</time>
      </trkpt>
      <trkpt lat="43.98603" lon="5.12169">
        <ele>294.78</ele>
        <time>2015-12-21T11:04:17Z</time>
      </trkpt>
      <trkpt lat="43.98603" lon="5.1217">
        <ele>294.3</ele>
        <time>2015-12-21T11:04:24Z</time>
      </trkpt>
      <trkpt lat="43.98603" lon="5.1217">
        <ele>294.3</ele>
        <time>2015-12-21T11:04:37Z</time>
      </trkpt>
      <trkpt lat="43.986" lon="5.12171">
        <ele>294.3</ele>
        <time>2015-12-21T11:04:43Z</time>
      </trkpt>
      <trkpt lat="43.986" lon="5.12171">
        <ele>294.3</ele>
        <time>2015-12-21T11:04:44Z</time>
      </trkpt>
      <trkpt lat="43.98598" lon="5.1217">
        <ele>293.82</ele>
        <time>2015-12-21T11:04:45Z</time>
      </trkpt>
      <trkpt lat="43.98597" lon="5.12169">
        <ele>293.34</ele>
        <time>2015-12-21T11:04:46Z</time>
      </trkpt>
      <trkpt lat="43.98593" lon="5.12167">
        <ele>293.34</ele>
        <time>2015-12-21T11:04:49Z</time>
      </trkpt>
      <trkpt lat="43.98591" lon="5.12167">
        <ele>293.34</ele>
        <time>2015-12-21T11:04:50Z</time>
      </trkpt>
      <trkpt lat="43.9859" lon="5.12166">
        <ele>292.86</ele>
        <time>2015-12-21T11:04:51Z</time>
      </trkpt>
      <trkpt lat="43.98586" lon="5.12165">
        <ele>292.38</ele>
        <time>2015-12-21T11:04:59Z</time>
      </trkpt>
      <trkpt lat="43.98586" lon="5.12166">
        <ele>292.38</ele>
        <time>2015-12-21T11:05:10Z</time>
      </trkpt>
      <trkpt lat="43.98588" lon="5.12168">
        <ele>292.38</ele>
        <time>2015-12-21T11:05:16Z</time>
      </trkpt>
      <trkpt lat="43.98588" lon="5.12167">
        <ele>292.86</ele>
        <time>2015-12-21T11:05:27Z</time>
      </trkpt>
      <trkpt lat="43.98589" lon="5.12166">
        <ele>292.38</ele>
        <time>2015-12-21T11:05:43Z</time>
      </trkpt>
      <trkpt lat="43.98589" lon="5.12168">
        <ele>292.38</ele>
        <time>2015-12-21T11:05:50Z</time>
      </trkpt>
      <trkpt lat="43.98591" lon="5.12167">
        <ele>292.86</ele>
        <time>2015-12-21T11:05:59Z</time>
      </trkpt>
      <trkpt lat="43.98595" lon="5.12167">
        <ele>293.34</ele>
        <time>2015-12-21T11:06:05Z</time>
      </trkpt>
      <trkpt lat="43.98597" lon="5.12168">
        <ele>293.82</ele>
        <time>2015-12-21T11:06:12Z</time>
      </trkpt>
      <trkpt lat="43.98598" lon="5.12168">
        <ele>293.82</ele>
        <time>2015-12-21T11:06:14Z</time>
      </trkpt>
      <trkpt lat="43.98599" lon="5.12169">
        <ele>294.3</ele>
        <time>2015-12-21T11:06:21Z</time>
      </trkpt>
      <trkpt lat="43.986" lon="5.12172">
        <ele>294.3</ele>
        <time>2015-12-21T11:06:29Z</time>
      </trkpt>
      <trkpt lat="43.986" lon="5.12175">
        <ele>294.3</ele>
        <time>2015-12-21T11:06:30Z</time>
      </trkpt>
      <trkpt lat="43.986" lon="5.12207">
        <ele>293.82</ele>
        <time>2015-12-21T11:06:36Z</time>
      </trkpt>
      <trkpt lat="43.98595" lon="5.12236">
        <ele>294.78</ele>
        <time>2015-12-21T11:06:42Z</time>
      </trkpt>
      <trkpt lat="43.98586" lon="5.12267">
        <ele>294.78</ele>
        <time>2015-12-21T11:06:48Z</time>
      </trkpt>
      <trkpt lat="43.98585" lon="5.12273">
        <ele>294.78</ele>
        <time>2015-12-21T11:06:49Z</time>
      </trkpt>
      <trkpt lat="43.98584" lon="5.12279">
        <ele>294.78</ele>
        <time>2015-12-21T11:06:50Z</time>
      </trkpt>
      <trkpt lat="43.98583" lon="5.12285">
        <ele>294.3</ele>
        <time>2015-12-21T11:06:51Z</time>
      </trkpt>
      <trkpt lat="43.98582" lon="5.12291">
        <ele>294.3</ele>
        <time>2015-12-21T11:06:52Z</time>
      </trkpt>
      <trkpt lat="43.98572" lon="5.12324">
        <ele>294.3</ele>
        <time>2015-12-21T11:06:58Z</time>
      </trkpt>
      <trkpt lat="43.98559" lon="5.12349">
        <ele>294.3</ele>
        <time>2015-12-21T11:07:05Z</time>
      </trkpt>
      <trkpt lat="43.98543" lon="5.12376">
        <ele>294.3</ele>
        <time>2015-12-21T11:07:13Z</time>
      </trkpt>
      <trkpt lat="43.98532" lon="5.12399">
        <ele>294.3</ele>
        <time>2015-12-21T11:07:19Z</time>
      </trkpt>
      <trkpt lat="43.98527" lon="5.12413">
        <ele>293.82</ele>
        <time>2015-12-21T11:07:22Z</time>
      </trkpt>
      <trkpt lat="43.98527" lon="5.12419">
        <ele>293.34</ele>
        <time>2015-12-21T11:07:23Z</time>
      </trkpt>
      <trkpt lat="43.98528" lon="5.12425">
        <ele>293.34</ele>
        <time>2015-12-21T11:07:24Z</time>
      </trkpt>
      <trkpt lat="43.98533" lon="5.12456">
        <ele>292.38</ele>
        <time>2015-12-21T11:07:30Z</time>
      </trkpt>
      <trkpt lat="43.98545" lon="5.1249">
        <ele>291.42</ele>
        <time>2015-12-21T11:07:37Z</time>
      </trkpt>
      <trkpt lat="43.98545" lon="5.12494">
        <ele>291.42</ele>
        <time>2015-12-21T11:07:38Z</time>
      </trkpt>
      <trkpt lat="43.98544" lon="5.12497">
        <ele>290.94</ele>
        <time>2015-12-21T11:07:39Z</time>
      </trkpt>
      <trkpt lat="43.98543" lon="5.125">
        <ele>290.46</ele>
        <time>2015-12-21T11:07:40Z</time>
      </trkpt>
      <trkpt lat="43.98541" lon="5.12502">
        <ele>290.46</ele>
        <time>2015-12-21T11:07:41Z</time>
      </trkpt>
      <trkpt lat="43.98539" lon="5.12505">
        <ele>289.97</ele>
        <time>2015-12-21T11:07:42Z</time>
      </trkpt>
      <trkpt lat="43.98536" lon="5.12509">
        <ele>289.97</ele>
        <time>2015-12-21T11:07:43Z</time>
      </trkpt>
      <trkpt lat="43.98532" lon="5.12511">
        <ele>289.49</ele>
        <time>2015-12-21T11:07:44Z</time>
      </trkpt>
      <trkpt lat="43.98527" lon="5.12511">
        <ele>289.01</ele>
        <time>2015-12-21T11:07:45Z</time>
      </trkpt>
      <trkpt lat="43.98522" lon="5.12511">
        <ele>288.53</ele>
        <time>2015-12-21T11:07:46Z</time>
      </trkpt>
      <trkpt lat="43.98518" lon="5.12511">
        <ele>288.53</ele>
        <time>2015-12-21T11:07:47Z</time>
      </trkpt>
      <trkpt lat="43.98513" lon="5.12511">
        <ele>288.53</ele>
        <time>2015-12-21T11:07:48Z</time>
      </trkpt>
      <trkpt lat="43.98508" lon="5.1251">
        <ele>288.53</ele>
        <time>2015-12-21T11:07:49Z</time>
      </trkpt>
      <trkpt lat="43.98504" lon="5.12509">
        <ele>288.53</ele>
        <time>2015-12-21T11:07:50Z</time>
      </trkpt>
      <trkpt lat="43.98499" lon="5.12508">
        <ele>288.05</ele>
        <time>2015-12-21T11:07:51Z</time>
      </trkpt>
      <trkpt lat="43.98495" lon="5.12508">
        <ele>288.05</ele>
        <time>2015-12-21T11:07:52Z</time>
      </trkpt>
      <trkpt lat="43.98486" lon="5.12511">
        <ele>288.05</ele>
        <time>2015-12-21T11:07:54Z</time>
      </trkpt>
      <trkpt lat="43.98483" lon="5.12512">
        <ele>288.05</ele>
        <time>2015-12-21T11:07:55Z</time>
      </trkpt>
      <trkpt lat="43.98479" lon="5.12515">
        <ele>288.53</ele>
        <time>2015-12-21T11:07:56Z</time>
      </trkpt>
      <trkpt lat="43.98477" lon="5.12518">
        <ele>289.01</ele>
        <time>2015-12-21T11:07:57Z</time>
      </trkpt>
      <trkpt lat="43.98474" lon="5.12521">
        <ele>288.53</ele>
        <time>2015-12-21T11:07:58Z</time>
      </trkpt>
      <trkpt lat="43.98473" lon="5.12524">
        <ele>288.53</ele>
        <time>2015-12-21T11:07:59Z</time>
      </trkpt>
      <trkpt lat="43.98471" lon="5.12529">
        <ele>288.05</ele>
        <time>2015-12-21T11:08:00Z</time>
      </trkpt>
      <trkpt lat="43.98471" lon="5.12534">
        <ele>288.05</ele>
        <time>2015-12-21T11:08:01Z</time>
      </trkpt>
      <trkpt lat="43.98471" lon="5.12539">
        <ele>288.05</ele>
        <time>2015-12-21T11:08:02Z</time>
      </trkpt>
      <trkpt lat="43.9847" lon="5.12544">
        <ele>287.57</ele>
        <time>2015-12-21T11:08:03Z</time>
      </trkpt>
      <trkpt lat="43.98469" lon="5.12547">
        <ele>287.57</ele>
        <time>2015-12-21T11:08:04Z</time>
      </trkpt>
      <trkpt lat="43.9846" lon="5.12571">
        <ele>286.13</ele>
        <time>2015-12-21T11:08:10Z</time>
      </trkpt>
      <trkpt lat="43.98457" lon="5.12587">
        <ele>284.69</ele>
        <time>2015-12-21T11:08:15Z</time>
      </trkpt>
      <trkpt lat="43.98454" lon="5.12597">
        <ele>284.21</ele>
        <time>2015-12-21T11:08:17Z</time>
      </trkpt>
      <trkpt lat="43.98452" lon="5.12602">
        <ele>284.21</ele>
        <time>2015-12-21T11:08:18Z</time>
      </trkpt>
      <trkpt lat="43.98449" lon="5.12608">
        <ele>283.73</ele>
        <time>2015-12-21T11:08:19Z</time>
      </trkpt>
      <trkpt lat="43.98447" lon="5.12616">
        <ele>283.25</ele>
        <time>2015-12-21T11:08:20Z</time>
      </trkpt>
      <trkpt lat="43.98445" lon="5.12623">
        <ele>281.8</ele>
        <time>2015-12-21T11:08:21Z</time>
      </trkpt>
      <trkpt lat="43.98443" lon="5.12639">
        <ele>280.84</ele>
        <time>2015-12-21T11:08:23Z</time>
      </trkpt>
      <trkpt lat="43.98441" lon="5.12644">
        <ele>280.36</ele>
        <time>2015-12-21T11:08:24Z</time>
      </trkpt>
      <trkpt lat="43.98437" lon="5.12648">
        <ele>280.36</ele>
        <time>2015-12-21T11:08:25Z</time>
      </trkpt>
      <trkpt lat="43.9843" lon="5.12655">
        <ele>280.36</ele>
        <time>2015-12-21T11:08:27Z</time>
      </trkpt>
      <trkpt lat="43.98427" lon="5.1266">
        <ele>280.36</ele>
        <time>2015-12-21T11:08:28Z</time>
      </trkpt>
      <trkpt lat="43.9842" lon="5.12675">
        <ele>280.36</ele>
        <time>2015-12-21T11:08:31Z</time>
      </trkpt>
      <trkpt lat="43.98419" lon="5.12681">
        <ele>279.88</ele>
        <time>2015-12-21T11:08:32Z</time>
      </trkpt>
      <trkpt lat="43.98417" lon="5.12688">
        <ele>279.88</ele>
        <time>2015-12-21T11:08:33Z</time>
      </trkpt>
      <trkpt lat="43.98416" lon="5.12701">
        <ele>279.4</ele>
        <time>2015-12-21T11:08:35Z</time>
      </trkpt>
      <trkpt lat="43.98415" lon="5.12707">
        <ele>279.4</ele>
        <time>2015-12-21T11:08:36Z</time>
      </trkpt>
      <trkpt lat="43.98414" lon="5.12718">
        <ele>278.92</ele>
        <time>2015-12-21T11:08:38Z</time>
      </trkpt>
      <trkpt lat="43.98415" lon="5.12723">
        <ele>278.92</ele>
        <time>2015-12-21T11:08:39Z</time>
      </trkpt>
      <trkpt lat="43.98417" lon="5.12729">
        <ele>278.44</ele>
        <time>2015-12-21T11:08:40Z</time>
      </trkpt>
      <trkpt lat="43.9842" lon="5.12734">
        <ele>277.96</ele>
        <time>2015-12-21T11:08:41Z</time>
      </trkpt>
      <trkpt lat="43.98422" lon="5.12739">
        <ele>277.96</ele>
        <time>2015-12-21T11:08:42Z</time>
      </trkpt>
      <trkpt lat="43.98424" lon="5.12743">
        <ele>277.48</ele>
        <time>2015-12-21T11:08:43Z</time>
      </trkpt>
      <trkpt lat="43.9843" lon="5.12753">
        <ele>277</ele>
        <time>2015-12-21T11:08:45Z</time>
      </trkpt>
      <trkpt lat="43.98435" lon="5.12763">
        <ele>276.52</ele>
        <time>2015-12-21T11:08:47Z</time>
      </trkpt>
      <trkpt lat="43.98438" lon="5.12768">
        <ele>277</ele>
        <time>2015-12-21T11:08:48Z</time>
      </trkpt>
      <trkpt lat="43.9844" lon="5.12774">
        <ele>277</ele>
        <time>2015-12-21T11:08:49Z</time>
      </trkpt>
      <trkpt lat="43.98442" lon="5.12779">
        <ele>277</ele>
        <time>2015-12-21T11:08:50Z</time>
      </trkpt>
      <trkpt lat="43.98445" lon="5.12784">
        <ele>277</ele>
        <time>2015-12-21T11:08:51Z</time>
      </trkpt>
      <trkpt lat="43.98447" lon="5.12789">
        <ele>277.48</ele>
        <time>2015-12-21T11:08:52Z</time>
      </trkpt>
      <trkpt lat="43.98448" lon="5.12795">
        <ele>277</ele>
        <time>2015-12-21T11:08:53Z</time>
      </trkpt>
      <trkpt lat="43.98448" lon="5.12801">
        <ele>277</ele>
        <time>2015-12-21T11:08:54Z</time>
      </trkpt>
      <trkpt lat="43.98447" lon="5.12806">
        <ele>277</ele>
        <time>2015-12-21T11:08:55Z</time>
      </trkpt>
      <trkpt lat="43.98445" lon="5.12811">
        <ele>277</ele>
        <time>2015-12-21T11:08:56Z</time>
      </trkpt>
      <trkpt lat="43.98443" lon="5.12815">
        <ele>277</ele>
        <time>2015-12-21T11:08:57Z</time>
      </trkpt>
      <trkpt lat="43.9844" lon="5.12818">
        <ele>277.48</ele>
        <time>2015-12-21T11:08:58Z</time>
      </trkpt>
      <trkpt lat="43.98436" lon="5.12821">
        <ele>277.48</ele>
        <time>2015-12-21T11:08:59Z</time>
      </trkpt>
      <trkpt lat="43.98432" lon="5.12822">
        <ele>277</ele>
        <time>2015-12-21T11:09:00Z</time>
      </trkpt>
      <trkpt lat="43.98429" lon="5.12824">
        <ele>277.48</ele>
        <time>2015-12-21T11:09:01Z</time>
      </trkpt>
      <trkpt lat="43.98408" lon="5.12846">
        <ele>277.96</ele>
        <time>2015-12-21T11:09:08Z</time>
      </trkpt>
      <trkpt lat="43.98398" lon="5.12869">
        <ele>277.96</ele>
        <time>2015-12-21T11:09:14Z</time>
      </trkpt>
      <trkpt lat="43.98396" lon="5.12873">
        <ele>277</ele>
        <time>2015-12-21T11:09:18Z</time>
      </trkpt>
      <trkpt lat="43.98396" lon="5.12872">
        <ele>277</ele>
        <time>2015-12-21T11:09:27Z</time>
      </trkpt>
      <trkpt lat="43.98394" lon="5.12876">
        <ele>277</ele>
        <time>2015-12-21T11:09:35Z</time>
      </trkpt>
      <trkpt lat="43.98394" lon="5.12876">
        <ele>277</ele>
        <time>2015-12-21T11:09:47Z</time>
      </trkpt>
      <trkpt lat="43.98393" lon="5.12875">
        <ele>276.52</ele>
        <time>2015-12-21T11:09:57Z</time>
      </trkpt>
      <trkpt lat="43.98393" lon="5.12874">
        <ele>276.04</ele>
        <time>2015-12-21T11:10:08Z</time>
      </trkpt>
      <trkpt lat="43.98393" lon="5.12874">
        <ele>276.04</ele>
        <time>2015-12-21T11:10:20Z</time>
      </trkpt>
      <trkpt lat="43.98393" lon="5.12875">
        <ele>276.04</ele>
        <time>2015-12-21T11:10:36Z</time>
      </trkpt>
      <trkpt lat="43.98394" lon="5.12874">
        <ele>276.04</ele>
        <time>2015-12-21T11:10:46Z</time>
      </trkpt>
      <trkpt lat="43.98394" lon="5.12874">
        <ele>276.04</ele>
        <time>2015-12-21T11:10:59Z</time>
      </trkpt>
      <trkpt lat="43.98394" lon="5.12874">
        <ele>276.04</ele>
        <time>2015-12-21T11:11:12Z</time>
      </trkpt>
      <trkpt lat="43.98393" lon="5.12874">
        <ele>276.04</ele>
        <time>2015-12-21T11:11:20Z</time>
      </trkpt>
      <trkpt lat="43.98393" lon="5.12874">
        <ele>276.04</ele>
        <time>2015-12-21T11:11:32Z</time>
      </trkpt>
      <trkpt lat="43.98394" lon="5.12874">
        <ele>276.04</ele>
        <time>2015-12-21T11:11:44Z</time>
      </trkpt>
      <trkpt lat="43.98394" lon="5.12874">
        <ele>275.56</ele>
        <time>2015-12-21T11:11:54Z</time>
      </trkpt>
      <trkpt lat="43.98393" lon="5.12874">
        <ele>276.52</ele>
        <time>2015-12-21T11:11:59Z</time>
      </trkpt>
      <trkpt lat="43.98393" lon="5.12874">
        <ele>277</ele>
        <time>2015-12-21T11:12:04Z</time>
      </trkpt>
      <trkpt lat="43.98393" lon="5.12874">
        <ele>276.52</ele>
        <time>2015-12-21T11:12:10Z</time>
      </trkpt>
      <trkpt lat="43.98393" lon="5.12874">
        <ele>276.52</ele>
        <time>2015-12-21T11:12:27Z</time>
      </trkpt>
      <trkpt lat="43.98393" lon="5.12874">
        <ele>277</ele>
        <time>2015-12-21T11:12:39Z</time>
      </trkpt>
      <trkpt lat="43.98393" lon="5.12876">
        <ele>277</ele>
        <time>2015-12-21T11:12:46Z</time>
      </trkpt>
      <trkpt lat="43.9839" lon="5.12879">
        <ele>277</ele>
        <time>2015-12-21T11:12:48Z</time>
      </trkpt>
      <trkpt lat="43.98389" lon="5.1288">
        <ele>277</ele>
        <time>2015-12-21T11:12:49Z</time>
      </trkpt>
      <trkpt lat="43.98381" lon="5.12884">
        <ele>276.52</ele>
        <time>2015-12-21T11:12:52Z</time>
      </trkpt>
      <trkpt lat="43.98368" lon="5.12884">
        <ele>276.52</ele>
        <time>2015-12-21T11:12:56Z</time>
      </trkpt>
      <trkpt lat="43.98356" lon="5.12889">
        <ele>276.52</ele>
        <time>2015-12-21T11:13:01Z</time>
      </trkpt>
      <trkpt lat="43.98345" lon="5.12904">
        <ele>277</ele>
        <time>2015-12-21T11:13:08Z</time>
      </trkpt>
      <trkpt lat="43.98342" lon="5.12919">
        <ele>277.48</ele>
        <time>2015-12-21T11:13:13Z</time>
      </trkpt>
      <trkpt lat="43.98349" lon="5.12925">
        <ele>278.44</ele>
        <time>2015-12-21T11:13:19Z</time>
      </trkpt>
      <trkpt lat="43.9835" lon="5.12926">
        <ele>278.92</ele>
        <time>2015-12-21T11:13:22Z</time>
      </trkpt>
      <trkpt lat="43.98351" lon="5.12929">
        <ele>279.88</ele>
        <time>2015-12-21T11:13:25Z</time>
      </trkpt>
      <trkpt lat="43.98348" lon="5.12945">
        <ele>279.88</ele>
        <time>2015-12-21T11:13:31Z</time>
      </trkpt>
      <trkpt lat="43.98346" lon="5.1295">
        <ele>279.88</ele>
        <time>2015-12-21T11:13:33Z</time>
      </trkpt>
      <trkpt lat="43.98343" lon="5.12971">
        <ele>280.84</ele>
        <time>2015-12-21T11:13:42Z</time>
      </trkpt>
      <trkpt lat="43.98343" lon="5.12973">
        <ele>281.32</ele>
        <time>2015-12-21T11:13:47Z</time>
      </trkpt>
      <trkpt lat="43.98342" lon="5.12973">
        <ele>281.32</ele>
        <time>2015-12-21T11:13:57Z</time>
      </trkpt>
      <trkpt lat="43.98341" lon="5.12972">
        <ele>280.84</ele>
        <time>2015-12-21T11:14:17Z</time>
      </trkpt>
      <trkpt lat="43.98341" lon="5.12972">
        <ele>280.84</ele>
        <time>2015-12-21T11:14:34Z</time>
      </trkpt>
      <trkpt lat="43.98341" lon="5.12972">
        <ele>280.84</ele>
        <time>2015-12-21T11:14:52Z</time>
      </trkpt>
      <trkpt lat="43.98341" lon="5.12973">
        <ele>280.84</ele>
        <time>2015-12-21T11:15:07Z</time>
      </trkpt>
      <trkpt lat="43.98341" lon="5.12973">
        <ele>280.84</ele>
        <time>2015-12-21T11:15:24Z</time>
      </trkpt>
      <trkpt lat="43.9834" lon="5.12973">
        <ele>280.84</ele>
        <time>2015-12-21T11:15:39Z</time>
      </trkpt>
      <trkpt lat="43.98341" lon="5.12973">
        <ele>280.84</ele>
        <time>2015-12-21T11:15:53Z</time>
      </trkpt>
      <trkpt lat="43.98341" lon="5.12974">
        <ele>280.84</ele>
        <time>2015-12-21T11:16:08Z</time>
      </trkpt>
      <trkpt lat="43.98341" lon="5.12974">
        <ele>280.84</ele>
        <time>2015-12-21T11:16:14Z</time>
      </trkpt>
      <trkpt lat="43.98339" lon="5.12984">
        <ele>281.8</ele>
        <time>2015-12-21T11:16:19Z</time>
      </trkpt>
      <trkpt lat="43.98332" lon="5.12994">
        <ele>282.28</ele>
        <time>2015-12-21T11:16:23Z</time>
      </trkpt>
      <trkpt lat="43.98319" lon="5.13009">
        <ele>283.25</ele>
        <time>2015-12-21T11:16:29Z</time>
      </trkpt>
      <trkpt lat="43.98312" lon="5.13019">
        <ele>284.21</ele>
        <time>2015-12-21T11:16:33Z</time>
      </trkpt>
      <trkpt lat="43.983" lon="5.13038">
        <ele>285.17</ele>
        <time>2015-12-21T11:16:40Z</time>
      </trkpt>
      <trkpt lat="43.98288" lon="5.13061">
        <ele>285.65</ele>
        <time>2015-12-21T11:16:47Z</time>
      </trkpt>
      <trkpt lat="43.98279" lon="5.13083">
        <ele>285.65</ele>
        <time>2015-12-21T11:16:52Z</time>
      </trkpt>
      <trkpt lat="43.98257" lon="5.13109">
        <ele>286.13</ele>
        <time>2015-12-21T11:16:59Z</time>
      </trkpt>
      <trkpt lat="43.98242" lon="5.13126">
        <ele>286.61</ele>
        <time>2015-12-21T11:17:04Z</time>
      </trkpt>
      <trkpt lat="43.98231" lon="5.1315">
        <ele>286.61</ele>
        <time>2015-12-21T11:17:11Z</time>
      </trkpt>
      <trkpt lat="43.98229" lon="5.13163">
        <ele>288.53</ele>
        <time>2015-12-21T11:17:15Z</time>
      </trkpt>
      <trkpt lat="43.98222" lon="5.13169">
        <ele>289.49</ele>
        <time>2015-12-21T11:17:19Z</time>
      </trkpt>
      <trkpt lat="43.98215" lon="5.13182">
        <ele>289.49</ele>
        <time>2015-12-21T11:17:23Z</time>
      </trkpt>
      <trkpt lat="43.98199" lon="5.13204">
        <ele>289.49</ele>
        <time>2015-12-21T11:17:30Z</time>
      </trkpt>
      <trkpt lat="43.98191" lon="5.13225">
        <ele>289.49</ele>
        <time>2015-12-21T11:17:36Z</time>
      </trkpt>
      <trkpt lat="43.98187" lon="5.13234">
        <ele>289.49</ele>
        <time>2015-12-21T11:17:39Z</time>
      </trkpt>
      <trkpt lat="43.98175" lon="5.13255">
        <ele>289.97</ele>
        <time>2015-12-21T11:17:47Z</time>
      </trkpt>
      <trkpt lat="43.98174" lon="5.13259">
        <ele>289.97</ele>
        <time>2015-12-21T11:17:55Z</time>
      </trkpt>
      <trkpt lat="43.98173" lon="5.1326">
        <ele>289.97</ele>
        <time>2015-12-21T11:17:59Z</time>
      </trkpt>
      <trkpt lat="43.98155" lon="5.13268">
        <ele>288.53</ele>
        <time>2015-12-21T11:18:05Z</time>
      </trkpt>
      <trkpt lat="43.98128" lon="5.1328">
        <ele>285.65</ele>
        <time>2015-12-21T11:18:11Z</time>
      </trkpt>
      <trkpt lat="43.98126" lon="5.13281">
        <ele>285.65</ele>
        <time>2015-12-21T11:18:12Z</time>
      </trkpt>
      <trkpt lat="43.98124" lon="5.13281">
        <ele>285.17</ele>
        <time>2015-12-21T11:18:13Z</time>
      </trkpt>
      <trkpt lat="43.98122" lon="5.1328">
        <ele>285.65</ele>
        <time>2015-12-21T11:18:14Z</time>
      </trkpt>
      <trkpt lat="43.98113" lon="5.13277">
        <ele>284.21</ele>
        <time>2015-12-21T11:18:16Z</time>
      </trkpt>
      <trkpt lat="43.98109" lon="5.13277">
        <ele>284.21</ele>
        <time>2015-12-21T11:18:17Z</time>
      </trkpt>
      <trkpt lat="43.98107" lon="5.13277">
        <ele>283.73</ele>
        <time>2015-12-21T11:18:18Z</time>
      </trkpt>
      <trkpt lat="43.98105" lon="5.13276">
        <ele>282.77</ele>
        <time>2015-12-21T11:18:19Z</time>
      </trkpt>
      <trkpt lat="43.98104" lon="5.13276">
        <ele>282.77</ele>
        <time>2015-12-21T11:18:23Z</time>
      </trkpt>
      <trkpt lat="43.98103" lon="5.13276">
        <ele>282.77</ele>
        <time>2015-12-21T11:18:24Z</time>
      </trkpt>
      <trkpt lat="43.98101" lon="5.13277">
        <ele>282.28</ele>
        <time>2015-12-21T11:18:25Z</time>
      </trkpt>
      <trkpt lat="43.981" lon="5.13279">
        <ele>281.8</ele>
        <time>2015-12-21T11:18:26Z</time>
      </trkpt>
      <trkpt lat="43.98098" lon="5.13281">
        <ele>281.32</ele>
        <time>2015-12-21T11:18:27Z</time>
      </trkpt>
      <trkpt lat="43.98096" lon="5.13283">
        <ele>281.32</ele>
        <time>2015-12-21T11:18:28Z</time>
      </trkpt>
      <trkpt lat="43.98095" lon="5.13286">
        <ele>280.84</ele>
        <time>2015-12-21T11:18:29Z</time>
      </trkpt>
      <trkpt lat="43.98092" lon="5.13289">
        <ele>279.88</ele>
        <time>2015-12-21T11:18:30Z</time>
      </trkpt>
      <trkpt lat="43.98089" lon="5.1329">
        <ele>279.88</ele>
        <time>2015-12-21T11:18:31Z</time>
      </trkpt>
      <trkpt lat="43.98085" lon="5.13292">
        <ele>279.4</ele>
        <time>2015-12-21T11:18:32Z</time>
      </trkpt>
      <trkpt lat="43.98061" lon="5.13304">
        <ele>277</ele>
        <time>2015-12-21T11:18:38Z</time>
      </trkpt>
      <trkpt lat="43.98049" lon="5.13305">
        <ele>276.52</ele>
        <time>2015-12-21T11:18:42Z</time>
      </trkpt>
      <trkpt lat="43.98046" lon="5.13303">
        <ele>276.52</ele>
        <time>2015-12-21T11:18:43Z</time>
      </trkpt>
      <trkpt lat="43.98045" lon="5.13301">
        <ele>277</ele>
        <time>2015-12-21T11:18:44Z</time>
      </trkpt>
      <trkpt lat="43.98044" lon="5.13301">
        <ele>277</ele>
        <time>2015-12-21T11:18:50Z</time>
      </trkpt>
      <trkpt lat="43.98044" lon="5.13299">
        <ele>277</ele>
        <time>2015-12-21T11:18:58Z</time>
      </trkpt>
      <trkpt lat="43.98043" lon="5.13299">
        <ele>277.48</ele>
        <time>2015-12-21T11:19:13Z</time>
      </trkpt>
      <trkpt lat="43.98043" lon="5.13298">
        <ele>277.48</ele>
        <time>2015-12-21T11:19:32Z</time>
      </trkpt>
      <trkpt lat="43.98043" lon="5.13298">
        <ele>277</ele>
        <time>2015-12-21T11:19:47Z</time>
      </trkpt>
      <trkpt lat="43.98042" lon="5.13298">
        <ele>277</ele>
        <time>2015-12-21T11:20:04Z</time>
      </trkpt>
      <trkpt lat="43.98042" lon="5.13298">
        <ele>277.48</ele>
        <time>2015-12-21T11:20:18Z</time>
      </trkpt>
      <trkpt lat="43.98041" lon="5.13297">
        <ele>277.48</ele>
        <time>2015-12-21T11:20:25Z</time>
      </trkpt>
      <trkpt lat="43.98041" lon="5.13297">
        <ele>277</ele>
        <time>2015-12-21T11:20:40Z</time>
      </trkpt>
      <trkpt lat="43.98041" lon="5.13297">
        <ele>277</ele>
        <time>2015-12-21T11:20:58Z</time>
      </trkpt>
      <trkpt lat="43.98041" lon="5.13296">
        <ele>277.48</ele>
        <time>2015-12-21T11:21:16Z</time>
      </trkpt>
      <trkpt lat="43.98041" lon="5.13295">
        <ele>277.48</ele>
        <time>2015-12-21T11:21:35Z</time>
      </trkpt>
      <trkpt lat="43.98042" lon="5.13295">
        <ele>277</ele>
        <time>2015-12-21T11:21:53Z</time>
      </trkpt>
      <trkpt lat="43.98042" lon="5.13295">
        <ele>277</ele>
        <time>2015-12-21T11:22:12Z</time>
      </trkpt>
      <trkpt lat="43.98042" lon="5.13296">
        <ele>277</ele>
        <time>2015-12-21T11:22:31Z</time>
      </trkpt>
      <trkpt lat="43.98041" lon="5.13296">
        <ele>277.48</ele>
        <time>2015-12-21T11:22:49Z</time>
      </trkpt>
      <trkpt lat="43.98041" lon="5.13296">
        <ele>276.52</ele>
        <time>2015-12-21T11:23:02Z</time>
      </trkpt>
      <trkpt lat="43.98041" lon="5.13295">
        <ele>277.48</ele>
        <time>2015-12-21T11:23:13Z</time>
      </trkpt>
      <trkpt lat="43.98041" lon="5.13295">
        <ele>277</ele>
        <time>2015-12-21T11:23:32Z</time>
      </trkpt>
      <trkpt lat="43.98042" lon="5.13294">
        <ele>277</ele>
        <time>2015-12-21T11:23:49Z</time>
      </trkpt>
      <trkpt lat="43.98042" lon="5.13294">
        <ele>277</ele>
        <time>2015-12-21T11:24:01Z</time>
      </trkpt>
      <trkpt lat="43.98042" lon="5.13294">
        <ele>277</ele>
        <time>2015-12-21T11:24:13Z</time>
      </trkpt>
      <trkpt lat="43.98042" lon="5.13294">
        <ele>277.48</ele>
        <time>2015-12-21T11:24:26Z</time>
      </trkpt>
      <trkpt lat="43.98042" lon="5.13294">
        <ele>277</ele>
        <time>2015-12-21T11:24:38Z</time>
      </trkpt>
      <trkpt lat="43.98041" lon="5.13295">
        <ele>277</ele>
        <time>2015-12-21T11:24:50Z</time>
      </trkpt>
      <trkpt lat="43.98041" lon="5.13294">
        <ele>277</ele>
        <time>2015-12-21T11:25:02Z</time>
      </trkpt>
      <trkpt lat="43.98042" lon="5.13294">
        <ele>277</ele>
        <time>2015-12-21T11:25:09Z</time>
      </trkpt>
      <trkpt lat="43.9804" lon="5.13296">
        <ele>277.48</ele>
        <time>2015-12-21T11:25:18Z</time>
      </trkpt>
      <trkpt lat="43.9804" lon="5.13297">
        <ele>277.48</ele>
        <time>2015-12-21T11:25:19Z</time>
      </trkpt>
      <trkpt lat="43.98039" lon="5.13298">
        <ele>277.96</ele>
        <time>2015-12-21T11:25:20Z</time>
      </trkpt>
      <trkpt lat="43.98039" lon="5.133">
        <ele>277.96</ele>
        <time>2015-12-21T11:25:21Z</time>
      </trkpt>
      <trkpt lat="43.98038" lon="5.13302">
        <ele>278.44</ele>
        <time>2015-12-21T11:25:22Z</time>
      </trkpt>
      <trkpt lat="43.98037" lon="5.13303">
        <ele>278.44</ele>
        <time>2015-12-21T11:25:23Z</time>
      </trkpt>
      <trkpt lat="43.98036" lon="5.13304">
        <ele>278.92</ele>
        <time>2015-12-21T11:25:24Z</time>
      </trkpt>
      <trkpt lat="43.98034" lon="5.13304">
        <ele>278.92</ele>
        <time>2015-12-21T11:25:25Z</time>
      </trkpt>
      <trkpt lat="43.98033" lon="5.13304">
        <ele>279.4</ele>
        <time>2015-12-21T11:25:26Z</time>
      </trkpt>
      <trkpt lat="43.98031" lon="5.13305">
        <ele>279.88</ele>
        <time>2015-12-21T11:25:27Z</time>
      </trkpt>
      <trkpt lat="43.98031" lon="5.13306">
        <ele>279.88</ele>
        <time>2015-12-21T11:25:28Z</time>
      </trkpt>
      <trkpt lat="43.98029" lon="5.13308">
        <ele>280.36</ele>
        <time>2015-12-21T11:25:34Z</time>
      </trkpt>
      <trkpt lat="43.98026" lon="5.13312">
        <ele>281.8</ele>
        <time>2015-12-21T11:25:41Z</time>
      </trkpt>
      <trkpt lat="43.9802" lon="5.13318">
        <ele>282.77</ele>
        <time>2015-12-21T11:25:50Z</time>
      </trkpt>
      <trkpt lat="43.98017" lon="5.13323">
        <ele>284.21</ele>
        <time>2015-12-21T11:25:58Z</time>
      </trkpt>
      <trkpt lat="43.98016" lon="5.13324">
        <ele>284.21</ele>
        <time>2015-12-21T11:25:59Z</time>
      </trkpt>
      <trkpt lat="43.98013" lon="5.13327">
        <ele>285.17</ele>
        <time>2015-12-21T11:26:05Z</time>
      </trkpt>
      <trkpt lat="43.98006" lon="5.13332">
        <ele>286.13</ele>
        <time>2015-12-21T11:26:12Z</time>
      </trkpt>
      <trkpt lat="43.97998" lon="5.13335">
        <ele>288.05</ele>
        <time>2015-12-21T11:26:21Z</time>
      </trkpt>
      <trkpt lat="43.97995" lon="5.13338">
        <ele>288.53</ele>
        <time>2015-12-21T11:26:30Z</time>
      </trkpt>
      <trkpt lat="43.97994" lon="5.13338">
        <ele>289.01</ele>
        <time>2015-12-21T11:26:39Z</time>
      </trkpt>
      <trkpt lat="43.97993" lon="5.13338">
        <ele>289.01</ele>
        <time>2015-12-21T11:26:54Z</time>
      </trkpt>
      <trkpt lat="43.97992" lon="5.13338">
        <ele>289.49</ele>
        <time>2015-12-21T11:27:13Z</time>
      </trkpt>
      <trkpt lat="43.97992" lon="5.13338">
        <ele>289.01</ele>
        <time>2015-12-21T11:27:27Z</time>
      </trkpt>
      <trkpt lat="43.97986" lon="5.1334">
        <ele>290.94</ele>
        <time>2015-12-21T11:27:35Z</time>
      </trkpt>
      <trkpt lat="43.9798" lon="5.13341">
        <ele>292.38</ele>
        <time>2015-12-21T11:27:41Z</time>
      </trkpt>
      <trkpt lat="43.97975" lon="5.13343">
        <ele>293.82</ele>
        <time>2015-12-21T11:27:48Z</time>
      </trkpt>
      <trkpt lat="43.9797" lon="5.13344">
        <ele>295.26</ele>
        <time>2015-12-21T11:27:55Z</time>
      </trkpt>
      <trkpt lat="43.97965" lon="5.13345">
        <ele>296.7</ele>
        <time>2015-12-21T11:28:02Z</time>
      </trkpt>
      <trkpt lat="43.97963" lon="5.13345">
        <ele>297.18</ele>
        <time>2015-12-21T11:28:03Z</time>
      </trkpt>
      <trkpt lat="43.97958" lon="5.13346">
        <ele>298.63</ele>
        <time>2015-12-21T11:28:11Z</time>
      </trkpt>
      <trkpt lat="43.97957" lon="5.13346">
        <ele>298.63</ele>
        <time>2015-12-21T11:28:12Z</time>
      </trkpt>
      <trkpt lat="43.97952" lon="5.13346">
        <ele>300.07</ele>
        <time>2015-12-21T11:28:16Z</time>
      </trkpt>
      <trkpt lat="43.97947" lon="5.13345">
        <ele>301.03</ele>
        <time>2015-12-21T11:28:22Z</time>
      </trkpt>
      <trkpt lat="43.97941" lon="5.13343">
        <ele>302.47</ele>
        <time>2015-12-21T11:28:31Z</time>
      </trkpt>
      <trkpt lat="43.97938" lon="5.13344">
        <ele>303.43</ele>
        <time>2015-12-21T11:28:38Z</time>
      </trkpt>
      <trkpt lat="43.97935" lon="5.13343">
        <ele>303.91</ele>
        <time>2015-12-21T11:28:48Z</time>
      </trkpt>
      <trkpt lat="43.97931" lon="5.1334">
        <ele>304.88</ele>
        <time>2015-12-21T11:28:56Z</time>
      </trkpt>
      <trkpt lat="43.9793" lon="5.13337">
        <ele>304.88</ele>
        <time>2015-12-21T11:29:07Z</time>
      </trkpt>
      <trkpt lat="43.9793" lon="5.13337">
        <ele>304.88</ele>
        <time>2015-12-21T11:29:13Z</time>
      </trkpt>
      <trkpt lat="43.9793" lon="5.13336">
        <ele>304.88</ele>
        <time>2015-12-21T11:29:31Z</time>
      </trkpt>
      <trkpt lat="43.97929" lon="5.13337">
        <ele>304.88</ele>
        <time>2015-12-21T11:29:47Z</time>
      </trkpt>
      <trkpt lat="43.97929" lon="5.13337">
        <ele>304.88</ele>
        <time>2015-12-21T11:30:00Z</time>
      </trkpt>
      <trkpt lat="43.97927" lon="5.13335">
        <ele>305.36</ele>
        <time>2015-12-21T11:30:08Z</time>
      </trkpt>
      <trkpt lat="43.97925" lon="5.13335">
        <ele>305.36</ele>
        <time>2015-12-21T11:30:09Z</time>
      </trkpt>
      <trkpt lat="43.97921" lon="5.13326">
        <ele>305.84</ele>
        <time>2015-12-21T11:30:17Z</time>
      </trkpt>
      <trkpt lat="43.97917" lon="5.13324">
        <ele>307.28</ele>
        <time>2015-12-21T11:30:24Z</time>
      </trkpt>
      <trkpt lat="43.97917" lon="5.13323">
        <ele>307.28</ele>
        <time>2015-12-21T11:30:31Z</time>
      </trkpt>
      <trkpt lat="43.97917" lon="5.13323">
        <ele>307.28</ele>
        <time>2015-12-21T11:30:43Z</time>
      </trkpt>
      <trkpt lat="43.97917" lon="5.13323">
        <ele>307.28</ele>
        <time>2015-12-21T11:30:53Z</time>
      </trkpt>
      <trkpt lat="43.97918" lon="5.13322">
        <ele>307.28</ele>
        <time>2015-12-21T11:31:10Z</time>
      </trkpt>
      <trkpt lat="43.97918" lon="5.13323">
        <ele>307.28</ele>
        <time>2015-12-21T11:31:20Z</time>
      </trkpt>
      <trkpt lat="43.97918" lon="5.13322">
        <ele>307.28</ele>
        <time>2015-12-21T11:31:41Z</time>
      </trkpt>
      <trkpt lat="43.97917" lon="5.13322">
        <ele>307.28</ele>
        <time>2015-12-21T11:31:57Z</time>
      </trkpt>
      <trkpt lat="43.97918" lon="5.13321">
        <ele>307.28</ele>
        <time>2015-12-21T11:32:15Z</time>
      </trkpt>
      <trkpt lat="43.97918" lon="5.13321">
        <ele>307.28</ele>
        <time>2015-12-21T11:32:27Z</time>
      </trkpt>
      <trkpt lat="43.97918" lon="5.1332">
        <ele>307.28</ele>
        <time>2015-12-21T11:32:43Z</time>
      </trkpt>
      <trkpt lat="43.97918" lon="5.1332">
        <ele>307.28</ele>
        <time>2015-12-21T11:33:01Z</time>
      </trkpt>
      <trkpt lat="43.97918" lon="5.13321">
        <ele>307.28</ele>
        <time>2015-12-21T11:33:17Z</time>
      </trkpt>
      <trkpt lat="43.97917" lon="5.13321">
        <ele>307.28</ele>
        <time>2015-12-21T11:33:26Z</time>
      </trkpt>
      <trkpt lat="43.97917" lon="5.13321">
        <ele>307.28</ele>
        <time>2015-12-21T11:33:37Z</time>
      </trkpt>
      <trkpt lat="43.97917" lon="5.13321">
        <ele>307.28</ele>
        <time>2015-12-21T11:33:47Z</time>
      </trkpt>
      <trkpt lat="43.97917" lon="5.13321">
        <ele>307.28</ele>
        <time>2015-12-21T11:34:03Z</time>
      </trkpt>
      <trkpt lat="43.97917" lon="5.13321">
        <ele>307.28</ele>
        <time>2015-12-21T11:34:16Z</time>
      </trkpt>
      <trkpt lat="43.97917" lon="5.13321">
        <ele>306.8</ele>
        <time>2015-12-21T11:34:31Z</time>
      </trkpt>
      <trkpt lat="43.97917" lon="5.13321">
        <ele>306.8</ele>
        <time>2015-12-21T11:34:46Z</time>
      </trkpt>
      <trkpt lat="43.97917" lon="5.13321">
        <ele>306.8</ele>
        <time>2015-12-21T11:35:01Z</time>
      </trkpt>
      <trkpt lat="43.97917" lon="5.13321">
        <ele>306.8</ele>
        <time>2015-12-21T11:35:11Z</time>
      </trkpt>
      <trkpt lat="43.97917" lon="5.13321">
        <ele>306.8</ele>
        <time>2015-12-21T11:35:23Z</time>
      </trkpt>
      <trkpt lat="43.97917" lon="5.13321">
        <ele>306.8</ele>
        <time>2015-12-21T11:35:33Z</time>
      </trkpt>
      <trkpt lat="43.97918" lon="5.13321">
        <ele>306.8</ele>
        <time>2015-12-21T11:35:49Z</time>
      </trkpt>
      <trkpt lat="43.97917" lon="5.13321">
        <ele>306.8</ele>
        <time>2015-12-21T11:36:06Z</time>
      </trkpt>
      <trkpt lat="43.97917" lon="5.13321">
        <ele>306.8</ele>
        <time>2015-12-21T11:36:23Z</time>
      </trkpt>
      <trkpt lat="43.97917" lon="5.13321">
        <ele>306.8</ele>
        <time>2015-12-21T11:36:39Z</time>
      </trkpt>
      <trkpt lat="43.97917" lon="5.13321">
        <ele>306.8</ele>
        <time>2015-12-21T11:36:58Z</time>
      </trkpt>
      <trkpt lat="43.97917" lon="5.13321">
        <ele>306.8</ele>
        <time>2015-12-21T11:37:11Z</time>
      </trkpt>
      <trkpt lat="43.97917" lon="5.13321">
        <ele>306.8</ele>
        <time>2015-12-21T11:37:25Z</time>
      </trkpt>
      <trkpt lat="43.97917" lon="5.13321">
        <ele>306.32</ele>
        <time>2015-12-21T11:37:37Z</time>
      </trkpt>
      <trkpt lat="43.97917" lon="5.13321">
        <ele>306.8</ele>
        <time>2015-12-21T11:37:54Z</time>
      </trkpt>
      <trkpt lat="43.97917" lon="5.1332">
        <ele>306.8</ele>
        <time>2015-12-21T11:38:12Z</time>
      </trkpt>
      <trkpt lat="43.97917" lon="5.1332">
        <ele>306.32</ele>
        <time>2015-12-21T11:38:28Z</time>
      </trkpt>
      <trkpt lat="43.97916" lon="5.13321">
        <ele>306.32</ele>
        <time>2015-12-21T11:38:47Z</time>
      </trkpt>
      <trkpt lat="43.97917" lon="5.13321">
        <ele>306.32</ele>
        <time>2015-12-21T11:39:06Z</time>
      </trkpt>
      <trkpt lat="43.97917" lon="5.13322">
        <ele>306.32</ele>
        <time>2015-12-21T11:39:21Z</time>
      </trkpt>
      <trkpt lat="43.97917" lon="5.13321">
        <ele>306.32</ele>
        <time>2015-12-21T11:39:37Z</time>
      </trkpt>
      <trkpt lat="43.97916" lon="5.13322">
        <ele>306.32</ele>
        <time>2015-12-21T11:39:47Z</time>
      </trkpt>
      <trkpt lat="43.97917" lon="5.13325">
        <ele>306.8</ele>
        <time>2015-12-21T11:39:51Z</time>
      </trkpt>
      <trkpt lat="43.9792" lon="5.1333">
        <ele>306.8</ele>
        <time>2015-12-21T11:39:55Z</time>
      </trkpt>
      <trkpt lat="43.97921" lon="5.13334">
        <ele>306.8</ele>
        <time>2015-12-21T11:39:56Z</time>
      </trkpt>
      <trkpt lat="43.97922" lon="5.13337">
        <ele>306.32</ele>
        <time>2015-12-21T11:39:57Z</time>
      </trkpt>
      <trkpt lat="43.97923" lon="5.13376">
        <ele>305.84</ele>
        <time>2015-12-21T11:40:06Z</time>
      </trkpt>
      <trkpt lat="43.97918" lon="5.13403">
        <ele>305.84</ele>
        <time>2015-12-21T11:40:13Z</time>
      </trkpt>
      <trkpt lat="43.97909" lon="5.13437">
        <ele>306.32</ele>
        <time>2015-12-21T11:40:23Z</time>
      </trkpt>
      <trkpt lat="43.97902" lon="5.13462">
        <ele>306.32</ele>
        <time>2015-12-21T11:40:30Z</time>
      </trkpt>
      <trkpt lat="43.9789" lon="5.13489">
        <ele>306.8</ele>
        <time>2015-12-21T11:40:38Z</time>
      </trkpt>
      <trkpt lat="43.97876" lon="5.13515">
        <ele>308.24</ele>
        <time>2015-12-21T11:40:46Z</time>
      </trkpt>
      <trkpt lat="43.97864" lon="5.13545">
        <ele>309.2</ele>
        <time>2015-12-21T11:40:54Z</time>
      </trkpt>
      <trkpt lat="43.97856" lon="5.13566">
        <ele>309.2</ele>
        <time>2015-12-21T11:40:59Z</time>
      </trkpt>
      <trkpt lat="43.97855" lon="5.13572">
        <ele>309.2</ele>
        <time>2015-12-21T11:41:00Z</time>
      </trkpt>
      <trkpt lat="43.97854" lon="5.13579">
        <ele>308.72</ele>
        <time>2015-12-21T11:41:01Z</time>
      </trkpt>
      <trkpt lat="43.97853" lon="5.13585">
        <ele>308.72</ele>
        <time>2015-12-21T11:41:02Z</time>
      </trkpt>
      <trkpt lat="43.97852" lon="5.13592">
        <ele>308.72</ele>
        <time>2015-12-21T11:41:03Z</time>
      </trkpt>
      <trkpt lat="43.97852" lon="5.13598">
        <ele>308.72</ele>
        <time>2015-12-21T11:41:04Z</time>
      </trkpt>
      <trkpt lat="43.97853" lon="5.13604">
        <ele>308.72</ele>
        <time>2015-12-21T11:41:05Z</time>
      </trkpt>
      <trkpt lat="43.97854" lon="5.1361">
        <ele>308.72</ele>
        <time>2015-12-21T11:41:06Z</time>
      </trkpt>
      <trkpt lat="43.97855" lon="5.13616">
        <ele>308.72</ele>
        <time>2015-12-21T11:41:07Z</time>
      </trkpt>
      <trkpt lat="43.97857" lon="5.13621">
        <ele>308.24</ele>
        <time>2015-12-21T11:41:08Z</time>
      </trkpt>
      <trkpt lat="43.97866" lon="5.13646">
        <ele>308.72</ele>
        <time>2015-12-21T11:41:13Z</time>
      </trkpt>
      <trkpt lat="43.97866" lon="5.13652">
        <ele>308.72</ele>
        <time>2015-12-21T11:41:14Z</time>
      </trkpt>
      <trkpt lat="43.97867" lon="5.13657">
        <ele>308.72</ele>
        <time>2015-12-21T11:41:15Z</time>
      </trkpt>
      <trkpt lat="43.97866" lon="5.13662">
        <ele>308.72</ele>
        <time>2015-12-21T11:41:16Z</time>
      </trkpt>
      <trkpt lat="43.97866" lon="5.13667">
        <ele>309.2</ele>
        <time>2015-12-21T11:41:17Z</time>
      </trkpt>
      <trkpt lat="43.97865" lon="5.13671">
        <ele>309.2</ele>
        <time>2015-12-21T11:41:18Z</time>
      </trkpt>
      <trkpt lat="43.97862" lon="5.13698">
        <ele>310.16</ele>
        <time>2015-12-21T11:41:25Z</time>
      </trkpt>
      <trkpt lat="43.97863" lon="5.13705">
        <ele>310.64</ele>
        <time>2015-12-21T11:41:28Z</time>
      </trkpt>
      <trkpt lat="43.97862" lon="5.13707">
        <ele>310.64</ele>
        <time>2015-12-21T11:41:29Z</time>
      </trkpt>
      <trkpt lat="43.97861" lon="5.1371">
        <ele>310.64</ele>
        <time>2015-12-21T11:41:30Z</time>
      </trkpt>
      <trkpt lat="43.9786" lon="5.13712">
        <ele>310.64</ele>
        <time>2015-12-21T11:41:31Z</time>
      </trkpt>
      <trkpt lat="43.9786" lon="5.13714">
        <ele>311.12</ele>
        <time>2015-12-21T11:41:35Z</time>
      </trkpt>
      <trkpt lat="43.9786" lon="5.13717">
        <ele>311.12</ele>
        <time>2015-12-21T11:41:36Z</time>
      </trkpt>
      <trkpt lat="43.9786" lon="5.13719">
        <ele>311.6</ele>
        <time>2015-12-21T11:41:37Z</time>
      </trkpt>
      <trkpt lat="43.97858" lon="5.13736">
        <ele>312.57</ele>
        <time>2015-12-21T11:41:44Z</time>
      </trkpt>
      <trkpt lat="43.97858" lon="5.13745">
        <ele>313.05</ele>
        <time>2015-12-21T11:41:48Z</time>
      </trkpt>
      <trkpt lat="43.97854" lon="5.13759">
        <ele>314.97</ele>
        <time>2015-12-21T11:41:54Z</time>
      </trkpt>
      <trkpt lat="43.97853" lon="5.13763">
        <ele>315.45</ele>
        <time>2015-12-21T11:42:00Z</time>
      </trkpt>
      <trkpt lat="43.97852" lon="5.13766">
        <ele>315.45</ele>
        <time>2015-12-21T11:42:05Z</time>
      </trkpt>
      <trkpt lat="43.97853" lon="5.13772">
        <ele>316.41</ele>
        <time>2015-12-21T11:42:13Z</time>
      </trkpt>
      <trkpt lat="43.97853" lon="5.13772">
        <ele>316.41</ele>
        <time>2015-12-21T11:42:25Z</time>
      </trkpt>
      <trkpt lat="43.97854" lon="5.13772">
        <ele>315.93</ele>
        <time>2015-12-21T11:42:38Z</time>
      </trkpt>
      <trkpt lat="43.97854" lon="5.13771">
        <ele>315.93</ele>
        <time>2015-12-21T11:42:56Z</time>
      </trkpt>
      <trkpt lat="43.97854" lon="5.13772">
        <ele>315.93</ele>
        <time>2015-12-21T11:43:11Z</time>
      </trkpt>
      <trkpt lat="43.97854" lon="5.13772">
        <ele>315.93</ele>
        <time>2015-12-21T11:43:28Z</time>
      </trkpt>
      <trkpt lat="43.97855" lon="5.13772">
        <ele>316.41</ele>
        <time>2015-12-21T11:43:46Z</time>
      </trkpt>
      <trkpt lat="43.97855" lon="5.13772">
        <ele>316.41</ele>
        <time>2015-12-21T11:43:56Z</time>
      </trkpt>
      <trkpt lat="43.97854" lon="5.13772">
        <ele>316.41</ele>
        <time>2015-12-21T11:44:13Z</time>
      </trkpt>
      <trkpt lat="43.97854" lon="5.13772">
        <ele>315.93</ele>
        <time>2015-12-21T11:44:31Z</time>
      </trkpt>
      <trkpt lat="43.97854" lon="5.13772">
        <ele>315.93</ele>
        <time>2015-12-21T11:44:45Z</time>
      </trkpt>
      <trkpt lat="43.97853" lon="5.13772">
        <ele>316.41</ele>
        <time>2015-12-21T11:44:59Z</time>
      </trkpt>
      <trkpt lat="43.97853" lon="5.13773">
        <ele>315.93</ele>
        <time>2015-12-21T11:45:14Z</time>
      </trkpt>
      <trkpt lat="43.97853" lon="5.13773">
        <ele>316.41</ele>
        <time>2015-12-21T11:45:25Z</time>
      </trkpt>
      <trkpt lat="43.97852" lon="5.13771">
        <ele>316.41</ele>
        <time>2015-12-21T11:45:33Z</time>
      </trkpt>
      <trkpt lat="43.97851" lon="5.13771">
        <ele>316.41</ele>
        <time>2015-12-21T11:45:45Z</time>
      </trkpt>
      <trkpt lat="43.97851" lon="5.13768">
        <ele>315.45</ele>
        <time>2015-12-21T11:45:50Z</time>
      </trkpt>
      <trkpt lat="43.97855" lon="5.13737">
        <ele>313.05</ele>
        <time>2015-12-21T11:45:57Z</time>
      </trkpt>
      <trkpt lat="43.97856" lon="5.13715">
        <ele>311.12</ele>
        <time>2015-12-21T11:46:02Z</time>
      </trkpt>
      <trkpt lat="43.97857" lon="5.13712">
        <ele>311.12</ele>
        <time>2015-12-21T11:46:03Z</time>
      </trkpt>
      <trkpt lat="43.97858" lon="5.13709">
        <ele>310.64</ele>
        <time>2015-12-21T11:46:05Z</time>
      </trkpt>
      <trkpt lat="43.97862" lon="5.13711">
        <ele>310.16</ele>
        <time>2015-12-21T11:46:12Z</time>
      </trkpt>
      <trkpt lat="43.97862" lon="5.13711">
        <ele>310.16</ele>
        <time>2015-12-21T11:46:16Z</time>
      </trkpt>
      <trkpt lat="43.97864" lon="5.13717">
        <ele>310.16</ele>
        <time>2015-12-21T11:46:19Z</time>
      </trkpt>
      <trkpt lat="43.97867" lon="5.13738">
        <ele>308.72</ele>
        <time>2015-12-21T11:46:25Z</time>
      </trkpt>
      <trkpt lat="43.97873" lon="5.13784">
        <ele>306.8</ele>
        <time>2015-12-21T11:46:33Z</time>
      </trkpt>
      <trkpt lat="43.97883" lon="5.13846">
        <ele>304.88</ele>
        <time>2015-12-21T11:46:42Z</time>
      </trkpt>
      <trkpt lat="43.97888" lon="5.13884">
        <ele>305.36</ele>
        <time>2015-12-21T11:46:48Z</time>
      </trkpt>
      <trkpt lat="43.97888" lon="5.13889">
        <ele>305.36</ele>
        <time>2015-12-21T11:46:49Z</time>
      </trkpt>
      <trkpt lat="43.97888" lon="5.13894">
        <ele>305.84</ele>
        <time>2015-12-21T11:46:50Z</time>
      </trkpt>
      <trkpt lat="43.97887" lon="5.13899">
        <ele>305.84</ele>
        <time>2015-12-21T11:46:51Z</time>
      </trkpt>
      <trkpt lat="43.97886" lon="5.13903">
        <ele>306.32</ele>
        <time>2015-12-21T11:46:52Z</time>
      </trkpt>
      <trkpt lat="43.97878" lon="5.13931">
        <ele>307.76</ele>
        <time>2015-12-21T11:46:59Z</time>
      </trkpt>
      <trkpt lat="43.97874" lon="5.13947">
        <ele>307.28</ele>
        <time>2015-12-21T11:47:02Z</time>
      </trkpt>
      <trkpt lat="43.97872" lon="5.13952">
        <ele>307.28</ele>
        <time>2015-12-21T11:47:03Z</time>
      </trkpt>
      <trkpt lat="43.9787" lon="5.13956">
        <ele>307.28</ele>
        <time>2015-12-21T11:47:04Z</time>
      </trkpt>
      <trkpt lat="43.97863" lon="5.13987">
        <ele>307.76</ele>
        <time>2015-12-21T11:47:11Z</time>
      </trkpt>
      <trkpt lat="43.97861" lon="5.1399">
        <ele>308.24</ele>
        <time>2015-12-21T11:47:12Z</time>
      </trkpt>
      <trkpt lat="43.97858" lon="5.13991">
        <ele>308.72</ele>
        <time>2015-12-21T11:47:13Z</time>
      </trkpt>
      <trkpt lat="43.97852" lon="5.13992">
        <ele>310.16</ele>
        <time>2015-12-21T11:47:18Z</time>
      </trkpt>
      <trkpt lat="43.97848" lon="5.13993">
        <ele>311.12</ele>
        <time>2015-12-21T11:47:27Z</time>
      </trkpt>
      <trkpt lat="43.97845" lon="5.13996">
        <ele>312.57</ele>
        <time>2015-12-21T11:47:35Z</time>
      </trkpt>
      <trkpt lat="43.97842" lon="5.13994">
        <ele>313.53</ele>
        <time>2015-12-21T11:47:39Z</time>
      </trkpt>
      <trkpt lat="43.97841" lon="5.13992">
        <ele>314.01</ele>
        <time>2015-12-21T11:47:40Z</time>
      </trkpt>
      <trkpt lat="43.97836" lon="5.13991">
        <ele>314.01</ele>
        <time>2015-12-21T11:47:43Z</time>
      </trkpt>
      <trkpt lat="43.97835" lon="5.13991">
        <ele>314.49</ele>
        <time>2015-12-21T11:47:44Z</time>
      </trkpt>
      <trkpt lat="43.97827" lon="5.13995">
        <ele>315.93</ele>
        <time>2015-12-21T11:47:50Z</time>
      </trkpt>
      <trkpt lat="43.97821" lon="5.13993">
        <ele>316.89</ele>
        <time>2015-12-21T11:47:55Z</time>
      </trkpt>
      <trkpt lat="43.97815" lon="5.13991">
        <ele>317.37</ele>
        <time>2015-12-21T11:48:02Z</time>
      </trkpt>
      <trkpt lat="43.97812" lon="5.13995">
        <ele>318.33</ele>
        <time>2015-12-21T11:48:08Z</time>
      </trkpt>
      <trkpt lat="43.9781" lon="5.13998">
        <ele>319.3</ele>
        <time>2015-12-21T11:48:14Z</time>
      </trkpt>
      <trkpt lat="43.97809" lon="5.13999">
        <ele>319.3</ele>
        <time>2015-12-21T11:48:15Z</time>
      </trkpt>
      <trkpt lat="43.97807" lon="5.14003">
        <ele>319.78</ele>
        <time>2015-12-21T11:48:18Z</time>
      </trkpt>
      <trkpt lat="43.97806" lon="5.14005">
        <ele>320.74</ele>
        <time>2015-12-21T11:48:23Z</time>
      </trkpt>
      <trkpt lat="43.97806" lon="5.14006">
        <ele>320.74</ele>
        <time>2015-12-21T11:48:24Z</time>
      </trkpt>
      <trkpt lat="43.97805" lon="5.14007">
        <ele>320.74</ele>
        <time>2015-12-21T11:48:25Z</time>
      </trkpt>
      <trkpt lat="43.97804" lon="5.14008">
        <ele>320.74</ele>
        <time>2015-12-21T11:48:26Z</time>
      </trkpt>
      <trkpt lat="43.97803" lon="5.1401">
        <ele>321.22</ele>
        <time>2015-12-21T11:48:27Z</time>
      </trkpt>
      <trkpt lat="43.97802" lon="5.14011">
        <ele>321.22</ele>
        <time>2015-12-21T11:48:28Z</time>
      </trkpt>
      <trkpt lat="43.97802" lon="5.14012">
        <ele>321.7</ele>
        <time>2015-12-21T11:48:29Z</time>
      </trkpt>
      <trkpt lat="43.97801" lon="5.14014">
        <ele>321.7</ele>
        <time>2015-12-21T11:48:30Z</time>
      </trkpt>
      <trkpt lat="43.97797" lon="5.14025">
        <ele>324.1</ele>
        <time>2015-12-21T11:48:38Z</time>
      </trkpt>
      <trkpt lat="43.97796" lon="5.14025">
        <ele>324.1</ele>
        <time>2015-12-21T11:48:44Z</time>
      </trkpt>
      <trkpt lat="43.97795" lon="5.14033">
        <ele>324.58</ele>
        <time>2015-12-21T11:48:51Z</time>
      </trkpt>
      <trkpt lat="43.97794" lon="5.14035">
        <ele>325.06</ele>
        <time>2015-12-21T11:48:53Z</time>
      </trkpt>
      <trkpt lat="43.97794" lon="5.14037">
        <ele>325.54</ele>
        <time>2015-12-21T11:48:59Z</time>
      </trkpt>
      <trkpt lat="43.97793" lon="5.14039">
        <ele>325.54</ele>
        <time>2015-12-21T11:49:04Z</time>
      </trkpt>
      <trkpt lat="43.97793" lon="5.14041">
        <ele>325.54</ele>
        <time>2015-12-21T11:49:05Z</time>
      </trkpt>
      <trkpt lat="43.97793" lon="5.14042">
        <ele>326.02</ele>
        <time>2015-12-21T11:49:08Z</time>
      </trkpt>
      <trkpt lat="43.97792" lon="5.14042">
        <ele>325.54</ele>
        <time>2015-12-21T11:49:12Z</time>
      </trkpt>
      <trkpt lat="43.97791" lon="5.14042">
        <ele>326.02</ele>
        <time>2015-12-21T11:49:13Z</time>
      </trkpt>
      <trkpt lat="43.97789" lon="5.14041">
        <ele>326.02</ele>
        <time>2015-12-21T11:49:14Z</time>
      </trkpt>
      <trkpt lat="43.97788" lon="5.1404">
        <ele>326.02</ele>
        <time>2015-12-21T11:49:15Z</time>
      </trkpt>
      <trkpt lat="43.97786" lon="5.14039">
        <ele>326.02</ele>
        <time>2015-12-21T11:49:22Z</time>
      </trkpt>
      <trkpt lat="43.97787" lon="5.14038">
        <ele>326.5</ele>
        <time>2015-12-21T11:49:28Z</time>
      </trkpt>
      <trkpt lat="43.97788" lon="5.14038">
        <ele>326.5</ele>
        <time>2015-12-21T11:49:29Z</time>
      </trkpt>
      <trkpt lat="43.9779" lon="5.1404">
        <ele>326.02</ele>
        <time>2015-12-21T11:49:35Z</time>
      </trkpt>
      <trkpt lat="43.97789" lon="5.14042">
        <ele>326.02</ele>
        <time>2015-12-21T11:49:49Z</time>
      </trkpt>
      <trkpt lat="43.97788" lon="5.14042">
        <ele>326.02</ele>
        <time>2015-12-21T11:50:01Z</time>
      </trkpt>
      <trkpt lat="43.9779" lon="5.14042">
        <ele>326.02</ele>
        <time>2015-12-21T11:50:06Z</time>
      </trkpt>
      <trkpt lat="43.9779" lon="5.14044">
        <ele>326.02</ele>
        <time>2015-12-21T11:50:11Z</time>
      </trkpt>
      <trkpt lat="43.9779" lon="5.14044">
        <ele>326.02</ele>
        <time>2015-12-21T11:50:18Z</time>
      </trkpt>
      <trkpt lat="43.97791" lon="5.14043">
        <ele>326.02</ele>
        <time>2015-12-21T11:50:21Z</time>
      </trkpt>
      <trkpt lat="43.9779" lon="5.14044">
        <ele>326.02</ele>
        <time>2015-12-21T11:50:26Z</time>
      </trkpt>
      <trkpt lat="43.9779" lon="5.14046">
        <ele>326.5</ele>
        <time>2015-12-21T11:50:31Z</time>
      </trkpt>
      <trkpt lat="43.97789" lon="5.14048">
        <ele>326.02</ele>
        <time>2015-12-21T11:50:32Z</time>
      </trkpt>
      <trkpt lat="43.97782" lon="5.14063">
        <ele>327.47</ele>
        <time>2015-12-21T11:50:38Z</time>
      </trkpt>
      <trkpt lat="43.97776" lon="5.14081">
        <ele>329.39</ele>
        <time>2015-12-21T11:50:45Z</time>
      </trkpt>
      <trkpt lat="43.97766" lon="5.141">
        <ele>330.35</ele>
        <time>2015-12-21T11:50:53Z</time>
      </trkpt>
      <trkpt lat="43.97759" lon="5.14115">
        <ele>332.27</ele>
        <time>2015-12-21T11:51:00Z</time>
      </trkpt>
      <trkpt lat="43.9775" lon="5.14121">
        <ele>334.68</ele>
        <time>2015-12-21T11:51:07Z</time>
      </trkpt>
      <trkpt lat="43.9775" lon="5.14122">
        <ele>335.16</ele>
        <time>2015-12-21T11:51:15Z</time>
      </trkpt>
      <trkpt lat="43.97748" lon="5.14125">
        <ele>335.64</ele>
        <time>2015-12-21T11:51:23Z</time>
      </trkpt>
      <trkpt lat="43.97747" lon="5.14125">
        <ele>335.64</ele>
        <time>2015-12-21T11:51:25Z</time>
      </trkpt>
      <trkpt lat="43.97741" lon="5.1413">
        <ele>336.6</ele>
        <time>2015-12-21T11:51:29Z</time>
      </trkpt>
      <trkpt lat="43.97736" lon="5.14132">
        <ele>338.52</ele>
        <time>2015-12-21T11:51:32Z</time>
      </trkpt>
      <trkpt lat="43.97735" lon="5.14133">
        <ele>339</ele>
        <time>2015-12-21T11:51:36Z</time>
      </trkpt>
      <trkpt lat="43.97732" lon="5.14137">
        <ele>339.48</ele>
        <time>2015-12-21T11:51:41Z</time>
      </trkpt>
      <trkpt lat="43.97728" lon="5.14144">
        <ele>339.48</ele>
        <time>2015-12-21T11:51:45Z</time>
      </trkpt>
      <trkpt lat="43.97723" lon="5.14156">
        <ele>339.48</ele>
        <time>2015-12-21T11:51:51Z</time>
      </trkpt>
      <trkpt lat="43.97712" lon="5.14176">
        <ele>339.96</ele>
        <time>2015-12-21T11:51:59Z</time>
      </trkpt>
      <trkpt lat="43.977" lon="5.14196">
        <ele>340.44</ele>
        <time>2015-12-21T11:52:06Z</time>
      </trkpt>
      <trkpt lat="43.9769" lon="5.14213">
        <ele>341.41</ele>
        <time>2015-12-21T11:52:13Z</time>
      </trkpt>
      <trkpt lat="43.97683" lon="5.14228">
        <ele>341.89</ele>
        <time>2015-12-21T11:52:18Z</time>
      </trkpt>
      <trkpt lat="43.9767" lon="5.14248">
        <ele>343.81</ele>
        <time>2015-12-21T11:52:23Z</time>
      </trkpt>
      <trkpt lat="43.97656" lon="5.14277">
        <ele>343.81</ele>
        <time>2015-12-21T11:52:30Z</time>
      </trkpt>
      <trkpt lat="43.9764" lon="5.14303">
        <ele>344.29</ele>
        <time>2015-12-21T11:52:36Z</time>
      </trkpt>
      <trkpt lat="43.97627" lon="5.14317">
        <ele>346.21</ele>
        <time>2015-12-21T11:52:41Z</time>
      </trkpt>
      <trkpt lat="43.97616" lon="5.14329">
        <ele>347.65</ele>
        <time>2015-12-21T11:52:47Z</time>
      </trkpt>
      <trkpt lat="43.97606" lon="5.14347">
        <ele>347.17</ele>
        <time>2015-12-21T11:52:53Z</time>
      </trkpt>
      <trkpt lat="43.97601" lon="5.14357">
        <ele>346.69</ele>
        <time>2015-12-21T11:52:55Z</time>
      </trkpt>
      <trkpt lat="43.97597" lon="5.14362">
        <ele>346.69</ele>
        <time>2015-12-21T11:52:56Z</time>
      </trkpt>
      <trkpt lat="43.97593" lon="5.14366">
        <ele>346.21</ele>
        <time>2015-12-21T11:52:57Z</time>
      </trkpt>
      <trkpt lat="43.9759" lon="5.1437">
        <ele>346.21</ele>
        <time>2015-12-21T11:52:58Z</time>
      </trkpt>
      <trkpt lat="43.97588" lon="5.14375">
        <ele>346.21</ele>
        <time>2015-12-21T11:52:59Z</time>
      </trkpt>
      <trkpt lat="43.97585" lon="5.14379">
        <ele>346.21</ele>
        <time>2015-12-21T11:53:00Z</time>
      </trkpt>
      <trkpt lat="43.97568" lon="5.14404">
        <ele>346.69</ele>
        <time>2015-12-21T11:53:06Z</time>
      </trkpt>
      <trkpt lat="43.97566" lon="5.14407">
        <ele>346.69</ele>
        <time>2015-12-21T11:53:07Z</time>
      </trkpt>
      <trkpt lat="43.97563" lon="5.1441">
        <ele>347.17</ele>
        <time>2015-12-21T11:53:08Z</time>
      </trkpt>
      <trkpt lat="43.9756" lon="5.14413">
        <ele>347.17</ele>
        <time>2015-12-21T11:53:09Z</time>
      </trkpt>
      <trkpt lat="43.97558" lon="5.14416">
        <ele>347.65</ele>
        <time>2015-12-21T11:53:10Z</time>
      </trkpt>
      <trkpt lat="43.97554" lon="5.14422">
        <ele>349.1</ele>
        <time>2015-12-21T11:53:12Z</time>
      </trkpt>
      <trkpt lat="43.97545" lon="5.14431">
        <ele>350.54</ele>
        <time>2015-12-21T11:53:16Z</time>
      </trkpt>
      <trkpt lat="43.97542" lon="5.14434">
        <ele>351.5</ele>
        <time>2015-12-21T11:53:18Z</time>
      </trkpt>
      <trkpt lat="43.97528" lon="5.14442">
        <ele>352.94</ele>
        <time>2015-12-21T11:53:26Z</time>
      </trkpt>
      <trkpt lat="43.9752" lon="5.14451">
        <ele>354.38</ele>
        <time>2015-12-21T11:53:33Z</time>
      </trkpt>
      <trkpt lat="43.97519" lon="5.14453">
        <ele>355.34</ele>
        <time>2015-12-21T11:53:35Z</time>
      </trkpt>
      <trkpt lat="43.97509" lon="5.14459">
        <ele>357.27</ele>
        <time>2015-12-21T11:53:43Z</time>
      </trkpt>
      <trkpt lat="43.97502" lon="5.14463">
        <ele>358.23</ele>
        <time>2015-12-21T11:53:48Z</time>
      </trkpt>
      <trkpt lat="43.97495" lon="5.14464">
        <ele>358.71</ele>
        <time>2015-12-21T11:53:54Z</time>
      </trkpt>
      <trkpt lat="43.97491" lon="5.14467">
        <ele>359.19</ele>
        <time>2015-12-21T11:54:01Z</time>
      </trkpt>
      <trkpt lat="43.97489" lon="5.14466">
        <ele>358.71</ele>
        <time>2015-12-21T11:54:07Z</time>
      </trkpt>
      <trkpt lat="43.97488" lon="5.14467">
        <ele>359.19</ele>
        <time>2015-12-21T11:54:13Z</time>
      </trkpt>
      <trkpt lat="43.97484" lon="5.14467">
        <ele>359.19</ele>
        <time>2015-12-21T11:54:21Z</time>
      </trkpt>
      <trkpt lat="43.97482" lon="5.14467">
        <ele>359.19</ele>
        <time>2015-12-21T11:54:28Z</time>
      </trkpt>
      <trkpt lat="43.9748" lon="5.14467">
        <ele>358.71</ele>
        <time>2015-12-21T11:54:30Z</time>
      </trkpt>
      <trkpt lat="43.97476" lon="5.14468">
        <ele>359.67</ele>
        <time>2015-12-21T11:54:37Z</time>
      </trkpt>
      <trkpt lat="43.97475" lon="5.14464">
        <ele>359.19</ele>
        <time>2015-12-21T11:54:46Z</time>
      </trkpt>
      <trkpt lat="43.97473" lon="5.14464">
        <ele>359.19</ele>
        <time>2015-12-21T11:54:59Z</time>
      </trkpt>
      <trkpt lat="43.97475" lon="5.14462">
        <ele>359.19</ele>
        <time>2015-12-21T11:55:10Z</time>
      </trkpt>
      <trkpt lat="43.97473" lon="5.14461">
        <ele>360.15</ele>
        <time>2015-12-21T11:55:17Z</time>
      </trkpt>
      <trkpt lat="43.97472" lon="5.14461">
        <ele>359.67</ele>
        <time>2015-12-21T11:55:25Z</time>
      </trkpt>
      <trkpt lat="43.97472" lon="5.14461">
        <ele>360.15</ele>
        <time>2015-12-21T11:55:36Z</time>
      </trkpt>
      <trkpt lat="43.97471" lon="5.14461">
        <ele>360.15</ele>
        <time>2015-12-21T11:55:42Z</time>
      </trkpt>
      <trkpt lat="43.97471" lon="5.14461">
        <ele>359.67</ele>
        <time>2015-12-21T11:55:58Z</time>
      </trkpt>
      <trkpt lat="43.97471" lon="5.1446">
        <ele>359.67</ele>
        <time>2015-12-21T11:56:07Z</time>
      </trkpt>
      <trkpt lat="43.9747" lon="5.14459">
        <ele>359.67</ele>
        <time>2015-12-21T11:56:25Z</time>
      </trkpt>
      <trkpt lat="43.9747" lon="5.1446">
        <ele>359.67</ele>
        <time>2015-12-21T11:56:44Z</time>
      </trkpt>
      <trkpt lat="43.9747" lon="5.14459">
        <ele>359.67</ele>
        <time>2015-12-21T11:57:05Z</time>
      </trkpt>
      <trkpt lat="43.97471" lon="5.14459">
        <ele>359.67</ele>
        <time>2015-12-21T11:57:21Z</time>
      </trkpt>
      <trkpt lat="43.9747" lon="5.1446">
        <ele>359.67</ele>
        <time>2015-12-21T11:57:40Z</time>
      </trkpt>
      <trkpt lat="43.9747" lon="5.1446">
        <ele>359.67</ele>
        <time>2015-12-21T11:57:56Z</time>
      </trkpt>
      <trkpt lat="43.9747" lon="5.14459">
        <ele>359.67</ele>
        <time>2015-12-21T11:58:12Z</time>
      </trkpt>
      <trkpt lat="43.97471" lon="5.14459">
        <ele>359.67</ele>
        <time>2015-12-21T11:58:28Z</time>
      </trkpt>
      <trkpt lat="43.97471" lon="5.14458">
        <ele>359.67</ele>
        <time>2015-12-21T11:58:49Z</time>
      </trkpt>
      <trkpt lat="43.97471" lon="5.14457">
        <ele>359.67</ele>
        <time>2015-12-21T11:59:14Z</time>
      </trkpt>
      <trkpt lat="43.97471" lon="5.14457">
        <ele>359.67</ele>
        <time>2015-12-21T11:59:35Z</time>
      </trkpt>
      <trkpt lat="43.97471" lon="5.14457">
        <ele>359.19</ele>
        <time>2015-12-21T11:59:55Z</time>
      </trkpt>
      <trkpt lat="43.97471" lon="5.14457">
        <ele>359.67</ele>
        <time>2015-12-21T12:00:15Z</time>
      </trkpt>
      <trkpt lat="43.97471" lon="5.14457">
        <ele>359.67</ele>
        <time>2015-12-21T12:00:36Z</time>
      </trkpt>
      <trkpt lat="43.97471" lon="5.14457">
        <ele>359.67</ele>
        <time>2015-12-21T12:00:56Z</time>
      </trkpt>
      <trkpt lat="43.97471" lon="5.14457">
        <ele>359.67</ele>
        <time>2015-12-21T12:01:19Z</time>
      </trkpt>
      <trkpt lat="43.97472" lon="5.14456">
        <ele>359.67</ele>
        <time>2015-12-21T12:01:42Z</time>
      </trkpt>
      <trkpt lat="43.97472" lon="5.14455">
        <ele>359.67</ele>
        <time>2015-12-21T12:02:05Z</time>
      </trkpt>
      <trkpt lat="43.97472" lon="5.14456">
        <ele>360.63</ele>
        <time>2015-12-21T12:02:25Z</time>
      </trkpt>
      <trkpt lat="43.97471" lon="5.14456">
        <ele>360.15</ele>
        <time>2015-12-21T12:02:46Z</time>
      </trkpt>
      <trkpt lat="43.97471" lon="5.14456">
        <ele>360.15</ele>
        <time>2015-12-21T12:03:07Z</time>
      </trkpt>
      <trkpt lat="43.97472" lon="5.14456">
        <ele>359.67</ele>
        <time>2015-12-21T12:03:28Z</time>
      </trkpt>
      <trkpt lat="43.97471" lon="5.14456">
        <ele>360.15</ele>
        <time>2015-12-21T12:03:49Z</time>
      </trkpt>
      <trkpt lat="43.97471" lon="5.14456">
        <ele>359.67</ele>
        <time>2015-12-21T12:04:10Z</time>
      </trkpt>
      <trkpt lat="43.97472" lon="5.14457">
        <ele>359.67</ele>
        <time>2015-12-21T12:04:33Z</time>
      </trkpt>
      <trkpt lat="43.97472" lon="5.14457">
        <ele>360.15</ele>
        <time>2015-12-21T12:04:57Z</time>
      </trkpt>
      <trkpt lat="43.97472" lon="5.14457">
        <ele>359.67</ele>
        <time>2015-12-21T12:05:24Z</time>
      </trkpt>
      <trkpt lat="43.97472" lon="5.14457">
        <ele>360.15</ele>
        <time>2015-12-21T12:05:45Z</time>
      </trkpt>
      <trkpt lat="43.97472" lon="5.14456">
        <ele>359.67</ele>
        <time>2015-12-21T12:06:04Z</time>
      </trkpt>
      <trkpt lat="43.97472" lon="5.14456">
        <ele>359.67</ele>
        <time>2015-12-21T12:06:26Z</time>
      </trkpt>
      <trkpt lat="43.97472" lon="5.14455">
        <ele>359.67</ele>
        <time>2015-12-21T12:06:46Z</time>
      </trkpt>
      <trkpt lat="43.97473" lon="5.14455">
        <ele>359.67</ele>
        <time>2015-12-21T12:07:07Z</time>
      </trkpt>
      <trkpt lat="43.97473" lon="5.14455">
        <ele>359.67</ele>
        <time>2015-12-21T12:07:30Z</time>
      </trkpt>
      <trkpt lat="43.97473" lon="5.14456">
        <ele>359.67</ele>
        <time>2015-12-21T12:07:49Z</time>
      </trkpt>
      <trkpt lat="43.97473" lon="5.14456">
        <ele>359.67</ele>
        <time>2015-12-21T12:08:08Z</time>
      </trkpt>
      <trkpt lat="43.97473" lon="5.14455">
        <ele>359.67</ele>
        <time>2015-12-21T12:08:29Z</time>
      </trkpt>
      <trkpt lat="43.97473" lon="5.14456">
        <ele>359.67</ele>
        <time>2015-12-21T12:08:40Z</time>
      </trkpt>
      <trkpt lat="43.97473" lon="5.14456">
        <ele>359.19</ele>
        <time>2015-12-21T12:08:55Z</time>
      </trkpt>
      <trkpt lat="43.97472" lon="5.14457">
        <ele>359.67</ele>
        <time>2015-12-21T12:09:13Z</time>
      </trkpt>
      <trkpt lat="43.97472" lon="5.14457">
        <ele>355.83</ele>
        <time>2015-12-21T12:09:27Z</time>
      </trkpt>
      <trkpt lat="43.97472" lon="5.14457">
        <ele>364</ele>
        <time>2015-12-21T12:09:28Z</time>
      </trkpt>
      <trkpt lat="43.97472" lon="5.14457">
        <ele>360.15</ele>
        <time>2015-12-21T12:09:29Z</time>
      </trkpt>
      <trkpt lat="43.97472" lon="5.14457">
        <ele>356.31</ele>
        <time>2015-12-21T12:09:30Z</time>
      </trkpt>
      <trkpt lat="43.97472" lon="5.14457">
        <ele>362.55</ele>
        <time>2015-12-21T12:09:31Z</time>
      </trkpt>
      <trkpt lat="43.97472" lon="5.14457">
        <ele>359.67</ele>
        <time>2015-12-21T12:09:34Z</time>
      </trkpt>
      <trkpt lat="43.97472" lon="5.14457">
        <ele>359.19</ele>
        <time>2015-12-21T12:09:46Z</time>
      </trkpt>
      <trkpt lat="43.97472" lon="5.14457">
        <ele>359.19</ele>
        <time>2015-12-21T12:10:04Z</time>
      </trkpt>
      <trkpt lat="43.97472" lon="5.14457">
        <ele>359.19</ele>
        <time>2015-12-21T12:10:11Z</time>
      </trkpt>
      <trkpt lat="43.97472" lon="5.14458">
        <ele>359.19</ele>
        <time>2015-12-21T12:10:18Z</time>
      </trkpt>
      <trkpt lat="43.97472" lon="5.14458">
        <ele>359.19</ele>
        <time>2015-12-21T12:10:30Z</time>
      </trkpt>
      <trkpt lat="43.97472" lon="5.14457">
        <ele>358.71</ele>
        <time>2015-12-21T12:10:47Z</time>
      </trkpt>
      <trkpt lat="43.97472" lon="5.14457">
        <ele>358.71</ele>
        <time>2015-12-21T12:11:04Z</time>
      </trkpt>
      <trkpt lat="43.97472" lon="5.14458">
        <ele>358.71</ele>
        <time>2015-12-21T12:11:22Z</time>
      </trkpt>
      <trkpt lat="43.97472" lon="5.14458">
        <ele>358.71</ele>
        <time>2015-12-21T12:11:39Z</time>
      </trkpt>
      <trkpt lat="43.97472" lon="5.14458">
        <ele>359.19</ele>
        <time>2015-12-21T12:11:49Z</time>
      </trkpt>
      <trkpt lat="43.97472" lon="5.14457">
        <ele>358.71</ele>
        <time>2015-12-21T12:12:06Z</time>
      </trkpt>
      <trkpt lat="43.97472" lon="5.14459">
        <ele>358.71</ele>
        <time>2015-12-21T12:12:13Z</time>
      </trkpt>
      <trkpt lat="43.97472" lon="5.14459">
        <ele>358.71</ele>
        <time>2015-12-21T12:12:23Z</time>
      </trkpt>
      <trkpt lat="43.97472" lon="5.14458">
        <ele>358.71</ele>
        <time>2015-12-21T12:12:29Z</time>
      </trkpt>
      <trkpt lat="43.97471" lon="5.14459">
        <ele>358.71</ele>
        <time>2015-12-21T12:12:40Z</time>
      </trkpt>
      <trkpt lat="43.97471" lon="5.14459">
        <ele>358.71</ele>
        <time>2015-12-21T12:12:56Z</time>
      </trkpt>
      <trkpt lat="43.9747" lon="5.14461">
        <ele>358.23</ele>
        <time>2015-12-21T12:13:05Z</time>
      </trkpt>
      <trkpt lat="43.97469" lon="5.14462">
        <ele>358.23</ele>
        <time>2015-12-21T12:13:10Z</time>
      </trkpt>
      <trkpt lat="43.97469" lon="5.14463">
        <ele>358.23</ele>
        <time>2015-12-21T12:13:17Z</time>
      </trkpt>
      <trkpt lat="43.9747" lon="5.14464">
        <ele>358.23</ele>
        <time>2015-12-21T12:13:35Z</time>
      </trkpt>
      <trkpt lat="43.97471" lon="5.14463">
        <ele>358.23</ele>
        <time>2015-12-21T12:13:47Z</time>
      </trkpt>
      <trkpt lat="43.97469" lon="5.14464">
        <ele>358.23</ele>
        <time>2015-12-21T12:13:50Z</time>
      </trkpt>
      <trkpt lat="43.97468" lon="5.14464">
        <ele>358.71</ele>
        <time>2015-12-21T12:13:55Z</time>
      </trkpt>
      <trkpt lat="43.97468" lon="5.14465">
        <ele>358.23</ele>
        <time>2015-12-21T12:14:05Z</time>
      </trkpt>
      <trkpt lat="43.97468" lon="5.14463">
        <ele>358.23</ele>
        <time>2015-12-21T12:14:17Z</time>
      </trkpt>
      <trkpt lat="43.97468" lon="5.14463">
        <ele>358.71</ele>
        <time>2015-12-21T12:14:23Z</time>
      </trkpt>
      <trkpt lat="43.97468" lon="5.14463">
        <ele>358.71</ele>
        <time>2015-12-21T12:14:31Z</time>
      </trkpt>
      <trkpt lat="43.97467" lon="5.14463">
        <ele>358.71</ele>
        <time>2015-12-21T12:14:32Z</time>
      </trkpt>
      <trkpt lat="43.97465" lon="5.14464">
        <ele>359.19</ele>
        <time>2015-12-21T12:14:33Z</time>
      </trkpt>
      <trkpt lat="43.97464" lon="5.14465">
        <ele>359.19</ele>
        <time>2015-12-21T12:14:34Z</time>
      </trkpt>
      <trkpt lat="43.97463" lon="5.14466">
        <ele>359.19</ele>
        <time>2015-12-21T12:14:35Z</time>
      </trkpt>
      <trkpt lat="43.97456" lon="5.1447">
        <ele>359.67</ele>
        <time>2015-12-21T12:14:40Z</time>
      </trkpt>
      <trkpt lat="43.97444" lon="5.14472">
        <ele>361.59</ele>
        <time>2015-12-21T12:14:48Z</time>
      </trkpt>
      <trkpt lat="43.9744" lon="5.14475">
        <ele>362.07</ele>
        <time>2015-12-21T12:14:51Z</time>
      </trkpt>
      <trkpt lat="43.97434" lon="5.1448">
        <ele>362.55</ele>
        <time>2015-12-21T12:14:57Z</time>
      </trkpt>
      <trkpt lat="43.97425" lon="5.14485">
        <ele>363.04</ele>
        <time>2015-12-21T12:15:04Z</time>
      </trkpt>
      <trkpt lat="43.97422" lon="5.14486">
        <ele>363.52</ele>
        <time>2015-12-21T12:15:06Z</time>
      </trkpt>
      <trkpt lat="43.97414" lon="5.14484">
        <ele>363.52</ele>
        <time>2015-12-21T12:15:10Z</time>
      </trkpt>
      <trkpt lat="43.97405" lon="5.14487">
        <ele>364.96</ele>
        <time>2015-12-21T12:15:17Z</time>
      </trkpt>
      <trkpt lat="43.97393" lon="5.14491">
        <ele>365.44</ele>
        <time>2015-12-21T12:15:23Z</time>
      </trkpt>
      <trkpt lat="43.97391" lon="5.1449">
        <ele>366.88</ele>
        <time>2015-12-21T12:15:27Z</time>
      </trkpt>
      <trkpt lat="43.97389" lon="5.1449">
        <ele>366.88</ele>
        <time>2015-12-21T12:15:33Z</time>
      </trkpt>
      <trkpt lat="43.97388" lon="5.1449">
        <ele>367.36</ele>
        <time>2015-12-21T12:15:34Z</time>
      </trkpt>
      <trkpt lat="43.97383" lon="5.14492">
        <ele>368.32</ele>
        <time>2015-12-21T12:15:42Z</time>
      </trkpt>
      <trkpt lat="43.97382" lon="5.14492">
        <ele>368.32</ele>
        <time>2015-12-21T12:15:45Z</time>
      </trkpt>
      <trkpt lat="43.97378" lon="5.145">
        <ele>368.8</ele>
        <time>2015-12-21T12:15:53Z</time>
      </trkpt>
      <trkpt lat="43.97378" lon="5.14501">
        <ele>368.8</ele>
        <time>2015-12-21T12:15:54Z</time>
      </trkpt>
      <trkpt lat="43.97371" lon="5.14511">
        <ele>369.76</ele>
        <time>2015-12-21T12:16:02Z</time>
      </trkpt>
      <trkpt lat="43.97359" lon="5.14518">
        <ele>371.21</ele>
        <time>2015-12-21T12:16:08Z</time>
      </trkpt>
      <trkpt lat="43.97357" lon="5.14519">
        <ele>371.21</ele>
        <time>2015-12-21T12:16:09Z</time>
      </trkpt>
      <trkpt lat="43.97348" lon="5.14526">
        <ele>371.69</ele>
        <time>2015-12-21T12:16:14Z</time>
      </trkpt>
      <trkpt lat="43.97344" lon="5.14527">
        <ele>371.69</ele>
        <time>2015-12-21T12:16:16Z</time>
      </trkpt>
      <trkpt lat="43.97333" lon="5.14531">
        <ele>371.69</ele>
        <time>2015-12-21T12:16:22Z</time>
      </trkpt>
      <trkpt lat="43.97319" lon="5.14534">
        <ele>372.65</ele>
        <time>2015-12-21T12:16:30Z</time>
      </trkpt>
      <trkpt lat="43.97313" lon="5.14536">
        <ele>373.13</ele>
        <time>2015-12-21T12:16:34Z</time>
      </trkpt>
      <trkpt lat="43.97301" lon="5.14539">
        <ele>374.09</ele>
        <time>2015-12-21T12:16:41Z</time>
      </trkpt>
      <trkpt lat="43.97289" lon="5.14553">
        <ele>373.61</ele>
        <time>2015-12-21T12:16:47Z</time>
      </trkpt>
      <trkpt lat="43.97286" lon="5.14555">
        <ele>373.61</ele>
        <time>2015-12-21T12:16:53Z</time>
      </trkpt>
      <trkpt lat="43.97287" lon="5.14552">
        <ele>373.13</ele>
        <time>2015-12-21T12:17:09Z</time>
      </trkpt>
      <trkpt lat="43.97288" lon="5.14551">
        <ele>373.13</ele>
        <time>2015-12-21T12:17:24Z</time>
      </trkpt>
      <trkpt lat="43.97286" lon="5.1455">
        <ele>373.61</ele>
        <time>2015-12-21T12:17:38Z</time>
      </trkpt>
      <trkpt lat="43.97282" lon="5.14546">
        <ele>373.61</ele>
        <time>2015-12-21T12:17:44Z</time>
      </trkpt>
      <trkpt lat="43.97273" lon="5.14545">
        <ele>374.09</ele>
        <time>2015-12-21T12:17:50Z</time>
      </trkpt>
      <trkpt lat="43.97267" lon="5.14542">
        <ele>375.05</ele>
        <time>2015-12-21T12:17:53Z</time>
      </trkpt>
      <trkpt lat="43.97264" lon="5.14544">
        <ele>376.01</ele>
        <time>2015-12-21T12:17:56Z</time>
      </trkpt>
      <trkpt lat="43.97264" lon="5.14545">
        <ele>376.49</ele>
        <time>2015-12-21T12:18:05Z</time>
      </trkpt>
      <trkpt lat="43.97264" lon="5.14545">
        <ele>376.01</ele>
        <time>2015-12-21T12:18:13Z</time>
      </trkpt>
      <trkpt lat="43.97264" lon="5.14544">
        <ele>376.01</ele>
        <time>2015-12-21T12:18:21Z</time>
      </trkpt>
      <trkpt lat="43.97264" lon="5.14544">
        <ele>376.01</ele>
        <time>2015-12-21T12:18:30Z</time>
      </trkpt>
      <trkpt lat="43.97264" lon="5.14544">
        <ele>376.01</ele>
        <time>2015-12-21T12:18:43Z</time>
      </trkpt>
      <trkpt lat="43.97264" lon="5.14544">
        <ele>376.01</ele>
        <time>2015-12-21T12:18:55Z</time>
      </trkpt>
      <trkpt lat="43.97263" lon="5.14543">
        <ele>376.49</ele>
        <time>2015-12-21T12:19:01Z</time>
      </trkpt>
      <trkpt lat="43.97267" lon="5.14541">
        <ele>375.05</ele>
        <time>2015-12-21T12:19:08Z</time>
      </trkpt>
      <trkpt lat="43.9727" lon="5.14541">
        <ele>375.05</ele>
        <time>2015-12-21T12:19:10Z</time>
      </trkpt>
      <trkpt lat="43.97279" lon="5.1454">
        <ele>373.61</ele>
        <time>2015-12-21T12:19:16Z</time>
      </trkpt>
      <trkpt lat="43.9728" lon="5.14542">
        <ele>373.61</ele>
        <time>2015-12-21T12:19:19Z</time>
      </trkpt>
      <trkpt lat="43.9728" lon="5.1455">
        <ele>373.61</ele>
        <time>2015-12-21T12:19:23Z</time>
      </trkpt>
      <trkpt lat="43.97287" lon="5.14558">
        <ele>374.57</ele>
        <time>2015-12-21T12:19:32Z</time>
      </trkpt>
      <trkpt lat="43.97287" lon="5.14559">
        <ele>375.05</ele>
        <time>2015-12-21T12:19:33Z</time>
      </trkpt>
      <trkpt lat="43.9729" lon="5.14573">
        <ele>376.49</ele>
        <time>2015-12-21T12:19:39Z</time>
      </trkpt>
      <trkpt lat="43.97293" lon="5.1458">
        <ele>376.97</ele>
        <time>2015-12-21T12:19:43Z</time>
      </trkpt>
      <trkpt lat="43.97294" lon="5.14587">
        <ele>378.42</ele>
        <time>2015-12-21T12:19:50Z</time>
      </trkpt>
      <trkpt lat="43.97293" lon="5.14592">
        <ele>377.94</ele>
        <time>2015-12-21T12:19:58Z</time>
      </trkpt>
      <trkpt lat="43.97294" lon="5.14592">
        <ele>377.45</ele>
        <time>2015-12-21T12:20:10Z</time>
      </trkpt>
      <trkpt lat="43.97294" lon="5.14592">
        <ele>377.94</ele>
        <time>2015-12-21T12:20:15Z</time>
      </trkpt>
      <trkpt lat="43.97291" lon="5.14602">
        <ele>379.38</ele>
        <time>2015-12-21T12:20:24Z</time>
      </trkpt>
      <trkpt lat="43.97288" lon="5.1461">
        <ele>381.3</ele>
        <time>2015-12-21T12:20:32Z</time>
      </trkpt>
      <trkpt lat="43.97285" lon="5.14619">
        <ele>381.78</ele>
        <time>2015-12-21T12:20:39Z</time>
      </trkpt>
      <trkpt lat="43.9728" lon="5.1463">
        <ele>383.22</ele>
        <time>2015-12-21T12:20:46Z</time>
      </trkpt>
      <trkpt lat="43.97277" lon="5.14647">
        <ele>383.7</ele>
        <time>2015-12-21T12:20:54Z</time>
      </trkpt>
      <trkpt lat="43.97277" lon="5.1465">
        <ele>384.18</ele>
        <time>2015-12-21T12:20:55Z</time>
      </trkpt>
      <trkpt lat="43.97271" lon="5.14664">
        <ele>385.15</ele>
        <time>2015-12-21T12:21:04Z</time>
      </trkpt>
      <trkpt lat="43.97271" lon="5.14665">
        <ele>385.15</ele>
        <time>2015-12-21T12:21:15Z</time>
      </trkpt>
      <trkpt lat="43.97271" lon="5.14665">
        <ele>385.15</ele>
        <time>2015-12-21T12:21:22Z</time>
      </trkpt>
      <trkpt lat="43.97266" lon="5.14669">
        <ele>387.07</ele>
        <time>2015-12-21T12:21:30Z</time>
      </trkpt>
      <trkpt lat="43.97262" lon="5.14672">
        <ele>388.03</ele>
        <time>2015-12-21T12:21:37Z</time>
      </trkpt>
      <trkpt lat="43.97255" lon="5.14676">
        <ele>389.47</ele>
        <time>2015-12-21T12:21:44Z</time>
      </trkpt>
      <trkpt lat="43.97249" lon="5.14673">
        <ele>391.39</ele>
        <time>2015-12-21T12:21:52Z</time>
      </trkpt>
      <trkpt lat="43.97246" lon="5.14667">
        <ele>393.32</ele>
        <time>2015-12-21T12:21:59Z</time>
      </trkpt>
      <trkpt lat="43.97244" lon="5.14662">
        <ele>395.24</ele>
        <time>2015-12-21T12:22:06Z</time>
      </trkpt>
      <trkpt lat="43.97243" lon="5.14656">
        <ele>396.2</ele>
        <time>2015-12-21T12:22:12Z</time>
      </trkpt>
      <trkpt lat="43.97243" lon="5.14653">
        <ele>396.68</ele>
        <time>2015-12-21T12:22:14Z</time>
      </trkpt>
      <trkpt lat="43.9724" lon="5.1464">
        <ele>398.12</ele>
        <time>2015-12-21T12:22:24Z</time>
      </trkpt>
      <trkpt lat="43.97239" lon="5.14632">
        <ele>399.08</ele>
        <time>2015-12-21T12:22:31Z</time>
      </trkpt>
      <trkpt lat="43.97237" lon="5.14628">
        <ele>400.05</ele>
        <time>2015-12-21T12:22:37Z</time>
      </trkpt>
      <trkpt lat="43.97232" lon="5.14622">
        <ele>400.53</ele>
        <time>2015-12-21T12:22:44Z</time>
      </trkpt>
      <trkpt lat="43.97229" lon="5.14618">
        <ele>401.01</ele>
        <time>2015-12-21T12:22:48Z</time>
      </trkpt>
      <trkpt lat="43.97217" lon="5.14611">
        <ele>401.97</ele>
        <time>2015-12-21T12:22:56Z</time>
      </trkpt>
      <trkpt lat="43.97215" lon="5.1461">
        <ele>402.45</ele>
        <time>2015-12-21T12:22:57Z</time>
      </trkpt>
      <trkpt lat="43.97204" lon="5.14603">
        <ele>403.41</ele>
        <time>2015-12-21T12:23:05Z</time>
      </trkpt>
      <trkpt lat="43.972" lon="5.146">
        <ele>403.41</ele>
        <time>2015-12-21T12:23:12Z</time>
      </trkpt>
      <trkpt lat="43.97198" lon="5.14601">
        <ele>403.41</ele>
        <time>2015-12-21T12:23:22Z</time>
      </trkpt>
      <trkpt lat="43.97183" lon="5.1459">
        <ele>402.45</ele>
        <time>2015-12-21T12:23:29Z</time>
      </trkpt>
      <trkpt lat="43.9717" lon="5.14581">
        <ele>401.49</ele>
        <time>2015-12-21T12:23:33Z</time>
      </trkpt>
      <trkpt lat="43.97166" lon="5.14577">
        <ele>400.53</ele>
        <time>2015-12-21T12:23:34Z</time>
      </trkpt>
      <trkpt lat="43.97159" lon="5.14567">
        <ele>400.05</ele>
        <time>2015-12-21T12:23:37Z</time>
      </trkpt>
      <trkpt lat="43.9716" lon="5.14564">
        <ele>400.05</ele>
        <time>2015-12-21T12:23:38Z</time>
      </trkpt>
      <trkpt lat="43.97161" lon="5.14562">
        <ele>399.57</ele>
        <time>2015-12-21T12:23:39Z</time>
      </trkpt>
      <trkpt lat="43.97179" lon="5.14544">
        <ele>398.6</ele>
        <time>2015-12-21T12:23:47Z</time>
      </trkpt>
      <trkpt lat="43.97193" lon="5.14523">
        <ele>399.08</ele>
        <time>2015-12-21T12:23:54Z</time>
      </trkpt>
      <trkpt lat="43.97204" lon="5.14506">
        <ele>400.05</ele>
        <time>2015-12-21T12:24:00Z</time>
      </trkpt>
      <trkpt lat="43.97225" lon="5.14488">
        <ele>399.08</ele>
        <time>2015-12-21T12:24:07Z</time>
      </trkpt>
      <trkpt lat="43.97228" lon="5.14485">
        <ele>399.08</ele>
        <time>2015-12-21T12:24:08Z</time>
      </trkpt>
      <trkpt lat="43.9723" lon="5.14481">
        <ele>399.57</ele>
        <time>2015-12-21T12:24:09Z</time>
      </trkpt>
      <trkpt lat="43.97232" lon="5.14478">
        <ele>399.57</ele>
        <time>2015-12-21T12:24:10Z</time>
      </trkpt>
      <trkpt lat="43.97235" lon="5.14475">
        <ele>399.57</ele>
        <time>2015-12-21T12:24:11Z</time>
      </trkpt>
      <trkpt lat="43.97237" lon="5.14473">
        <ele>400.05</ele>
        <time>2015-12-21T12:24:12Z</time>
      </trkpt>
      <trkpt lat="43.9724" lon="5.14472">
        <ele>400.53</ele>
        <time>2015-12-21T12:24:13Z</time>
      </trkpt>
      <trkpt lat="43.97242" lon="5.1447">
        <ele>400.53</ele>
        <time>2015-12-21T12:24:14Z</time>
      </trkpt>
      <trkpt lat="43.97259" lon="5.14459">
        <ele>400.53</ele>
        <time>2015-12-21T12:24:20Z</time>
      </trkpt>
      <trkpt lat="43.97265" lon="5.14455">
        <ele>400.53</ele>
        <time>2015-12-21T12:24:22Z</time>
      </trkpt>
      <trkpt lat="43.97267" lon="5.14454">
        <ele>400.53</ele>
        <time>2015-12-21T12:24:23Z</time>
      </trkpt>
      <trkpt lat="43.9727" lon="5.14453">
        <ele>400.53</ele>
        <time>2015-12-21T12:24:24Z</time>
      </trkpt>
      <trkpt lat="43.97273" lon="5.14451">
        <ele>400.53</ele>
        <time>2015-12-21T12:24:25Z</time>
      </trkpt>
      <trkpt lat="43.97276" lon="5.14449">
        <ele>400.53</ele>
        <time>2015-12-21T12:24:26Z</time>
      </trkpt>
      <trkpt lat="43.97278" lon="5.14447">
        <ele>401.01</ele>
        <time>2015-12-21T12:24:27Z</time>
      </trkpt>
      <trkpt lat="43.9728" lon="5.14445">
        <ele>401.01</ele>
        <time>2015-12-21T12:24:28Z</time>
      </trkpt>
      <trkpt lat="43.97282" lon="5.14442">
        <ele>401.01</ele>
        <time>2015-12-21T12:24:29Z</time>
      </trkpt>
      <trkpt lat="43.97283" lon="5.14439">
        <ele>401.49</ele>
        <time>2015-12-21T12:24:30Z</time>
      </trkpt>
      <trkpt lat="43.97285" lon="5.14437">
        <ele>401.97</ele>
        <time>2015-12-21T12:24:31Z</time>
      </trkpt>
      <trkpt lat="43.97287" lon="5.14435">
        <ele>402.45</ele>
        <time>2015-12-21T12:24:32Z</time>
      </trkpt>
      <trkpt lat="43.97289" lon="5.14432">
        <ele>402.93</ele>
        <time>2015-12-21T12:24:33Z</time>
      </trkpt>
      <trkpt lat="43.9729" lon="5.1443">
        <ele>402.93</ele>
        <time>2015-12-21T12:24:34Z</time>
      </trkpt>
      <trkpt lat="43.97291" lon="5.14426">
        <ele>403.41</ele>
        <time>2015-12-21T12:24:35Z</time>
      </trkpt>
      <trkpt lat="43.97294" lon="5.14414">
        <ele>404.37</ele>
        <time>2015-12-21T12:24:39Z</time>
      </trkpt>
      <trkpt lat="43.97294" lon="5.14411">
        <ele>404.85</ele>
        <time>2015-12-21T12:24:40Z</time>
      </trkpt>
      <trkpt lat="43.97293" lon="5.14408">
        <ele>405.33</ele>
        <time>2015-12-21T12:24:41Z</time>
      </trkpt>
      <trkpt lat="43.97293" lon="5.14406">
        <ele>405.81</ele>
        <time>2015-12-21T12:24:42Z</time>
      </trkpt>
      <trkpt lat="43.97292" lon="5.14403">
        <ele>405.81</ele>
        <time>2015-12-21T12:24:43Z</time>
      </trkpt>
      <trkpt lat="43.97291" lon="5.14402">
        <ele>406.29</ele>
        <time>2015-12-21T12:24:44Z</time>
      </trkpt>
      <trkpt lat="43.97289" lon="5.14401">
        <ele>406.29</ele>
        <time>2015-12-21T12:24:45Z</time>
      </trkpt>
      <trkpt lat="43.97286" lon="5.144">
        <ele>406.77</ele>
        <time>2015-12-21T12:24:46Z</time>
      </trkpt>
      <trkpt lat="43.97284" lon="5.14399">
        <ele>407.26</ele>
        <time>2015-12-21T12:24:47Z</time>
      </trkpt>
      <trkpt lat="43.97283" lon="5.14396">
        <ele>407.26</ele>
        <time>2015-12-21T12:24:48Z</time>
      </trkpt>
      <trkpt lat="43.97283" lon="5.14393">
        <ele>407.26</ele>
        <time>2015-12-21T12:24:49Z</time>
      </trkpt>
      <trkpt lat="43.97283" lon="5.1439">
        <ele>407.74</ele>
        <time>2015-12-21T12:24:50Z</time>
      </trkpt>
      <trkpt lat="43.97284" lon="5.14388">
        <ele>407.74</ele>
        <time>2015-12-21T12:24:51Z</time>
      </trkpt>
      <trkpt lat="43.97284" lon="5.14385">
        <ele>407.26</ele>
        <time>2015-12-21T12:24:56Z</time>
      </trkpt>
      <trkpt lat="43.97284" lon="5.14385">
        <ele>407.26</ele>
        <time>2015-12-21T12:25:04Z</time>
      </trkpt>
      <trkpt lat="43.97284" lon="5.14384">
        <ele>407.74</ele>
        <time>2015-12-21T12:25:18Z</time>
      </trkpt>
      <trkpt lat="43.97284" lon="5.14384">
        <ele>407.26</ele>
        <time>2015-12-21T12:25:31Z</time>
      </trkpt>
      <trkpt lat="43.97284" lon="5.14384">
        <ele>407.74</ele>
        <time>2015-12-21T12:25:47Z</time>
      </trkpt>
      <trkpt lat="43.97284" lon="5.14384">
        <ele>407.26</ele>
        <time>2015-12-21T12:26:02Z</time>
      </trkpt>
      <trkpt lat="43.97285" lon="5.14384">
        <ele>407.26</ele>
        <time>2015-12-21T12:26:24Z</time>
      </trkpt>
      <trkpt lat="43.97285" lon="5.14384">
        <ele>407.74</ele>
        <time>2015-12-21T12:26:36Z</time>
      </trkpt>
      <trkpt lat="43.97285" lon="5.14384">
        <ele>407.26</ele>
        <time>2015-12-21T12:26:53Z</time>
      </trkpt>
      <trkpt lat="43.97285" lon="5.14384">
        <ele>407.74</ele>
        <time>2015-12-21T12:27:15Z</time>
      </trkpt>
      <trkpt lat="43.97285" lon="5.14384">
        <ele>407.26</ele>
        <time>2015-12-21T12:27:30Z</time>
      </trkpt>
      <trkpt lat="43.97286" lon="5.14384">
        <ele>407.74</ele>
        <time>2015-12-21T12:27:50Z</time>
      </trkpt>
      <trkpt lat="43.97286" lon="5.14384">
        <ele>407.74</ele>
        <time>2015-12-21T12:28:04Z</time>
      </trkpt>
      <trkpt lat="43.97286" lon="5.14384">
        <ele>407.26</ele>
        <time>2015-12-21T12:28:19Z</time>
      </trkpt>
      <trkpt lat="43.97286" lon="5.14384">
        <ele>407.74</ele>
        <time>2015-12-21T12:28:38Z</time>
      </trkpt>
      <trkpt lat="43.97285" lon="5.14384">
        <ele>407.26</ele>
        <time>2015-12-21T12:28:54Z</time>
      </trkpt>
      <trkpt lat="43.97287" lon="5.14383">
        <ele>407.74</ele>
        <time>2015-12-21T12:28:55Z</time>
      </trkpt>
      <trkpt lat="43.97289" lon="5.14381">
        <ele>407.74</ele>
        <time>2015-12-21T12:28:56Z</time>
      </trkpt>
      <trkpt lat="43.97292" lon="5.14379">
        <ele>407.26</ele>
        <time>2015-12-21T12:29:00Z</time>
      </trkpt>
      <trkpt lat="43.97289" lon="5.14377">
        <ele>407.74</ele>
        <time>2015-12-21T12:29:06Z</time>
      </trkpt>
      <trkpt lat="43.97284" lon="5.1438">
        <ele>407.74</ele>
        <time>2015-12-21T12:29:11Z</time>
      </trkpt>
      <trkpt lat="43.97283" lon="5.14379">
        <ele>408.22</ele>
        <time>2015-12-21T12:29:12Z</time>
      </trkpt>
      <trkpt lat="43.9727" lon="5.14369">
        <ele>409.18</ele>
        <time>2015-12-21T12:29:20Z</time>
      </trkpt>
      <trkpt lat="43.97258" lon="5.14364">
        <ele>410.62</ele>
        <time>2015-12-21T12:29:28Z</time>
      </trkpt>
      <trkpt lat="43.97249" lon="5.14365">
        <ele>412.06</ele>
        <time>2015-12-21T12:29:35Z</time>
      </trkpt>
      <trkpt lat="43.97241" lon="5.14372">
        <ele>412.54</ele>
        <time>2015-12-21T12:29:42Z</time>
      </trkpt>
      <trkpt lat="43.97226" lon="5.1437">
        <ele>413.5</ele>
        <time>2015-12-21T12:29:49Z</time>
      </trkpt>
      <trkpt lat="43.97214" lon="5.14365">
        <ele>413.98</ele>
        <time>2015-12-21T12:29:55Z</time>
      </trkpt>
      <trkpt lat="43.97203" lon="5.14365">
        <ele>414.47</ele>
        <time>2015-12-21T12:30:00Z</time>
      </trkpt>
      <trkpt lat="43.97193" lon="5.14368">
        <ele>413.98</ele>
        <time>2015-12-21T12:30:05Z</time>
      </trkpt>
      <trkpt lat="43.97174" lon="5.14377">
        <ele>414.95</ele>
        <time>2015-12-21T12:30:14Z</time>
      </trkpt>
      <trkpt lat="43.97149" lon="5.14385">
        <ele>415.43</ele>
        <time>2015-12-21T12:30:24Z</time>
      </trkpt>
      <trkpt lat="43.97128" lon="5.14394">
        <ele>416.87</ele>
        <time>2015-12-21T12:30:32Z</time>
      </trkpt>
      <trkpt lat="43.97112" lon="5.14405">
        <ele>417.35</ele>
        <time>2015-12-21T12:30:39Z</time>
      </trkpt>
      <trkpt lat="43.97108" lon="5.14407">
        <ele>416.87</ele>
        <time>2015-12-21T12:30:44Z</time>
      </trkpt>
      <trkpt lat="43.97107" lon="5.14407">
        <ele>416.87</ele>
        <time>2015-12-21T12:30:55Z</time>
      </trkpt>
      <trkpt lat="43.97106" lon="5.14407">
        <ele>417.35</ele>
        <time>2015-12-21T12:31:07Z</time>
      </trkpt>
      <trkpt lat="43.97106" lon="5.14407">
        <ele>416.87</ele>
        <time>2015-12-21T12:31:23Z</time>
      </trkpt>
      <trkpt lat="43.97105" lon="5.14407">
        <ele>416.87</ele>
        <time>2015-12-21T12:31:40Z</time>
      </trkpt>
      <trkpt lat="43.97106" lon="5.14407">
        <ele>416.87</ele>
        <time>2015-12-21T12:31:58Z</time>
      </trkpt>
      <trkpt lat="43.97106" lon="5.14407">
        <ele>417.35</ele>
        <time>2015-12-21T12:32:16Z</time>
      </trkpt>
      <trkpt lat="43.97106" lon="5.14407">
        <ele>417.83</ele>
        <time>2015-12-21T12:32:28Z</time>
      </trkpt>
      <trkpt lat="43.97106" lon="5.14407">
        <ele>417.35</ele>
        <time>2015-12-21T12:32:48Z</time>
      </trkpt>
      <trkpt lat="43.97106" lon="5.14407">
        <ele>417.35</ele>
        <time>2015-12-21T12:33:06Z</time>
      </trkpt>
      <trkpt lat="43.97106" lon="5.14406">
        <ele>417.35</ele>
        <time>2015-12-21T12:33:20Z</time>
      </trkpt>
      <trkpt lat="43.97106" lon="5.14406">
        <ele>417.35</ele>
        <time>2015-12-21T12:33:34Z</time>
      </trkpt>
      <trkpt lat="43.97106" lon="5.14406">
        <ele>417.35</ele>
        <time>2015-12-21T12:33:44Z</time>
      </trkpt>
      <trkpt lat="43.97096" lon="5.14404">
        <ele>417.83</ele>
        <time>2015-12-21T12:33:50Z</time>
      </trkpt>
      <trkpt lat="43.9708" lon="5.14405">
        <ele>418.31</ele>
        <time>2015-12-21T12:33:58Z</time>
      </trkpt>
      <trkpt lat="43.97064" lon="5.14408">
        <ele>418.31</ele>
        <time>2015-12-21T12:34:07Z</time>
      </trkpt>
      <trkpt lat="43.9706" lon="5.14407">
        <ele>418.31</ele>
        <time>2015-12-21T12:34:12Z</time>
      </trkpt>
      <trkpt lat="43.97059" lon="5.14407">
        <ele>418.79</ele>
        <time>2015-12-21T12:34:24Z</time>
      </trkpt>
      <trkpt lat="43.97045" lon="5.14407">
        <ele>418.79</ele>
        <time>2015-12-21T12:34:31Z</time>
      </trkpt>
      <trkpt lat="43.97028" lon="5.14391">
        <ele>418.31</ele>
        <time>2015-12-21T12:34:37Z</time>
      </trkpt>
      <trkpt lat="43.97015" lon="5.14369">
        <ele>418.31</ele>
        <time>2015-12-21T12:34:44Z</time>
      </trkpt>
      <trkpt lat="43.97014" lon="5.14363">
        <ele>418.31</ele>
        <time>2015-12-21T12:34:50Z</time>
      </trkpt>
      <trkpt lat="43.97013" lon="5.14361">
        <ele>418.31</ele>
        <time>2015-12-21T12:35:06Z</time>
      </trkpt>
      <trkpt lat="43.97014" lon="5.14361">
        <ele>418.31</ele>
        <time>2015-12-21T12:35:25Z</time>
      </trkpt>
      <trkpt lat="43.97014" lon="5.1436">
        <ele>418.31</ele>
        <time>2015-12-21T12:35:43Z</time>
      </trkpt>
      <trkpt lat="43.97014" lon="5.1436">
        <ele>418.31</ele>
        <time>2015-12-21T12:35:53Z</time>
      </trkpt>
      <trkpt lat="43.97014" lon="5.1436">
        <ele>418.31</ele>
        <time>2015-12-21T12:36:03Z</time>
      </trkpt>
      <trkpt lat="43.97014" lon="5.14362">
        <ele>418.79</ele>
        <time>2015-12-21T12:36:18Z</time>
      </trkpt>
      <trkpt lat="43.97014" lon="5.14362">
        <ele>418.31</ele>
        <time>2015-12-21T12:36:32Z</time>
      </trkpt>
      <trkpt lat="43.97014" lon="5.14363">
        <ele>418.31</ele>
        <time>2015-12-21T12:36:46Z</time>
      </trkpt>
      <trkpt lat="43.97014" lon="5.14363">
        <ele>418.79</ele>
        <time>2015-12-21T12:37:10Z</time>
      </trkpt>
      <trkpt lat="43.97014" lon="5.14364">
        <ele>418.79</ele>
        <time>2015-12-21T12:37:21Z</time>
      </trkpt>
      <trkpt lat="43.97014" lon="5.14364">
        <ele>418.79</ele>
        <time>2015-12-21T12:37:37Z</time>
      </trkpt>
      <trkpt lat="43.97014" lon="5.14363">
        <ele>418.79</ele>
        <time>2015-12-21T12:37:50Z</time>
      </trkpt>
      <trkpt lat="43.97014" lon="5.14363">
        <ele>418.79</ele>
        <time>2015-12-21T12:38:06Z</time>
      </trkpt>
      <trkpt lat="43.97014" lon="5.14364">
        <ele>418.79</ele>
        <time>2015-12-21T12:38:26Z</time>
      </trkpt>
      <trkpt lat="43.97014" lon="5.14364">
        <ele>418.79</ele>
        <time>2015-12-21T12:38:44Z</time>
      </trkpt>
      <trkpt lat="43.97014" lon="5.14364">
        <ele>418.79</ele>
        <time>2015-12-21T12:39:05Z</time>
      </trkpt>
      <trkpt lat="43.97014" lon="5.14363">
        <ele>418.79</ele>
        <time>2015-12-21T12:39:28Z</time>
      </trkpt>
      <trkpt lat="43.97014" lon="5.14364">
        <ele>418.79</ele>
        <time>2015-12-21T12:39:45Z</time>
      </trkpt>
      <trkpt lat="43.97014" lon="5.14363">
        <ele>418.79</ele>
        <time>2015-12-21T12:40:01Z</time>
      </trkpt>
      <trkpt lat="43.97014" lon="5.14364">
        <ele>418.79</ele>
        <time>2015-12-21T12:40:04Z</time>
      </trkpt>
      <trkpt lat="43.97023" lon="5.14349">
        <ele>418.31</ele>
        <time>2015-12-21T12:40:10Z</time>
      </trkpt>
      <trkpt lat="43.97027" lon="5.14344">
        <ele>417.35</ele>
        <time>2015-12-21T12:40:12Z</time>
      </trkpt>
      <trkpt lat="43.97045" lon="5.14314">
        <ele>415.43</ele>
        <time>2015-12-21T12:40:20Z</time>
      </trkpt>
      <trkpt lat="43.9705" lon="5.14302">
        <ele>414.47</ele>
        <time>2015-12-21T12:40:23Z</time>
      </trkpt>
      <trkpt lat="43.9707" lon="5.14297">
        <ele>412.06</ele>
        <time>2015-12-21T12:40:29Z</time>
      </trkpt>
      <trkpt lat="43.97074" lon="5.14293">
        <ele>411.1</ele>
        <time>2015-12-21T12:40:31Z</time>
      </trkpt>
      <trkpt lat="43.97088" lon="5.14286">
        <ele>407.26</ele>
        <time>2015-12-21T12:40:37Z</time>
      </trkpt>
      <trkpt lat="43.97089" lon="5.14283">
        <ele>406.29</ele>
        <time>2015-12-21T12:40:43Z</time>
      </trkpt>
      <trkpt lat="43.97089" lon="5.14284">
        <ele>406.29</ele>
        <time>2015-12-21T12:40:57Z</time>
      </trkpt>
      <trkpt lat="43.9709" lon="5.14283">
        <ele>406.29</ele>
        <time>2015-12-21T12:41:05Z</time>
      </trkpt>
      <trkpt lat="43.97091" lon="5.14283">
        <ele>406.29</ele>
        <time>2015-12-21T12:41:19Z</time>
      </trkpt>
      <trkpt lat="43.97091" lon="5.14284">
        <ele>405.81</ele>
        <time>2015-12-21T12:41:38Z</time>
      </trkpt>
      <trkpt lat="43.97091" lon="5.14287">
        <ele>406.77</ele>
        <time>2015-12-21T12:41:42Z</time>
      </trkpt>
      <trkpt lat="43.97088" lon="5.1429">
        <ele>406.77</ele>
        <time>2015-12-21T12:41:51Z</time>
      </trkpt>
      <trkpt lat="43.97088" lon="5.1429">
        <ele>406.77</ele>
        <time>2015-12-21T12:42:09Z</time>
      </trkpt>
      <trkpt lat="43.97089" lon="5.1429">
        <ele>407.26</ele>
        <time>2015-12-21T12:42:25Z</time>
      </trkpt>
      <trkpt lat="43.97089" lon="5.1429">
        <ele>406.77</ele>
        <time>2015-12-21T12:42:39Z</time>
      </trkpt>
      <trkpt lat="43.97089" lon="5.1429">
        <ele>406.77</ele>
        <time>2015-12-21T12:42:57Z</time>
      </trkpt>
      <trkpt lat="43.97089" lon="5.14291">
        <ele>407.26</ele>
        <time>2015-12-21T12:43:13Z</time>
      </trkpt>
      <trkpt lat="43.97089" lon="5.14291">
        <ele>407.26</ele>
        <time>2015-12-21T12:43:29Z</time>
      </trkpt>
      <trkpt lat="43.97089" lon="5.14291">
        <ele>407.26</ele>
        <time>2015-12-21T12:43:48Z</time>
      </trkpt>
      <trkpt lat="43.97087" lon="5.14292">
        <ele>408.22</ele>
        <time>2015-12-21T12:43:57Z</time>
      </trkpt>
      <trkpt lat="43.97084" lon="5.14294">
        <ele>409.18</ele>
        <time>2015-12-21T12:44:04Z</time>
      </trkpt>
      <trkpt lat="43.9708" lon="5.14301">
        <ele>411.1</ele>
        <time>2015-12-21T12:44:12Z</time>
      </trkpt>
      <trkpt lat="43.97079" lon="5.14303">
        <ele>411.1</ele>
        <time>2015-12-21T12:44:14Z</time>
      </trkpt>
      <trkpt lat="43.97071" lon="5.14305">
        <ele>412.54</ele>
        <time>2015-12-21T12:44:23Z</time>
      </trkpt>
      <trkpt lat="43.9707" lon="5.14305">
        <ele>412.54</ele>
        <time>2015-12-21T12:44:24Z</time>
      </trkpt>
      <trkpt lat="43.97058" lon="5.14304">
        <ele>414.47</ele>
        <time>2015-12-21T12:44:33Z</time>
      </trkpt>
      <trkpt lat="43.97055" lon="5.14312">
        <ele>414.47</ele>
        <time>2015-12-21T12:44:37Z</time>
      </trkpt>
      <trkpt lat="43.97045" lon="5.14328">
        <ele>415.43</ele>
        <time>2015-12-21T12:44:45Z</time>
      </trkpt>
      <trkpt lat="43.97036" lon="5.14345">
        <ele>417.83</ele>
        <time>2015-12-21T12:44:52Z</time>
      </trkpt>
      <trkpt lat="43.97035" lon="5.14347">
        <ele>417.83</ele>
        <time>2015-12-21T12:44:53Z</time>
      </trkpt>
      <trkpt lat="43.97035" lon="5.14349">
        <ele>417.83</ele>
        <time>2015-12-21T12:44:54Z</time>
      </trkpt>
      <trkpt lat="43.9703" lon="5.14357">
        <ele>418.31</ele>
        <time>2015-12-21T12:44:58Z</time>
      </trkpt>
      <trkpt lat="43.97025" lon="5.14361">
        <ele>419.27</ele>
        <time>2015-12-21T12:45:02Z</time>
      </trkpt>
      <trkpt lat="43.97012" lon="5.14353">
        <ele>419.75</ele>
        <time>2015-12-21T12:45:10Z</time>
      </trkpt>
      <trkpt lat="43.97009" lon="5.14349">
        <ele>420.23</ele>
        <time>2015-12-21T12:45:13Z</time>
      </trkpt>
      <trkpt lat="43.96992" lon="5.14347">
        <ele>420.71</ele>
        <time>2015-12-21T12:45:21Z</time>
      </trkpt>
      <trkpt lat="43.96982" lon="5.14348">
        <ele>421.68</ele>
        <time>2015-12-21T12:45:28Z</time>
      </trkpt>
      <trkpt lat="43.96972" lon="5.14349">
        <ele>422.64</ele>
        <time>2015-12-21T12:45:36Z</time>
      </trkpt>
      <trkpt lat="43.96973" lon="5.14347">
        <ele>422.64</ele>
        <time>2015-12-21T12:45:42Z</time>
      </trkpt>
      <trkpt lat="43.96974" lon="5.14345">
        <ele>422.64</ele>
        <time>2015-12-21T12:45:53Z</time>
      </trkpt>
      <trkpt lat="43.96975" lon="5.14344">
        <ele>422.64</ele>
        <time>2015-12-21T12:46:03Z</time>
      </trkpt>
      <trkpt lat="43.96975" lon="5.14345">
        <ele>422.64</ele>
        <time>2015-12-21T12:46:15Z</time>
      </trkpt>
      <trkpt lat="43.96975" lon="5.14344">
        <ele>422.64</ele>
        <time>2015-12-21T12:46:32Z</time>
      </trkpt>
      <trkpt lat="43.96975" lon="5.14344">
        <ele>422.64</ele>
        <time>2015-12-21T12:46:48Z</time>
      </trkpt>
      <trkpt lat="43.96975" lon="5.14343">
        <ele>422.64</ele>
        <time>2015-12-21T12:47:08Z</time>
      </trkpt>
      <trkpt lat="43.96975" lon="5.14343">
        <ele>422.64</ele>
        <time>2015-12-21T12:47:23Z</time>
      </trkpt>
      <trkpt lat="43.96975" lon="5.14344">
        <ele>422.64</ele>
        <time>2015-12-21T12:47:39Z</time>
      </trkpt>
      <trkpt lat="43.96975" lon="5.14345">
        <ele>422.64</ele>
        <time>2015-12-21T12:47:53Z</time>
      </trkpt>
      <trkpt lat="43.96975" lon="5.14345">
        <ele>422.64</ele>
        <time>2015-12-21T12:48:03Z</time>
      </trkpt>
      <trkpt lat="43.96976" lon="5.14345">
        <ele>422.64</ele>
        <time>2015-12-21T12:48:16Z</time>
      </trkpt>
      <trkpt lat="43.96976" lon="5.14345">
        <ele>422.64</ele>
        <time>2015-12-21T12:48:32Z</time>
      </trkpt>
      <trkpt lat="43.96976" lon="5.14345">
        <ele>422.64</ele>
        <time>2015-12-21T12:48:46Z</time>
      </trkpt>
      <trkpt lat="43.96976" lon="5.14345">
        <ele>422.64</ele>
        <time>2015-12-21T12:49:00Z</time>
      </trkpt>
      <trkpt lat="43.96976" lon="5.14345">
        <ele>422.64</ele>
        <time>2015-12-21T12:49:14Z</time>
      </trkpt>
      <trkpt lat="43.96975" lon="5.14345">
        <ele>422.64</ele>
        <time>2015-12-21T12:49:32Z</time>
      </trkpt>
      <trkpt lat="43.96975" lon="5.14345">
        <ele>422.64</ele>
        <time>2015-12-21T12:49:47Z</time>
      </trkpt>
      <trkpt lat="43.96974" lon="5.14345">
        <ele>422.64</ele>
        <time>2015-12-21T12:49:58Z</time>
      </trkpt>
      <trkpt lat="43.96974" lon="5.14344">
        <ele>422.16</ele>
        <time>2015-12-21T12:50:14Z</time>
      </trkpt>
      <trkpt lat="43.96974" lon="5.14344">
        <ele>422.16</ele>
        <time>2015-12-21T12:50:29Z</time>
      </trkpt>
      <trkpt lat="43.96974" lon="5.14345">
        <ele>422.16</ele>
        <time>2015-12-21T12:50:47Z</time>
      </trkpt>
      <trkpt lat="43.96974" lon="5.14345">
        <ele>422.16</ele>
        <time>2015-12-21T12:51:04Z</time>
      </trkpt>
      <trkpt lat="43.96974" lon="5.14344">
        <ele>422.16</ele>
        <time>2015-12-21T12:51:18Z</time>
      </trkpt>
      <trkpt lat="43.96972" lon="5.14344">
        <ele>422.64</ele>
        <time>2015-12-21T12:51:24Z</time>
      </trkpt>
      <trkpt lat="43.9697" lon="5.14343">
        <ele>422.16</ele>
        <time>2015-12-21T12:51:35Z</time>
      </trkpt>
      <trkpt lat="43.96969" lon="5.14343">
        <ele>422.64</ele>
        <time>2015-12-21T12:51:46Z</time>
      </trkpt>
      <trkpt lat="43.96971" lon="5.14344">
        <ele>422.16</ele>
        <time>2015-12-21T12:51:56Z</time>
      </trkpt>
      <trkpt lat="43.96971" lon="5.14344">
        <ele>422.16</ele>
        <time>2015-12-21T12:52:09Z</time>
      </trkpt>
      <trkpt lat="43.96971" lon="5.14344">
        <ele>422.16</ele>
        <time>2015-12-21T12:52:27Z</time>
      </trkpt>
      <trkpt lat="43.96971" lon="5.14344">
        <ele>421.68</ele>
        <time>2015-12-21T12:52:43Z</time>
      </trkpt>
      <trkpt lat="43.96971" lon="5.14344">
        <ele>421.68</ele>
        <time>2015-12-21T12:52:59Z</time>
      </trkpt>
      <trkpt lat="43.96972" lon="5.14345">
        <ele>422.16</ele>
        <time>2015-12-21T12:53:20Z</time>
      </trkpt>
      <trkpt lat="43.96972" lon="5.14345">
        <ele>421.68</ele>
        <time>2015-12-21T12:53:34Z</time>
      </trkpt>
      <trkpt lat="43.96972" lon="5.14345">
        <ele>421.68</ele>
        <time>2015-12-21T12:53:51Z</time>
      </trkpt>
      <trkpt lat="43.96973" lon="5.14345">
        <ele>421.68</ele>
        <time>2015-12-21T12:54:05Z</time>
      </trkpt>
      <trkpt lat="43.96973" lon="5.14345">
        <ele>421.68</ele>
        <time>2015-12-21T12:54:20Z</time>
      </trkpt>
      <trkpt lat="43.96973" lon="5.14345">
        <ele>421.68</ele>
        <time>2015-12-21T12:54:33Z</time>
      </trkpt>
      <trkpt lat="43.96973" lon="5.14345">
        <ele>421.68</ele>
        <time>2015-12-21T12:54:50Z</time>
      </trkpt>
      <trkpt lat="43.96973" lon="5.14345">
        <ele>421.19</ele>
        <time>2015-12-21T12:55:07Z</time>
      </trkpt>
      <trkpt lat="43.96973" lon="5.14344">
        <ele>421.19</ele>
        <time>2015-12-21T12:55:23Z</time>
      </trkpt>
      <trkpt lat="43.96972" lon="5.14344">
        <ele>421.19</ele>
        <time>2015-12-21T12:55:34Z</time>
      </trkpt>
      <trkpt lat="43.96973" lon="5.14344">
        <ele>421.68</ele>
        <time>2015-12-21T12:55:45Z</time>
      </trkpt>
      <trkpt lat="43.96972" lon="5.14345">
        <ele>421.68</ele>
        <time>2015-12-21T12:55:48Z</time>
      </trkpt>
      <trkpt lat="43.96968" lon="5.14351">
        <ele>422.16</ele>
        <time>2015-12-21T12:55:52Z</time>
      </trkpt>
      <trkpt lat="43.96967" lon="5.14369">
        <ele>422.64</ele>
        <time>2015-12-21T12:55:58Z</time>
      </trkpt>
      <trkpt lat="43.96961" lon="5.1438">
        <ele>423.6</ele>
        <time>2015-12-21T12:56:03Z</time>
      </trkpt>
      <trkpt lat="43.96957" lon="5.14382">
        <ele>423.6</ele>
        <time>2015-12-21T12:56:10Z</time>
      </trkpt>
      <trkpt lat="43.96957" lon="5.14382">
        <ele>424.08</ele>
        <time>2015-12-21T12:56:23Z</time>
      </trkpt>
      <trkpt lat="43.96957" lon="5.14382">
        <ele>424.56</ele>
        <time>2015-12-21T12:56:31Z</time>
      </trkpt>
      <trkpt lat="43.96944" lon="5.14375">
        <ele>424.56</ele>
        <time>2015-12-21T12:56:38Z</time>
      </trkpt>
      <trkpt lat="43.96919" lon="5.14351">
        <ele>424.56</ele>
        <time>2015-12-21T12:56:48Z</time>
      </trkpt>
      <trkpt lat="43.96899" lon="5.14328">
        <ele>424.56</ele>
        <time>2015-12-21T12:56:57Z</time>
      </trkpt>
      <trkpt lat="43.96877" lon="5.14306">
        <ele>424.08</ele>
        <time>2015-12-21T12:57:04Z</time>
      </trkpt>
      <trkpt lat="43.96863" lon="5.1428">
        <ele>424.08</ele>
        <time>2015-12-21T12:57:10Z</time>
      </trkpt>
      <trkpt lat="43.96849" lon="5.14245">
        <ele>425.04</ele>
        <time>2015-12-21T12:57:19Z</time>
      </trkpt>
      <trkpt lat="43.96837" lon="5.14218">
        <ele>425.52</ele>
        <time>2015-12-21T12:57:26Z</time>
      </trkpt>
      <trkpt lat="43.96823" lon="5.14189">
        <ele>426</ele>
        <time>2015-12-21T12:57:33Z</time>
      </trkpt>
      <trkpt lat="43.9681" lon="5.14159">
        <ele>426</ele>
        <time>2015-12-21T12:57:40Z</time>
      </trkpt>
      <trkpt lat="43.96796" lon="5.14131">
        <ele>426.96</ele>
        <time>2015-12-21T12:57:47Z</time>
      </trkpt>
      <trkpt lat="43.96786" lon="5.14097">
        <ele>427.44</ele>
        <time>2015-12-21T12:57:54Z</time>
      </trkpt>
      <trkpt lat="43.96787" lon="5.14061">
        <ele>428.4</ele>
        <time>2015-12-21T12:58:01Z</time>
      </trkpt>
      <trkpt lat="43.96795" lon="5.14037">
        <ele>428.89</ele>
        <time>2015-12-21T12:58:07Z</time>
      </trkpt>
      <trkpt lat="43.96808" lon="5.1401">
        <ele>429.37</ele>
        <time>2015-12-21T12:58:14Z</time>
      </trkpt>
      <trkpt lat="43.96811" lon="5.14004">
        <ele>428.89</ele>
        <time>2015-12-21T12:58:19Z</time>
      </trkpt>
      <trkpt lat="43.96811" lon="5.14003">
        <ele>429.37</ele>
        <time>2015-12-21T12:58:33Z</time>
      </trkpt>
      <trkpt lat="43.96812" lon="5.14002">
        <ele>429.37</ele>
        <time>2015-12-21T12:58:41Z</time>
      </trkpt>
      <trkpt lat="43.9682" lon="5.13987">
        <ele>429.85</ele>
        <time>2015-12-21T12:58:48Z</time>
      </trkpt>
      <trkpt lat="43.96822" lon="5.13984">
        <ele>429.85</ele>
        <time>2015-12-21T12:58:49Z</time>
      </trkpt>
      <trkpt lat="43.96836" lon="5.13963">
        <ele>429.85</ele>
        <time>2015-12-21T12:58:57Z</time>
      </trkpt>
      <trkpt lat="43.96837" lon="5.1396">
        <ele>429.85</ele>
        <time>2015-12-21T12:59:02Z</time>
      </trkpt>
      <trkpt lat="43.96837" lon="5.13958">
        <ele>429.37</ele>
        <time>2015-12-21T12:59:09Z</time>
      </trkpt>
      <trkpt lat="43.96836" lon="5.13953">
        <ele>427.92</ele>
        <time>2015-12-21T12:59:16Z</time>
      </trkpt>
      <trkpt lat="43.96836" lon="5.13954">
        <ele>427.92</ele>
        <time>2015-12-21T12:59:18Z</time>
      </trkpt>
      <trkpt lat="43.9683" lon="5.1395">
        <ele>426.96</ele>
        <time>2015-12-21T12:59:24Z</time>
      </trkpt>
      <trkpt lat="43.96823" lon="5.1395">
        <ele>426.48</ele>
        <time>2015-12-21T12:59:35Z</time>
      </trkpt>
      <trkpt lat="43.96825" lon="5.13949">
        <ele>426.48</ele>
        <time>2015-12-21T12:59:46Z</time>
      </trkpt>
      <trkpt lat="43.96836" lon="5.13948">
        <ele>426.96</ele>
        <time>2015-12-21T12:59:53Z</time>
      </trkpt>
      <trkpt lat="43.96841" lon="5.13956">
        <ele>429.37</ele>
        <time>2015-12-21T13:00:01Z</time>
      </trkpt>
      <trkpt lat="43.96841" lon="5.13957">
        <ele>429.85</ele>
        <time>2015-12-21T13:00:07Z</time>
      </trkpt>
      <trkpt lat="43.96841" lon="5.13959">
        <ele>429.85</ele>
        <time>2015-12-21T13:00:24Z</time>
      </trkpt>
      <trkpt lat="43.96841" lon="5.13959">
        <ele>429.85</ele>
        <time>2015-12-21T13:00:36Z</time>
      </trkpt>
      <trkpt lat="43.96842" lon="5.13959">
        <ele>429.85</ele>
        <time>2015-12-21T13:00:43Z</time>
      </trkpt>
      <trkpt lat="43.9685" lon="5.13955">
        <ele>429.37</ele>
        <time>2015-12-21T13:00:49Z</time>
      </trkpt>
      <trkpt lat="43.96866" lon="5.13947">
        <ele>429.37</ele>
        <time>2015-12-21T13:00:57Z</time>
      </trkpt>
      <trkpt lat="43.96882" lon="5.13935">
        <ele>428.89</ele>
        <time>2015-12-21T13:01:04Z</time>
      </trkpt>
      <trkpt lat="43.96899" lon="5.13927">
        <ele>428.4</ele>
        <time>2015-12-21T13:01:10Z</time>
      </trkpt>
      <trkpt lat="43.96915" lon="5.1392">
        <ele>427.44</ele>
        <time>2015-12-21T13:01:16Z</time>
      </trkpt>
      <trkpt lat="43.96924" lon="5.1392">
        <ele>426.48</ele>
        <time>2015-12-21T13:01:21Z</time>
      </trkpt>
      <trkpt lat="43.96923" lon="5.1392">
        <ele>426.48</ele>
        <time>2015-12-21T13:01:27Z</time>
      </trkpt>
      <trkpt lat="43.96929" lon="5.13908">
        <ele>426.48</ele>
        <time>2015-12-21T13:01:35Z</time>
      </trkpt>
      <trkpt lat="43.9693" lon="5.13908">
        <ele>426.48</ele>
        <time>2015-12-21T13:01:41Z</time>
      </trkpt>
      <trkpt lat="43.96931" lon="5.13909">
        <ele>426</ele>
        <time>2015-12-21T13:01:58Z</time>
      </trkpt>
      <trkpt lat="43.96931" lon="5.13909">
        <ele>426.48</ele>
        <time>2015-12-21T13:02:16Z</time>
      </trkpt>
      <trkpt lat="43.96931" lon="5.13909">
        <ele>426.48</ele>
        <time>2015-12-21T13:02:28Z</time>
      </trkpt>
      <trkpt lat="43.96931" lon="5.1391">
        <ele>426.48</ele>
        <time>2015-12-21T13:02:42Z</time>
      </trkpt>
      <trkpt lat="43.96931" lon="5.13909">
        <ele>426.48</ele>
        <time>2015-12-21T13:02:55Z</time>
      </trkpt>
      <trkpt lat="43.96931" lon="5.13909">
        <ele>426.48</ele>
        <time>2015-12-21T13:03:09Z</time>
      </trkpt>
      <trkpt lat="43.96932" lon="5.13908">
        <ele>426</ele>
        <time>2015-12-21T13:03:26Z</time>
      </trkpt>
      <trkpt lat="43.96931" lon="5.13908">
        <ele>426.48</ele>
        <time>2015-12-21T13:03:43Z</time>
      </trkpt>
      <trkpt lat="43.96931" lon="5.13909">
        <ele>426.48</ele>
        <time>2015-12-21T13:03:58Z</time>
      </trkpt>
      <trkpt lat="43.96931" lon="5.13909">
        <ele>426.48</ele>
        <time>2015-12-21T13:04:10Z</time>
      </trkpt>
      <trkpt lat="43.96931" lon="5.13908">
        <ele>426</ele>
        <time>2015-12-21T13:04:28Z</time>
      </trkpt>
      <trkpt lat="43.96931" lon="5.13909">
        <ele>426</ele>
        <time>2015-12-21T13:04:44Z</time>
      </trkpt>
      <trkpt lat="43.96931" lon="5.13908">
        <ele>426</ele>
        <time>2015-12-21T13:04:51Z</time>
      </trkpt>
      <trkpt lat="43.96941" lon="5.13901">
        <ele>426.48</ele>
        <time>2015-12-21T13:04:57Z</time>
      </trkpt>
      <trkpt lat="43.96966" lon="5.13889">
        <ele>425.52</ele>
        <time>2015-12-21T13:05:05Z</time>
      </trkpt>
      <trkpt lat="43.96987" lon="5.13878">
        <ele>424.56</ele>
        <time>2015-12-21T13:05:12Z</time>
      </trkpt>
      <trkpt lat="43.97009" lon="5.1387">
        <ele>423.6</ele>
        <time>2015-12-21T13:05:18Z</time>
      </trkpt>
      <trkpt lat="43.97027" lon="5.13862">
        <ele>423.12</ele>
        <time>2015-12-21T13:05:23Z</time>
      </trkpt>
      <trkpt lat="43.97047" lon="5.13855">
        <ele>421.68</ele>
        <time>2015-12-21T13:05:29Z</time>
      </trkpt>
      <trkpt lat="43.97064" lon="5.13854">
        <ele>421.68</ele>
        <time>2015-12-21T13:05:35Z</time>
      </trkpt>
      <trkpt lat="43.97086" lon="5.13863">
        <ele>419.75</ele>
        <time>2015-12-21T13:05:41Z</time>
      </trkpt>
      <trkpt lat="43.97092" lon="5.13867">
        <ele>418.31</ele>
        <time>2015-12-21T13:05:44Z</time>
      </trkpt>
      <trkpt lat="43.97094" lon="5.13865">
        <ele>418.31</ele>
        <time>2015-12-21T13:05:45Z</time>
      </trkpt>
      <trkpt lat="43.97096" lon="5.13864">
        <ele>418.31</ele>
        <time>2015-12-21T13:05:46Z</time>
      </trkpt>
      <trkpt lat="43.97112" lon="5.13857">
        <ele>416.39</ele>
        <time>2015-12-21T13:05:51Z</time>
      </trkpt>
      <trkpt lat="43.97114" lon="5.13858">
        <ele>415.91</ele>
        <time>2015-12-21T13:05:52Z</time>
      </trkpt>
      <trkpt lat="43.97115" lon="5.13859">
        <ele>415.43</ele>
        <time>2015-12-21T13:05:53Z</time>
      </trkpt>
      <trkpt lat="43.97117" lon="5.13861">
        <ele>415.43</ele>
        <time>2015-12-21T13:05:59Z</time>
      </trkpt>
      <trkpt lat="43.97117" lon="5.13861">
        <ele>415.43</ele>
        <time>2015-12-21T13:06:09Z</time>
      </trkpt>
      <trkpt lat="43.97117" lon="5.13861">
        <ele>415.43</ele>
        <time>2015-12-21T13:06:20Z</time>
      </trkpt>
      <trkpt lat="43.97117" lon="5.13861">
        <ele>415.43</ele>
        <time>2015-12-21T13:06:34Z</time>
      </trkpt>
      <trkpt lat="43.97118" lon="5.13861">
        <ele>415.43</ele>
        <time>2015-12-21T13:06:47Z</time>
      </trkpt>
      <trkpt lat="43.97117" lon="5.13861">
        <ele>415.43</ele>
        <time>2015-12-21T13:07:03Z</time>
      </trkpt>
      <trkpt lat="43.97117" lon="5.13861">
        <ele>415.43</ele>
        <time>2015-12-21T13:07:09Z</time>
      </trkpt>
      <trkpt lat="43.97119" lon="5.13864">
        <ele>414.95</ele>
        <time>2015-12-21T13:07:11Z</time>
      </trkpt>
      <trkpt lat="43.97121" lon="5.13866">
        <ele>414.95</ele>
        <time>2015-12-21T13:07:12Z</time>
      </trkpt>
      <trkpt lat="43.97126" lon="5.13875">
        <ele>413.98</ele>
        <time>2015-12-21T13:07:16Z</time>
      </trkpt>
      <trkpt lat="43.97131" lon="5.13883">
        <ele>413.5</ele>
        <time>2015-12-21T13:07:19Z</time>
      </trkpt>
      <trkpt lat="43.9714" lon="5.13898">
        <ele>410.62</ele>
        <time>2015-12-21T13:07:24Z</time>
      </trkpt>
      <trkpt lat="43.97149" lon="5.139">
        <ele>408.7</ele>
        <time>2015-12-21T13:07:28Z</time>
      </trkpt>
      <trkpt lat="43.97153" lon="5.13896">
        <ele>407.74</ele>
        <time>2015-12-21T13:07:30Z</time>
      </trkpt>
      <trkpt lat="43.97164" lon="5.13882">
        <ele>406.29</ele>
        <time>2015-12-21T13:07:35Z</time>
      </trkpt>
      <trkpt lat="43.97169" lon="5.13875">
        <ele>405.33</ele>
        <time>2015-12-21T13:07:37Z</time>
      </trkpt>
      <trkpt lat="43.97166" lon="5.1386">
        <ele>404.37</ele>
        <time>2015-12-21T13:07:41Z</time>
      </trkpt>
      <trkpt lat="43.97145" lon="5.13833">
        <ele>403.41</ele>
        <time>2015-12-21T13:07:50Z</time>
      </trkpt>
      <trkpt lat="43.97133" lon="5.13811">
        <ele>402.45</ele>
        <time>2015-12-21T13:07:57Z</time>
      </trkpt>
      <trkpt lat="43.97122" lon="5.13792">
        <ele>402.45</ele>
        <time>2015-12-21T13:08:05Z</time>
      </trkpt>
      <trkpt lat="43.97116" lon="5.1378">
        <ele>401.49</ele>
        <time>2015-12-21T13:08:09Z</time>
      </trkpt>
      <trkpt lat="43.97121" lon="5.13767">
        <ele>399.08</ele>
        <time>2015-12-21T13:08:14Z</time>
      </trkpt>
      <trkpt lat="43.97121" lon="5.13764">
        <ele>398.6</ele>
        <time>2015-12-21T13:08:21Z</time>
      </trkpt>
      <trkpt lat="43.9712" lon="5.13764">
        <ele>398.12</ele>
        <time>2015-12-21T13:08:28Z</time>
      </trkpt>
      <trkpt lat="43.9712" lon="5.13764">
        <ele>398.12</ele>
        <time>2015-12-21T13:08:49Z</time>
      </trkpt>
      <trkpt lat="43.97119" lon="5.13764">
        <ele>398.12</ele>
        <time>2015-12-21T13:09:09Z</time>
      </trkpt>
      <trkpt lat="43.97117" lon="5.13764">
        <ele>398.12</ele>
        <time>2015-12-21T13:09:14Z</time>
      </trkpt>
      <trkpt lat="43.97103" lon="5.13771">
        <ele>398.6</ele>
        <time>2015-12-21T13:09:22Z</time>
      </trkpt>
      <trkpt lat="43.97086" lon="5.13778">
        <ele>398.6</ele>
        <time>2015-12-21T13:09:29Z</time>
      </trkpt>
      <trkpt lat="43.97066" lon="5.13788">
        <ele>398.6</ele>
        <time>2015-12-21T13:09:37Z</time>
      </trkpt>
      <trkpt lat="43.97039" lon="5.13789">
        <ele>396.2</ele>
        <time>2015-12-21T13:09:44Z</time>
      </trkpt>
      <trkpt lat="43.97033" lon="5.13789">
        <ele>395.72</ele>
        <time>2015-12-21T13:09:45Z</time>
      </trkpt>
      <trkpt lat="43.97031" lon="5.13787">
        <ele>395.24</ele>
        <time>2015-12-21T13:09:46Z</time>
      </trkpt>
      <trkpt lat="43.97028" lon="5.13785">
        <ele>394.76</ele>
        <time>2015-12-21T13:09:47Z</time>
      </trkpt>
      <trkpt lat="43.97025" lon="5.13783">
        <ele>393.8</ele>
        <time>2015-12-21T13:09:48Z</time>
      </trkpt>
      <trkpt lat="43.97022" lon="5.13781">
        <ele>393.32</ele>
        <time>2015-12-21T13:09:49Z</time>
      </trkpt>
      <trkpt lat="43.97018" lon="5.13781">
        <ele>392.36</ele>
        <time>2015-12-21T13:09:50Z</time>
      </trkpt>
      <trkpt lat="43.97016" lon="5.13782">
        <ele>392.36</ele>
        <time>2015-12-21T13:09:51Z</time>
      </trkpt>
      <trkpt lat="43.97013" lon="5.13784">
        <ele>391.87</ele>
        <time>2015-12-21T13:09:52Z</time>
      </trkpt>
      <trkpt lat="43.96992" lon="5.13797">
        <ele>390.91</ele>
        <time>2015-12-21T13:09:59Z</time>
      </trkpt>
      <trkpt lat="43.96971" lon="5.13809">
        <ele>391.87</ele>
        <time>2015-12-21T13:10:07Z</time>
      </trkpt>
      <trkpt lat="43.96948" lon="5.13816">
        <ele>392.84</ele>
        <time>2015-12-21T13:10:16Z</time>
      </trkpt>
      <trkpt lat="43.96932" lon="5.13824">
        <ele>393.32</ele>
        <time>2015-12-21T13:10:24Z</time>
      </trkpt>
      <trkpt lat="43.96916" lon="5.13826">
        <ele>393.32</ele>
        <time>2015-12-21T13:10:31Z</time>
      </trkpt>
      <trkpt lat="43.96914" lon="5.13827">
        <ele>393.8</ele>
        <time>2015-12-21T13:10:32Z</time>
      </trkpt>
      <trkpt lat="43.96912" lon="5.13829">
        <ele>393.32</ele>
        <time>2015-12-21T13:10:33Z</time>
      </trkpt>
      <trkpt lat="43.96909" lon="5.1383">
        <ele>393.32</ele>
        <time>2015-12-21T13:10:34Z</time>
      </trkpt>
      <trkpt lat="43.96906" lon="5.1383">
        <ele>392.84</ele>
        <time>2015-12-21T13:10:38Z</time>
      </trkpt>
      <trkpt lat="43.96906" lon="5.13831">
        <ele>392.84</ele>
        <time>2015-12-21T13:10:52Z</time>
      </trkpt>
      <trkpt lat="43.96906" lon="5.13831">
        <ele>393.32</ele>
        <time>2015-12-21T13:10:53Z</time>
      </trkpt>
      <trkpt lat="43.96905" lon="5.13831">
        <ele>393.32</ele>
        <time>2015-12-21T13:10:54Z</time>
      </trkpt>
      <trkpt lat="43.96904" lon="5.13831">
        <ele>393.32</ele>
        <time>2015-12-21T13:10:55Z</time>
      </trkpt>
      <trkpt lat="43.96902" lon="5.13831">
        <ele>393.32</ele>
        <time>2015-12-21T13:10:56Z</time>
      </trkpt>
      <trkpt lat="43.96894" lon="5.13836">
        <ele>393.8</ele>
        <time>2015-12-21T13:11:01Z</time>
      </trkpt>
      <trkpt lat="43.96875" lon="5.13847">
        <ele>394.76</ele>
        <time>2015-12-21T13:11:09Z</time>
      </trkpt>
      <trkpt lat="43.96856" lon="5.13854">
        <ele>395.72</ele>
        <time>2015-12-21T13:11:17Z</time>
      </trkpt>
      <trkpt lat="43.96831" lon="5.13855">
        <ele>395.24</ele>
        <time>2015-12-21T13:11:23Z</time>
      </trkpt>
      <trkpt lat="43.96805" lon="5.13857">
        <ele>394.76</ele>
        <time>2015-12-21T13:11:30Z</time>
      </trkpt>
      <trkpt lat="43.96783" lon="5.1386">
        <ele>395.24</ele>
        <time>2015-12-21T13:11:36Z</time>
      </trkpt>
      <trkpt lat="43.96779" lon="5.1386">
        <ele>394.76</ele>
        <time>2015-12-21T13:11:37Z</time>
      </trkpt>
      <trkpt lat="43.96769" lon="5.13853">
        <ele>390.91</ele>
        <time>2015-12-21T13:11:40Z</time>
      </trkpt>
      <trkpt lat="43.96759" lon="5.13848">
        <ele>388.51</ele>
        <time>2015-12-21T13:11:44Z</time>
      </trkpt>
      <trkpt lat="43.9675" lon="5.13847">
        <ele>386.59</ele>
        <time>2015-12-21T13:11:48Z</time>
      </trkpt>
      <trkpt lat="43.96741" lon="5.13843">
        <ele>382.74</ele>
        <time>2015-12-21T13:11:52Z</time>
      </trkpt>
      <trkpt lat="43.96726" lon="5.13846">
        <ele>379.86</ele>
        <time>2015-12-21T13:11:56Z</time>
      </trkpt>
      <trkpt lat="43.96701" lon="5.13855">
        <ele>376.97</ele>
        <time>2015-12-21T13:12:02Z</time>
      </trkpt>
      <trkpt lat="43.96682" lon="5.13856">
        <ele>375.53</ele>
        <time>2015-12-21T13:12:05Z</time>
      </trkpt>
      <trkpt lat="43.96664" lon="5.13863">
        <ele>376.49</ele>
        <time>2015-12-21T13:12:11Z</time>
      </trkpt>
      <trkpt lat="43.96662" lon="5.13864">
        <ele>376.49</ele>
        <time>2015-12-21T13:12:12Z</time>
      </trkpt>
      <trkpt lat="43.96659" lon="5.13865">
        <ele>376.49</ele>
        <time>2015-12-21T13:12:14Z</time>
      </trkpt>
      <trkpt lat="43.96657" lon="5.13865">
        <ele>376.97</ele>
        <time>2015-12-21T13:12:15Z</time>
      </trkpt>
      <trkpt lat="43.96655" lon="5.13866">
        <ele>376.97</ele>
        <time>2015-12-21T13:12:16Z</time>
      </trkpt>
      <trkpt lat="43.96638" lon="5.13871">
        <ele>378.9</ele>
        <time>2015-12-21T13:12:23Z</time>
      </trkpt>
      <trkpt lat="43.9662" lon="5.13877">
        <ele>380.82</ele>
        <time>2015-12-21T13:12:29Z</time>
      </trkpt>
      <trkpt lat="43.96603" lon="5.13885">
        <ele>379.38</ele>
        <time>2015-12-21T13:12:35Z</time>
      </trkpt>
      <trkpt lat="43.96598" lon="5.13887">
        <ele>379.38</ele>
        <time>2015-12-21T13:12:36Z</time>
      </trkpt>
      <trkpt lat="43.96588" lon="5.13894">
        <ele>379.38</ele>
        <time>2015-12-21T13:12:38Z</time>
      </trkpt>
      <trkpt lat="43.96582" lon="5.13897">
        <ele>378.9</ele>
        <time>2015-12-21T13:12:39Z</time>
      </trkpt>
      <trkpt lat="43.96577" lon="5.139">
        <ele>378.42</ele>
        <time>2015-12-21T13:12:40Z</time>
      </trkpt>
      <trkpt lat="43.96572" lon="5.13905">
        <ele>378.9</ele>
        <time>2015-12-21T13:12:41Z</time>
      </trkpt>
      <trkpt lat="43.96569" lon="5.13909">
        <ele>378.42</ele>
        <time>2015-12-21T13:12:42Z</time>
      </trkpt>
      <trkpt lat="43.96566" lon="5.13913">
        <ele>377.94</ele>
        <time>2015-12-21T13:12:43Z</time>
      </trkpt>
      <trkpt lat="43.96564" lon="5.13916">
        <ele>377.94</ele>
        <time>2015-12-21T13:12:44Z</time>
      </trkpt>
      <trkpt lat="43.96562" lon="5.13918">
        <ele>377.45</ele>
        <time>2015-12-21T13:12:45Z</time>
      </trkpt>
      <trkpt lat="43.9656" lon="5.13919">
        <ele>376.97</ele>
        <time>2015-12-21T13:12:46Z</time>
      </trkpt>
      <trkpt lat="43.96545" lon="5.1393">
        <ele>374.09</ele>
        <time>2015-12-21T13:12:50Z</time>
      </trkpt>
      <trkpt lat="43.96537" lon="5.13939">
        <ele>374.57</ele>
        <time>2015-12-21T13:12:54Z</time>
      </trkpt>
      <trkpt lat="43.96532" lon="5.13945">
        <ele>375.05</ele>
        <time>2015-12-21T13:13:01Z</time>
      </trkpt>
      <trkpt lat="43.96528" lon="5.13957">
        <ele>376.97</ele>
        <time>2015-12-21T13:13:09Z</time>
      </trkpt>
      <trkpt lat="43.96527" lon="5.13964">
        <ele>377.94</ele>
        <time>2015-12-21T13:13:12Z</time>
      </trkpt>
      <trkpt lat="43.96524" lon="5.1398">
        <ele>379.38</ele>
        <time>2015-12-21T13:13:18Z</time>
      </trkpt>
      <trkpt lat="43.96518" lon="5.14002">
        <ele>381.78</ele>
        <time>2015-12-21T13:13:26Z</time>
      </trkpt>
      <trkpt lat="43.96513" lon="5.14022">
        <ele>384.18</ele>
        <time>2015-12-21T13:13:34Z</time>
      </trkpt>
      <trkpt lat="43.96505" lon="5.14042">
        <ele>386.11</ele>
        <time>2015-12-21T13:13:42Z</time>
      </trkpt>
      <trkpt lat="43.96502" lon="5.14053">
        <ele>387.07</ele>
        <time>2015-12-21T13:13:47Z</time>
      </trkpt>
      <trkpt lat="43.96501" lon="5.14056">
        <ele>387.07</ele>
        <time>2015-12-21T13:13:48Z</time>
      </trkpt>
      <trkpt lat="43.96497" lon="5.14076">
        <ele>389.47</ele>
        <time>2015-12-21T13:13:56Z</time>
      </trkpt>
      <trkpt lat="43.9649" lon="5.14097">
        <ele>390.91</ele>
        <time>2015-12-21T13:14:05Z</time>
      </trkpt>
      <trkpt lat="43.96477" lon="5.14119">
        <ele>392.36</ele>
        <time>2015-12-21T13:14:14Z</time>
      </trkpt>
      <trkpt lat="43.96466" lon="5.14136">
        <ele>393.32</ele>
        <time>2015-12-21T13:14:22Z</time>
      </trkpt>
      <trkpt lat="43.9646" lon="5.14147">
        <ele>393.32</ele>
        <time>2015-12-21T13:14:28Z</time>
      </trkpt>
      <trkpt lat="43.96461" lon="5.14149">
        <ele>393.8</ele>
        <time>2015-12-21T13:14:29Z</time>
      </trkpt>
      <trkpt lat="43.96461" lon="5.14149">
        <ele>393.8</ele>
        <time>2015-12-21T13:14:35Z</time>
      </trkpt>
      <trkpt lat="43.96461" lon="5.14149">
        <ele>393.8</ele>
        <time>2015-12-21T13:14:47Z</time>
      </trkpt>
      <trkpt lat="43.9646" lon="5.14149">
        <ele>393.32</ele>
        <time>2015-12-21T13:15:01Z</time>
      </trkpt>
      <trkpt lat="43.9646" lon="5.14148">
        <ele>393.32</ele>
        <time>2015-12-21T13:15:15Z</time>
      </trkpt>
      <trkpt lat="43.9646" lon="5.14148">
        <ele>393.32</ele>
        <time>2015-12-21T13:15:29Z</time>
      </trkpt>
      <trkpt lat="43.9646" lon="5.14148">
        <ele>393.32</ele>
        <time>2015-12-21T13:15:42Z</time>
      </trkpt>
      <trkpt lat="43.96459" lon="5.14147">
        <ele>393.32</ele>
        <time>2015-12-21T13:15:58Z</time>
      </trkpt>
      <trkpt lat="43.96459" lon="5.14147">
        <ele>393.32</ele>
        <time>2015-12-21T13:16:12Z</time>
      </trkpt>
      <trkpt lat="43.96461" lon="5.14147">
        <ele>393.32</ele>
        <time>2015-12-21T13:16:20Z</time>
      </trkpt>
      <trkpt lat="43.96463" lon="5.14146">
        <ele>393.32</ele>
        <time>2015-12-21T13:16:21Z</time>
      </trkpt>
      <trkpt lat="43.96465" lon="5.14145">
        <ele>393.8</ele>
        <time>2015-12-21T13:16:22Z</time>
      </trkpt>
      <trkpt lat="43.96468" lon="5.14143">
        <ele>393.32</ele>
        <time>2015-12-21T13:16:23Z</time>
      </trkpt>
      <trkpt lat="43.9647" lon="5.14143">
        <ele>393.8</ele>
        <time>2015-12-21T13:16:24Z</time>
      </trkpt>
      <trkpt lat="43.96473" lon="5.14136">
        <ele>394.28</ele>
        <time>2015-12-21T13:16:29Z</time>
      </trkpt>
      <trkpt lat="43.96473" lon="5.14134">
        <ele>394.28</ele>
        <time>2015-12-21T13:16:36Z</time>
      </trkpt>
      <trkpt lat="43.96475" lon="5.14131">
        <ele>394.28</ele>
        <time>2015-12-21T13:16:38Z</time>
      </trkpt>
      <trkpt lat="43.96477" lon="5.1413">
        <ele>394.76</ele>
        <time>2015-12-21T13:16:39Z</time>
      </trkpt>
      <trkpt lat="43.96496" lon="5.14116">
        <ele>394.76</ele>
        <time>2015-12-21T13:16:47Z</time>
      </trkpt>
      <trkpt lat="43.96514" lon="5.14093">
        <ele>394.76</ele>
        <time>2015-12-21T13:16:54Z</time>
      </trkpt>
      <trkpt lat="43.9653" lon="5.14063">
        <ele>395.24</ele>
        <time>2015-12-21T13:17:02Z</time>
      </trkpt>
      <trkpt lat="43.96546" lon="5.14039">
        <ele>397.16</ele>
        <time>2015-12-21T13:17:10Z</time>
      </trkpt>
      <trkpt lat="43.9656" lon="5.14013">
        <ele>398.6</ele>
        <time>2015-12-21T13:17:18Z</time>
      </trkpt>
      <trkpt lat="43.96575" lon="5.13981">
        <ele>399.57</ele>
        <time>2015-12-21T13:17:27Z</time>
      </trkpt>
      <trkpt lat="43.96586" lon="5.13961">
        <ele>401.49</ele>
        <time>2015-12-21T13:17:34Z</time>
      </trkpt>
      <trkpt lat="43.96601" lon="5.13946">
        <ele>402.93</ele>
        <time>2015-12-21T13:17:41Z</time>
      </trkpt>
      <trkpt lat="43.96614" lon="5.13939">
        <ele>404.37</ele>
        <time>2015-12-21T13:17:47Z</time>
      </trkpt>
      <trkpt lat="43.96634" lon="5.13934">
        <ele>405.33</ele>
        <time>2015-12-21T13:17:55Z</time>
      </trkpt>
      <trkpt lat="43.9665" lon="5.13932">
        <ele>407.26</ele>
        <time>2015-12-21T13:18:03Z</time>
      </trkpt>
      <trkpt lat="43.96651" lon="5.13932">
        <ele>407.26</ele>
        <time>2015-12-21T13:18:04Z</time>
      </trkpt>
      <trkpt lat="43.96666" lon="5.13927">
        <ele>408.22</ele>
        <time>2015-12-21T13:18:12Z</time>
      </trkpt>
      <trkpt lat="43.96684" lon="5.13925">
        <ele>407.74</ele>
        <time>2015-12-21T13:18:18Z</time>
      </trkpt>
      <trkpt lat="43.96707" lon="5.13923">
        <ele>407.26</ele>
        <time>2015-12-21T13:18:24Z</time>
      </trkpt>
      <trkpt lat="43.96724" lon="5.13919">
        <ele>408.22</ele>
        <time>2015-12-21T13:18:30Z</time>
      </trkpt>
      <trkpt lat="43.96743" lon="5.13913">
        <ele>409.18</ele>
        <time>2015-12-21T13:18:37Z</time>
      </trkpt>
      <trkpt lat="43.96756" lon="5.13909">
        <ele>410.14</ele>
        <time>2015-12-21T13:18:43Z</time>
      </trkpt>
      <trkpt lat="43.96766" lon="5.13911">
        <ele>410.62</ele>
        <time>2015-12-21T13:18:49Z</time>
      </trkpt>
      <trkpt lat="43.96778" lon="5.13911">
        <ele>412.06</ele>
        <time>2015-12-21T13:18:56Z</time>
      </trkpt>
      <trkpt lat="43.9679" lon="5.1391">
        <ele>413.98</ele>
        <time>2015-12-21T13:19:03Z</time>
      </trkpt>
      <trkpt lat="43.968" lon="5.13914">
        <ele>414.95</ele>
        <time>2015-12-21T13:19:09Z</time>
      </trkpt>
      <trkpt lat="43.96801" lon="5.13913">
        <ele>414.95</ele>
        <time>2015-12-21T13:19:10Z</time>
      </trkpt>
      <trkpt lat="43.96807" lon="5.13915">
        <ele>415.43</ele>
        <time>2015-12-21T13:19:14Z</time>
      </trkpt>
      <trkpt lat="43.96808" lon="5.13915">
        <ele>415.91</ele>
        <time>2015-12-21T13:19:15Z</time>
      </trkpt>
      <trkpt lat="43.9681" lon="5.13914">
        <ele>415.91</ele>
        <time>2015-12-21T13:19:16Z</time>
      </trkpt>
      <trkpt lat="43.96811" lon="5.13914">
        <ele>416.39</ele>
        <time>2015-12-21T13:19:17Z</time>
      </trkpt>
      <trkpt lat="43.96813" lon="5.13914">
        <ele>416.39</ele>
        <time>2015-12-21T13:19:18Z</time>
      </trkpt>
      <trkpt lat="43.96823" lon="5.13917">
        <ele>417.35</ele>
        <time>2015-12-21T13:19:23Z</time>
      </trkpt>
      <trkpt lat="43.96832" lon="5.13918">
        <ele>417.83</ele>
        <time>2015-12-21T13:19:28Z</time>
      </trkpt>
      <trkpt lat="43.96839" lon="5.1392">
        <ele>418.79</ele>
        <time>2015-12-21T13:19:35Z</time>
      </trkpt>
      <trkpt lat="43.9684" lon="5.13922">
        <ele>418.31</ele>
        <time>2015-12-21T13:19:41Z</time>
      </trkpt>
      <trkpt lat="43.96847" lon="5.13922">
        <ele>419.75</ele>
        <time>2015-12-21T13:19:48Z</time>
      </trkpt>
      <trkpt lat="43.96854" lon="5.13922">
        <ele>419.75</ele>
        <time>2015-12-21T13:19:56Z</time>
      </trkpt>
      <trkpt lat="43.96854" lon="5.13921">
        <ele>420.23</ele>
        <time>2015-12-21T13:20:00Z</time>
      </trkpt>
      <trkpt lat="43.96856" lon="5.1392">
        <ele>420.23</ele>
        <time>2015-12-21T13:20:01Z</time>
      </trkpt>
      <trkpt lat="43.96858" lon="5.1392">
        <ele>420.23</ele>
        <time>2015-12-21T13:20:02Z</time>
      </trkpt>
      <trkpt lat="43.96859" lon="5.13919">
        <ele>420.71</ele>
        <time>2015-12-21T13:20:03Z</time>
      </trkpt>
      <trkpt lat="43.96861" lon="5.13918">
        <ele>420.71</ele>
        <time>2015-12-21T13:20:04Z</time>
      </trkpt>
      <trkpt lat="43.96874" lon="5.13915">
        <ele>422.16</ele>
        <time>2015-12-21T13:20:12Z</time>
      </trkpt>
      <trkpt lat="43.96888" lon="5.13914">
        <ele>423.12</ele>
        <time>2015-12-21T13:20:20Z</time>
      </trkpt>
      <trkpt lat="43.96903" lon="5.13909">
        <ele>423.6</ele>
        <time>2015-12-21T13:20:27Z</time>
      </trkpt>
      <trkpt lat="43.96917" lon="5.13905">
        <ele>425.04</ele>
        <time>2015-12-21T13:20:34Z</time>
      </trkpt>
      <trkpt lat="43.96926" lon="5.13908">
        <ele>426</ele>
        <time>2015-12-21T13:20:40Z</time>
      </trkpt>
      <trkpt lat="43.96927" lon="5.13909">
        <ele>426</ele>
        <time>2015-12-21T13:20:41Z</time>
      </trkpt>
      <trkpt lat="43.96927" lon="5.13911">
        <ele>426</ele>
        <time>2015-12-21T13:20:42Z</time>
      </trkpt>
      <trkpt lat="43.96926" lon="5.13916">
        <ele>426</ele>
        <time>2015-12-21T13:20:45Z</time>
      </trkpt>
      <trkpt lat="43.96924" lon="5.13917">
        <ele>426</ele>
        <time>2015-12-21T13:20:46Z</time>
      </trkpt>
      <trkpt lat="43.96923" lon="5.13918">
        <ele>425.52</ele>
        <time>2015-12-21T13:20:47Z</time>
      </trkpt>
      <trkpt lat="43.96922" lon="5.1392">
        <ele>426</ele>
        <time>2015-12-21T13:20:48Z</time>
      </trkpt>
      <trkpt lat="43.9692" lon="5.13921">
        <ele>426</ele>
        <time>2015-12-21T13:20:49Z</time>
      </trkpt>
      <trkpt lat="43.96919" lon="5.13923">
        <ele>426</ele>
        <time>2015-12-21T13:20:50Z</time>
      </trkpt>
      <trkpt lat="43.96917" lon="5.13924">
        <ele>426</ele>
        <time>2015-12-21T13:20:51Z</time>
      </trkpt>
      <trkpt lat="43.96915" lon="5.13925">
        <ele>426.48</ele>
        <time>2015-12-21T13:20:52Z</time>
      </trkpt>
      <trkpt lat="43.96913" lon="5.13926">
        <ele>426.48</ele>
        <time>2015-12-21T13:20:53Z</time>
      </trkpt>
      <trkpt lat="43.96901" lon="5.13933">
        <ele>427.44</ele>
        <time>2015-12-21T13:21:00Z</time>
      </trkpt>
      <trkpt lat="43.96886" lon="5.13941">
        <ele>427.92</ele>
        <time>2015-12-21T13:21:08Z</time>
      </trkpt>
      <trkpt lat="43.96871" lon="5.1395">
        <ele>428.89</ele>
        <time>2015-12-21T13:21:15Z</time>
      </trkpt>
      <trkpt lat="43.96855" lon="5.13957">
        <ele>428.89</ele>
        <time>2015-12-21T13:21:21Z</time>
      </trkpt>
      <trkpt lat="43.96843" lon="5.13966">
        <ele>428.89</ele>
        <time>2015-12-21T13:21:28Z</time>
      </trkpt>
      <trkpt lat="43.96839" lon="5.1397">
        <ele>428.89</ele>
        <time>2015-12-21T13:21:31Z</time>
      </trkpt>
      <trkpt lat="43.96831" lon="5.13981">
        <ele>428.89</ele>
        <time>2015-12-21T13:21:38Z</time>
      </trkpt>
      <trkpt lat="43.96822" lon="5.13994">
        <ele>428.89</ele>
        <time>2015-12-21T13:21:44Z</time>
      </trkpt>
      <trkpt lat="43.96811" lon="5.1401">
        <ele>428.4</ele>
        <time>2015-12-21T13:21:50Z</time>
      </trkpt>
      <trkpt lat="43.96799" lon="5.14038">
        <ele>427.92</ele>
        <time>2015-12-21T13:21:56Z</time>
      </trkpt>
      <trkpt lat="43.96794" lon="5.14064">
        <ele>427.44</ele>
        <time>2015-12-21T13:22:01Z</time>
      </trkpt>
      <trkpt lat="43.96795" lon="5.1407">
        <ele>426.96</ele>
        <time>2015-12-21T13:22:02Z</time>
      </trkpt>
      <trkpt lat="43.96796" lon="5.14075">
        <ele>426.96</ele>
        <time>2015-12-21T13:22:03Z</time>
      </trkpt>
      <trkpt lat="43.96797" lon="5.14081">
        <ele>426.96</ele>
        <time>2015-12-21T13:22:04Z</time>
      </trkpt>
      <trkpt lat="43.96798" lon="5.14087">
        <ele>426.48</ele>
        <time>2015-12-21T13:22:05Z</time>
      </trkpt>
      <trkpt lat="43.96802" lon="5.14097">
        <ele>426.48</ele>
        <time>2015-12-21T13:22:07Z</time>
      </trkpt>
      <trkpt lat="43.96809" lon="5.14117">
        <ele>426</ele>
        <time>2015-12-21T13:22:11Z</time>
      </trkpt>
      <trkpt lat="43.96814" lon="5.14127">
        <ele>426</ele>
        <time>2015-12-21T13:22:13Z</time>
      </trkpt>
      <trkpt lat="43.9682" lon="5.14137">
        <ele>425.52</ele>
        <time>2015-12-21T13:22:15Z</time>
      </trkpt>
      <trkpt lat="43.96832" lon="5.14166">
        <ele>425.52</ele>
        <time>2015-12-21T13:22:20Z</time>
      </trkpt>
      <trkpt lat="43.96846" lon="5.14196">
        <ele>425.04</ele>
        <time>2015-12-21T13:22:25Z</time>
      </trkpt>
      <trkpt lat="43.96854" lon="5.14216">
        <ele>425.04</ele>
        <time>2015-12-21T13:22:28Z</time>
      </trkpt>
      <trkpt lat="43.96865" lon="5.14241">
        <ele>424.56</ele>
        <time>2015-12-21T13:22:32Z</time>
      </trkpt>
      <trkpt lat="43.96867" lon="5.14248">
        <ele>424.56</ele>
        <time>2015-12-21T13:22:33Z</time>
      </trkpt>
      <trkpt lat="43.96873" lon="5.14262">
        <ele>425.04</ele>
        <time>2015-12-21T13:22:35Z</time>
      </trkpt>
      <trkpt lat="43.96876" lon="5.14268">
        <ele>424.56</ele>
        <time>2015-12-21T13:22:36Z</time>
      </trkpt>
      <trkpt lat="43.96885" lon="5.14289">
        <ele>423.6</ele>
        <time>2015-12-21T13:22:39Z</time>
      </trkpt>
      <trkpt lat="43.96889" lon="5.14295">
        <ele>423.6</ele>
        <time>2015-12-21T13:22:40Z</time>
      </trkpt>
      <trkpt lat="43.96893" lon="5.143">
        <ele>423.6</ele>
        <time>2015-12-21T13:22:41Z</time>
      </trkpt>
      <trkpt lat="43.9692" lon="5.14331">
        <ele>424.08</ele>
        <time>2015-12-21T13:22:48Z</time>
      </trkpt>
      <trkpt lat="43.9693" lon="5.14346">
        <ele>424.56</ele>
        <time>2015-12-21T13:22:51Z</time>
      </trkpt>
      <trkpt lat="43.96933" lon="5.14351">
        <ele>424.08</ele>
        <time>2015-12-21T13:22:52Z</time>
      </trkpt>
      <trkpt lat="43.96937" lon="5.14357">
        <ele>424.56</ele>
        <time>2015-12-21T13:22:53Z</time>
      </trkpt>
      <trkpt lat="43.96945" lon="5.14366">
        <ele>424.08</ele>
        <time>2015-12-21T13:22:55Z</time>
      </trkpt>
      <trkpt lat="43.96952" lon="5.14376">
        <ele>424.08</ele>
        <time>2015-12-21T13:22:57Z</time>
      </trkpt>
      <trkpt lat="43.96954" lon="5.14379">
        <ele>423.6</ele>
        <time>2015-12-21T13:22:58Z</time>
      </trkpt>
      <trkpt lat="43.96956" lon="5.14382">
        <ele>423.6</ele>
        <time>2015-12-21T13:22:59Z</time>
      </trkpt>
      <trkpt lat="43.96957" lon="5.14384">
        <ele>423.6</ele>
        <time>2015-12-21T13:23:00Z</time>
      </trkpt>
      <trkpt lat="43.96958" lon="5.14387">
        <ele>423.6</ele>
        <time>2015-12-21T13:23:01Z</time>
      </trkpt>
      <trkpt lat="43.9696" lon="5.14389">
        <ele>423.12</ele>
        <time>2015-12-21T13:23:02Z</time>
      </trkpt>
      <trkpt lat="43.96961" lon="5.14391">
        <ele>423.6</ele>
        <time>2015-12-21T13:23:03Z</time>
      </trkpt>
      <trkpt lat="43.96962" lon="5.14393">
        <ele>423.12</ele>
        <time>2015-12-21T13:23:04Z</time>
      </trkpt>
      <trkpt lat="43.96962" lon="5.14394">
        <ele>423.12</ele>
        <time>2015-12-21T13:23:09Z</time>
      </trkpt>
      <trkpt lat="43.96962" lon="5.14394">
        <ele>423.12</ele>
        <time>2015-12-21T13:23:21Z</time>
      </trkpt>
      <trkpt lat="43.96962" lon="5.14394">
        <ele>423.12</ele>
        <time>2015-12-21T13:23:34Z</time>
      </trkpt>
      <trkpt lat="43.96962" lon="5.14394">
        <ele>423.12</ele>
        <time>2015-12-21T13:23:53Z</time>
      </trkpt>
      <trkpt lat="43.96963" lon="5.14396">
        <ele>423.12</ele>
        <time>2015-12-21T13:24:06Z</time>
      </trkpt>
      <trkpt lat="43.96965" lon="5.14396">
        <ele>423.12</ele>
        <time>2015-12-21T13:24:23Z</time>
      </trkpt>
      <trkpt lat="43.96966" lon="5.14395">
        <ele>423.6</ele>
        <time>2015-12-21T13:24:41Z</time>
      </trkpt>
      <trkpt lat="43.96966" lon="5.14395">
        <ele>423.6</ele>
        <time>2015-12-21T13:24:58Z</time>
      </trkpt>
      <trkpt lat="43.96967" lon="5.14396">
        <ele>423.6</ele>
        <time>2015-12-21T13:24:59Z</time>
      </trkpt>
      <trkpt lat="43.96967" lon="5.14398">
        <ele>423.6</ele>
        <time>2015-12-21T13:25:00Z</time>
      </trkpt>
      <trkpt lat="43.96967" lon="5.144">
        <ele>423.6</ele>
        <time>2015-12-21T13:25:01Z</time>
      </trkpt>
      <trkpt lat="43.96968" lon="5.14403">
        <ele>423.6</ele>
        <time>2015-12-21T13:25:02Z</time>
      </trkpt>
      <trkpt lat="43.96969" lon="5.14406">
        <ele>424.08</ele>
        <time>2015-12-21T13:25:03Z</time>
      </trkpt>
      <trkpt lat="43.9697" lon="5.14408">
        <ele>423.6</ele>
        <time>2015-12-21T13:25:04Z</time>
      </trkpt>
      <trkpt lat="43.9697" lon="5.14411">
        <ele>424.08</ele>
        <time>2015-12-21T13:25:05Z</time>
      </trkpt>
      <trkpt lat="43.96971" lon="5.14414">
        <ele>424.08</ele>
        <time>2015-12-21T13:25:06Z</time>
      </trkpt>
      <trkpt lat="43.96971" lon="5.14418">
        <ele>424.08</ele>
        <time>2015-12-21T13:25:07Z</time>
      </trkpt>
      <trkpt lat="43.96971" lon="5.14422">
        <ele>424.56</ele>
        <time>2015-12-21T13:25:08Z</time>
      </trkpt>
      <trkpt lat="43.96971" lon="5.14425">
        <ele>424.56</ele>
        <time>2015-12-21T13:25:09Z</time>
      </trkpt>
      <trkpt lat="43.96971" lon="5.14428">
        <ele>424.56</ele>
        <time>2015-12-21T13:25:10Z</time>
      </trkpt>
      <trkpt lat="43.96971" lon="5.14431">
        <ele>425.04</ele>
        <time>2015-12-21T13:25:11Z</time>
      </trkpt>
      <trkpt lat="43.96971" lon="5.14434">
        <ele>425.04</ele>
        <time>2015-12-21T13:25:12Z</time>
      </trkpt>
      <trkpt lat="43.96974" lon="5.14461">
        <ele>426</ele>
        <time>2015-12-21T13:25:19Z</time>
      </trkpt>
      <trkpt lat="43.96977" lon="5.14475">
        <ele>426.48</ele>
        <time>2015-12-21T13:25:24Z</time>
      </trkpt>
      <trkpt lat="43.96978" lon="5.14477">
        <ele>426.48</ele>
        <time>2015-12-21T13:25:25Z</time>
      </trkpt>
      <trkpt lat="43.96987" lon="5.14499">
        <ele>426.48</ele>
        <time>2015-12-21T13:25:31Z</time>
      </trkpt>
      <trkpt lat="43.96996" lon="5.14518">
        <ele>426.48</ele>
        <time>2015-12-21T13:25:37Z</time>
      </trkpt>
      <trkpt lat="43.97008" lon="5.14541">
        <ele>426</ele>
        <time>2015-12-21T13:25:42Z</time>
      </trkpt>
      <trkpt lat="43.97019" lon="5.14563">
        <ele>425.52</ele>
        <time>2015-12-21T13:25:48Z</time>
      </trkpt>
      <trkpt lat="43.97027" lon="5.14584">
        <ele>425.04</ele>
        <time>2015-12-21T13:25:53Z</time>
      </trkpt>
      <trkpt lat="43.97035" lon="5.14609">
        <ele>424.08</ele>
        <time>2015-12-21T13:25:58Z</time>
      </trkpt>
      <trkpt lat="43.97039" lon="5.1462">
        <ele>424.08</ele>
        <time>2015-12-21T13:26:00Z</time>
      </trkpt>
      <trkpt lat="43.97045" lon="5.1463">
        <ele>423.6</ele>
        <time>2015-12-21T13:26:02Z</time>
      </trkpt>
      <trkpt lat="43.97048" lon="5.14634">
        <ele>423.6</ele>
        <time>2015-12-21T13:26:03Z</time>
      </trkpt>
      <trkpt lat="43.97052" lon="5.14637">
        <ele>423.6</ele>
        <time>2015-12-21T13:26:04Z</time>
      </trkpt>
      <trkpt lat="43.97073" lon="5.14646">
        <ele>423.6</ele>
        <time>2015-12-21T13:26:10Z</time>
      </trkpt>
      <trkpt lat="43.97077" lon="5.14646">
        <ele>423.6</ele>
        <time>2015-12-21T13:26:11Z</time>
      </trkpt>
      <trkpt lat="43.97082" lon="5.14647">
        <ele>423.12</ele>
        <time>2015-12-21T13:26:12Z</time>
      </trkpt>
      <trkpt lat="43.97115" lon="5.14648">
        <ele>421.19</ele>
        <time>2015-12-21T13:26:18Z</time>
      </trkpt>
      <trkpt lat="43.97162" lon="5.14645">
        <ele>418.31</ele>
        <time>2015-12-21T13:26:24Z</time>
      </trkpt>
      <trkpt lat="43.97192" lon="5.14646">
        <ele>415.43</ele>
        <time>2015-12-21T13:26:28Z</time>
      </trkpt>
      <trkpt lat="43.97197" lon="5.14649">
        <ele>414.47</ele>
        <time>2015-12-21T13:26:29Z</time>
      </trkpt>
      <trkpt lat="43.972" lon="5.14655">
        <ele>413.5</ele>
        <time>2015-12-21T13:26:30Z</time>
      </trkpt>
      <trkpt lat="43.97201" lon="5.14661">
        <ele>412.54</ele>
        <time>2015-12-21T13:26:31Z</time>
      </trkpt>
      <trkpt lat="43.97201" lon="5.14667">
        <ele>411.58</ele>
        <time>2015-12-21T13:26:32Z</time>
      </trkpt>
      <trkpt lat="43.972" lon="5.14671">
        <ele>411.1</ele>
        <time>2015-12-21T13:26:33Z</time>
      </trkpt>
      <trkpt lat="43.97199" lon="5.14675">
        <ele>410.62</ele>
        <time>2015-12-21T13:26:34Z</time>
      </trkpt>
      <trkpt lat="43.97201" lon="5.14677">
        <ele>409.66</ele>
        <time>2015-12-21T13:26:39Z</time>
      </trkpt>
      <trkpt lat="43.97201" lon="5.14676">
        <ele>410.14</ele>
        <time>2015-12-21T13:26:46Z</time>
      </trkpt>
      <trkpt lat="43.97202" lon="5.14675">
        <ele>410.14</ele>
        <time>2015-12-21T13:26:53Z</time>
      </trkpt>
      <trkpt lat="43.97203" lon="5.1467">
        <ele>410.62</ele>
        <time>2015-12-21T13:26:58Z</time>
      </trkpt>
      <trkpt lat="43.97203" lon="5.14664">
        <ele>411.58</ele>
        <time>2015-12-21T13:27:04Z</time>
      </trkpt>
      <trkpt lat="43.97203" lon="5.14662">
        <ele>411.58</ele>
        <time>2015-12-21T13:27:05Z</time>
      </trkpt>
      <trkpt lat="43.97202" lon="5.14657">
        <ele>412.06</ele>
        <time>2015-12-21T13:27:13Z</time>
      </trkpt>
      <trkpt lat="43.97202" lon="5.14656">
        <ele>412.06</ele>
        <time>2015-12-21T13:27:21Z</time>
      </trkpt>
      <trkpt lat="43.97202" lon="5.14655">
        <ele>412.06</ele>
        <time>2015-12-21T13:27:32Z</time>
      </trkpt>
      <trkpt lat="43.97202" lon="5.14654">
        <ele>412.06</ele>
        <time>2015-12-21T13:27:49Z</time>
      </trkpt>
      <trkpt lat="43.97203" lon="5.14654">
        <ele>412.06</ele>
        <time>2015-12-21T13:28:06Z</time>
      </trkpt>
      <trkpt lat="43.97204" lon="5.14653">
        <ele>412.06</ele>
        <time>2015-12-21T13:28:23Z</time>
      </trkpt>
      <trkpt lat="43.97204" lon="5.14668">
        <ele>411.58</ele>
        <time>2015-12-21T13:28:28Z</time>
      </trkpt>
      <trkpt lat="43.97203" lon="5.14675">
        <ele>411.1</ele>
        <time>2015-12-21T13:28:29Z</time>
      </trkpt>
      <trkpt lat="43.97201" lon="5.14682">
        <ele>410.14</ele>
        <time>2015-12-21T13:28:30Z</time>
      </trkpt>
      <trkpt lat="43.97199" lon="5.14689">
        <ele>409.18</ele>
        <time>2015-12-21T13:28:31Z</time>
      </trkpt>
      <trkpt lat="43.97196" lon="5.14697">
        <ele>408.7</ele>
        <time>2015-12-21T13:28:32Z</time>
      </trkpt>
      <trkpt lat="43.97193" lon="5.14705">
        <ele>408.7</ele>
        <time>2015-12-21T13:28:33Z</time>
      </trkpt>
      <trkpt lat="43.97191" lon="5.14713">
        <ele>407.26</ele>
        <time>2015-12-21T13:28:34Z</time>
      </trkpt>
      <trkpt lat="43.97186" lon="5.14741">
        <ele>403.89</ele>
        <time>2015-12-21T13:28:37Z</time>
      </trkpt>
      <trkpt lat="43.97177" lon="5.14802">
        <ele>400.53</ele>
        <time>2015-12-21T13:28:43Z</time>
      </trkpt>
      <trkpt lat="43.97177" lon="5.14841">
        <ele>398.6</ele>
        <time>2015-12-21T13:28:46Z</time>
      </trkpt>
      <trkpt lat="43.97179" lon="5.14897">
        <ele>396.2</ele>
        <time>2015-12-21T13:28:50Z</time>
      </trkpt>
      <trkpt lat="43.97184" lon="5.14951">
        <ele>392.84</ele>
        <time>2015-12-21T13:28:54Z</time>
      </trkpt>
      <trkpt lat="43.97184" lon="5.14963">
        <ele>391.39</ele>
        <time>2015-12-21T13:28:55Z</time>
      </trkpt>
      <trkpt lat="43.97183" lon="5.14981">
        <ele>389.95</ele>
        <time>2015-12-21T13:28:57Z</time>
      </trkpt>
      <trkpt lat="43.97183" lon="5.14987">
        <ele>386.59</ele>
        <time>2015-12-21T13:28:58Z</time>
      </trkpt>
      <trkpt lat="43.97183" lon="5.14989">
        <ele>386.11</ele>
        <time>2015-12-21T13:28:59Z</time>
      </trkpt>
      <trkpt lat="43.97183" lon="5.14991">
        <ele>386.11</ele>
        <time>2015-12-21T13:29:00Z</time>
      </trkpt>
      <trkpt lat="43.97184" lon="5.14992">
        <ele>385.63</ele>
        <time>2015-12-21T13:29:01Z</time>
      </trkpt>
      <trkpt lat="43.97185" lon="5.14993">
        <ele>385.15</ele>
        <time>2015-12-21T13:29:02Z</time>
      </trkpt>
      <trkpt lat="43.97197" lon="5.14995">
        <ele>384.18</ele>
        <time>2015-12-21T13:29:07Z</time>
      </trkpt>
      <trkpt lat="43.9721" lon="5.14984">
        <ele>382.26</ele>
        <time>2015-12-21T13:29:12Z</time>
      </trkpt>
      <trkpt lat="43.97211" lon="5.14981">
        <ele>381.78</ele>
        <time>2015-12-21T13:29:13Z</time>
      </trkpt>
      <trkpt lat="43.97223" lon="5.1496">
        <ele>380.34</ele>
        <time>2015-12-21T13:29:18Z</time>
      </trkpt>
      <trkpt lat="43.97226" lon="5.14956">
        <ele>379.38</ele>
        <time>2015-12-21T13:29:19Z</time>
      </trkpt>
      <trkpt lat="43.9723" lon="5.14953">
        <ele>379.38</ele>
        <time>2015-12-21T13:29:20Z</time>
      </trkpt>
      <trkpt lat="43.97234" lon="5.14952">
        <ele>378.9</ele>
        <time>2015-12-21T13:29:21Z</time>
      </trkpt>
      <trkpt lat="43.97238" lon="5.14953">
        <ele>378.42</ele>
        <time>2015-12-21T13:29:22Z</time>
      </trkpt>
      <trkpt lat="43.97242" lon="5.14956">
        <ele>376.97</ele>
        <time>2015-12-21T13:29:23Z</time>
      </trkpt>
      <trkpt lat="43.97244" lon="5.14963">
        <ele>376.49</ele>
        <time>2015-12-21T13:29:24Z</time>
      </trkpt>
      <trkpt lat="43.97243" lon="5.1497">
        <ele>376.01</ele>
        <time>2015-12-21T13:29:25Z</time>
      </trkpt>
      <trkpt lat="43.97243" lon="5.14977">
        <ele>376.01</ele>
        <time>2015-12-21T13:29:26Z</time>
      </trkpt>
      <trkpt lat="43.97243" lon="5.14984">
        <ele>376.01</ele>
        <time>2015-12-21T13:29:27Z</time>
      </trkpt>
      <trkpt lat="43.97243" lon="5.14991">
        <ele>376.01</ele>
        <time>2015-12-21T13:29:28Z</time>
      </trkpt>
      <trkpt lat="43.97245" lon="5.14996">
        <ele>376.01</ele>
        <time>2015-12-21T13:29:29Z</time>
      </trkpt>
      <trkpt lat="43.97247" lon="5.15001">
        <ele>376.01</ele>
        <time>2015-12-21T13:29:30Z</time>
      </trkpt>
      <trkpt lat="43.97249" lon="5.15006">
        <ele>376.01</ele>
        <time>2015-12-21T13:29:31Z</time>
      </trkpt>
      <trkpt lat="43.97252" lon="5.15009">
        <ele>376.01</ele>
        <time>2015-12-21T13:29:32Z</time>
      </trkpt>
      <trkpt lat="43.97255" lon="5.15012">
        <ele>376.01</ele>
        <time>2015-12-21T13:29:33Z</time>
      </trkpt>
      <trkpt lat="43.97258" lon="5.15015">
        <ele>376.01</ele>
        <time>2015-12-21T13:29:34Z</time>
      </trkpt>
      <trkpt lat="43.97261" lon="5.15018">
        <ele>376.01</ele>
        <time>2015-12-21T13:29:35Z</time>
      </trkpt>
      <trkpt lat="43.97281" lon="5.15033">
        <ele>376.49</ele>
        <time>2015-12-21T13:29:42Z</time>
      </trkpt>
      <trkpt lat="43.97297" lon="5.15028">
        <ele>377.45</ele>
        <time>2015-12-21T13:29:48Z</time>
      </trkpt>
      <trkpt lat="43.9732" lon="5.14999">
        <ele>378.42</ele>
        <time>2015-12-21T13:29:57Z</time>
      </trkpt>
      <trkpt lat="43.97339" lon="5.14966">
        <ele>380.34</ele>
        <time>2015-12-21T13:30:06Z</time>
      </trkpt>
      <trkpt lat="43.97356" lon="5.14933">
        <ele>382.74</ele>
        <time>2015-12-21T13:30:15Z</time>
      </trkpt>
      <trkpt lat="43.97365" lon="5.14904">
        <ele>383.7</ele>
        <time>2015-12-21T13:30:22Z</time>
      </trkpt>
      <trkpt lat="43.97372" lon="5.14879">
        <ele>385.15</ele>
        <time>2015-12-21T13:30:30Z</time>
      </trkpt>
      <trkpt lat="43.97377" lon="5.14858">
        <ele>387.07</ele>
        <time>2015-12-21T13:30:38Z</time>
      </trkpt>
      <trkpt lat="43.97379" lon="5.1485">
        <ele>387.07</ele>
        <time>2015-12-21T13:30:44Z</time>
      </trkpt>
      <trkpt lat="43.97379" lon="5.14849">
        <ele>387.07</ele>
        <time>2015-12-21T13:30:57Z</time>
      </trkpt>
      <trkpt lat="43.9738" lon="5.14849">
        <ele>386.59</ele>
        <time>2015-12-21T13:31:12Z</time>
      </trkpt>
      <trkpt lat="43.9738" lon="5.14849">
        <ele>387.55</ele>
        <time>2015-12-21T13:31:23Z</time>
      </trkpt>
      <trkpt lat="43.9738" lon="5.14851">
        <ele>387.07</ele>
        <time>2015-12-21T13:31:40Z</time>
      </trkpt>
      <trkpt lat="43.9738" lon="5.14852">
        <ele>387.07</ele>
        <time>2015-12-21T13:31:54Z</time>
      </trkpt>
      <trkpt lat="43.9738" lon="5.14851">
        <ele>387.07</ele>
        <time>2015-12-21T13:31:59Z</time>
      </trkpt>
      <trkpt lat="43.9738" lon="5.14849">
        <ele>387.07</ele>
        <time>2015-12-21T13:32:00Z</time>
      </trkpt>
      <trkpt lat="43.97381" lon="5.14847">
        <ele>387.07</ele>
        <time>2015-12-21T13:32:01Z</time>
      </trkpt>
      <trkpt lat="43.97381" lon="5.14843">
        <ele>387.55</ele>
        <time>2015-12-21T13:32:02Z</time>
      </trkpt>
      <trkpt lat="43.97382" lon="5.1484">
        <ele>387.07</ele>
        <time>2015-12-21T13:32:03Z</time>
      </trkpt>
      <trkpt lat="43.97386" lon="5.14811">
        <ele>388.51</ele>
        <time>2015-12-21T13:32:10Z</time>
      </trkpt>
      <trkpt lat="43.97387" lon="5.1478">
        <ele>388.51</ele>
        <time>2015-12-21T13:32:17Z</time>
      </trkpt>
      <trkpt lat="43.97387" lon="5.14758">
        <ele>388.51</ele>
        <time>2015-12-21T13:32:21Z</time>
      </trkpt>
      <trkpt lat="43.97387" lon="5.14747">
        <ele>388.51</ele>
        <time>2015-12-21T13:32:23Z</time>
      </trkpt>
      <trkpt lat="43.97388" lon="5.14735">
        <ele>388.51</ele>
        <time>2015-12-21T13:32:27Z</time>
      </trkpt>
      <trkpt lat="43.97388" lon="5.14735">
        <ele>388.51</ele>
        <time>2015-12-21T13:32:38Z</time>
      </trkpt>
      <trkpt lat="43.97389" lon="5.14732">
        <ele>388.51</ele>
        <time>2015-12-21T13:32:44Z</time>
      </trkpt>
      <trkpt lat="43.9739" lon="5.1473">
        <ele>388.51</ele>
        <time>2015-12-21T13:32:53Z</time>
      </trkpt>
      <trkpt lat="43.9739" lon="5.14728">
        <ele>388.51</ele>
        <time>2015-12-21T13:32:57Z</time>
      </trkpt>
      <trkpt lat="43.97391" lon="5.14726">
        <ele>388.51</ele>
        <time>2015-12-21T13:32:58Z</time>
      </trkpt>
      <trkpt lat="43.97392" lon="5.14724">
        <ele>388.51</ele>
        <time>2015-12-21T13:32:59Z</time>
      </trkpt>
      <trkpt lat="43.97393" lon="5.14722">
        <ele>388.51</ele>
        <time>2015-12-21T13:33:00Z</time>
      </trkpt>
      <trkpt lat="43.97394" lon="5.14719">
        <ele>388.51</ele>
        <time>2015-12-21T13:33:01Z</time>
      </trkpt>
      <trkpt lat="43.97395" lon="5.14716">
        <ele>388.51</ele>
        <time>2015-12-21T13:33:02Z</time>
      </trkpt>
      <trkpt lat="43.97397" lon="5.14714">
        <ele>388.51</ele>
        <time>2015-12-21T13:33:03Z</time>
      </trkpt>
      <trkpt lat="43.97409" lon="5.14698">
        <ele>388.99</ele>
        <time>2015-12-21T13:33:10Z</time>
      </trkpt>
      <trkpt lat="43.97425" lon="5.14684">
        <ele>388.03</ele>
        <time>2015-12-21T13:33:17Z</time>
      </trkpt>
      <trkpt lat="43.97435" lon="5.14679">
        <ele>387.07</ele>
        <time>2015-12-21T13:33:23Z</time>
      </trkpt>
      <trkpt lat="43.97449" lon="5.14675">
        <ele>386.11</ele>
        <time>2015-12-21T13:33:29Z</time>
      </trkpt>
      <trkpt lat="43.97481" lon="5.14671">
        <ele>383.7</ele>
        <time>2015-12-21T13:33:36Z</time>
      </trkpt>
      <trkpt lat="43.97498" lon="5.1467">
        <ele>382.26</ele>
        <time>2015-12-21T13:33:39Z</time>
      </trkpt>
      <trkpt lat="43.97548" lon="5.1466">
        <ele>380.34</ele>
        <time>2015-12-21T13:33:47Z</time>
      </trkpt>
      <trkpt lat="43.97603" lon="5.14658">
        <ele>377.45</ele>
        <time>2015-12-21T13:33:56Z</time>
      </trkpt>
      <trkpt lat="43.97607" lon="5.14657">
        <ele>376.49</ele>
        <time>2015-12-21T13:33:57Z</time>
      </trkpt>
      <trkpt lat="43.97611" lon="5.14655">
        <ele>376.49</ele>
        <time>2015-12-21T13:33:58Z</time>
      </trkpt>
      <trkpt lat="43.97621" lon="5.14651">
        <ele>375.53</ele>
        <time>2015-12-21T13:34:02Z</time>
      </trkpt>
      <trkpt lat="43.97623" lon="5.14653">
        <ele>375.53</ele>
        <time>2015-12-21T13:34:03Z</time>
      </trkpt>
      <trkpt lat="43.97624" lon="5.14657">
        <ele>375.53</ele>
        <time>2015-12-21T13:34:04Z</time>
      </trkpt>
      <trkpt lat="43.97624" lon="5.14661">
        <ele>376.01</ele>
        <time>2015-12-21T13:34:05Z</time>
      </trkpt>
      <trkpt lat="43.97623" lon="5.14664">
        <ele>376.01</ele>
        <time>2015-12-21T13:34:06Z</time>
      </trkpt>
      <trkpt lat="43.97622" lon="5.14666">
        <ele>376.49</ele>
        <time>2015-12-21T13:34:07Z</time>
      </trkpt>
      <trkpt lat="43.97621" lon="5.14667">
        <ele>376.97</ele>
        <time>2015-12-21T13:34:08Z</time>
      </trkpt>
      <trkpt lat="43.9762" lon="5.1467">
        <ele>376.97</ele>
        <time>2015-12-21T13:34:09Z</time>
      </trkpt>
      <trkpt lat="43.97616" lon="5.14687">
        <ele>379.38</ele>
        <time>2015-12-21T13:34:16Z</time>
      </trkpt>
      <trkpt lat="43.97614" lon="5.14702">
        <ele>381.78</ele>
        <time>2015-12-21T13:34:22Z</time>
      </trkpt>
      <trkpt lat="43.97614" lon="5.14705">
        <ele>382.74</ele>
        <time>2015-12-21T13:34:23Z</time>
      </trkpt>
      <trkpt lat="43.97614" lon="5.14708">
        <ele>382.74</ele>
        <time>2015-12-21T13:34:24Z</time>
      </trkpt>
      <trkpt lat="43.97613" lon="5.14711">
        <ele>383.7</ele>
        <time>2015-12-21T13:34:25Z</time>
      </trkpt>
      <trkpt lat="43.97613" lon="5.14713">
        <ele>384.18</ele>
        <time>2015-12-21T13:34:26Z</time>
      </trkpt>
      <trkpt lat="43.97613" lon="5.14716">
        <ele>384.66</ele>
        <time>2015-12-21T13:34:27Z</time>
      </trkpt>
      <trkpt lat="43.97613" lon="5.14718">
        <ele>384.66</ele>
        <time>2015-12-21T13:34:28Z</time>
      </trkpt>
      <trkpt lat="43.97612" lon="5.14721">
        <ele>385.15</ele>
        <time>2015-12-21T13:34:29Z</time>
      </trkpt>
      <trkpt lat="43.97605" lon="5.14743">
        <ele>388.99</ele>
        <time>2015-12-21T13:34:35Z</time>
      </trkpt>
      <trkpt lat="43.97604" lon="5.14746">
        <ele>388.99</ele>
        <time>2015-12-21T13:34:36Z</time>
      </trkpt>
      <trkpt lat="43.97597" lon="5.14756">
        <ele>390.91</ele>
        <time>2015-12-21T13:34:43Z</time>
      </trkpt>
      <trkpt lat="43.9759" lon="5.14765">
        <ele>392.84</ele>
        <time>2015-12-21T13:34:50Z</time>
      </trkpt>
      <trkpt lat="43.97582" lon="5.14777">
        <ele>394.28</ele>
        <time>2015-12-21T13:34:57Z</time>
      </trkpt>
      <trkpt lat="43.97575" lon="5.14784">
        <ele>395.24</ele>
        <time>2015-12-21T13:35:03Z</time>
      </trkpt>
      <trkpt lat="43.97569" lon="5.14795">
        <ele>397.16</ele>
        <time>2015-12-21T13:35:10Z</time>
      </trkpt>
      <trkpt lat="43.97561" lon="5.14805">
        <ele>398.6</ele>
        <time>2015-12-21T13:35:17Z</time>
      </trkpt>
      <trkpt lat="43.97554" lon="5.14816">
        <ele>400.05</ele>
        <time>2015-12-21T13:35:24Z</time>
      </trkpt>
      <trkpt lat="43.97547" lon="5.1483">
        <ele>402.45</ele>
        <time>2015-12-21T13:35:33Z</time>
      </trkpt>
      <trkpt lat="43.97539" lon="5.14844">
        <ele>403.89</ele>
        <time>2015-12-21T13:35:40Z</time>
      </trkpt>
      <trkpt lat="43.97529" lon="5.14862">
        <ele>405.33</ele>
        <time>2015-12-21T13:35:49Z</time>
      </trkpt>
      <trkpt lat="43.97522" lon="5.1488">
        <ele>406.77</ele>
        <time>2015-12-21T13:35:58Z</time>
      </trkpt>
      <trkpt lat="43.97518" lon="5.14892">
        <ele>408.22</ele>
        <time>2015-12-21T13:36:05Z</time>
      </trkpt>
      <trkpt lat="43.9751" lon="5.1491">
        <ele>409.66</ele>
        <time>2015-12-21T13:36:14Z</time>
      </trkpt>
      <trkpt lat="43.97505" lon="5.14929">
        <ele>411.58</ele>
        <time>2015-12-21T13:36:23Z</time>
      </trkpt>
      <trkpt lat="43.97504" lon="5.14946">
        <ele>413.5</ele>
        <time>2015-12-21T13:36:30Z</time>
      </trkpt>
      <trkpt lat="43.97504" lon="5.14966">
        <ele>414.95</ele>
        <time>2015-12-21T13:36:38Z</time>
      </trkpt>
      <trkpt lat="43.97502" lon="5.14987">
        <ele>416.87</ele>
        <time>2015-12-21T13:36:46Z</time>
      </trkpt>
      <trkpt lat="43.97497" lon="5.15003">
        <ele>418.31</ele>
        <time>2015-12-21T13:36:53Z</time>
      </trkpt>
      <trkpt lat="43.97494" lon="5.15016">
        <ele>419.27</ele>
        <time>2015-12-21T13:36:58Z</time>
      </trkpt>
      <trkpt lat="43.97493" lon="5.15028">
        <ele>419.75</ele>
        <time>2015-12-21T13:37:07Z</time>
      </trkpt>
      <trkpt lat="43.97492" lon="5.15027">
        <ele>419.75</ele>
        <time>2015-12-21T13:37:16Z</time>
      </trkpt>
      <trkpt lat="43.97492" lon="5.15027">
        <ele>420.23</ele>
        <time>2015-12-21T13:37:31Z</time>
      </trkpt>
      <trkpt lat="43.97492" lon="5.15028">
        <ele>419.75</ele>
        <time>2015-12-21T13:37:41Z</time>
      </trkpt>
      <trkpt lat="43.97492" lon="5.15028">
        <ele>420.23</ele>
        <time>2015-12-21T13:37:52Z</time>
      </trkpt>
      <trkpt lat="43.97492" lon="5.15029">
        <ele>419.75</ele>
        <time>2015-12-21T13:38:05Z</time>
      </trkpt>
      <trkpt lat="43.97492" lon="5.15029">
        <ele>420.23</ele>
        <time>2015-12-21T13:38:17Z</time>
      </trkpt>
      <trkpt lat="43.97492" lon="5.15029">
        <ele>420.23</ele>
        <time>2015-12-21T13:38:30Z</time>
      </trkpt>
      <trkpt lat="43.97492" lon="5.15028">
        <ele>420.23</ele>
        <time>2015-12-21T13:38:45Z</time>
      </trkpt>
      <trkpt lat="43.97492" lon="5.15028">
        <ele>419.75</ele>
        <time>2015-12-21T13:38:58Z</time>
      </trkpt>
      <trkpt lat="43.97492" lon="5.15028">
        <ele>420.23</ele>
        <time>2015-12-21T13:39:15Z</time>
      </trkpt>
      <trkpt lat="43.97491" lon="5.15028">
        <ele>420.23</ele>
        <time>2015-12-21T13:39:31Z</time>
      </trkpt>
      <trkpt lat="43.97491" lon="5.15027">
        <ele>420.23</ele>
        <time>2015-12-21T13:39:50Z</time>
      </trkpt>
      <trkpt lat="43.9749" lon="5.15028">
        <ele>420.23</ele>
        <time>2015-12-21T13:40:05Z</time>
      </trkpt>
      <trkpt lat="43.9749" lon="5.15028">
        <ele>420.23</ele>
        <time>2015-12-21T13:40:22Z</time>
      </trkpt>
      <trkpt lat="43.97491" lon="5.15028">
        <ele>420.71</ele>
        <time>2015-12-21T13:40:36Z</time>
      </trkpt>
      <trkpt lat="43.97491" lon="5.15028">
        <ele>420.23</ele>
        <time>2015-12-21T13:40:52Z</time>
      </trkpt>
      <trkpt lat="43.97491" lon="5.15029">
        <ele>420.23</ele>
        <time>2015-12-21T13:41:11Z</time>
      </trkpt>
      <trkpt lat="43.97491" lon="5.15029">
        <ele>420.23</ele>
        <time>2015-12-21T13:41:31Z</time>
      </trkpt>
      <trkpt lat="43.97491" lon="5.15029">
        <ele>420.23</ele>
        <time>2015-12-21T13:41:44Z</time>
      </trkpt>
      <trkpt lat="43.97491" lon="5.15028">
        <ele>420.23</ele>
        <time>2015-12-21T13:42:01Z</time>
      </trkpt>
      <trkpt lat="43.97491" lon="5.15028">
        <ele>420.23</ele>
        <time>2015-12-21T13:42:16Z</time>
      </trkpt>
      <trkpt lat="43.97491" lon="5.15029">
        <ele>420.23</ele>
        <time>2015-12-21T13:42:32Z</time>
      </trkpt>
      <trkpt lat="43.97491" lon="5.15029">
        <ele>420.23</ele>
        <time>2015-12-21T13:42:49Z</time>
      </trkpt>
      <trkpt lat="43.97491" lon="5.15028">
        <ele>420.23</ele>
        <time>2015-12-21T13:43:04Z</time>
      </trkpt>
      <trkpt lat="43.97491" lon="5.15029">
        <ele>420.23</ele>
        <time>2015-12-21T13:43:24Z</time>
      </trkpt>
      <trkpt lat="43.9749" lon="5.15029">
        <ele>420.23</ele>
        <time>2015-12-21T13:43:41Z</time>
      </trkpt>
      <trkpt lat="43.97489" lon="5.15028">
        <ele>420.23</ele>
        <time>2015-12-21T13:43:58Z</time>
      </trkpt>
      <trkpt lat="43.97489" lon="5.1503">
        <ele>420.23</ele>
        <time>2015-12-21T13:44:08Z</time>
      </trkpt>
      <trkpt lat="43.97489" lon="5.15033">
        <ele>420.71</ele>
        <time>2015-12-21T13:44:11Z</time>
      </trkpt>
      <trkpt lat="43.97489" lon="5.15035">
        <ele>420.71</ele>
        <time>2015-12-21T13:44:12Z</time>
      </trkpt>
      <trkpt lat="43.97488" lon="5.15038">
        <ele>420.71</ele>
        <time>2015-12-21T13:44:13Z</time>
      </trkpt>
      <trkpt lat="43.97485" lon="5.15053">
        <ele>421.68</ele>
        <time>2015-12-21T13:44:20Z</time>
      </trkpt>
      <trkpt lat="43.97481" lon="5.15069">
        <ele>422.16</ele>
        <time>2015-12-21T13:44:26Z</time>
      </trkpt>
      <trkpt lat="43.97472" lon="5.15089">
        <ele>423.6</ele>
        <time>2015-12-21T13:44:35Z</time>
      </trkpt>
      <trkpt lat="43.97465" lon="5.15101">
        <ele>425.04</ele>
        <time>2015-12-21T13:44:42Z</time>
      </trkpt>
      <trkpt lat="43.97455" lon="5.15113">
        <ele>426</ele>
        <time>2015-12-21T13:44:50Z</time>
      </trkpt>
      <trkpt lat="43.97455" lon="5.15115">
        <ele>426.48</ele>
        <time>2015-12-21T13:44:51Z</time>
      </trkpt>
      <trkpt lat="43.97455" lon="5.15116">
        <ele>426.48</ele>
        <time>2015-12-21T13:44:52Z</time>
      </trkpt>
      <trkpt lat="43.97456" lon="5.15117">
        <ele>426.48</ele>
        <time>2015-12-21T13:44:53Z</time>
      </trkpt>
      <trkpt lat="43.97456" lon="5.15118">
        <ele>426.48</ele>
        <time>2015-12-21T13:44:54Z</time>
      </trkpt>
      <trkpt lat="43.97457" lon="5.15119">
        <ele>426.48</ele>
        <time>2015-12-21T13:44:55Z</time>
      </trkpt>
      <trkpt lat="43.97457" lon="5.15119">
        <ele>426.48</ele>
        <time>2015-12-21T13:44:56Z</time>
      </trkpt>
      <trkpt lat="43.97458" lon="5.15119">
        <ele>426</ele>
        <time>2015-12-21T13:44:57Z</time>
      </trkpt>
      <trkpt lat="43.97459" lon="5.15117">
        <ele>426</ele>
        <time>2015-12-21T13:44:58Z</time>
      </trkpt>
      <trkpt lat="43.97461" lon="5.15117">
        <ele>425.52</ele>
        <time>2015-12-21T13:44:59Z</time>
      </trkpt>
      <trkpt lat="43.97462" lon="5.15117">
        <ele>425.52</ele>
        <time>2015-12-21T13:45:00Z</time>
      </trkpt>
      <trkpt lat="43.97465" lon="5.15116">
        <ele>425.04</ele>
        <time>2015-12-21T13:45:01Z</time>
      </trkpt>
      <trkpt lat="43.97467" lon="5.15116">
        <ele>424.56</ele>
        <time>2015-12-21T13:45:02Z</time>
      </trkpt>
      <trkpt lat="43.97469" lon="5.15115">
        <ele>424.56</ele>
        <time>2015-12-21T13:45:03Z</time>
      </trkpt>
      <trkpt lat="43.97472" lon="5.15114">
        <ele>423.6</ele>
        <time>2015-12-21T13:45:04Z</time>
      </trkpt>
      <trkpt lat="43.97489" lon="5.15109">
        <ele>421.68</ele>
        <time>2015-12-21T13:45:09Z</time>
      </trkpt>
      <trkpt lat="43.97495" lon="5.1511">
        <ele>420.23</ele>
        <time>2015-12-21T13:45:11Z</time>
      </trkpt>
      <trkpt lat="43.97498" lon="5.15112">
        <ele>419.75</ele>
        <time>2015-12-21T13:45:12Z</time>
      </trkpt>
      <trkpt lat="43.97501" lon="5.15113">
        <ele>419.27</ele>
        <time>2015-12-21T13:45:13Z</time>
      </trkpt>
      <trkpt lat="43.97504" lon="5.15115">
        <ele>418.79</ele>
        <time>2015-12-21T13:45:14Z</time>
      </trkpt>
      <trkpt lat="43.97508" lon="5.15116">
        <ele>418.31</ele>
        <time>2015-12-21T13:45:15Z</time>
      </trkpt>
      <trkpt lat="43.97511" lon="5.15118">
        <ele>417.83</ele>
        <time>2015-12-21T13:45:16Z</time>
      </trkpt>
      <trkpt lat="43.97515" lon="5.1512">
        <ele>417.35</ele>
        <time>2015-12-21T13:45:17Z</time>
      </trkpt>
      <trkpt lat="43.97518" lon="5.15123">
        <ele>416.39</ele>
        <time>2015-12-21T13:45:18Z</time>
      </trkpt>
      <trkpt lat="43.9752" lon="5.15126">
        <ele>416.39</ele>
        <time>2015-12-21T13:45:19Z</time>
      </trkpt>
      <trkpt lat="43.9752" lon="5.15128">
        <ele>414.95</ele>
        <time>2015-12-21T13:45:23Z</time>
      </trkpt>
      <trkpt lat="43.97521" lon="5.15129">
        <ele>414.95</ele>
        <time>2015-12-21T13:45:32Z</time>
      </trkpt>
      <trkpt lat="43.97523" lon="5.15133">
        <ele>414.47</ele>
        <time>2015-12-21T13:45:37Z</time>
      </trkpt>
      <trkpt lat="43.97525" lon="5.15138">
        <ele>413.98</ele>
        <time>2015-12-21T13:45:51Z</time>
      </trkpt>
      <trkpt lat="43.97527" lon="5.1514">
        <ele>414.47</ele>
        <time>2015-12-21T13:45:52Z</time>
      </trkpt>
      <trkpt lat="43.9753" lon="5.15142">
        <ele>413.98</ele>
        <time>2015-12-21T13:45:53Z</time>
      </trkpt>
      <trkpt lat="43.97537" lon="5.15149">
        <ele>412.54</ele>
        <time>2015-12-21T13:45:56Z</time>
      </trkpt>
      <trkpt lat="43.97539" lon="5.15152">
        <ele>411.58</ele>
        <time>2015-12-21T13:45:57Z</time>
      </trkpt>
      <trkpt lat="43.97544" lon="5.15154">
        <ele>410.14</ele>
        <time>2015-12-21T13:46:00Z</time>
      </trkpt>
      <trkpt lat="43.97551" lon="5.15155">
        <ele>408.7</ele>
        <time>2015-12-21T13:46:05Z</time>
      </trkpt>
      <trkpt lat="43.97553" lon="5.15155">
        <ele>407.74</ele>
        <time>2015-12-21T13:46:07Z</time>
      </trkpt>
      <trkpt lat="43.97555" lon="5.15154">
        <ele>406.29</ele>
        <time>2015-12-21T13:46:13Z</time>
      </trkpt>
      <trkpt lat="43.97561" lon="5.15152">
        <ele>404.37</ele>
        <time>2015-12-21T13:46:20Z</time>
      </trkpt>
      <trkpt lat="43.97567" lon="5.15153">
        <ele>402.93</ele>
        <time>2015-12-21T13:46:27Z</time>
      </trkpt>
      <trkpt lat="43.97571" lon="5.15153">
        <ele>400.53</ele>
        <time>2015-12-21T13:46:34Z</time>
      </trkpt>
      <trkpt lat="43.97574" lon="5.15154">
        <ele>401.01</ele>
        <time>2015-12-21T13:46:37Z</time>
      </trkpt>
      <trkpt lat="43.97581" lon="5.15152">
        <ele>399.08</ele>
        <time>2015-12-21T13:46:40Z</time>
      </trkpt>
      <trkpt lat="43.97584" lon="5.15152">
        <ele>398.6</ele>
        <time>2015-12-21T13:46:41Z</time>
      </trkpt>
      <trkpt lat="43.97587" lon="5.1515">
        <ele>397.64</ele>
        <time>2015-12-21T13:46:43Z</time>
      </trkpt>
      <trkpt lat="43.97593" lon="5.15146">
        <ele>395.72</ele>
        <time>2015-12-21T13:46:48Z</time>
      </trkpt>
      <trkpt lat="43.97603" lon="5.1515">
        <ele>392.84</ele>
        <time>2015-12-21T13:46:54Z</time>
      </trkpt>
      <trkpt lat="43.97606" lon="5.15152">
        <ele>391.87</ele>
        <time>2015-12-21T13:46:56Z</time>
      </trkpt>
      <trkpt lat="43.9761" lon="5.1515">
        <ele>388.51</ele>
        <time>2015-12-21T13:47:02Z</time>
      </trkpt>
      <trkpt lat="43.97615" lon="5.15157">
        <ele>388.03</ele>
        <time>2015-12-21T13:47:08Z</time>
      </trkpt>
      <trkpt lat="43.97618" lon="5.15157">
        <ele>388.03</ele>
        <time>2015-12-21T13:47:14Z</time>
      </trkpt>
      <trkpt lat="43.97626" lon="5.15161">
        <ele>385.63</ele>
        <time>2015-12-21T13:47:19Z</time>
      </trkpt>
      <trkpt lat="43.97632" lon="5.15161">
        <ele>383.7</ele>
        <time>2015-12-21T13:47:23Z</time>
      </trkpt>
      <trkpt lat="43.97635" lon="5.15162">
        <ele>382.26</ele>
        <time>2015-12-21T13:47:26Z</time>
      </trkpt>
      <trkpt lat="43.97636" lon="5.15166">
        <ele>382.26</ele>
        <time>2015-12-21T13:47:32Z</time>
      </trkpt>
      <trkpt lat="43.97639" lon="5.15165">
        <ele>381.78</ele>
        <time>2015-12-21T13:47:36Z</time>
      </trkpt>
      <trkpt lat="43.97652" lon="5.15165">
        <ele>379.38</ele>
        <time>2015-12-21T13:47:41Z</time>
      </trkpt>
      <trkpt lat="43.9766" lon="5.15168">
        <ele>378.42</ele>
        <time>2015-12-21T13:47:43Z</time>
      </trkpt>
      <trkpt lat="43.97665" lon="5.1517">
        <ele>377.94</ele>
        <time>2015-12-21T13:47:44Z</time>
      </trkpt>
      <trkpt lat="43.97669" lon="5.15172">
        <ele>377.45</ele>
        <time>2015-12-21T13:47:45Z</time>
      </trkpt>
      <trkpt lat="43.97673" lon="5.15175">
        <ele>376.97</ele>
        <time>2015-12-21T13:47:46Z</time>
      </trkpt>
      <trkpt lat="43.97675" lon="5.15179">
        <ele>376.49</ele>
        <time>2015-12-21T13:47:47Z</time>
      </trkpt>
      <trkpt lat="43.97676" lon="5.15181">
        <ele>376.49</ele>
        <time>2015-12-21T13:47:48Z</time>
      </trkpt>
      <trkpt lat="43.97679" lon="5.15184">
        <ele>375.53</ele>
        <time>2015-12-21T13:47:53Z</time>
      </trkpt>
      <trkpt lat="43.9768" lon="5.15184">
        <ele>375.53</ele>
        <time>2015-12-21T13:48:08Z</time>
      </trkpt>
      <trkpt lat="43.9768" lon="5.15185">
        <ele>375.53</ele>
        <time>2015-12-21T13:48:20Z</time>
      </trkpt>
      <trkpt lat="43.9768" lon="5.15185">
        <ele>375.53</ele>
        <time>2015-12-21T13:48:21Z</time>
      </trkpt>
      <trkpt lat="43.97681" lon="5.15187">
        <ele>375.53</ele>
        <time>2015-12-21T13:48:22Z</time>
      </trkpt>
      <trkpt lat="43.97682" lon="5.15189">
        <ele>375.53</ele>
        <time>2015-12-21T13:48:23Z</time>
      </trkpt>
      <trkpt lat="43.97685" lon="5.15208">
        <ele>373.13</ele>
        <time>2015-12-21T13:48:29Z</time>
      </trkpt>
      <trkpt lat="43.97685" lon="5.15209">
        <ele>372.65</ele>
        <time>2015-12-21T13:48:36Z</time>
      </trkpt>
      <trkpt lat="43.97685" lon="5.15211">
        <ele>372.65</ele>
        <time>2015-12-21T13:48:49Z</time>
      </trkpt>
      <trkpt lat="43.97685" lon="5.15212">
        <ele>372.65</ele>
        <time>2015-12-21T13:49:05Z</time>
      </trkpt>
      <trkpt lat="43.97685" lon="5.15212">
        <ele>372.65</ele>
        <time>2015-12-21T13:49:20Z</time>
      </trkpt>
      <trkpt lat="43.97685" lon="5.15213">
        <ele>372.65</ele>
        <time>2015-12-21T13:49:30Z</time>
      </trkpt>
      <trkpt lat="43.97685" lon="5.15215">
        <ele>372.65</ele>
        <time>2015-12-21T13:49:31Z</time>
      </trkpt>
      <trkpt lat="43.97688" lon="5.15219">
        <ele>371.69</ele>
        <time>2015-12-21T13:49:33Z</time>
      </trkpt>
      <trkpt lat="43.97699" lon="5.15237">
        <ele>367.84</ele>
        <time>2015-12-21T13:49:38Z</time>
      </trkpt>
      <trkpt lat="43.97709" lon="5.15252">
        <ele>364.48</ele>
        <time>2015-12-21T13:49:43Z</time>
      </trkpt>
      <trkpt lat="43.9772" lon="5.15269">
        <ele>360.63</ele>
        <time>2015-12-21T13:49:48Z</time>
      </trkpt>
      <trkpt lat="43.97728" lon="5.15284">
        <ele>357.27</ele>
        <time>2015-12-21T13:49:53Z</time>
      </trkpt>
      <trkpt lat="43.97738" lon="5.15293">
        <ele>352.94</ele>
        <time>2015-12-21T13:49:57Z</time>
      </trkpt>
      <trkpt lat="43.97752" lon="5.15311">
        <ele>349.58</ele>
        <time>2015-12-21T13:50:02Z</time>
      </trkpt>
      <trkpt lat="43.97755" lon="5.15316">
        <ele>349.58</ele>
        <time>2015-12-21T13:50:03Z</time>
      </trkpt>
      <trkpt lat="43.97759" lon="5.15321">
        <ele>348.62</ele>
        <time>2015-12-21T13:50:04Z</time>
      </trkpt>
      <trkpt lat="43.97771" lon="5.15334">
        <ele>345.25</ele>
        <time>2015-12-21T13:50:07Z</time>
      </trkpt>
      <trkpt lat="43.97784" lon="5.1534">
        <ele>342.85</ele>
        <time>2015-12-21T13:50:11Z</time>
      </trkpt>
      <trkpt lat="43.97797" lon="5.15342">
        <ele>340.44</ele>
        <time>2015-12-21T13:50:14Z</time>
      </trkpt>
      <trkpt lat="43.978" lon="5.15344">
        <ele>339.48</ele>
        <time>2015-12-21T13:50:15Z</time>
      </trkpt>
      <trkpt lat="43.97803" lon="5.15347">
        <ele>338.52</ele>
        <time>2015-12-21T13:50:16Z</time>
      </trkpt>
      <trkpt lat="43.97805" lon="5.1535">
        <ele>337.56</ele>
        <time>2015-12-21T13:50:17Z</time>
      </trkpt>
      <trkpt lat="43.97808" lon="5.15353">
        <ele>337.08</ele>
        <time>2015-12-21T13:50:18Z</time>
      </trkpt>
      <trkpt lat="43.9781" lon="5.15356">
        <ele>336.6</ele>
        <time>2015-12-21T13:50:19Z</time>
      </trkpt>
      <trkpt lat="43.97812" lon="5.15358">
        <ele>335.64</ele>
        <time>2015-12-21T13:50:20Z</time>
      </trkpt>
      <trkpt lat="43.97815" lon="5.15361">
        <ele>334.2</ele>
        <time>2015-12-21T13:50:21Z</time>
      </trkpt>
      <trkpt lat="43.97818" lon="5.15363">
        <ele>333.23</ele>
        <time>2015-12-21T13:50:22Z</time>
      </trkpt>
      <trkpt lat="43.9782" lon="5.15365">
        <ele>332.27</ele>
        <time>2015-12-21T13:50:23Z</time>
      </trkpt>
      <trkpt lat="43.97823" lon="5.15366">
        <ele>331.31</ele>
        <time>2015-12-21T13:50:24Z</time>
      </trkpt>
      <trkpt lat="43.97826" lon="5.15367">
        <ele>330.35</ele>
        <time>2015-12-21T13:50:25Z</time>
      </trkpt>
      <trkpt lat="43.97829" lon="5.15367">
        <ele>329.87</ele>
        <time>2015-12-21T13:50:26Z</time>
      </trkpt>
      <trkpt lat="43.97833" lon="5.15367">
        <ele>329.39</ele>
        <time>2015-12-21T13:50:27Z</time>
      </trkpt>
      <trkpt lat="43.97843" lon="5.15369">
        <ele>327.95</ele>
        <time>2015-12-21T13:50:29Z</time>
      </trkpt>
      <trkpt lat="43.9785" lon="5.15372">
        <ele>327.47</ele>
        <time>2015-12-21T13:50:30Z</time>
      </trkpt>
      <trkpt lat="43.97868" lon="5.15383">
        <ele>323.62</ele>
        <time>2015-12-21T13:50:33Z</time>
      </trkpt>
      <trkpt lat="43.97879" lon="5.15388">
        <ele>321.22</ele>
        <time>2015-12-21T13:50:35Z</time>
      </trkpt>
      <trkpt lat="43.97885" lon="5.15389">
        <ele>320.74</ele>
        <time>2015-12-21T13:50:36Z</time>
      </trkpt>
      <trkpt lat="43.97892" lon="5.15389">
        <ele>320.26</ele>
        <time>2015-12-21T13:50:37Z</time>
      </trkpt>
      <trkpt lat="43.97898" lon="5.15391">
        <ele>319.3</ele>
        <time>2015-12-21T13:50:38Z</time>
      </trkpt>
      <trkpt lat="43.97904" lon="5.15392">
        <ele>318.33</ele>
        <time>2015-12-21T13:50:39Z</time>
      </trkpt>
      <trkpt lat="43.97909" lon="5.15395">
        <ele>317.37</ele>
        <time>2015-12-21T13:50:40Z</time>
      </trkpt>
      <trkpt lat="43.97927" lon="5.15402">
        <ele>314.49</ele>
        <time>2015-12-21T13:50:45Z</time>
      </trkpt>
      <trkpt lat="43.97928" lon="5.15404">
        <ele>314.01</ele>
        <time>2015-12-21T13:50:49Z</time>
      </trkpt>
      <trkpt lat="43.97928" lon="5.15408">
        <ele>314.49</ele>
        <time>2015-12-21T13:51:04Z</time>
      </trkpt>
      <trkpt lat="43.97928" lon="5.15407">
        <ele>314.49</ele>
        <time>2015-12-21T13:51:21Z</time>
      </trkpt>
      <trkpt lat="43.97928" lon="5.15407">
        <ele>314.01</ele>
        <time>2015-12-21T13:51:38Z</time>
      </trkpt>
      <trkpt lat="43.97928" lon="5.15407">
        <ele>314.49</ele>
        <time>2015-12-21T13:51:53Z</time>
      </trkpt>
      <trkpt lat="43.97929" lon="5.15407">
        <ele>314.01</ele>
        <time>2015-12-21T13:51:54Z</time>
      </trkpt>
      <trkpt lat="43.97931" lon="5.15408">
        <ele>314.01</ele>
        <time>2015-12-21T13:51:55Z</time>
      </trkpt>
      <trkpt lat="43.97932" lon="5.1541">
        <ele>314.01</ele>
        <time>2015-12-21T13:51:56Z</time>
      </trkpt>
      <trkpt lat="43.97934" lon="5.15412">
        <ele>313.53</ele>
        <time>2015-12-21T13:51:57Z</time>
      </trkpt>
      <trkpt lat="43.97936" lon="5.15414">
        <ele>313.53</ele>
        <time>2015-12-21T13:51:58Z</time>
      </trkpt>
      <trkpt lat="43.97954" lon="5.15428">
        <ele>311.12</ele>
        <time>2015-12-21T13:52:05Z</time>
      </trkpt>
      <trkpt lat="43.97962" lon="5.15431">
        <ele>310.16</ele>
        <time>2015-12-21T13:52:07Z</time>
      </trkpt>
      <trkpt lat="43.97965" lon="5.15433">
        <ele>309.68</ele>
        <time>2015-12-21T13:52:08Z</time>
      </trkpt>
      <trkpt lat="43.97968" lon="5.15434">
        <ele>309.2</ele>
        <time>2015-12-21T13:52:09Z</time>
      </trkpt>
      <trkpt lat="43.97969" lon="5.15435">
        <ele>308.72</ele>
        <time>2015-12-21T13:52:10Z</time>
      </trkpt>
      <trkpt lat="43.97971" lon="5.15436">
        <ele>308.72</ele>
        <time>2015-12-21T13:52:11Z</time>
      </trkpt>
      <trkpt lat="43.97979" lon="5.1544">
        <ele>308.24</ele>
        <time>2015-12-21T13:52:14Z</time>
      </trkpt>
      <trkpt lat="43.97983" lon="5.15441">
        <ele>307.76</ele>
        <time>2015-12-21T13:52:15Z</time>
      </trkpt>
      <trkpt lat="43.97996" lon="5.15442">
        <ele>305.84</ele>
        <time>2015-12-21T13:52:18Z</time>
      </trkpt>
      <trkpt lat="43.98" lon="5.1544">
        <ele>304.88</ele>
        <time>2015-12-21T13:52:19Z</time>
      </trkpt>
      <trkpt lat="43.98004" lon="5.15437">
        <ele>303.91</ele>
        <time>2015-12-21T13:52:20Z</time>
      </trkpt>
      <trkpt lat="43.98007" lon="5.15433">
        <ele>303.43</ele>
        <time>2015-12-21T13:52:21Z</time>
      </trkpt>
      <trkpt lat="43.9801" lon="5.15428">
        <ele>302.47</ele>
        <time>2015-12-21T13:52:22Z</time>
      </trkpt>
      <trkpt lat="43.98015" lon="5.15422">
        <ele>301.03</ele>
        <time>2015-12-21T13:52:24Z</time>
      </trkpt>
      <trkpt lat="43.98019" lon="5.15421">
        <ele>300.55</ele>
        <time>2015-12-21T13:52:25Z</time>
      </trkpt>
      <trkpt lat="43.98023" lon="5.15422">
        <ele>300.07</ele>
        <time>2015-12-21T13:52:26Z</time>
      </trkpt>
      <trkpt lat="43.98028" lon="5.15423">
        <ele>299.11</ele>
        <time>2015-12-21T13:52:27Z</time>
      </trkpt>
      <trkpt lat="43.98034" lon="5.15425">
        <ele>297.18</ele>
        <time>2015-12-21T13:52:28Z</time>
      </trkpt>
      <trkpt lat="43.98039" lon="5.15425">
        <ele>296.22</ele>
        <time>2015-12-21T13:52:29Z</time>
      </trkpt>
      <trkpt lat="43.98044" lon="5.15426">
        <ele>295.26</ele>
        <time>2015-12-21T13:52:30Z</time>
      </trkpt>
      <trkpt lat="43.9806" lon="5.15428">
        <ele>291.9</ele>
        <time>2015-12-21T13:52:34Z</time>
      </trkpt>
      <trkpt lat="43.98065" lon="5.15428">
        <ele>290.94</ele>
        <time>2015-12-21T13:52:35Z</time>
      </trkpt>
      <trkpt lat="43.98071" lon="5.15426">
        <ele>290.46</ele>
        <time>2015-12-21T13:52:36Z</time>
      </trkpt>
      <trkpt lat="43.98078" lon="5.15425">
        <ele>289.97</ele>
        <time>2015-12-21T13:52:37Z</time>
      </trkpt>
      <trkpt lat="43.98085" lon="5.15425">
        <ele>288.53</ele>
        <time>2015-12-21T13:52:38Z</time>
      </trkpt>
      <trkpt lat="43.98093" lon="5.15425">
        <ele>286.61</ele>
        <time>2015-12-21T13:52:39Z</time>
      </trkpt>
      <trkpt lat="43.98101" lon="5.15424">
        <ele>285.65</ele>
        <time>2015-12-21T13:52:40Z</time>
      </trkpt>
      <trkpt lat="43.98125" lon="5.15418">
        <ele>282.28</ele>
        <time>2015-12-21T13:52:43Z</time>
      </trkpt>
      <trkpt lat="43.98142" lon="5.15413">
        <ele>278.44</ele>
        <time>2015-12-21T13:52:46Z</time>
      </trkpt>
      <trkpt lat="43.98166" lon="5.15407">
        <ele>275.56</ele>
        <time>2015-12-21T13:52:51Z</time>
      </trkpt>
      <trkpt lat="43.98171" lon="5.15407">
        <ele>274.11</ele>
        <time>2015-12-21T13:52:52Z</time>
      </trkpt>
      <trkpt lat="43.98177" lon="5.15407">
        <ele>273.15</ele>
        <time>2015-12-21T13:52:53Z</time>
      </trkpt>
      <trkpt lat="43.98188" lon="5.15409">
        <ele>270.27</ele>
        <time>2015-12-21T13:52:55Z</time>
      </trkpt>
      <trkpt lat="43.98207" lon="5.15411">
        <ele>266.9</ele>
        <time>2015-12-21T13:52:59Z</time>
      </trkpt>
      <trkpt lat="43.98224" lon="5.15417">
        <ele>264.5</ele>
        <time>2015-12-21T13:53:04Z</time>
      </trkpt>
      <trkpt lat="43.98228" lon="5.15418">
        <ele>264.02</ele>
        <time>2015-12-21T13:53:05Z</time>
      </trkpt>
      <trkpt lat="43.98232" lon="5.15418">
        <ele>263.06</ele>
        <time>2015-12-21T13:53:06Z</time>
      </trkpt>
      <trkpt lat="43.98235" lon="5.15418">
        <ele>262.1</ele>
        <time>2015-12-21T13:53:07Z</time>
      </trkpt>
      <trkpt lat="43.98238" lon="5.15418">
        <ele>261.62</ele>
        <time>2015-12-21T13:53:08Z</time>
      </trkpt>
      <trkpt lat="43.98241" lon="5.15417">
        <ele>260.65</ele>
        <time>2015-12-21T13:53:09Z</time>
      </trkpt>
      <trkpt lat="43.98243" lon="5.15416">
        <ele>259.21</ele>
        <time>2015-12-21T13:53:12Z</time>
      </trkpt>
      <trkpt lat="43.98243" lon="5.15415">
        <ele>258.73</ele>
        <time>2015-12-21T13:53:18Z</time>
      </trkpt>
      <trkpt lat="43.98243" lon="5.15415">
        <ele>258.73</ele>
        <time>2015-12-21T13:53:30Z</time>
      </trkpt>
      <trkpt lat="43.98243" lon="5.15415">
        <ele>258.73</ele>
        <time>2015-12-21T13:53:39Z</time>
      </trkpt>
      <trkpt lat="43.98242" lon="5.15416">
        <ele>259.21</ele>
        <time>2015-12-21T13:53:52Z</time>
      </trkpt>
      <trkpt lat="43.98242" lon="5.15417">
        <ele>259.21</ele>
        <time>2015-12-21T13:54:06Z</time>
      </trkpt>
      <trkpt lat="43.98242" lon="5.15417">
        <ele>259.69</ele>
        <time>2015-12-21T13:54:14Z</time>
      </trkpt>
      <trkpt lat="43.98243" lon="5.15418">
        <ele>259.21</ele>
        <time>2015-12-21T13:54:22Z</time>
      </trkpt>
      <trkpt lat="43.98243" lon="5.15418">
        <ele>258.73</ele>
        <time>2015-12-21T13:54:34Z</time>
      </trkpt>
      <trkpt lat="43.98244" lon="5.15417">
        <ele>258.73</ele>
        <time>2015-12-21T13:54:43Z</time>
      </trkpt>
      <trkpt lat="43.98248" lon="5.15408">
        <ele>258.25</ele>
        <time>2015-12-21T13:54:46Z</time>
      </trkpt>
      <trkpt lat="43.98249" lon="5.15405">
        <ele>257.77</ele>
        <time>2015-12-21T13:54:47Z</time>
      </trkpt>
      <trkpt lat="43.98249" lon="5.15405">
        <ele>257.29</ele>
        <time>2015-12-21T13:54:52Z</time>
      </trkpt>
      <trkpt lat="43.98249" lon="5.15404">
        <ele>256.81</ele>
        <time>2015-12-21T13:55:06Z</time>
      </trkpt>
      <trkpt lat="43.98249" lon="5.15405">
        <ele>256.81</ele>
        <time>2015-12-21T13:55:22Z</time>
      </trkpt>
      <trkpt lat="43.98249" lon="5.15403">
        <ele>256.81</ele>
        <time>2015-12-21T13:55:29Z</time>
      </trkpt>
      <trkpt lat="43.9825" lon="5.15401">
        <ele>256.81</ele>
        <time>2015-12-21T13:55:30Z</time>
      </trkpt>
      <trkpt lat="43.98251" lon="5.15398">
        <ele>256.81</ele>
        <time>2015-12-21T13:55:31Z</time>
      </trkpt>
      <trkpt lat="43.98251" lon="5.15395">
        <ele>256.81</ele>
        <time>2015-12-21T13:55:32Z</time>
      </trkpt>
      <trkpt lat="43.98251" lon="5.1539">
        <ele>256.81</ele>
        <time>2015-12-21T13:55:33Z</time>
      </trkpt>
      <trkpt lat="43.98252" lon="5.15385">
        <ele>256.33</ele>
        <time>2015-12-21T13:55:34Z</time>
      </trkpt>
      <trkpt lat="43.98253" lon="5.15379">
        <ele>256.33</ele>
        <time>2015-12-21T13:55:35Z</time>
      </trkpt>
      <trkpt lat="43.98261" lon="5.15333">
        <ele>254.89</ele>
        <time>2015-12-21T13:55:42Z</time>
      </trkpt>
      <trkpt lat="43.98277" lon="5.15278">
        <ele>253.44</ele>
        <time>2015-12-21T13:55:50Z</time>
      </trkpt>
      <trkpt lat="43.98291" lon="5.15233">
        <ele>252</ele>
        <time>2015-12-21T13:55:56Z</time>
      </trkpt>
      <trkpt lat="43.98292" lon="5.15201">
        <ele>252.48</ele>
        <time>2015-12-21T13:56:00Z</time>
      </trkpt>
      <trkpt lat="43.98291" lon="5.15195">
        <ele>252.48</ele>
        <time>2015-12-21T13:56:01Z</time>
      </trkpt>
      <trkpt lat="43.9829" lon="5.15174">
        <ele>252.96</ele>
        <time>2015-12-21T13:56:06Z</time>
      </trkpt>
      <trkpt lat="43.9829" lon="5.15147">
        <ele>254.41</ele>
        <time>2015-12-21T13:56:13Z</time>
      </trkpt>
      <trkpt lat="43.98292" lon="5.15126">
        <ele>256.33</ele>
        <time>2015-12-21T13:56:18Z</time>
      </trkpt>
      <trkpt lat="43.98295" lon="5.15108">
        <ele>257.77</ele>
        <time>2015-12-21T13:56:23Z</time>
      </trkpt>
      <trkpt lat="43.98303" lon="5.15082">
        <ele>258.73</ele>
        <time>2015-12-21T13:56:30Z</time>
      </trkpt>
      <trkpt lat="43.98309" lon="5.15065">
        <ele>258.25</ele>
        <time>2015-12-21T13:56:35Z</time>
      </trkpt>
      <trkpt lat="43.9831" lon="5.15063">
        <ele>257.77</ele>
        <time>2015-12-21T13:56:43Z</time>
      </trkpt>
      <trkpt lat="43.98311" lon="5.15066">
        <ele>258.25</ele>
        <time>2015-12-21T13:56:58Z</time>
      </trkpt>
      <trkpt lat="43.98313" lon="5.15069">
        <ele>258.25</ele>
        <time>2015-12-21T13:57:20Z</time>
      </trkpt>
      <trkpt lat="43.98313" lon="5.15068">
        <ele>257.77</ele>
        <time>2015-12-21T13:57:40Z</time>
      </trkpt>
      <trkpt lat="43.98315" lon="5.15065">
        <ele>258.25</ele>
        <time>2015-12-21T13:57:43Z</time>
      </trkpt>
      <trkpt lat="43.98316" lon="5.15062">
        <ele>258.25</ele>
        <time>2015-12-21T13:57:44Z</time>
      </trkpt>
      <trkpt lat="43.98318" lon="5.15059">
        <ele>257.77</ele>
        <time>2015-12-21T13:57:45Z</time>
      </trkpt>
      <trkpt lat="43.9832" lon="5.15055">
        <ele>257.77</ele>
        <time>2015-12-21T13:57:46Z</time>
      </trkpt>
      <trkpt lat="43.98322" lon="5.15051">
        <ele>257.77</ele>
        <time>2015-12-21T13:57:47Z</time>
      </trkpt>
      <trkpt lat="43.98326" lon="5.15041">
        <ele>257.77</ele>
        <time>2015-12-21T13:57:49Z</time>
      </trkpt>
      <trkpt lat="43.98338" lon="5.15003">
        <ele>256.81</ele>
        <time>2015-12-21T13:57:56Z</time>
      </trkpt>
      <trkpt lat="43.98342" lon="5.14985">
        <ele>256.33</ele>
        <time>2015-12-21T13:57:59Z</time>
      </trkpt>
      <trkpt lat="43.98344" lon="5.14966">
        <ele>256.33</ele>
        <time>2015-12-21T13:58:02Z</time>
      </trkpt>
      <trkpt lat="43.98345" lon="5.14945">
        <ele>255.37</ele>
        <time>2015-12-21T13:58:05Z</time>
      </trkpt>
      <trkpt lat="43.98347" lon="5.14938">
        <ele>255.37</ele>
        <time>2015-12-21T13:58:06Z</time>
      </trkpt>
      <trkpt lat="43.98349" lon="5.1493">
        <ele>254.89</ele>
        <time>2015-12-21T13:58:07Z</time>
      </trkpt>
      <trkpt lat="43.98356" lon="5.14908">
        <ele>252.96</ele>
        <time>2015-12-21T13:58:10Z</time>
      </trkpt>
      <trkpt lat="43.98356" lon="5.14902">
        <ele>252.48</ele>
        <time>2015-12-21T13:58:11Z</time>
      </trkpt>
      <trkpt lat="43.98354" lon="5.14895">
        <ele>252</ele>
        <time>2015-12-21T13:58:12Z</time>
      </trkpt>
      <trkpt lat="43.98352" lon="5.14888">
        <ele>252</ele>
        <time>2015-12-21T13:58:13Z</time>
      </trkpt>
      <trkpt lat="43.9835" lon="5.1488">
        <ele>251.52</ele>
        <time>2015-12-21T13:58:14Z</time>
      </trkpt>
      <trkpt lat="43.98348" lon="5.14872">
        <ele>251.04</ele>
        <time>2015-12-21T13:58:15Z</time>
      </trkpt>
      <trkpt lat="43.98346" lon="5.14862">
        <ele>251.04</ele>
        <time>2015-12-21T13:58:16Z</time>
      </trkpt>
      <trkpt lat="43.98345" lon="5.14854">
        <ele>250.08</ele>
        <time>2015-12-21T13:58:17Z</time>
      </trkpt>
      <trkpt lat="43.98345" lon="5.14847">
        <ele>249.6</ele>
        <time>2015-12-21T13:58:18Z</time>
      </trkpt>
      <trkpt lat="43.98345" lon="5.14843">
        <ele>248.64</ele>
        <time>2015-12-21T13:58:19Z</time>
      </trkpt>
      <trkpt lat="43.98345" lon="5.1484">
        <ele>247.68</ele>
        <time>2015-12-21T13:58:20Z</time>
      </trkpt>
      <trkpt lat="43.98345" lon="5.14836">
        <ele>247.2</ele>
        <time>2015-12-21T13:58:26Z</time>
      </trkpt>
      <trkpt lat="43.98344" lon="5.14836">
        <ele>247.2</ele>
        <time>2015-12-21T13:58:41Z</time>
      </trkpt>
      <trkpt lat="43.98343" lon="5.14836">
        <ele>247.2</ele>
        <time>2015-12-21T13:58:56Z</time>
      </trkpt>
      <trkpt lat="43.98343" lon="5.14835">
        <ele>247.2</ele>
        <time>2015-12-21T13:59:11Z</time>
      </trkpt>
      <trkpt lat="43.98343" lon="5.14833">
        <ele>247.2</ele>
        <time>2015-12-21T13:59:12Z</time>
      </trkpt>
      <trkpt lat="43.98342" lon="5.14831">
        <ele>247.2</ele>
        <time>2015-12-21T13:59:13Z</time>
      </trkpt>
      <trkpt lat="43.98342" lon="5.14827">
        <ele>247.2</ele>
        <time>2015-12-21T13:59:14Z</time>
      </trkpt>
      <trkpt lat="43.98342" lon="5.14787">
        <ele>246.23</ele>
        <time>2015-12-21T13:59:21Z</time>
      </trkpt>
      <trkpt lat="43.98341" lon="5.14775">
        <ele>245.75</ele>
        <time>2015-12-21T13:59:23Z</time>
      </trkpt>
      <trkpt lat="43.98339" lon="5.14762">
        <ele>245.75</ele>
        <time>2015-12-21T13:59:25Z</time>
      </trkpt>
      <trkpt lat="43.98337" lon="5.14756">
        <ele>245.75</ele>
        <time>2015-12-21T13:59:26Z</time>
      </trkpt>
      <trkpt lat="43.98334" lon="5.14751">
        <ele>245.75</ele>
        <time>2015-12-21T13:59:27Z</time>
      </trkpt>
      <trkpt lat="43.98332" lon="5.14746">
        <ele>245.75</ele>
        <time>2015-12-21T13:59:28Z</time>
      </trkpt>
      <trkpt lat="43.98329" lon="5.1474">
        <ele>245.27</ele>
        <time>2015-12-21T13:59:29Z</time>
      </trkpt>
      <trkpt lat="43.98327" lon="5.14734">
        <ele>244.79</ele>
        <time>2015-12-21T13:59:30Z</time>
      </trkpt>
      <trkpt lat="43.98329" lon="5.14727">
        <ele>244.79</ele>
        <time>2015-12-21T13:59:31Z</time>
      </trkpt>
      <trkpt lat="43.98332" lon="5.14721">
        <ele>244.31</ele>
        <time>2015-12-21T13:59:32Z</time>
      </trkpt>
      <trkpt lat="43.98337" lon="5.14717">
        <ele>244.79</ele>
        <time>2015-12-21T13:59:33Z</time>
      </trkpt>
      <trkpt lat="43.98342" lon="5.14714">
        <ele>244.31</ele>
        <time>2015-12-21T13:59:34Z</time>
      </trkpt>
      <trkpt lat="43.98347" lon="5.14711">
        <ele>244.31</ele>
        <time>2015-12-21T13:59:35Z</time>
      </trkpt>
      <trkpt lat="43.98359" lon="5.14704">
        <ele>243.35</ele>
        <time>2015-12-21T13:59:37Z</time>
      </trkpt>
      <trkpt lat="43.98389" lon="5.14683">
        <ele>240.95</ele>
        <time>2015-12-21T13:59:42Z</time>
      </trkpt>
      <trkpt lat="43.98404" lon="5.1467">
        <ele>239.51</ele>
        <time>2015-12-21T13:59:45Z</time>
      </trkpt>
      <trkpt lat="43.98426" lon="5.14649">
        <ele>237.58</ele>
        <time>2015-12-21T13:59:49Z</time>
      </trkpt>
      <trkpt lat="43.98458" lon="5.1462">
        <ele>234.7</ele>
        <time>2015-12-21T13:59:54Z</time>
      </trkpt>
      <trkpt lat="43.98493" lon="5.14575">
        <ele>232.78</ele>
        <time>2015-12-21T14:00:00Z</time>
      </trkpt>
      <trkpt lat="43.98517" lon="5.14547">
        <ele>231.33</ele>
        <time>2015-12-21T14:00:05Z</time>
      </trkpt>
      <trkpt lat="43.98519" lon="5.14544">
        <ele>231.33</ele>
        <time>2015-12-21T14:00:06Z</time>
      </trkpt>
      <trkpt lat="43.98538" lon="5.14522">
        <ele>230.37</ele>
        <time>2015-12-21T14:00:12Z</time>
      </trkpt>
      <trkpt lat="43.98541" lon="5.14517">
        <ele>230.37</ele>
        <time>2015-12-21T14:00:13Z</time>
      </trkpt>
      <trkpt lat="43.98545" lon="5.14513">
        <ele>230.85</ele>
        <time>2015-12-21T14:00:14Z</time>
      </trkpt>
      <trkpt lat="43.98575" lon="5.14486">
        <ele>229.41</ele>
        <time>2015-12-21T14:00:20Z</time>
      </trkpt>
      <trkpt lat="43.98585" lon="5.14474">
        <ele>228.45</ele>
        <time>2015-12-21T14:00:22Z</time>
      </trkpt>
      <trkpt lat="43.9859" lon="5.14468">
        <ele>228.45</ele>
        <time>2015-12-21T14:00:23Z</time>
      </trkpt>
      <trkpt lat="43.98594" lon="5.14461">
        <ele>228.45</ele>
        <time>2015-12-21T14:00:24Z</time>
      </trkpt>
      <trkpt lat="43.98596" lon="5.14455">
        <ele>227.97</ele>
        <time>2015-12-21T14:00:25Z</time>
      </trkpt>
      <trkpt lat="43.98599" lon="5.14449">
        <ele>227.49</ele>
        <time>2015-12-21T14:00:26Z</time>
      </trkpt>
      <trkpt lat="43.986" lon="5.14442">
        <ele>227.49</ele>
        <time>2015-12-21T14:00:27Z</time>
      </trkpt>
      <trkpt lat="43.98602" lon="5.14436">
        <ele>227.01</ele>
        <time>2015-12-21T14:00:28Z</time>
      </trkpt>
      <trkpt lat="43.98603" lon="5.14429">
        <ele>227.01</ele>
        <time>2015-12-21T14:00:29Z</time>
      </trkpt>
      <trkpt lat="43.98613" lon="5.14379">
        <ele>227.01</ele>
        <time>2015-12-21T14:00:37Z</time>
      </trkpt>
      <trkpt lat="43.98626" lon="5.14348">
        <ele>226.53</ele>
        <time>2015-12-21T14:00:42Z</time>
      </trkpt>
      <trkpt lat="43.98638" lon="5.14328">
        <ele>226.05</ele>
        <time>2015-12-21T14:00:45Z</time>
      </trkpt>
      <trkpt lat="43.98642" lon="5.14323">
        <ele>226.05</ele>
        <time>2015-12-21T14:00:46Z</time>
      </trkpt>
      <trkpt lat="43.98657" lon="5.14306">
        <ele>225.57</ele>
        <time>2015-12-21T14:00:49Z</time>
      </trkpt>
      <trkpt lat="43.98664" lon="5.14301">
        <ele>225.09</ele>
        <time>2015-12-21T14:00:50Z</time>
      </trkpt>
      <trkpt lat="43.9867" lon="5.14297">
        <ele>224.61</ele>
        <time>2015-12-21T14:00:51Z</time>
      </trkpt>
      <trkpt lat="43.98703" lon="5.14276">
        <ele>223.64</ele>
        <time>2015-12-21T14:00:56Z</time>
      </trkpt>
      <trkpt lat="43.9871" lon="5.14274">
        <ele>223.64</ele>
        <time>2015-12-21T14:00:57Z</time>
      </trkpt>
      <trkpt lat="43.98716" lon="5.14272">
        <ele>223.16</ele>
        <time>2015-12-21T14:00:58Z</time>
      </trkpt>
      <trkpt lat="43.98722" lon="5.14271">
        <ele>223.64</ele>
        <time>2015-12-21T14:00:59Z</time>
      </trkpt>
      <trkpt lat="43.98728" lon="5.14271">
        <ele>223.64</ele>
        <time>2015-12-21T14:01:00Z</time>
      </trkpt>
      <trkpt lat="43.98734" lon="5.14272">
        <ele>224.12</ele>
        <time>2015-12-21T14:01:01Z</time>
      </trkpt>
      <trkpt lat="43.98738" lon="5.14274">
        <ele>224.12</ele>
        <time>2015-12-21T14:01:02Z</time>
      </trkpt>
      <trkpt lat="43.98747" lon="5.14275">
        <ele>224.12</ele>
        <time>2015-12-21T14:01:04Z</time>
      </trkpt>
      <trkpt lat="43.98781" lon="5.14274">
        <ele>224.12</ele>
        <time>2015-12-21T14:01:12Z</time>
      </trkpt>
      <trkpt lat="43.98799" lon="5.14269">
        <ele>224.12</ele>
        <time>2015-12-21T14:01:16Z</time>
      </trkpt>
      <trkpt lat="43.98804" lon="5.14267">
        <ele>224.61</ele>
        <time>2015-12-21T14:01:17Z</time>
      </trkpt>
      <trkpt lat="43.98832" lon="5.14242">
        <ele>224.61</ele>
        <time>2015-12-21T14:01:25Z</time>
      </trkpt>
      <trkpt lat="43.98837" lon="5.14234">
        <ele>224.61</ele>
        <time>2015-12-21T14:01:28Z</time>
      </trkpt>
      <trkpt lat="43.98836" lon="5.14231">
        <ele>225.09</ele>
        <time>2015-12-21T14:01:29Z</time>
      </trkpt>
      <trkpt lat="43.98835" lon="5.14228">
        <ele>224.61</ele>
        <time>2015-12-21T14:01:30Z</time>
      </trkpt>
      <trkpt lat="43.98826" lon="5.14207">
        <ele>225.57</ele>
        <time>2015-12-21T14:01:38Z</time>
      </trkpt>
      <trkpt lat="43.9882" lon="5.14193">
        <ele>226.53</ele>
        <time>2015-12-21T14:01:45Z</time>
      </trkpt>
      <trkpt lat="43.98816" lon="5.14182">
        <ele>227.49</ele>
        <time>2015-12-21T14:01:52Z</time>
      </trkpt>
      <trkpt lat="43.98813" lon="5.14175">
        <ele>228.45</ele>
        <time>2015-12-21T14:01:56Z</time>
      </trkpt>
      <trkpt lat="43.98811" lon="5.14174">
        <ele>228.45</ele>
        <time>2015-12-21T14:01:57Z</time>
      </trkpt>
      <trkpt lat="43.9881" lon="5.14173">
        <ele>228.93</ele>
        <time>2015-12-21T14:01:58Z</time>
      </trkpt>
      <trkpt lat="43.98799" lon="5.14167">
        <ele>230.37</ele>
        <time>2015-12-21T14:02:06Z</time>
      </trkpt>
      <trkpt lat="43.98797" lon="5.14167">
        <ele>230.85</ele>
        <time>2015-12-21T14:02:07Z</time>
      </trkpt>
      <trkpt lat="43.98786" lon="5.14168">
        <ele>232.3</ele>
        <time>2015-12-21T14:02:14Z</time>
      </trkpt>
      <trkpt lat="43.98774" lon="5.14168">
        <ele>233.74</ele>
        <time>2015-12-21T14:02:21Z</time>
      </trkpt>
      <trkpt lat="43.98767" lon="5.1417">
        <ele>234.7</ele>
        <time>2015-12-21T14:02:25Z</time>
      </trkpt>
      <trkpt lat="43.98754" lon="5.14173">
        <ele>236.14</ele>
        <time>2015-12-21T14:02:32Z</time>
      </trkpt>
      <trkpt lat="43.98741" lon="5.14179">
        <ele>238.06</ele>
        <time>2015-12-21T14:02:40Z</time>
      </trkpt>
      <trkpt lat="43.98739" lon="5.1418">
        <ele>238.06</ele>
        <time>2015-12-21T14:02:41Z</time>
      </trkpt>
      <trkpt lat="43.98737" lon="5.1418">
        <ele>238.54</ele>
        <time>2015-12-21T14:02:42Z</time>
      </trkpt>
      <trkpt lat="43.98736" lon="5.14181">
        <ele>238.54</ele>
        <time>2015-12-21T14:02:43Z</time>
      </trkpt>
      <trkpt lat="43.98734" lon="5.14182">
        <ele>238.54</ele>
        <time>2015-12-21T14:02:44Z</time>
      </trkpt>
      <trkpt lat="43.98732" lon="5.14183">
        <ele>238.54</ele>
        <time>2015-12-21T14:02:45Z</time>
      </trkpt>
      <trkpt lat="43.9873" lon="5.14184">
        <ele>239.02</ele>
        <time>2015-12-21T14:02:46Z</time>
      </trkpt>
      <trkpt lat="43.98728" lon="5.14185">
        <ele>239.51</ele>
        <time>2015-12-21T14:02:47Z</time>
      </trkpt>
      <trkpt lat="43.98726" lon="5.14186">
        <ele>239.51</ele>
        <time>2015-12-21T14:02:48Z</time>
      </trkpt>
      <trkpt lat="43.98724" lon="5.14187">
        <ele>239.51</ele>
        <time>2015-12-21T14:02:49Z</time>
      </trkpt>
      <trkpt lat="43.98722" lon="5.14188">
        <ele>239.99</ele>
        <time>2015-12-21T14:02:50Z</time>
      </trkpt>
      <trkpt lat="43.9872" lon="5.14188">
        <ele>239.99</ele>
        <time>2015-12-21T14:02:51Z</time>
      </trkpt>
      <trkpt lat="43.98719" lon="5.14188">
        <ele>240.47</ele>
        <time>2015-12-21T14:02:52Z</time>
      </trkpt>
      <trkpt lat="43.98717" lon="5.14189">
        <ele>240.47</ele>
        <time>2015-12-21T14:02:53Z</time>
      </trkpt>
      <trkpt lat="43.98715" lon="5.14189">
        <ele>240.47</ele>
        <time>2015-12-21T14:02:54Z</time>
      </trkpt>
      <trkpt lat="43.98713" lon="5.1419">
        <ele>240.47</ele>
        <time>2015-12-21T14:02:55Z</time>
      </trkpt>
      <trkpt lat="43.98711" lon="5.14191">
        <ele>240.95</ele>
        <time>2015-12-21T14:02:56Z</time>
      </trkpt>
      <trkpt lat="43.98698" lon="5.14198">
        <ele>241.91</ele>
        <time>2015-12-21T14:03:03Z</time>
      </trkpt>
      <trkpt lat="43.98685" lon="5.14202">
        <ele>243.83</ele>
        <time>2015-12-21T14:03:12Z</time>
      </trkpt>
      <trkpt lat="43.98674" lon="5.14205">
        <ele>245.27</ele>
        <time>2015-12-21T14:03:19Z</time>
      </trkpt>
      <trkpt lat="43.98672" lon="5.14205">
        <ele>245.27</ele>
        <time>2015-12-21T14:03:20Z</time>
      </trkpt>
      <trkpt lat="43.98671" lon="5.14206">
        <ele>245.27</ele>
        <time>2015-12-21T14:03:21Z</time>
      </trkpt>
      <trkpt lat="43.98669" lon="5.14206">
        <ele>245.75</ele>
        <time>2015-12-21T14:03:22Z</time>
      </trkpt>
      <trkpt lat="43.98668" lon="5.14207">
        <ele>245.75</ele>
        <time>2015-12-21T14:03:23Z</time>
      </trkpt>
      <trkpt lat="43.98654" lon="5.14206">
        <ele>247.68</ele>
        <time>2015-12-21T14:03:31Z</time>
      </trkpt>
      <trkpt lat="43.98642" lon="5.14197">
        <ele>248.64</ele>
        <time>2015-12-21T14:03:39Z</time>
      </trkpt>
      <trkpt lat="43.9864" lon="5.14195">
        <ele>248.64</ele>
        <time>2015-12-21T14:03:41Z</time>
      </trkpt>
      <trkpt lat="43.98638" lon="5.14195">
        <ele>248.64</ele>
        <time>2015-12-21T14:03:42Z</time>
      </trkpt>
      <trkpt lat="43.98637" lon="5.14194">
        <ele>248.64</ele>
        <time>2015-12-21T14:03:43Z</time>
      </trkpt>
      <trkpt lat="43.98635" lon="5.14191">
        <ele>249.12</ele>
        <time>2015-12-21T14:03:45Z</time>
      </trkpt>
      <trkpt lat="43.98634" lon="5.1419">
        <ele>249.6</ele>
        <time>2015-12-21T14:03:46Z</time>
      </trkpt>
      <trkpt lat="43.98632" lon="5.14186">
        <ele>250.08</ele>
        <time>2015-12-21T14:03:49Z</time>
      </trkpt>
      <trkpt lat="43.98633" lon="5.14181">
        <ele>249.6</ele>
        <time>2015-12-21T14:03:57Z</time>
      </trkpt>
      <trkpt lat="43.98632" lon="5.14181">
        <ele>249.6</ele>
        <time>2015-12-21T14:04:13Z</time>
      </trkpt>
      <trkpt lat="43.98631" lon="5.14181">
        <ele>249.6</ele>
        <time>2015-12-21T14:04:23Z</time>
      </trkpt>
      <trkpt lat="43.98631" lon="5.14182">
        <ele>249.6</ele>
        <time>2015-12-21T14:04:40Z</time>
      </trkpt>
      <trkpt lat="43.9863" lon="5.14183">
        <ele>249.6</ele>
        <time>2015-12-21T14:04:56Z</time>
      </trkpt>
      <trkpt lat="43.98631" lon="5.14183">
        <ele>249.6</ele>
        <time>2015-12-21T14:05:10Z</time>
      </trkpt>
      <trkpt lat="43.98631" lon="5.14183">
        <ele>249.6</ele>
        <time>2015-12-21T14:05:22Z</time>
      </trkpt>
      <trkpt lat="43.98632" lon="5.14183">
        <ele>249.6</ele>
        <time>2015-12-21T14:05:41Z</time>
      </trkpt>
      <trkpt lat="43.98633" lon="5.14185">
        <ele>249.6</ele>
        <time>2015-12-21T14:06:00Z</time>
      </trkpt>
      <trkpt lat="43.98633" lon="5.14185">
        <ele>249.6</ele>
        <time>2015-12-21T14:06:20Z</time>
      </trkpt>
      <trkpt lat="43.98634" lon="5.14184">
        <ele>249.6</ele>
        <time>2015-12-21T14:06:41Z</time>
      </trkpt>
      <trkpt lat="43.98634" lon="5.14184">
        <ele>249.12</ele>
        <time>2015-12-21T14:07:00Z</time>
      </trkpt>
      <trkpt lat="43.98634" lon="5.14184">
        <ele>249.12</ele>
        <time>2015-12-21T14:07:12Z</time>
      </trkpt>
      <trkpt lat="43.98634" lon="5.14184">
        <ele>249.12</ele>
        <time>2015-12-21T14:07:17Z</time>
      </trkpt>
      <trkpt lat="43.98636" lon="5.14184">
        <ele>249.12</ele>
        <time>2015-12-21T14:07:18Z</time>
      </trkpt>
      <trkpt lat="43.98638" lon="5.14185">
        <ele>249.12</ele>
        <time>2015-12-21T14:07:19Z</time>
      </trkpt>
      <trkpt lat="43.9864" lon="5.14187">
        <ele>249.12</ele>
        <time>2015-12-21T14:07:20Z</time>
      </trkpt>
      <trkpt lat="43.98643" lon="5.14189">
        <ele>248.64</ele>
        <time>2015-12-21T14:07:21Z</time>
      </trkpt>
      <trkpt lat="43.98645" lon="5.14191">
        <ele>248.16</ele>
        <time>2015-12-21T14:07:22Z</time>
      </trkpt>
      <trkpt lat="43.98647" lon="5.14194">
        <ele>247.68</ele>
        <time>2015-12-21T14:07:26Z</time>
      </trkpt>
      <trkpt lat="43.98647" lon="5.14197">
        <ele>247.68</ele>
        <time>2015-12-21T14:07:34Z</time>
      </trkpt>
      <trkpt lat="43.98636" lon="5.14195">
        <ele>246.23</ele>
        <time>2015-12-21T14:07:39Z</time>
      </trkpt>
      <trkpt lat="43.98627" lon="5.14197">
        <ele>244.79</ele>
        <time>2015-12-21T14:07:43Z</time>
      </trkpt>
      <trkpt lat="43.98627" lon="5.14199">
        <ele>243.83</ele>
        <time>2015-12-21T14:07:49Z</time>
      </trkpt>
      <trkpt lat="43.98627" lon="5.14197">
        <ele>243.83</ele>
        <time>2015-12-21T14:07:58Z</time>
      </trkpt>
      <trkpt lat="43.98626" lon="5.14196">
        <ele>243.83</ele>
        <time>2015-12-21T14:08:10Z</time>
      </trkpt>
      <trkpt lat="43.98626" lon="5.14195">
        <ele>243.83</ele>
        <time>2015-12-21T14:08:30Z</time>
      </trkpt>
      <trkpt lat="43.98626" lon="5.14195">
        <ele>243.83</ele>
        <time>2015-12-21T14:08:53Z</time>
      </trkpt>
      <trkpt lat="43.98626" lon="5.14195">
        <ele>243.83</ele>
        <time>2015-12-21T14:09:08Z</time>
      </trkpt>
      <trkpt lat="43.98625" lon="5.14195">
        <ele>243.83</ele>
        <time>2015-12-21T14:09:28Z</time>
      </trkpt>
      <trkpt lat="43.98624" lon="5.14193">
        <ele>243.83</ele>
        <time>2015-12-21T14:09:36Z</time>
      </trkpt>
      <trkpt lat="43.98624" lon="5.14188">
        <ele>244.79</ele>
        <time>2015-12-21T14:09:42Z</time>
      </trkpt>
      <trkpt lat="43.98624" lon="5.14187">
        <ele>245.27</ele>
        <time>2015-12-21T14:09:46Z</time>
      </trkpt>
      <trkpt lat="43.98633" lon="5.14186">
        <ele>246.23</ele>
        <time>2015-12-21T14:09:53Z</time>
      </trkpt>
      <trkpt lat="43.98636" lon="5.14186">
        <ele>246.72</ele>
        <time>2015-12-21T14:09:55Z</time>
      </trkpt>
      <trkpt lat="43.98639" lon="5.14187">
        <ele>246.72</ele>
        <time>2015-12-21T14:09:57Z</time>
      </trkpt>
      <trkpt lat="43.98642" lon="5.14186">
        <ele>247.68</ele>
        <time>2015-12-21T14:10:04Z</time>
      </trkpt>
      <trkpt lat="43.98637" lon="5.14185">
        <ele>248.64</ele>
        <time>2015-12-21T14:10:11Z</time>
      </trkpt>
      <trkpt lat="43.98628" lon="5.14179">
        <ele>250.08</ele>
        <time>2015-12-21T14:10:21Z</time>
      </trkpt>
      <trkpt lat="43.98627" lon="5.14178">
        <ele>250.08</ele>
        <time>2015-12-21T14:10:22Z</time>
      </trkpt>
      <trkpt lat="43.98621" lon="5.14175">
        <ele>251.04</ele>
        <time>2015-12-21T14:10:28Z</time>
      </trkpt>
      <trkpt lat="43.98613" lon="5.1417">
        <ele>252</ele>
        <time>2015-12-21T14:10:35Z</time>
      </trkpt>
      <trkpt lat="43.98606" lon="5.14164">
        <ele>252.96</ele>
        <time>2015-12-21T14:10:40Z</time>
      </trkpt>
      <trkpt lat="43.98599" lon="5.14156">
        <ele>253.44</ele>
        <time>2015-12-21T14:10:46Z</time>
      </trkpt>
      <trkpt lat="43.98588" lon="5.1415">
        <ele>254.41</ele>
        <time>2015-12-21T14:10:53Z</time>
      </trkpt>
      <trkpt lat="43.98586" lon="5.14149">
        <ele>254.89</ele>
        <time>2015-12-21T14:10:54Z</time>
      </trkpt>
      <trkpt lat="43.98576" lon="5.14145">
        <ele>256.81</ele>
        <time>2015-12-21T14:11:00Z</time>
      </trkpt>
      <trkpt lat="43.98563" lon="5.14141">
        <ele>258.25</ele>
        <time>2015-12-21T14:11:07Z</time>
      </trkpt>
      <trkpt lat="43.98546" lon="5.14142">
        <ele>260.17</ele>
        <time>2015-12-21T14:11:15Z</time>
      </trkpt>
      <trkpt lat="43.98528" lon="5.14146">
        <ele>262.58</ele>
        <time>2015-12-21T14:11:24Z</time>
      </trkpt>
      <trkpt lat="43.98515" lon="5.14148">
        <ele>264.5</ele>
        <time>2015-12-21T14:11:31Z</time>
      </trkpt>
      <trkpt lat="43.98504" lon="5.14155">
        <ele>265.94</ele>
        <time>2015-12-21T14:11:38Z</time>
      </trkpt>
      <trkpt lat="43.985" lon="5.14167">
        <ele>267.86</ele>
        <time>2015-12-21T14:11:45Z</time>
      </trkpt>
      <trkpt lat="43.98499" lon="5.14179">
        <ele>270.27</ele>
        <time>2015-12-21T14:11:56Z</time>
      </trkpt>
      <trkpt lat="43.98489" lon="5.14187">
        <ele>271.23</ele>
        <time>2015-12-21T14:12:02Z</time>
      </trkpt>
      <trkpt lat="43.98473" lon="5.14196">
        <ele>273.15</ele>
        <time>2015-12-21T14:12:11Z</time>
      </trkpt>
      <trkpt lat="43.98467" lon="5.14199">
        <ele>273.15</ele>
        <time>2015-12-21T14:12:18Z</time>
      </trkpt>
      <trkpt lat="43.98461" lon="5.14203">
        <ele>273.15</ele>
        <time>2015-12-21T14:12:25Z</time>
      </trkpt>
      <trkpt lat="43.9846" lon="5.14205">
        <ele>273.15</ele>
        <time>2015-12-21T14:12:28Z</time>
      </trkpt>
      <trkpt lat="43.98449" lon="5.1421">
        <ele>275.07</ele>
        <time>2015-12-21T14:12:36Z</time>
      </trkpt>
      <trkpt lat="43.98432" lon="5.14219">
        <ele>277</ele>
        <time>2015-12-21T14:12:46Z</time>
      </trkpt>
      <trkpt lat="43.98415" lon="5.14223">
        <ele>278.92</ele>
        <time>2015-12-21T14:12:55Z</time>
      </trkpt>
      <trkpt lat="43.98396" lon="5.1423">
        <ele>281.32</ele>
        <time>2015-12-21T14:13:05Z</time>
      </trkpt>
      <trkpt lat="43.98376" lon="5.14238">
        <ele>283.73</ele>
        <time>2015-12-21T14:13:14Z</time>
      </trkpt>
      <trkpt lat="43.98351" lon="5.14247">
        <ele>286.61</ele>
        <time>2015-12-21T14:13:24Z</time>
      </trkpt>
      <trkpt lat="43.98335" lon="5.14252">
        <ele>288.53</ele>
        <time>2015-12-21T14:13:31Z</time>
      </trkpt>
      <trkpt lat="43.98321" lon="5.14259">
        <ele>289.97</ele>
        <time>2015-12-21T14:13:38Z</time>
      </trkpt>
      <trkpt lat="43.98304" lon="5.14272">
        <ele>292.38</ele>
        <time>2015-12-21T14:13:49Z</time>
      </trkpt>
      <trkpt lat="43.98295" lon="5.14283">
        <ele>294.3</ele>
        <time>2015-12-21T14:13:57Z</time>
      </trkpt>
      <trkpt lat="43.98282" lon="5.14298">
        <ele>296.22</ele>
        <time>2015-12-21T14:14:06Z</time>
      </trkpt>
      <trkpt lat="43.98269" lon="5.14312">
        <ele>298.15</ele>
        <time>2015-12-21T14:14:14Z</time>
      </trkpt>
      <trkpt lat="43.98253" lon="5.1432">
        <ele>300.07</ele>
        <time>2015-12-21T14:14:22Z</time>
      </trkpt>
      <trkpt lat="43.98247" lon="5.14318">
        <ele>300.07</ele>
        <time>2015-12-21T14:14:24Z</time>
      </trkpt>
      <trkpt lat="43.98244" lon="5.14302">
        <ele>301.03</ele>
        <time>2015-12-21T14:14:30Z</time>
      </trkpt>
      <trkpt lat="43.98255" lon="5.1428">
        <ele>301.99</ele>
        <time>2015-12-21T14:14:38Z</time>
      </trkpt>
      <trkpt lat="43.9826" lon="5.14256">
        <ele>302.95</ele>
        <time>2015-12-21T14:14:46Z</time>
      </trkpt>
      <trkpt lat="43.98255" lon="5.1424">
        <ele>303.91</ele>
        <time>2015-12-21T14:14:53Z</time>
      </trkpt>
      <trkpt lat="43.98254" lon="5.14211">
        <ele>304.39</ele>
        <time>2015-12-21T14:15:01Z</time>
      </trkpt>
      <trkpt lat="43.98263" lon="5.14188">
        <ele>305.84</ele>
        <time>2015-12-21T14:15:08Z</time>
      </trkpt>
      <trkpt lat="43.98279" lon="5.14164">
        <ele>306.8</ele>
        <time>2015-12-21T14:15:17Z</time>
      </trkpt>
      <trkpt lat="43.98296" lon="5.14144">
        <ele>307.76</ele>
        <time>2015-12-21T14:15:26Z</time>
      </trkpt>
      <trkpt lat="43.98318" lon="5.14115">
        <ele>309.2</ele>
        <time>2015-12-21T14:15:37Z</time>
      </trkpt>
      <trkpt lat="43.98333" lon="5.14095">
        <ele>309.68</ele>
        <time>2015-12-21T14:15:44Z</time>
      </trkpt>
      <trkpt lat="43.98352" lon="5.1407">
        <ele>311.12</ele>
        <time>2015-12-21T14:15:53Z</time>
      </trkpt>
      <trkpt lat="43.98373" lon="5.14046">
        <ele>312.57</ele>
        <time>2015-12-21T14:16:02Z</time>
      </trkpt>
      <trkpt lat="43.98398" lon="5.14021">
        <ele>314.01</ele>
        <time>2015-12-21T14:16:12Z</time>
      </trkpt>
      <trkpt lat="43.98422" lon="5.14001">
        <ele>314.97</ele>
        <time>2015-12-21T14:16:21Z</time>
      </trkpt>
      <trkpt lat="43.98448" lon="5.13979">
        <ele>315.93</ele>
        <time>2015-12-21T14:16:31Z</time>
      </trkpt>
      <trkpt lat="43.9847" lon="5.13956">
        <ele>317.85</ele>
        <time>2015-12-21T14:16:41Z</time>
      </trkpt>
      <trkpt lat="43.98479" lon="5.13939">
        <ele>318.33</ele>
        <time>2015-12-21T14:16:48Z</time>
      </trkpt>
      <trkpt lat="43.98494" lon="5.1393">
        <ele>317.85</ele>
        <time>2015-12-21T14:16:54Z</time>
      </trkpt>
      <trkpt lat="43.98514" lon="5.13921">
        <ele>316.89</ele>
        <time>2015-12-21T14:17:01Z</time>
      </trkpt>
      <trkpt lat="43.98542" lon="5.13912">
        <ele>316.89</ele>
        <time>2015-12-21T14:17:08Z</time>
      </trkpt>
      <trkpt lat="43.98552" lon="5.1391">
        <ele>316.41</ele>
        <time>2015-12-21T14:17:10Z</time>
      </trkpt>
      <trkpt lat="43.98557" lon="5.13909">
        <ele>316.41</ele>
        <time>2015-12-21T14:17:11Z</time>
      </trkpt>
      <trkpt lat="43.98582" lon="5.13903">
        <ele>315.93</ele>
        <time>2015-12-21T14:17:16Z</time>
      </trkpt>
      <trkpt lat="43.98593" lon="5.13903">
        <ele>314.49</ele>
        <time>2015-12-21T14:17:18Z</time>
      </trkpt>
      <trkpt lat="43.98639" lon="5.13909">
        <ele>313.53</ele>
        <time>2015-12-21T14:17:27Z</time>
      </trkpt>
      <trkpt lat="43.9867" lon="5.13901">
        <ele>313.05</ele>
        <time>2015-12-21T14:17:34Z</time>
      </trkpt>
      <trkpt lat="43.98679" lon="5.13896">
        <ele>313.05</ele>
        <time>2015-12-21T14:17:36Z</time>
      </trkpt>
      <trkpt lat="43.98683" lon="5.13894">
        <ele>312.57</ele>
        <time>2015-12-21T14:17:37Z</time>
      </trkpt>
      <trkpt lat="43.98722" lon="5.13878">
        <ele>311.6</ele>
        <time>2015-12-21T14:17:46Z</time>
      </trkpt>
      <trkpt lat="43.98731" lon="5.13875">
        <ele>311.6</ele>
        <time>2015-12-21T14:17:48Z</time>
      </trkpt>
      <trkpt lat="43.9875" lon="5.13866">
        <ele>311.12</ele>
        <time>2015-12-21T14:17:52Z</time>
      </trkpt>
      <trkpt lat="43.98786" lon="5.13836">
        <ele>310.16</ele>
        <time>2015-12-21T14:18:00Z</time>
      </trkpt>
      <trkpt lat="43.98833" lon="5.13803">
        <ele>308.24</ele>
        <time>2015-12-21T14:18:09Z</time>
      </trkpt>
      <trkpt lat="43.98873" lon="5.13788">
        <ele>307.76</ele>
        <time>2015-12-21T14:18:16Z</time>
      </trkpt>
      <trkpt lat="43.98879" lon="5.13787">
        <ele>307.76</ele>
        <time>2015-12-21T14:18:17Z</time>
      </trkpt>
      <trkpt lat="43.98925" lon="5.1378">
        <ele>306.8</ele>
        <time>2015-12-21T14:18:25Z</time>
      </trkpt>
      <trkpt lat="43.98931" lon="5.1378">
        <ele>306.32</ele>
        <time>2015-12-21T14:18:26Z</time>
      </trkpt>
      <trkpt lat="43.9896" lon="5.13784">
        <ele>303.91</ele>
        <time>2015-12-21T14:18:31Z</time>
      </trkpt>
      <trkpt lat="43.98975" lon="5.1378">
        <ele>302.47</ele>
        <time>2015-12-21T14:18:35Z</time>
      </trkpt>
      <trkpt lat="43.98979" lon="5.13776">
        <ele>301.99</ele>
        <time>2015-12-21T14:18:36Z</time>
      </trkpt>
      <trkpt lat="43.99001" lon="5.13745">
        <ele>300.07</ele>
        <time>2015-12-21T14:18:42Z</time>
      </trkpt>
      <trkpt lat="43.99008" lon="5.13734">
        <ele>299.59</ele>
        <time>2015-12-21T14:18:44Z</time>
      </trkpt>
      <trkpt lat="43.99011" lon="5.13728">
        <ele>299.59</ele>
        <time>2015-12-21T14:18:45Z</time>
      </trkpt>
      <trkpt lat="43.99015" lon="5.13723">
        <ele>299.11</ele>
        <time>2015-12-21T14:18:46Z</time>
      </trkpt>
      <trkpt lat="43.99032" lon="5.13704">
        <ele>298.15</ele>
        <time>2015-12-21T14:18:50Z</time>
      </trkpt>
      <trkpt lat="43.99074" lon="5.13675">
        <ele>296.22</ele>
        <time>2015-12-21T14:18:58Z</time>
      </trkpt>
      <trkpt lat="43.99088" lon="5.13666">
        <ele>295.26</ele>
        <time>2015-12-21T14:19:00Z</time>
      </trkpt>
      <trkpt lat="43.99117" lon="5.13642">
        <ele>293.34</ele>
        <time>2015-12-21T14:19:05Z</time>
      </trkpt>
      <trkpt lat="43.99121" lon="5.13638">
        <ele>292.86</ele>
        <time>2015-12-21T14:19:06Z</time>
      </trkpt>
      <trkpt lat="43.99124" lon="5.13635">
        <ele>292.38</ele>
        <time>2015-12-21T14:19:07Z</time>
      </trkpt>
      <trkpt lat="43.99127" lon="5.13633">
        <ele>291.9</ele>
        <time>2015-12-21T14:19:11Z</time>
      </trkpt>
      <trkpt lat="43.99127" lon="5.13634">
        <ele>291.9</ele>
        <time>2015-12-21T14:19:25Z</time>
      </trkpt>
      <trkpt lat="43.99127" lon="5.13633">
        <ele>291.9</ele>
        <time>2015-12-21T14:19:44Z</time>
      </trkpt>
      <trkpt lat="43.99127" lon="5.13633">
        <ele>291.9</ele>
        <time>2015-12-21T14:19:55Z</time>
      </trkpt>
      <trkpt lat="43.99127" lon="5.13634">
        <ele>291.9</ele>
        <time>2015-12-21T14:20:12Z</time>
      </trkpt>
      <trkpt lat="43.99126" lon="5.13633">
        <ele>291.9</ele>
        <time>2015-12-21T14:20:29Z</time>
      </trkpt>
      <trkpt lat="43.99126" lon="5.13633">
        <ele>291.9</ele>
        <time>2015-12-21T14:20:50Z</time>
      </trkpt>
      <trkpt lat="43.99126" lon="5.13633">
        <ele>291.42</ele>
        <time>2015-12-21T14:21:10Z</time>
      </trkpt>
      <trkpt lat="43.99127" lon="5.13633">
        <ele>291.9</ele>
        <time>2015-12-21T14:21:26Z</time>
      </trkpt>
      <trkpt lat="43.99126" lon="5.13633">
        <ele>291.42</ele>
        <time>2015-12-21T14:21:45Z</time>
      </trkpt>
      <trkpt lat="43.99127" lon="5.13634">
        <ele>291.42</ele>
        <time>2015-12-21T14:22:02Z</time>
      </trkpt>
      <trkpt lat="43.99127" lon="5.13634">
        <ele>291.42</ele>
        <time>2015-12-21T14:22:21Z</time>
      </trkpt>
      <trkpt lat="43.99127" lon="5.13633">
        <ele>291.42</ele>
        <time>2015-12-21T14:22:34Z</time>
      </trkpt>
      <trkpt lat="43.99128" lon="5.13633">
        <ele>291.42</ele>
        <time>2015-12-21T14:22:35Z</time>
      </trkpt>
      <trkpt lat="43.99129" lon="5.13633">
        <ele>291.42</ele>
        <time>2015-12-21T14:22:36Z</time>
      </trkpt>
      <trkpt lat="43.99131" lon="5.13632">
        <ele>291.42</ele>
        <time>2015-12-21T14:22:37Z</time>
      </trkpt>
      <trkpt lat="43.99132" lon="5.13632">
        <ele>291.42</ele>
        <time>2015-12-21T14:22:38Z</time>
      </trkpt>
      <trkpt lat="43.99134" lon="5.13633">
        <ele>290.94</ele>
        <time>2015-12-21T14:22:39Z</time>
      </trkpt>
      <trkpt lat="43.99136" lon="5.13634">
        <ele>290.94</ele>
        <time>2015-12-21T14:22:40Z</time>
      </trkpt>
      <trkpt lat="43.99156" lon="5.13637">
        <ele>290.46</ele>
        <time>2015-12-21T14:22:47Z</time>
      </trkpt>
      <trkpt lat="43.99171" lon="5.13634">
        <ele>289.49</ele>
        <time>2015-12-21T14:22:51Z</time>
      </trkpt>
      <trkpt lat="43.99187" lon="5.13631">
        <ele>289.01</ele>
        <time>2015-12-21T14:22:54Z</time>
      </trkpt>
      <trkpt lat="43.99206" lon="5.13631">
        <ele>288.53</ele>
        <time>2015-12-21T14:22:58Z</time>
      </trkpt>
      <trkpt lat="43.9923" lon="5.13629">
        <ele>288.05</ele>
        <time>2015-12-21T14:23:04Z</time>
      </trkpt>
      <trkpt lat="43.99249" lon="5.13634">
        <ele>287.57</ele>
        <time>2015-12-21T14:23:10Z</time>
      </trkpt>
      <trkpt lat="43.99273" lon="5.13641">
        <ele>287.09</ele>
        <time>2015-12-21T14:23:16Z</time>
      </trkpt>
      <trkpt lat="43.99305" lon="5.13647">
        <ele>285.65</ele>
        <time>2015-12-21T14:23:23Z</time>
      </trkpt>
      <trkpt lat="43.99348" lon="5.13657">
        <ele>283.73</ele>
        <time>2015-12-21T14:23:31Z</time>
      </trkpt>
      <trkpt lat="43.99353" lon="5.13658">
        <ele>283.25</ele>
        <time>2015-12-21T14:23:32Z</time>
      </trkpt>
      <trkpt lat="43.99373" lon="5.13661">
        <ele>282.77</ele>
        <time>2015-12-21T14:23:36Z</time>
      </trkpt>
      <trkpt lat="43.99378" lon="5.13663">
        <ele>282.28</ele>
        <time>2015-12-21T14:23:37Z</time>
      </trkpt>
      <trkpt lat="43.99382" lon="5.13665">
        <ele>282.28</ele>
        <time>2015-12-21T14:23:38Z</time>
      </trkpt>
      <trkpt lat="43.99386" lon="5.13667">
        <ele>282.28</ele>
        <time>2015-12-21T14:23:39Z</time>
      </trkpt>
      <trkpt lat="43.99389" lon="5.13668">
        <ele>281.8</ele>
        <time>2015-12-21T14:23:40Z</time>
      </trkpt>
      <trkpt lat="43.99391" lon="5.13669">
        <ele>281.32</ele>
        <time>2015-12-21T14:23:41Z</time>
      </trkpt>
      <trkpt lat="43.99394" lon="5.13671">
        <ele>281.32</ele>
        <time>2015-12-21T14:23:46Z</time>
      </trkpt>
      <trkpt lat="43.99394" lon="5.13672">
        <ele>281.32</ele>
        <time>2015-12-21T14:23:57Z</time>
      </trkpt>
      <trkpt lat="43.99394" lon="5.13672">
        <ele>281.32</ele>
        <time>2015-12-21T14:24:16Z</time>
      </trkpt>
      <trkpt lat="43.99394" lon="5.13672">
        <ele>281.32</ele>
        <time>2015-12-21T14:24:29Z</time>
      </trkpt>
      <trkpt lat="43.99396" lon="5.13672">
        <ele>281.32</ele>
        <time>2015-12-21T14:24:49Z</time>
      </trkpt>
      <trkpt lat="43.99396" lon="5.13671">
        <ele>281.32</ele>
        <time>2015-12-21T14:25:07Z</time>
      </trkpt>
      <trkpt lat="43.99398" lon="5.13666">
        <ele>281.32</ele>
        <time>2015-12-21T14:25:12Z</time>
      </trkpt>
      <trkpt lat="43.99399" lon="5.13666">
        <ele>281.32</ele>
        <time>2015-12-21T14:25:13Z</time>
      </trkpt>
      <trkpt lat="43.99405" lon="5.13668">
        <ele>281.32</ele>
        <time>2015-12-21T14:25:17Z</time>
      </trkpt>
      <trkpt lat="43.99425" lon="5.13682">
        <ele>281.32</ele>
        <time>2015-12-21T14:25:25Z</time>
      </trkpt>
      <trkpt lat="43.99452" lon="5.13691">
        <ele>280.84</ele>
        <time>2015-12-21T14:25:33Z</time>
      </trkpt>
      <trkpt lat="43.99483" lon="5.13705">
        <ele>279.88</ele>
        <time>2015-12-21T14:25:42Z</time>
      </trkpt>
      <trkpt lat="43.99499" lon="5.13715">
        <ele>279.4</ele>
        <time>2015-12-21T14:25:48Z</time>
      </trkpt>
      <trkpt lat="43.99499" lon="5.13718">
        <ele>279.4</ele>
        <time>2015-12-21T14:25:51Z</time>
      </trkpt>
      <trkpt lat="43.99502" lon="5.13736">
        <ele>279.88</ele>
        <time>2015-12-21T14:25:57Z</time>
      </trkpt>
      <trkpt lat="43.99503" lon="5.13741">
        <ele>279.88</ele>
        <time>2015-12-21T14:26:02Z</time>
      </trkpt>
      <trkpt lat="43.99502" lon="5.13742">
        <ele>279.4</ele>
        <time>2015-12-21T14:26:09Z</time>
      </trkpt>
      <trkpt lat="43.99497" lon="5.13752">
        <ele>279.88</ele>
        <time>2015-12-21T14:26:14Z</time>
      </trkpt>
      <trkpt lat="43.99495" lon="5.13759">
        <ele>279.88</ele>
        <time>2015-12-21T14:26:16Z</time>
      </trkpt>
      <trkpt lat="43.99489" lon="5.13771">
        <ele>279.4</ele>
        <time>2015-12-21T14:26:19Z</time>
      </trkpt>
      <trkpt lat="43.99489" lon="5.13791">
        <ele>277.48</ele>
        <time>2015-12-21T14:26:24Z</time>
      </trkpt>
      <trkpt lat="43.99487" lon="5.13795">
        <ele>277</ele>
        <time>2015-12-21T14:26:29Z</time>
      </trkpt>
      <trkpt lat="43.99487" lon="5.13795">
        <ele>277</ele>
        <time>2015-12-21T14:26:43Z</time>
      </trkpt>
      <trkpt lat="43.99486" lon="5.13795">
        <ele>277</ele>
        <time>2015-12-21T14:26:51Z</time>
      </trkpt>
      <trkpt lat="43.99486" lon="5.13794">
        <ele>277</ele>
        <time>2015-12-21T14:27:00Z</time>
      </trkpt>
      <trkpt lat="43.99487" lon="5.13791">
        <ele>277.48</ele>
        <time>2015-12-21T14:27:11Z</time>
      </trkpt>
      <trkpt lat="43.99487" lon="5.13789">
        <ele>277.48</ele>
        <time>2015-12-21T14:27:12Z</time>
      </trkpt>
      <trkpt lat="43.99489" lon="5.13785">
        <ele>277.48</ele>
        <time>2015-12-21T14:27:14Z</time>
      </trkpt>
      <trkpt lat="43.99486" lon="5.13769">
        <ele>278.92</ele>
        <time>2015-12-21T14:27:20Z</time>
      </trkpt>
      <trkpt lat="43.99494" lon="5.13747">
        <ele>279.88</ele>
        <time>2015-12-21T14:27:26Z</time>
      </trkpt>
      <trkpt lat="43.99495" lon="5.13743">
        <ele>279.88</ele>
        <time>2015-12-21T14:27:27Z</time>
      </trkpt>
      <trkpt lat="43.99502" lon="5.13719">
        <ele>279.88</ele>
        <time>2015-12-21T14:27:33Z</time>
      </trkpt>
      <trkpt lat="43.99518" lon="5.13717">
        <ele>278.92</ele>
        <time>2015-12-21T14:27:39Z</time>
      </trkpt>
      <trkpt lat="43.99538" lon="5.13724">
        <ele>277.96</ele>
        <time>2015-12-21T14:27:46Z</time>
      </trkpt>
      <trkpt lat="43.99549" lon="5.13731">
        <ele>277.48</ele>
        <time>2015-12-21T14:27:49Z</time>
      </trkpt>
      <trkpt lat="43.99553" lon="5.13733">
        <ele>277</ele>
        <time>2015-12-21T14:27:50Z</time>
      </trkpt>
      <trkpt lat="43.9956" lon="5.13739">
        <ele>277</ele>
        <time>2015-12-21T14:27:52Z</time>
      </trkpt>
      <trkpt lat="43.99564" lon="5.13741">
        <ele>277</ele>
        <time>2015-12-21T14:27:53Z</time>
      </trkpt>
      <trkpt lat="43.99568" lon="5.13742">
        <ele>276.52</ele>
        <time>2015-12-21T14:27:54Z</time>
      </trkpt>
      <trkpt lat="43.9958" lon="5.13743">
        <ele>275.56</ele>
        <time>2015-12-21T14:27:58Z</time>
      </trkpt>
      <trkpt lat="43.99584" lon="5.13744">
        <ele>275.56</ele>
        <time>2015-12-21T14:27:59Z</time>
      </trkpt>
      <trkpt lat="43.99588" lon="5.13747">
        <ele>275.07</ele>
        <time>2015-12-21T14:28:00Z</time>
      </trkpt>
      <trkpt lat="43.99599" lon="5.13754">
        <ele>274.11</ele>
        <time>2015-12-21T14:28:05Z</time>
      </trkpt>
      <trkpt lat="43.996" lon="5.13756">
        <ele>274.11</ele>
        <time>2015-12-21T14:28:13Z</time>
      </trkpt>
      <trkpt lat="43.996" lon="5.13756">
        <ele>273.63</ele>
        <time>2015-12-21T14:28:30Z</time>
      </trkpt>
      <trkpt lat="43.996" lon="5.13756">
        <ele>274.11</ele>
        <time>2015-12-21T14:28:49Z</time>
      </trkpt>
      <trkpt lat="43.996" lon="5.13756">
        <ele>274.11</ele>
        <time>2015-12-21T14:29:02Z</time>
      </trkpt>
      <trkpt lat="43.996" lon="5.13756">
        <ele>274.11</ele>
        <time>2015-12-21T14:29:19Z</time>
      </trkpt>
      <trkpt lat="43.996" lon="5.13757">
        <ele>274.11</ele>
        <time>2015-12-21T14:29:36Z</time>
      </trkpt>
      <trkpt lat="43.99601" lon="5.13756">
        <ele>274.11</ele>
        <time>2015-12-21T14:29:54Z</time>
      </trkpt>
      <trkpt lat="43.99602" lon="5.13757">
        <ele>274.59</ele>
        <time>2015-12-21T14:30:05Z</time>
      </trkpt>
      <trkpt lat="43.99602" lon="5.13758">
        <ele>274.11</ele>
        <time>2015-12-21T14:30:19Z</time>
      </trkpt>
      <trkpt lat="43.99602" lon="5.13759">
        <ele>274.11</ele>
        <time>2015-12-21T14:30:32Z</time>
      </trkpt>
      <trkpt lat="43.99602" lon="5.13759">
        <ele>274.11</ele>
        <time>2015-12-21T14:30:46Z</time>
      </trkpt>
      <trkpt lat="43.99602" lon="5.13759">
        <ele>274.11</ele>
        <time>2015-12-21T14:31:03Z</time>
      </trkpt>
      <trkpt lat="43.99602" lon="5.13759">
        <ele>274.11</ele>
        <time>2015-12-21T14:31:13Z</time>
      </trkpt>
      <trkpt lat="43.99602" lon="5.13759">
        <ele>273.63</ele>
        <time>2015-12-21T14:31:21Z</time>
      </trkpt>
      <trkpt lat="43.99601" lon="5.13758">
        <ele>273.63</ele>
        <time>2015-12-21T14:31:33Z</time>
      </trkpt>
      <trkpt lat="43.99601" lon="5.13758">
        <ele>274.11</ele>
        <time>2015-12-21T14:31:45Z</time>
      </trkpt>
      <trkpt lat="43.99602" lon="5.13756">
        <ele>274.11</ele>
        <time>2015-12-21T14:31:54Z</time>
      </trkpt>
      <trkpt lat="43.99603" lon="5.13753">
        <ele>274.11</ele>
        <time>2015-12-21T14:31:58Z</time>
      </trkpt>
      <trkpt lat="43.99604" lon="5.13749">
        <ele>274.11</ele>
        <time>2015-12-21T14:32:01Z</time>
      </trkpt>
      <trkpt lat="43.99605" lon="5.13743">
        <ele>275.07</ele>
        <time>2015-12-21T14:32:07Z</time>
      </trkpt>
      <trkpt lat="43.99605" lon="5.13742">
        <ele>275.07</ele>
        <time>2015-12-21T14:32:17Z</time>
      </trkpt>
      <trkpt lat="43.99605" lon="5.13741">
        <ele>275.07</ele>
        <time>2015-12-21T14:32:27Z</time>
      </trkpt>
      <trkpt lat="43.99605" lon="5.1374">
        <ele>275.07</ele>
        <time>2015-12-21T14:32:40Z</time>
      </trkpt>
      <trkpt lat="43.99605" lon="5.1374">
        <ele>275.07</ele>
        <time>2015-12-21T14:32:50Z</time>
      </trkpt>
      <trkpt lat="43.99604" lon="5.13741">
        <ele>275.07</ele>
        <time>2015-12-21T14:33:01Z</time>
      </trkpt>
      <trkpt lat="43.99604" lon="5.1374">
        <ele>275.07</ele>
        <time>2015-12-21T14:33:17Z</time>
      </trkpt>
      <trkpt lat="43.99604" lon="5.1374">
        <ele>275.07</ele>
        <time>2015-12-21T14:33:29Z</time>
      </trkpt>
      <trkpt lat="43.99604" lon="5.1374">
        <ele>274.59</ele>
        <time>2015-12-21T14:33:42Z</time>
      </trkpt>
      <trkpt lat="43.99604" lon="5.1374">
        <ele>275.56</ele>
        <time>2015-12-21T14:33:50Z</time>
      </trkpt>
      <trkpt lat="43.99604" lon="5.1374">
        <ele>274.59</ele>
        <time>2015-12-21T14:34:00Z</time>
      </trkpt>
      <trkpt lat="43.99604" lon="5.1374">
        <ele>274.59</ele>
        <time>2015-12-21T14:34:11Z</time>
      </trkpt>
      <trkpt lat="43.99604" lon="5.13741">
        <ele>274.59</ele>
        <time>2015-12-21T14:34:21Z</time>
      </trkpt>
      <trkpt lat="43.99605" lon="5.13741">
        <ele>274.59</ele>
        <time>2015-12-21T14:34:30Z</time>
      </trkpt>
      <trkpt lat="43.99603" lon="5.13746">
        <ele>274.59</ele>
        <time>2015-12-21T14:34:37Z</time>
      </trkpt>
      <trkpt lat="43.99603" lon="5.13747">
        <ele>274.59</ele>
        <time>2015-12-21T14:34:48Z</time>
      </trkpt>
      <trkpt lat="43.99604" lon="5.13746">
        <ele>274.59</ele>
        <time>2015-12-21T14:34:54Z</time>
      </trkpt>
      <trkpt lat="43.99604" lon="5.13742">
        <ele>274.59</ele>
        <time>2015-12-21T14:34:59Z</time>
      </trkpt>
      <trkpt lat="43.99603" lon="5.13741">
        <ele>274.59</ele>
        <time>2015-12-21T14:35:00Z</time>
      </trkpt>
      <trkpt lat="43.99602" lon="5.13739">
        <ele>274.59</ele>
        <time>2015-12-21T14:35:01Z</time>
      </trkpt>
      <trkpt lat="43.99596" lon="5.13725">
        <ele>275.07</ele>
        <time>2015-12-21T14:35:07Z</time>
      </trkpt>
      <trkpt lat="43.99597" lon="5.13721">
        <ele>274.59</ele>
        <time>2015-12-21T14:35:08Z</time>
      </trkpt>
      <trkpt lat="43.996" lon="5.13704">
        <ele>274.59</ele>
        <time>2015-12-21T14:35:11Z</time>
      </trkpt>
      <trkpt lat="43.99603" lon="5.13685">
        <ele>274.11</ele>
        <time>2015-12-21T14:35:14Z</time>
      </trkpt>
      <trkpt lat="43.99607" lon="5.13673">
        <ele>273.63</ele>
        <time>2015-12-21T14:35:16Z</time>
      </trkpt>
      <trkpt lat="43.99611" lon="5.1367">
        <ele>273.63</ele>
        <time>2015-12-21T14:35:17Z</time>
      </trkpt>
      <trkpt lat="43.9962" lon="5.13665">
        <ele>273.15</ele>
        <time>2015-12-21T14:35:19Z</time>
      </trkpt>
      <trkpt lat="43.99624" lon="5.13663">
        <ele>272.67</ele>
        <time>2015-12-21T14:35:20Z</time>
      </trkpt>
      <trkpt lat="43.99627" lon="5.13662">
        <ele>271.71</ele>
        <time>2015-12-21T14:35:21Z</time>
      </trkpt>
      <trkpt lat="43.99631" lon="5.1366">
        <ele>271.71</ele>
        <time>2015-12-21T14:35:22Z</time>
      </trkpt>
      <trkpt lat="43.99634" lon="5.13659">
        <ele>271.23</ele>
        <time>2015-12-21T14:35:23Z</time>
      </trkpt>
      <trkpt lat="43.99637" lon="5.13656">
        <ele>271.23</ele>
        <time>2015-12-21T14:35:24Z</time>
      </trkpt>
      <trkpt lat="43.99641" lon="5.13654">
        <ele>271.23</ele>
        <time>2015-12-21T14:35:25Z</time>
      </trkpt>
      <trkpt lat="43.99648" lon="5.13649">
        <ele>269.79</ele>
        <time>2015-12-21T14:35:29Z</time>
      </trkpt>
      <trkpt lat="43.9965" lon="5.13648">
        <ele>269.79</ele>
        <time>2015-12-21T14:35:43Z</time>
      </trkpt>
      <trkpt lat="43.99652" lon="5.13647">
        <ele>269.79</ele>
        <time>2015-12-21T14:35:44Z</time>
      </trkpt>
      <trkpt lat="43.9967" lon="5.13643">
        <ele>268.83</ele>
        <time>2015-12-21T14:35:49Z</time>
      </trkpt>
      <trkpt lat="43.99675" lon="5.13644">
        <ele>268.35</ele>
        <time>2015-12-21T14:35:50Z</time>
      </trkpt>
      <trkpt lat="43.99679" lon="5.13645">
        <ele>268.35</ele>
        <time>2015-12-21T14:35:51Z</time>
      </trkpt>
      <trkpt lat="43.99683" lon="5.13646">
        <ele>268.35</ele>
        <time>2015-12-21T14:35:52Z</time>
      </trkpt>
      <trkpt lat="43.99687" lon="5.13646">
        <ele>267.86</ele>
        <time>2015-12-21T14:35:53Z</time>
      </trkpt>
      <trkpt lat="43.99691" lon="5.13646">
        <ele>267.86</ele>
        <time>2015-12-21T14:35:54Z</time>
      </trkpt>
      <trkpt lat="43.99695" lon="5.13644">
        <ele>267.86</ele>
        <time>2015-12-21T14:35:55Z</time>
      </trkpt>
      <trkpt lat="43.99698" lon="5.13641">
        <ele>267.86</ele>
        <time>2015-12-21T14:35:56Z</time>
      </trkpt>
      <trkpt lat="43.99702" lon="5.13638">
        <ele>267.38</ele>
        <time>2015-12-21T14:35:57Z</time>
      </trkpt>
      <trkpt lat="43.99722" lon="5.1362">
        <ele>267.38</ele>
        <time>2015-12-21T14:36:02Z</time>
      </trkpt>
      <trkpt lat="43.99727" lon="5.13618">
        <ele>266.9</ele>
        <time>2015-12-21T14:36:03Z</time>
      </trkpt>
      <trkpt lat="43.99732" lon="5.13618">
        <ele>266.9</ele>
        <time>2015-12-21T14:36:04Z</time>
      </trkpt>
      <trkpt lat="43.99757" lon="5.13618">
        <ele>266.9</ele>
        <time>2015-12-21T14:36:09Z</time>
      </trkpt>
      <trkpt lat="43.99761" lon="5.13617">
        <ele>266.42</ele>
        <time>2015-12-21T14:36:10Z</time>
      </trkpt>
      <trkpt lat="43.99764" lon="5.13616">
        <ele>266.9</ele>
        <time>2015-12-21T14:36:14Z</time>
      </trkpt>
      <trkpt lat="43.99764" lon="5.13618">
        <ele>263.06</ele>
        <time>2015-12-21T14:36:22Z</time>
      </trkpt>
      <trkpt lat="43.99764" lon="5.13618">
        <ele>269.31</ele>
        <time>2015-12-21T14:36:23Z</time>
      </trkpt>
      <trkpt lat="43.99764" lon="5.13619">
        <ele>265.94</ele>
        <time>2015-12-21T14:36:31Z</time>
      </trkpt>
      <trkpt lat="43.99765" lon="5.13619">
        <ele>266.9</ele>
        <time>2015-12-21T14:36:47Z</time>
      </trkpt>
      <trkpt lat="43.99765" lon="5.1362">
        <ele>266.9</ele>
        <time>2015-12-21T14:37:03Z</time>
      </trkpt>
      <trkpt lat="43.99765" lon="5.1362">
        <ele>266.9</ele>
        <time>2015-12-21T14:37:13Z</time>
      </trkpt>
      <trkpt lat="43.99765" lon="5.13621">
        <ele>266.42</ele>
        <time>2015-12-21T14:37:23Z</time>
      </trkpt>
      <trkpt lat="43.99766" lon="5.1362">
        <ele>266.42</ele>
        <time>2015-12-21T14:37:30Z</time>
      </trkpt>
      <trkpt lat="43.99771" lon="5.13621">
        <ele>266.42</ele>
        <time>2015-12-21T14:37:33Z</time>
      </trkpt>
      <trkpt lat="43.99774" lon="5.13623">
        <ele>266.9</ele>
        <time>2015-12-21T14:37:34Z</time>
      </trkpt>
      <trkpt lat="43.99776" lon="5.13625">
        <ele>266.9</ele>
        <time>2015-12-21T14:37:35Z</time>
      </trkpt>
      <trkpt lat="43.99779" lon="5.13628">
        <ele>266.42</ele>
        <time>2015-12-21T14:37:36Z</time>
      </trkpt>
      <trkpt lat="43.99781" lon="5.13632">
        <ele>266.42</ele>
        <time>2015-12-21T14:37:37Z</time>
      </trkpt>
      <trkpt lat="43.99783" lon="5.13636">
        <ele>266.42</ele>
        <time>2015-12-21T14:37:38Z</time>
      </trkpt>
      <trkpt lat="43.99786" lon="5.13639">
        <ele>265.94</ele>
        <time>2015-12-21T14:37:39Z</time>
      </trkpt>
      <trkpt lat="43.99788" lon="5.13642">
        <ele>265.94</ele>
        <time>2015-12-21T14:37:40Z</time>
      </trkpt>
      <trkpt lat="43.99789" lon="5.13644">
        <ele>265.46</ele>
        <time>2015-12-21T14:37:41Z</time>
      </trkpt>
      <trkpt lat="43.9979" lon="5.13645">
        <ele>265.46</ele>
        <time>2015-12-21T14:37:42Z</time>
      </trkpt>
      <trkpt lat="43.9979" lon="5.13647">
        <ele>265.46</ele>
        <time>2015-12-21T14:37:43Z</time>
      </trkpt>
      <trkpt lat="43.99791" lon="5.13649">
        <ele>265.46</ele>
        <time>2015-12-21T14:37:44Z</time>
      </trkpt>
      <trkpt lat="43.9979" lon="5.13652">
        <ele>265.46</ele>
        <time>2015-12-21T14:37:45Z</time>
      </trkpt>
      <trkpt lat="43.9979" lon="5.13656">
        <ele>265.46</ele>
        <time>2015-12-21T14:37:46Z</time>
      </trkpt>
      <trkpt lat="43.99788" lon="5.13659">
        <ele>264.98</ele>
        <time>2015-12-21T14:37:47Z</time>
      </trkpt>
      <trkpt lat="43.99787" lon="5.13662">
        <ele>264.98</ele>
        <time>2015-12-21T14:37:48Z</time>
      </trkpt>
      <trkpt lat="43.99784" lon="5.13665">
        <ele>264.98</ele>
        <time>2015-12-21T14:37:49Z</time>
      </trkpt>
      <trkpt lat="43.99782" lon="5.13669">
        <ele>264.5</ele>
        <time>2015-12-21T14:37:50Z</time>
      </trkpt>
      <trkpt lat="43.99773" lon="5.13681">
        <ele>264.5</ele>
        <time>2015-12-21T14:37:54Z</time>
      </trkpt>
      <trkpt lat="43.99773" lon="5.13683">
        <ele>264.02</ele>
        <time>2015-12-21T14:37:55Z</time>
      </trkpt>
      <trkpt lat="43.99775" lon="5.13682">
        <ele>264.02</ele>
        <time>2015-12-21T14:37:57Z</time>
      </trkpt>
      <trkpt lat="43.99777" lon="5.13682">
        <ele>264.02</ele>
        <time>2015-12-21T14:37:58Z</time>
      </trkpt>
      <trkpt lat="43.99778" lon="5.13684">
        <ele>263.54</ele>
        <time>2015-12-21T14:37:59Z</time>
      </trkpt>
      <trkpt lat="43.9978" lon="5.13688">
        <ele>263.54</ele>
        <time>2015-12-21T14:38:00Z</time>
      </trkpt>
      <trkpt lat="43.99781" lon="5.13692">
        <ele>263.06</ele>
        <time>2015-12-21T14:38:01Z</time>
      </trkpt>
      <trkpt lat="43.99783" lon="5.13696">
        <ele>262.58</ele>
        <time>2015-12-21T14:38:02Z</time>
      </trkpt>
      <trkpt lat="43.99792" lon="5.13714">
        <ele>262.1</ele>
        <time>2015-12-21T14:38:06Z</time>
      </trkpt>
      <trkpt lat="43.99795" lon="5.13719">
        <ele>262.1</ele>
        <time>2015-12-21T14:38:07Z</time>
      </trkpt>
      <trkpt lat="43.9981" lon="5.13736">
        <ele>260.65</ele>
        <time>2015-12-21T14:38:12Z</time>
      </trkpt>
      <trkpt lat="43.99815" lon="5.13735">
        <ele>260.17</ele>
        <time>2015-12-21T14:38:13Z</time>
      </trkpt>
      <trkpt lat="43.99819" lon="5.13733">
        <ele>260.17</ele>
        <time>2015-12-21T14:38:14Z</time>
      </trkpt>
      <trkpt lat="43.99823" lon="5.1373">
        <ele>259.21</ele>
        <time>2015-12-21T14:38:15Z</time>
      </trkpt>
      <trkpt lat="43.99827" lon="5.13727">
        <ele>259.69</ele>
        <time>2015-12-21T14:38:16Z</time>
      </trkpt>
      <trkpt lat="43.99831" lon="5.13724">
        <ele>259.21</ele>
        <time>2015-12-21T14:38:17Z</time>
      </trkpt>
      <trkpt lat="43.99836" lon="5.13722">
        <ele>259.69</ele>
        <time>2015-12-21T14:38:18Z</time>
      </trkpt>
      <trkpt lat="43.99859" lon="5.13711">
        <ele>258.73</ele>
        <time>2015-12-21T14:38:23Z</time>
      </trkpt>
      <trkpt lat="43.99897" lon="5.1369">
        <ele>258.25</ele>
        <time>2015-12-21T14:38:32Z</time>
      </trkpt>
      <trkpt lat="43.99905" lon="5.13685">
        <ele>258.25</ele>
        <time>2015-12-21T14:38:34Z</time>
      </trkpt>
      <trkpt lat="43.9991" lon="5.13683">
        <ele>258.73</ele>
        <time>2015-12-21T14:38:35Z</time>
      </trkpt>
      <trkpt lat="43.99938" lon="5.13671">
        <ele>258.25</ele>
        <time>2015-12-21T14:38:42Z</time>
      </trkpt>
      <trkpt lat="43.99942" lon="5.13668">
        <ele>258.25</ele>
        <time>2015-12-21T14:38:43Z</time>
      </trkpt>
      <trkpt lat="43.99946" lon="5.13667">
        <ele>258.25</ele>
        <time>2015-12-21T14:38:44Z</time>
      </trkpt>
      <trkpt lat="43.9995" lon="5.13666">
        <ele>257.77</ele>
        <time>2015-12-21T14:38:45Z</time>
      </trkpt>
      <trkpt lat="43.99954" lon="5.13667">
        <ele>257.77</ele>
        <time>2015-12-21T14:38:46Z</time>
      </trkpt>
      <trkpt lat="43.99958" lon="5.13668">
        <ele>257.77</ele>
        <time>2015-12-21T14:38:47Z</time>
      </trkpt>
      <trkpt lat="43.99961" lon="5.1367">
        <ele>257.29</ele>
        <time>2015-12-21T14:38:48Z</time>
      </trkpt>
      <trkpt lat="43.99964" lon="5.13671">
        <ele>256.81</ele>
        <time>2015-12-21T14:38:49Z</time>
      </trkpt>
      <trkpt lat="43.99967" lon="5.13672">
        <ele>256.81</ele>
        <time>2015-12-21T14:38:50Z</time>
      </trkpt>
      <trkpt lat="43.9997" lon="5.13672">
        <ele>256.81</ele>
        <time>2015-12-21T14:38:51Z</time>
      </trkpt>
      <trkpt lat="43.99977" lon="5.13672">
        <ele>256.33</ele>
        <time>2015-12-21T14:38:54Z</time>
      </trkpt>
      <trkpt lat="43.99995" lon="5.13676">
        <ele>255.37</ele>
        <time>2015-12-21T14:39:00Z</time>
      </trkpt>
      <trkpt lat="44.00005" lon="5.13707">
        <ele>254.41</ele>
        <time>2015-12-21T14:39:06Z</time>
      </trkpt>
      <trkpt lat="44.00014" lon="5.13715">
        <ele>254.41</ele>
        <time>2015-12-21T14:39:10Z</time>
      </trkpt>
      <trkpt lat="44.00017" lon="5.13714">
        <ele>253.93</ele>
        <time>2015-12-21T14:39:11Z</time>
      </trkpt>
      <trkpt lat="44.00036" lon="5.13694">
        <ele>253.44</ele>
        <time>2015-12-21T14:39:17Z</time>
      </trkpt>
      <trkpt lat="44.00069" lon="5.13652">
        <ele>253.44</ele>
        <time>2015-12-21T14:39:25Z</time>
      </trkpt>
      <trkpt lat="44.00095" lon="5.13605">
        <ele>251.52</ele>
        <time>2015-12-21T14:39:33Z</time>
      </trkpt>
      <trkpt lat="44.001" lon="5.13593">
        <ele>251.04</ele>
        <time>2015-12-21T14:39:35Z</time>
      </trkpt>
      <trkpt lat="44.00102" lon="5.13587">
        <ele>250.56</ele>
        <time>2015-12-21T14:39:36Z</time>
      </trkpt>
      <trkpt lat="44.00108" lon="5.13565">
        <ele>249.12</ele>
        <time>2015-12-21T14:39:41Z</time>
      </trkpt>
      <trkpt lat="44.00109" lon="5.13564">
        <ele>248.64</ele>
        <time>2015-12-21T14:39:46Z</time>
      </trkpt>
      <trkpt lat="44.0011" lon="5.13562">
        <ele>248.64</ele>
        <time>2015-12-21T14:39:47Z</time>
      </trkpt>
      <trkpt lat="44.00112" lon="5.13559">
        <ele>248.64</ele>
        <time>2015-12-21T14:39:48Z</time>
      </trkpt>
      <trkpt lat="44.00114" lon="5.13556">
        <ele>248.16</ele>
        <time>2015-12-21T14:39:49Z</time>
      </trkpt>
      <trkpt lat="44.00117" lon="5.13553">
        <ele>247.68</ele>
        <time>2015-12-21T14:39:50Z</time>
      </trkpt>
      <trkpt lat="44.00128" lon="5.13528">
        <ele>247.68</ele>
        <time>2015-12-21T14:39:55Z</time>
      </trkpt>
      <trkpt lat="44.00143" lon="5.13474">
        <ele>246.72</ele>
        <time>2015-12-21T14:40:02Z</time>
      </trkpt>
      <trkpt lat="44.00151" lon="5.1341">
        <ele>245.27</ele>
        <time>2015-12-21T14:40:09Z</time>
      </trkpt>
      <trkpt lat="44.0016" lon="5.13341">
        <ele>242.87</ele>
        <time>2015-12-21T14:40:16Z</time>
      </trkpt>
      <trkpt lat="44.00162" lon="5.13331">
        <ele>242.87</ele>
        <time>2015-12-21T14:40:17Z</time>
      </trkpt>
      <trkpt lat="44.00165" lon="5.13322">
        <ele>242.87</ele>
        <time>2015-12-21T14:40:18Z</time>
      </trkpt>
      <trkpt lat="44.00168" lon="5.13315">
        <ele>242.87</ele>
        <time>2015-12-21T14:40:19Z</time>
      </trkpt>
      <trkpt lat="44.00172" lon="5.13309">
        <ele>243.35</ele>
        <time>2015-12-21T14:40:20Z</time>
      </trkpt>
      <trkpt lat="44.00176" lon="5.13304">
        <ele>242.87</ele>
        <time>2015-12-21T14:40:21Z</time>
      </trkpt>
      <trkpt lat="44.00181" lon="5.133">
        <ele>242.87</ele>
        <time>2015-12-21T14:40:22Z</time>
      </trkpt>
      <trkpt lat="44.00185" lon="5.13295">
        <ele>242.39</ele>
        <time>2015-12-21T14:40:23Z</time>
      </trkpt>
      <trkpt lat="44.00189" lon="5.13288">
        <ele>242.39</ele>
        <time>2015-12-21T14:40:24Z</time>
      </trkpt>
      <trkpt lat="44.00191" lon="5.13281">
        <ele>241.91</ele>
        <time>2015-12-21T14:40:25Z</time>
      </trkpt>
      <trkpt lat="44.00193" lon="5.13273">
        <ele>241.91</ele>
        <time>2015-12-21T14:40:26Z</time>
      </trkpt>
      <trkpt lat="44.00195" lon="5.13265">
        <ele>241.43</ele>
        <time>2015-12-21T14:40:27Z</time>
      </trkpt>
      <trkpt lat="44.00204" lon="5.13214">
        <ele>239.99</ele>
        <time>2015-12-21T14:40:33Z</time>
      </trkpt>
      <trkpt lat="44.00206" lon="5.13206">
        <ele>239.99</ele>
        <time>2015-12-21T14:40:34Z</time>
      </trkpt>
      <trkpt lat="44.0023" lon="5.13141">
        <ele>239.02</ele>
        <time>2015-12-21T14:40:42Z</time>
      </trkpt>
      <trkpt lat="44.0026" lon="5.13084">
        <ele>238.06</ele>
        <time>2015-12-21T14:40:50Z</time>
      </trkpt>
      <trkpt lat="44.00293" lon="5.13025">
        <ele>238.54</ele>
        <time>2015-12-21T14:40:58Z</time>
      </trkpt>
      <trkpt lat="44.00316" lon="5.12962">
        <ele>238.06</ele>
        <time>2015-12-21T14:41:06Z</time>
      </trkpt>
      <trkpt lat="44.0032" lon="5.12948">
        <ele>238.54</ele>
        <time>2015-12-21T14:41:08Z</time>
      </trkpt>
      <trkpt lat="44.00323" lon="5.12942">
        <ele>238.54</ele>
        <time>2015-12-21T14:41:09Z</time>
      </trkpt>
      <trkpt lat="44.00326" lon="5.12936">
        <ele>238.54</ele>
        <time>2015-12-21T14:41:10Z</time>
      </trkpt>
      <trkpt lat="44.0033" lon="5.12931">
        <ele>239.02</ele>
        <time>2015-12-21T14:41:11Z</time>
      </trkpt>
      <trkpt lat="44.00334" lon="5.12927">
        <ele>239.02</ele>
        <time>2015-12-21T14:41:12Z</time>
      </trkpt>
      <trkpt lat="44.00338" lon="5.12924">
        <ele>238.54</ele>
        <time>2015-12-21T14:41:13Z</time>
      </trkpt>
      <trkpt lat="44.00343" lon="5.12922">
        <ele>238.54</ele>
        <time>2015-12-21T14:41:14Z</time>
      </trkpt>
      <trkpt lat="44.00348" lon="5.1292">
        <ele>237.58</ele>
        <time>2015-12-21T14:41:15Z</time>
      </trkpt>
      <trkpt lat="44.00353" lon="5.12919">
        <ele>237.1</ele>
        <time>2015-12-21T14:41:16Z</time>
      </trkpt>
      <trkpt lat="44.00358" lon="5.12917">
        <ele>236.62</ele>
        <time>2015-12-21T14:41:17Z</time>
      </trkpt>
      <trkpt lat="44.00363" lon="5.12915">
        <ele>237.58</ele>
        <time>2015-12-21T14:41:18Z</time>
      </trkpt>
      <trkpt lat="44.00369" lon="5.12911">
        <ele>237.58</ele>
        <time>2015-12-21T14:41:19Z</time>
      </trkpt>
      <trkpt lat="44.00374" lon="5.12906">
        <ele>237.58</ele>
        <time>2015-12-21T14:41:20Z</time>
      </trkpt>
      <trkpt lat="44.00379" lon="5.129">
        <ele>237.1</ele>
        <time>2015-12-21T14:41:21Z</time>
      </trkpt>
      <trkpt lat="44.00383" lon="5.12893">
        <ele>236.62</ele>
        <time>2015-12-21T14:41:22Z</time>
      </trkpt>
      <trkpt lat="44.00387" lon="5.12885">
        <ele>236.14</ele>
        <time>2015-12-21T14:41:23Z</time>
      </trkpt>
      <trkpt lat="44.0039" lon="5.12877">
        <ele>236.14</ele>
        <time>2015-12-21T14:41:24Z</time>
      </trkpt>
      <trkpt lat="44.00393" lon="5.12868">
        <ele>235.66</ele>
        <time>2015-12-21T14:41:25Z</time>
      </trkpt>
      <trkpt lat="44.00395" lon="5.12859">
        <ele>235.18</ele>
        <time>2015-12-21T14:41:26Z</time>
      </trkpt>
      <trkpt lat="44.00413" lon="5.12799">
        <ele>231.33</ele>
        <time>2015-12-21T14:41:31Z</time>
      </trkpt>
      <trkpt lat="44.00433" lon="5.1273">
        <ele>228.93</ele>
        <time>2015-12-21T14:41:36Z</time>
      </trkpt>
      <trkpt lat="44.00441" lon="5.12699">
        <ele>225.57</ele>
        <time>2015-12-21T14:41:38Z</time>
      </trkpt>
      <trkpt lat="44.00458" lon="5.12633">
        <ele>222.2</ele>
        <time>2015-12-21T14:41:42Z</time>
      </trkpt>
      <trkpt lat="44.00464" lon="5.12617">
        <ele>220.76</ele>
        <time>2015-12-21T14:41:43Z</time>
      </trkpt>
      <trkpt lat="44.00476" lon="5.12586">
        <ele>219.8</ele>
        <time>2015-12-21T14:41:45Z</time>
      </trkpt>
      <trkpt lat="44.00482" lon="5.12571">
        <ele>217.4</ele>
        <time>2015-12-21T14:41:46Z</time>
      </trkpt>
      <trkpt lat="44.00489" lon="5.12557">
        <ele>215.95</ele>
        <time>2015-12-21T14:41:47Z</time>
      </trkpt>
      <trkpt lat="44.00497" lon="5.12545">
        <ele>214.99</ele>
        <time>2015-12-21T14:41:48Z</time>
      </trkpt>
      <trkpt lat="44.00505" lon="5.12534">
        <ele>214.51</ele>
        <time>2015-12-21T14:41:49Z</time>
      </trkpt>
      <trkpt lat="44.00539" lon="5.12496">
        <ele>211.15</ele>
        <time>2015-12-21T14:41:53Z</time>
      </trkpt>
      <trkpt lat="44.00575" lon="5.12457">
        <ele>207.78</ele>
        <time>2015-12-21T14:41:57Z</time>
      </trkpt>
      <trkpt lat="44.00593" lon="5.12439">
        <ele>206.82</ele>
        <time>2015-12-21T14:41:59Z</time>
      </trkpt>
      <trkpt lat="44.00604" lon="5.12432">
        <ele>205.86</ele>
        <time>2015-12-21T14:42:00Z</time>
      </trkpt>
      <trkpt lat="44.00622" lon="5.12418">
        <ele>202.98</ele>
        <time>2015-12-21T14:42:02Z</time>
      </trkpt>
      <trkpt lat="44.00657" lon="5.12387">
        <ele>198.65</ele>
        <time>2015-12-21T14:42:06Z</time>
      </trkpt>
      <trkpt lat="44.00687" lon="5.12361">
        <ele>195.28</ele>
        <time>2015-12-21T14:42:09Z</time>
      </trkpt>
      <trkpt lat="44.00707" lon="5.1234">
        <ele>194.32</ele>
        <time>2015-12-21T14:42:11Z</time>
      </trkpt>
      <trkpt lat="44.00724" lon="5.12322">
        <ele>190</ele>
        <time>2015-12-21T14:42:13Z</time>
      </trkpt>
      <trkpt lat="44.00741" lon="5.12304">
        <ele>186.15</ele>
        <time>2015-12-21T14:42:16Z</time>
      </trkpt>
      <trkpt lat="44.00744" lon="5.12302">
        <ele>185.19</ele>
        <time>2015-12-21T14:42:17Z</time>
      </trkpt>
      <trkpt lat="44.00746" lon="5.123">
        <ele>184.71</ele>
        <time>2015-12-21T14:42:18Z</time>
      </trkpt>
      <trkpt lat="44.00748" lon="5.12299">
        <ele>184.71</ele>
        <time>2015-12-21T14:42:19Z</time>
      </trkpt>
      <trkpt lat="44.0075" lon="5.12297">
        <ele>184.71</ele>
        <time>2015-12-21T14:42:20Z</time>
      </trkpt>
      <trkpt lat="44.0075" lon="5.12294">
        <ele>184.23</ele>
        <time>2015-12-21T14:42:21Z</time>
      </trkpt>
      <trkpt lat="44.0075" lon="5.12291">
        <ele>184.23</ele>
        <time>2015-12-21T14:42:22Z</time>
      </trkpt>
      <trkpt lat="44.00748" lon="5.12286">
        <ele>184.23</ele>
        <time>2015-12-21T14:42:23Z</time>
      </trkpt>
      <trkpt lat="44.00747" lon="5.1228">
        <ele>184.23</ele>
        <time>2015-12-21T14:42:24Z</time>
      </trkpt>
      <trkpt lat="44.00745" lon="5.12274">
        <ele>183.75</ele>
        <time>2015-12-21T14:42:25Z</time>
      </trkpt>
      <trkpt lat="44.00739" lon="5.12231">
        <ele>181.83</ele>
        <time>2015-12-21T14:42:30Z</time>
      </trkpt>
      <trkpt lat="44.00723" lon="5.12154">
        <ele>182.31</ele>
        <time>2015-12-21T14:42:38Z</time>
      </trkpt>
      <trkpt lat="44.00706" lon="5.12071">
        <ele>182.31</ele>
        <time>2015-12-21T14:42:47Z</time>
      </trkpt>
      <trkpt lat="44.00687" lon="5.12002">
        <ele>181.83</ele>
        <time>2015-12-21T14:42:56Z</time>
      </trkpt>
      <trkpt lat="44.00684" lon="5.11986">
        <ele>180.87</ele>
        <time>2015-12-21T14:42:58Z</time>
      </trkpt>
      <trkpt lat="44.00686" lon="5.1198">
        <ele>180.87</ele>
        <time>2015-12-21T14:42:59Z</time>
      </trkpt>
      <trkpt lat="44.0069" lon="5.11975">
        <ele>181.35</ele>
        <time>2015-12-21T14:43:00Z</time>
      </trkpt>
      <trkpt lat="44.00718" lon="5.11951">
        <ele>182.31</ele>
        <time>2015-12-21T14:43:07Z</time>
      </trkpt>
      <trkpt lat="44.00749" lon="5.11919">
        <ele>183.75</ele>
        <time>2015-12-21T14:43:16Z</time>
      </trkpt>
      <trkpt lat="44.00772" lon="5.11894">
        <ele>184.23</ele>
        <time>2015-12-21T14:43:23Z</time>
      </trkpt>
      <trkpt lat="44.00799" lon="5.11866">
        <ele>184.23</ele>
        <time>2015-12-21T14:43:31Z</time>
      </trkpt>
      <trkpt lat="44.00803" lon="5.11859">
        <ele>184.23</ele>
        <time>2015-12-21T14:43:33Z</time>
      </trkpt>
      <trkpt lat="44.00801" lon="5.11858">
        <ele>183.27</ele>
        <time>2015-12-21T14:43:38Z</time>
      </trkpt>
      <trkpt lat="44.00802" lon="5.11859">
        <ele>184.23</ele>
        <time>2015-12-21T14:43:49Z</time>
      </trkpt>
      <trkpt lat="44.00802" lon="5.1186">
        <ele>182.79</ele>
        <time>2015-12-21T14:43:59Z</time>
      </trkpt>
      <trkpt lat="44.00803" lon="5.1186">
        <ele>183.27</ele>
        <time>2015-12-21T14:44:11Z</time>
      </trkpt>
      <trkpt lat="44.00803" lon="5.1186">
        <ele>176.06</ele>
        <time>2015-12-21T14:44:21Z</time>
      </trkpt>
      <trkpt lat="44.00803" lon="5.1186">
        <ele>190</ele>
        <time>2015-12-21T14:44:22Z</time>
      </trkpt>
      <trkpt lat="44.00803" lon="5.1186">
        <ele>181.83</ele>
        <time>2015-12-21T14:44:23Z</time>
      </trkpt>
      <trkpt lat="44.00803" lon="5.1186">
        <ele>185.19</ele>
        <time>2015-12-21T14:44:24Z</time>
      </trkpt>
      <trkpt lat="44.00803" lon="5.1186">
        <ele>181.35</ele>
        <time>2015-12-21T14:44:27Z</time>
      </trkpt>
      <trkpt lat="44.00803" lon="5.1186">
        <ele>184.71</ele>
        <time>2015-12-21T14:44:30Z</time>
      </trkpt>
      <trkpt lat="44.00803" lon="5.11862">
        <ele>183.27</ele>
        <time>2015-12-21T14:44:35Z</time>
      </trkpt>
      <trkpt lat="44.00802" lon="5.11862">
        <ele>183.75</ele>
        <time>2015-12-21T14:44:41Z</time>
      </trkpt>
      <trkpt lat="44.00802" lon="5.11861">
        <ele>183.27</ele>
        <time>2015-12-21T14:44:47Z</time>
      </trkpt>
    </trkseg>
  </trk>
</gpx>